<?xml version="1.0" encoding="UTF-8" standalone="no" ?>
<gpx xmlns="http://www.topografix.com/GPX/1/1" xmlns:xsi="http://www.w3.org/2001/XMLSchema-instance" xsi:schemaLocation="http://www.topografix.com/GPX/1/1 http://www.topografix.com/GPX/1/1/gpx.xsd" version="1.1" creator="VisuGPX - https://www.visugpx.com">
  <metadata>
    <name>Velo_Rando_2013_E1_Lyon-St-Genest</name>
    <desc><![CDATA[[b]Velo_Rando_2013_E1_Lyon-St-Genest[/b]]]></desc>
  </metadata>
  <trk>
    <name><![CDATA[2013-05-26 09:48]]></name>
    <desc><![CDATA[<h1>OruxMaps</h1><br /><hr align="center" width="480" style="height: 2px; width: 517px"/><h2>Nom: 2013-05-26 09:48</h2><br /><p>Temps de départ: 05/26/2013 09:48</p><p>Temps d'arrivée: 05/26/2013 17:50</p><p>Distance: 83,8 km (08:00)</p><p>Temps déplacement: 07:08</p><p>Vitesse moyenne: 10,5 km/h</p><p>Vitesse moyenne: 11,7 km/h</p><p>Vitess Max.: 45,1 km/h</p><p>Altitude minimale: 211 m</p><p>Altitude maximale: 1112 m</p><p>Vitesse d'élévation: 419 m/h</p><p>Vitesse de descente: -691,4 m/h</p><p>Gain Altitude: 1817 m</p><p>Perte Altitude: -1106 m</p><p>Temps d'élévation: 04:20</p><p>Temps de descente: 01:36</p><hr align="center" width="480" style="height: 2px; width: 517px"/>]]></desc>
    <trkseg>
      <trkpt lat="45.74367" lon="4.84717">
        <ele>236.6</ele>
        <time>2013-05-26T07:49:35Z</time>
      </trkpt>
      <trkpt lat="45.74374" lon="4.84691">
        <ele>224.04927</ele>
        <time>2013-05-26T07:49:59Z</time>
      </trkpt>
      <trkpt lat="45.74381" lon="4.84662">
        <ele>224.12407</ele>
        <time>2013-05-26T07:50:07Z</time>
      </trkpt>
      <trkpt lat="45.7439" lon="4.84636">
        <ele>223.31001</ele>
        <time>2013-05-26T07:50:12Z</time>
      </trkpt>
      <trkpt lat="45.74399" lon="4.84609">
        <ele>221.82942</ele>
        <time>2013-05-26T07:50:18Z</time>
      </trkpt>
      <trkpt lat="45.74406" lon="4.84583">
        <ele>224.64659</ele>
        <time>2013-05-26T07:50:24Z</time>
      </trkpt>
      <trkpt lat="45.74411" lon="4.84557">
        <ele>229.84102</ele>
        <time>2013-05-26T07:51:15Z</time>
      </trkpt>
      <trkpt lat="45.7442" lon="4.84534">
        <ele>228.78024</ele>
        <time>2013-05-26T07:51:21Z</time>
      </trkpt>
      <trkpt lat="45.74428" lon="4.84506">
        <ele>228.51582</ele>
        <time>2013-05-26T07:51:27Z</time>
      </trkpt>
      <trkpt lat="45.74436" lon="4.84478">
        <ele>228.2316</ele>
        <time>2013-05-26T07:51:33Z</time>
      </trkpt>
      <trkpt lat="45.74446" lon="4.84456">
        <ele>226.04427</ele>
        <time>2013-05-26T07:51:57Z</time>
      </trkpt>
      <trkpt lat="45.74454" lon="4.84431">
        <ele>226.20718</ele>
        <time>2013-05-26T07:52:02Z</time>
      </trkpt>
      <trkpt lat="45.74463" lon="4.84407">
        <ele>224.26332</ele>
        <time>2013-05-26T07:52:07Z</time>
      </trkpt>
      <trkpt lat="45.74471" lon="4.84382">
        <ele>222.81915</ele>
        <time>2013-05-26T07:52:13Z</time>
      </trkpt>
      <trkpt lat="45.7448" lon="4.84356">
        <ele>223.02954</ele>
        <time>2013-05-26T07:52:18Z</time>
      </trkpt>
      <trkpt lat="45.7449" lon="4.8433">
        <ele>222.87585</ele>
        <time>2013-05-26T07:52:23Z</time>
      </trkpt>
      <trkpt lat="45.74498" lon="4.84305">
        <ele>222.05247</ele>
        <time>2013-05-26T07:52:28Z</time>
      </trkpt>
      <trkpt lat="45.74505" lon="4.84282">
        <ele>221.87875</ele>
        <time>2013-05-26T07:52:33Z</time>
      </trkpt>
      <trkpt lat="45.74513" lon="4.84255">
        <ele>222.73598</ele>
        <time>2013-05-26T07:52:38Z</time>
      </trkpt>
      <trkpt lat="45.74521" lon="4.84228">
        <ele>223.80951</ele>
        <time>2013-05-26T07:52:43Z</time>
      </trkpt>
      <trkpt lat="45.7453" lon="4.84203">
        <ele>224.41544</ele>
        <time>2013-05-26T07:52:48Z</time>
      </trkpt>
      <trkpt lat="45.74536" lon="4.84177">
        <ele>223.8172</ele>
        <time>2013-05-26T07:52:56Z</time>
      </trkpt>
      <trkpt lat="45.74545" lon="4.84153">
        <ele>223.03285</ele>
        <time>2013-05-26T07:53:02Z</time>
      </trkpt>
      <trkpt lat="45.74553" lon="4.84128">
        <ele>222.83133</ele>
        <time>2013-05-26T07:53:07Z</time>
      </trkpt>
      <trkpt lat="45.74562" lon="4.84101">
        <ele>223.26418</ele>
        <time>2013-05-26T07:53:12Z</time>
      </trkpt>
      <trkpt lat="45.74571" lon="4.84074">
        <ele>223.26299</ele>
        <time>2013-05-26T07:53:17Z</time>
      </trkpt>
      <trkpt lat="45.7458" lon="4.84047">
        <ele>223.48741</ele>
        <time>2013-05-26T07:53:22Z</time>
      </trkpt>
      <trkpt lat="45.74589" lon="4.84021">
        <ele>223.064</ele>
        <time>2013-05-26T07:53:27Z</time>
      </trkpt>
      <trkpt lat="45.74597" lon="4.83998">
        <ele>224.20767</ele>
        <time>2013-05-26T07:53:32Z</time>
      </trkpt>
      <trkpt lat="45.74604" lon="4.83972">
        <ele>223.81345</ele>
        <time>2013-05-26T07:53:38Z</time>
      </trkpt>
      <trkpt lat="45.74612" lon="4.83944">
        <ele>223.62074</ele>
        <time>2013-05-26T07:53:45Z</time>
      </trkpt>
      <trkpt lat="45.7462" lon="4.83919">
        <ele>224.1098</ele>
        <time>2013-05-26T07:53:50Z</time>
      </trkpt>
      <trkpt lat="45.74629" lon="4.83893">
        <ele>223.92752</ele>
        <time>2013-05-26T07:53:55Z</time>
      </trkpt>
      <trkpt lat="45.74637" lon="4.83866">
        <ele>223.82576</ele>
        <time>2013-05-26T07:54:00Z</time>
      </trkpt>
      <trkpt lat="45.74645" lon="4.83843">
        <ele>223.98326</ele>
        <time>2013-05-26T07:54:05Z</time>
      </trkpt>
      <trkpt lat="45.74653" lon="4.8382">
        <ele>226.1896</ele>
        <time>2013-05-26T07:54:11Z</time>
      </trkpt>
      <trkpt lat="45.74661" lon="4.83796">
        <ele>230.04012</ele>
        <time>2013-05-26T07:54:16Z</time>
      </trkpt>
      <trkpt lat="45.7467" lon="4.8377">
        <ele>230.99467</ele>
        <time>2013-05-26T07:54:21Z</time>
      </trkpt>
      <trkpt lat="45.74677" lon="4.83746">
        <ele>228.8012</ele>
        <time>2013-05-26T07:54:28Z</time>
      </trkpt>
      <trkpt lat="45.74684" lon="4.8372">
        <ele>227.37762</ele>
        <time>2013-05-26T07:54:37Z</time>
      </trkpt>
      <trkpt lat="45.74687" lon="4.83692">
        <ele>229.94987</ele>
        <time>2013-05-26T07:54:43Z</time>
      </trkpt>
      <trkpt lat="45.74697" lon="4.83669">
        <ele>228.33673</ele>
        <time>2013-05-26T07:54:49Z</time>
      </trkpt>
      <trkpt lat="45.74707" lon="4.83644">
        <ele>227.3635</ele>
        <time>2013-05-26T07:54:54Z</time>
      </trkpt>
      <trkpt lat="45.74717" lon="4.83618">
        <ele>226.88733</ele>
        <time>2013-05-26T07:54:59Z</time>
      </trkpt>
      <trkpt lat="45.74725" lon="4.8359">
        <ele>226.58655</ele>
        <time>2013-05-26T07:55:04Z</time>
      </trkpt>
      <trkpt lat="45.74733" lon="4.83563">
        <ele>226.4161</ele>
        <time>2013-05-26T07:55:11Z</time>
      </trkpt>
      <trkpt lat="45.74744" lon="4.83541">
        <ele>223.72589</ele>
        <time>2013-05-26T07:55:16Z</time>
      </trkpt>
      <trkpt lat="45.74753" lon="4.83515">
        <ele>222.08603</ele>
        <time>2013-05-26T07:55:21Z</time>
      </trkpt>
      <trkpt lat="45.74763" lon="4.8349">
        <ele>220.25955</ele>
        <time>2013-05-26T07:55:27Z</time>
      </trkpt>
      <trkpt lat="45.74774" lon="4.83465">
        <ele>221.42244</ele>
        <time>2013-05-26T07:55:33Z</time>
      </trkpt>
      <trkpt lat="45.74781" lon="4.83437">
        <ele>223.97443</ele>
        <time>2013-05-26T07:55:39Z</time>
      </trkpt>
      <trkpt lat="45.74787" lon="4.8341">
        <ele>227.00862</ele>
        <time>2013-05-26T07:55:48Z</time>
      </trkpt>
      <trkpt lat="45.74791" lon="4.83382">
        <ele>228.41136</ele>
        <time>2013-05-26T07:55:56Z</time>
      </trkpt>
      <trkpt lat="45.74808" lon="4.83374">
        <ele>224.36713</ele>
        <time>2013-05-26T07:56:50Z</time>
      </trkpt>
      <trkpt lat="45.74808" lon="4.83348">
        <ele>223.81233</ele>
        <time>2013-05-26T07:56:56Z</time>
      </trkpt>
      <trkpt lat="45.74812" lon="4.83319">
        <ele>223.39522</ele>
        <time>2013-05-26T07:57:02Z</time>
      </trkpt>
      <trkpt lat="45.7482" lon="4.83296">
        <ele>224.51938</ele>
        <time>2013-05-26T07:57:07Z</time>
      </trkpt>
      <trkpt lat="45.74827" lon="4.83272">
        <ele>225.76788</ele>
        <time>2013-05-26T07:57:12Z</time>
      </trkpt>
      <trkpt lat="45.74836" lon="4.83244">
        <ele>225.7459</ele>
        <time>2013-05-26T07:57:18Z</time>
      </trkpt>
      <trkpt lat="45.74843" lon="4.83219">
        <ele>225.97592</ele>
        <time>2013-05-26T07:57:23Z</time>
      </trkpt>
      <trkpt lat="45.7485" lon="4.83193">
        <ele>225.93999</ele>
        <time>2013-05-26T07:57:28Z</time>
      </trkpt>
      <trkpt lat="45.74859" lon="4.83167">
        <ele>225.73293</ele>
        <time>2013-05-26T07:57:33Z</time>
      </trkpt>
      <trkpt lat="45.74868" lon="4.83139">
        <ele>225.30342</ele>
        <time>2013-05-26T07:57:38Z</time>
      </trkpt>
      <trkpt lat="45.74878" lon="4.83111">
        <ele>224.86613</ele>
        <time>2013-05-26T07:57:43Z</time>
      </trkpt>
      <trkpt lat="45.74888" lon="4.83083">
        <ele>224.17693</ele>
        <time>2013-05-26T07:57:48Z</time>
      </trkpt>
      <trkpt lat="45.74896" lon="4.83056">
        <ele>223.64192</ele>
        <time>2013-05-26T07:57:52Z</time>
      </trkpt>
      <trkpt lat="45.74904" lon="4.83029">
        <ele>223.07263</ele>
        <time>2013-05-26T07:57:56Z</time>
      </trkpt>
      <trkpt lat="45.74912" lon="4.83002">
        <ele>222.68001</ele>
        <time>2013-05-26T07:58:00Z</time>
      </trkpt>
      <trkpt lat="45.74922" lon="4.82974">
        <ele>221.41594</ele>
        <time>2013-05-26T07:58:04Z</time>
      </trkpt>
      <trkpt lat="45.74931" lon="4.82947">
        <ele>220.37807</ele>
        <time>2013-05-26T07:58:10Z</time>
      </trkpt>
      <trkpt lat="45.74938" lon="4.82921">
        <ele>220.6982</ele>
        <time>2013-05-26T07:58:18Z</time>
      </trkpt>
      <trkpt lat="45.74945" lon="4.82896">
        <ele>221.1959</ele>
        <time>2013-05-26T07:58:26Z</time>
      </trkpt>
      <trkpt lat="45.74954" lon="4.8287">
        <ele>220.46387</ele>
        <time>2013-05-26T07:58:32Z</time>
      </trkpt>
      <trkpt lat="45.74962" lon="4.82843">
        <ele>220.82541</ele>
        <time>2013-05-26T07:58:38Z</time>
      </trkpt>
      <trkpt lat="45.74969" lon="4.82818">
        <ele>223.61067</ele>
        <time>2013-05-26T07:58:45Z</time>
      </trkpt>
      <trkpt lat="45.74983" lon="4.82801">
        <ele>226.97398</ele>
        <time>2013-05-26T07:58:52Z</time>
      </trkpt>
      <trkpt lat="45.75002" lon="4.82796">
        <ele>228.36629</ele>
        <time>2013-05-26T07:58:57Z</time>
      </trkpt>
      <trkpt lat="45.75019" lon="4.82786">
        <ele>229.04141</ele>
        <time>2013-05-26T07:59:02Z</time>
      </trkpt>
      <trkpt lat="45.75038" lon="4.82791">
        <ele>230.65997</ele>
        <time>2013-05-26T07:59:08Z</time>
      </trkpt>
      <trkpt lat="45.75056" lon="4.82801">
        <ele>228.78436</ele>
        <time>2013-05-26T07:59:14Z</time>
      </trkpt>
      <trkpt lat="45.75078" lon="4.82796">
        <ele>229.741</ele>
        <time>2013-05-26T07:59:20Z</time>
      </trkpt>
      <trkpt lat="45.75098" lon="4.82785">
        <ele>226.76666</ele>
        <time>2013-05-26T07:59:25Z</time>
      </trkpt>
      <trkpt lat="45.75114" lon="4.8277">
        <ele>224.88936</ele>
        <time>2013-05-26T07:59:30Z</time>
      </trkpt>
      <trkpt lat="45.75133" lon="4.82761">
        <ele>227.17886</ele>
        <time>2013-05-26T07:59:36Z</time>
      </trkpt>
      <trkpt lat="45.75153" lon="4.82752">
        <ele>228.45827</ele>
        <time>2013-05-26T07:59:41Z</time>
      </trkpt>
      <trkpt lat="45.75172" lon="4.82741">
        <ele>227.72955</ele>
        <time>2013-05-26T07:59:46Z</time>
      </trkpt>
      <trkpt lat="45.7519" lon="4.82732">
        <ele>222.67722</ele>
        <time>2013-05-26T08:00:18Z</time>
      </trkpt>
      <trkpt lat="45.75201" lon="4.82711">
        <ele>222.52356</ele>
        <time>2013-05-26T08:00:24Z</time>
      </trkpt>
      <trkpt lat="45.7521" lon="4.82682">
        <ele>222.91438</ele>
        <time>2013-05-26T08:00:29Z</time>
      </trkpt>
      <trkpt lat="45.7522" lon="4.82655">
        <ele>224.28252</ele>
        <time>2013-05-26T08:00:34Z</time>
      </trkpt>
      <trkpt lat="45.75226" lon="4.82629">
        <ele>222.8665</ele>
        <time>2013-05-26T08:00:41Z</time>
      </trkpt>
      <trkpt lat="45.75233" lon="4.82604">
        <ele>222.94771</ele>
        <time>2013-05-26T08:00:46Z</time>
      </trkpt>
      <trkpt lat="45.75239" lon="4.82579">
        <ele>224.03346</ele>
        <time>2013-05-26T08:00:50Z</time>
      </trkpt>
      <trkpt lat="45.7525" lon="4.82556">
        <ele>221.78714</ele>
        <time>2013-05-26T08:00:55Z</time>
      </trkpt>
      <trkpt lat="45.75257" lon="4.82529">
        <ele>221.76413</ele>
        <time>2013-05-26T08:01:00Z</time>
      </trkpt>
      <trkpt lat="45.75263" lon="4.82504">
        <ele>220.84863</ele>
        <time>2013-05-26T08:01:08Z</time>
      </trkpt>
      <trkpt lat="45.7527" lon="4.82478">
        <ele>221.12599</ele>
        <time>2013-05-26T08:01:13Z</time>
      </trkpt>
      <trkpt lat="45.75268" lon="4.82452">
        <ele>216.99843</ele>
        <time>2013-05-26T08:01:27Z</time>
      </trkpt>
      <trkpt lat="45.75247" lon="4.82442">
        <ele>216.54144</ele>
        <time>2013-05-26T08:01:34Z</time>
      </trkpt>
      <trkpt lat="45.75228" lon="4.82431">
        <ele>216.79549</ele>
        <time>2013-05-26T08:01:39Z</time>
      </trkpt>
      <trkpt lat="45.75208" lon="4.8242">
        <ele>218.00967</ele>
        <time>2013-05-26T08:01:44Z</time>
      </trkpt>
      <trkpt lat="45.75191" lon="4.82407">
        <ele>219.47206</ele>
        <time>2013-05-26T08:01:50Z</time>
      </trkpt>
      <trkpt lat="45.75175" lon="4.82391">
        <ele>220.42975</ele>
        <time>2013-05-26T08:02:00Z</time>
      </trkpt>
      <trkpt lat="45.75162" lon="4.82373">
        <ele>221.31653</ele>
        <time>2013-05-26T08:02:11Z</time>
      </trkpt>
      <trkpt lat="45.75146" lon="4.82358">
        <ele>221.1713</ele>
        <time>2013-05-26T08:02:17Z</time>
      </trkpt>
      <trkpt lat="45.75131" lon="4.82343">
        <ele>221.32446</ele>
        <time>2013-05-26T08:02:23Z</time>
      </trkpt>
      <trkpt lat="45.7513" lon="4.82316">
        <ele>220.50523</ele>
        <time>2013-05-26T08:02:30Z</time>
      </trkpt>
      <trkpt lat="45.75138" lon="4.82291">
        <ele>220.20564</ele>
        <time>2013-05-26T08:02:36Z</time>
      </trkpt>
      <trkpt lat="45.75147" lon="4.82267">
        <ele>220.84207</ele>
        <time>2013-05-26T08:02:42Z</time>
      </trkpt>
      <trkpt lat="45.75155" lon="4.82238">
        <ele>221.71657</ele>
        <time>2013-05-26T08:02:48Z</time>
      </trkpt>
      <trkpt lat="45.75163" lon="4.82212">
        <ele>222.39944</ele>
        <time>2013-05-26T08:02:53Z</time>
      </trkpt>
      <trkpt lat="45.75172" lon="4.82186">
        <ele>222.04494</ele>
        <time>2013-05-26T08:02:59Z</time>
      </trkpt>
      <trkpt lat="45.75162" lon="4.82165">
        <ele>222.51643</ele>
        <time>2013-05-26T08:03:13Z</time>
      </trkpt>
      <trkpt lat="45.7515" lon="4.82142">
        <ele>223.5527</ele>
        <time>2013-05-26T08:03:21Z</time>
      </trkpt>
      <trkpt lat="45.75138" lon="4.82116">
        <ele>221.38936</ele>
        <time>2013-05-26T08:03:27Z</time>
      </trkpt>
      <trkpt lat="45.75126" lon="4.82088">
        <ele>219.00372</ele>
        <time>2013-05-26T08:03:32Z</time>
      </trkpt>
      <trkpt lat="45.75116" lon="4.82063">
        <ele>220.534</ele>
        <time>2013-05-26T08:03:36Z</time>
      </trkpt>
      <trkpt lat="45.75105" lon="4.82038">
        <ele>224.4437</ele>
        <time>2013-05-26T08:03:42Z</time>
      </trkpt>
      <trkpt lat="45.75094" lon="4.82016">
        <ele>226.17163</ele>
        <time>2013-05-26T08:03:46Z</time>
      </trkpt>
      <trkpt lat="45.75083" lon="4.81994">
        <ele>226.00665</ele>
        <time>2013-05-26T08:03:50Z</time>
      </trkpt>
      <trkpt lat="45.7507" lon="4.81968">
        <ele>224.88605</ele>
        <time>2013-05-26T08:03:55Z</time>
      </trkpt>
      <trkpt lat="45.75059" lon="4.81947">
        <ele>223.41824</ele>
        <time>2013-05-26T08:03:59Z</time>
      </trkpt>
      <trkpt lat="45.7505" lon="4.81925">
        <ele>222.36086</ele>
        <time>2013-05-26T08:04:03Z</time>
      </trkpt>
      <trkpt lat="45.75038" lon="4.81898">
        <ele>222.67235</ele>
        <time>2013-05-26T08:04:08Z</time>
      </trkpt>
      <trkpt lat="45.75025" lon="4.81873">
        <ele>221.71472</ele>
        <time>2013-05-26T08:04:13Z</time>
      </trkpt>
      <trkpt lat="45.75014" lon="4.81849">
        <ele>219.09334</ele>
        <time>2013-05-26T08:04:18Z</time>
      </trkpt>
      <trkpt lat="45.75001" lon="4.81823">
        <ele>219.49548</ele>
        <time>2013-05-26T08:04:23Z</time>
      </trkpt>
      <trkpt lat="45.74989" lon="4.81797">
        <ele>219.81494</ele>
        <time>2013-05-26T08:04:28Z</time>
      </trkpt>
      <trkpt lat="45.74979" lon="4.81774">
        <ele>218.63051</ele>
        <time>2013-05-26T08:04:32Z</time>
      </trkpt>
      <trkpt lat="45.74968" lon="4.81753">
        <ele>219.26472</ele>
        <time>2013-05-26T08:04:36Z</time>
      </trkpt>
      <trkpt lat="45.74956" lon="4.81732">
        <ele>220.1404</ele>
        <time>2013-05-26T08:04:46Z</time>
      </trkpt>
      <trkpt lat="45.7494" lon="4.81711">
        <ele>218.56984</ele>
        <time>2013-05-26T08:04:53Z</time>
      </trkpt>
      <trkpt lat="45.74923" lon="4.81691">
        <ele>217.66774</ele>
        <time>2013-05-26T08:04:58Z</time>
      </trkpt>
      <trkpt lat="45.74906" lon="4.81671">
        <ele>218.09605</ele>
        <time>2013-05-26T08:05:03Z</time>
      </trkpt>
      <trkpt lat="45.74893" lon="4.81653">
        <ele>217.66985</ele>
        <time>2013-05-26T08:05:07Z</time>
      </trkpt>
      <trkpt lat="45.7488" lon="4.81635">
        <ele>217.53812</ele>
        <time>2013-05-26T08:05:11Z</time>
      </trkpt>
      <trkpt lat="45.74866" lon="4.81616">
        <ele>218.64682</ele>
        <time>2013-05-26T08:05:15Z</time>
      </trkpt>
      <trkpt lat="45.74851" lon="4.816">
        <ele>219.28708</ele>
        <time>2013-05-26T08:05:19Z</time>
      </trkpt>
      <trkpt lat="45.74833" lon="4.81581">
        <ele>218.93745</ele>
        <time>2013-05-26T08:05:24Z</time>
      </trkpt>
      <trkpt lat="45.74818" lon="4.81566">
        <ele>218.91302</ele>
        <time>2013-05-26T08:05:28Z</time>
      </trkpt>
      <trkpt lat="45.74803" lon="4.8155">
        <ele>219.25998</ele>
        <time>2013-05-26T08:05:32Z</time>
      </trkpt>
      <trkpt lat="45.74786" lon="4.81536">
        <ele>219.16585</ele>
        <time>2013-05-26T08:05:36Z</time>
      </trkpt>
      <trkpt lat="45.7477" lon="4.81522">
        <ele>218.33607</ele>
        <time>2013-05-26T08:05:40Z</time>
      </trkpt>
      <trkpt lat="45.74754" lon="4.81508">
        <ele>217.86102</ele>
        <time>2013-05-26T08:05:44Z</time>
      </trkpt>
      <trkpt lat="45.74739" lon="4.81494">
        <ele>217.5193</ele>
        <time>2013-05-26T08:05:48Z</time>
      </trkpt>
      <trkpt lat="45.74723" lon="4.8148">
        <ele>217.3147</ele>
        <time>2013-05-26T08:05:52Z</time>
      </trkpt>
      <trkpt lat="45.74704" lon="4.81463">
        <ele>217.30965</ele>
        <time>2013-05-26T08:05:57Z</time>
      </trkpt>
      <trkpt lat="45.74688" lon="4.81449">
        <ele>217.3804</ele>
        <time>2013-05-26T08:06:01Z</time>
      </trkpt>
      <trkpt lat="45.74671" lon="4.81435">
        <ele>217.26059</ele>
        <time>2013-05-26T08:06:05Z</time>
      </trkpt>
      <trkpt lat="45.74655" lon="4.81422">
        <ele>216.97308</ele>
        <time>2013-05-26T08:06:09Z</time>
      </trkpt>
      <trkpt lat="45.74638" lon="4.81408">
        <ele>216.95984</ele>
        <time>2013-05-26T08:06:13Z</time>
      </trkpt>
      <trkpt lat="45.74622" lon="4.81395">
        <ele>217.05214</ele>
        <time>2013-05-26T08:06:17Z</time>
      </trkpt>
      <trkpt lat="45.74605" lon="4.81381">
        <ele>216.70908</ele>
        <time>2013-05-26T08:06:21Z</time>
      </trkpt>
      <trkpt lat="45.74588" lon="4.81369">
        <ele>216.31303</ele>
        <time>2013-05-26T08:06:25Z</time>
      </trkpt>
      <trkpt lat="45.74571" lon="4.81357">
        <ele>216.43459</ele>
        <time>2013-05-26T08:06:29Z</time>
      </trkpt>
      <trkpt lat="45.74553" lon="4.81347">
        <ele>216.54727</ele>
        <time>2013-05-26T08:06:33Z</time>
      </trkpt>
      <trkpt lat="45.74535" lon="4.81338">
        <ele>216.8466</ele>
        <time>2013-05-26T08:06:37Z</time>
      </trkpt>
      <trkpt lat="45.74517" lon="4.81329">
        <ele>217.00302</ele>
        <time>2013-05-26T08:06:41Z</time>
      </trkpt>
      <trkpt lat="45.74498" lon="4.81321">
        <ele>216.93573</ele>
        <time>2013-05-26T08:06:45Z</time>
      </trkpt>
      <trkpt lat="45.7448" lon="4.81314">
        <ele>216.92459</ele>
        <time>2013-05-26T08:06:49Z</time>
      </trkpt>
      <trkpt lat="45.74461" lon="4.81307">
        <ele>217.31871</ele>
        <time>2013-05-26T08:06:53Z</time>
      </trkpt>
      <trkpt lat="45.74443" lon="4.813">
        <ele>217.68326</ele>
        <time>2013-05-26T08:06:57Z</time>
      </trkpt>
      <trkpt lat="45.74424" lon="4.81294">
        <ele>218.08064</ele>
        <time>2013-05-26T08:07:01Z</time>
      </trkpt>
      <trkpt lat="45.74406" lon="4.81289">
        <ele>218.5474</ele>
        <time>2013-05-26T08:07:05Z</time>
      </trkpt>
      <trkpt lat="45.74387" lon="4.81284">
        <ele>218.75874</ele>
        <time>2013-05-26T08:07:09Z</time>
      </trkpt>
      <trkpt lat="45.74369" lon="4.8128">
        <ele>218.80843</ele>
        <time>2013-05-26T08:07:13Z</time>
      </trkpt>
      <trkpt lat="45.74349" lon="4.81275">
        <ele>218.55814</ele>
        <time>2013-05-26T08:07:17Z</time>
      </trkpt>
      <trkpt lat="45.74331" lon="4.81269">
        <ele>218.11446</ele>
        <time>2013-05-26T08:07:29Z</time>
      </trkpt>
      <trkpt lat="45.74313" lon="4.81266">
        <ele>211.28503</ele>
        <time>2013-05-26T08:09:23Z</time>
      </trkpt>
      <trkpt lat="45.74295" lon="4.81263">
        <ele>211.09616</ele>
        <time>2013-05-26T08:09:29Z</time>
      </trkpt>
      <trkpt lat="45.74277" lon="4.81259">
        <ele>211.2066</ele>
        <time>2013-05-26T08:09:34Z</time>
      </trkpt>
      <trkpt lat="45.74256" lon="4.81253">
        <ele>213.97081</ele>
        <time>2013-05-26T08:09:39Z</time>
      </trkpt>
      <trkpt lat="45.74234" lon="4.81248">
        <ele>215.76025</ele>
        <time>2013-05-26T08:09:44Z</time>
      </trkpt>
      <trkpt lat="45.74216" lon="4.81244">
        <ele>216.81985</ele>
        <time>2013-05-26T08:09:48Z</time>
      </trkpt>
      <trkpt lat="45.74199" lon="4.81238">
        <ele>215.33089</ele>
        <time>2013-05-26T08:09:52Z</time>
      </trkpt>
      <trkpt lat="45.7418" lon="4.81231">
        <ele>214.83673</ele>
        <time>2013-05-26T08:09:56Z</time>
      </trkpt>
      <trkpt lat="45.74161" lon="4.81227">
        <ele>214.15225</ele>
        <time>2013-05-26T08:10:00Z</time>
      </trkpt>
      <trkpt lat="45.7414" lon="4.81224">
        <ele>212.1267</ele>
        <time>2013-05-26T08:10:04Z</time>
      </trkpt>
      <trkpt lat="45.74121" lon="4.81222">
        <ele>211.9561</ele>
        <time>2013-05-26T08:10:08Z</time>
      </trkpt>
      <trkpt lat="45.74102" lon="4.81216">
        <ele>211.52751</ele>
        <time>2013-05-26T08:10:12Z</time>
      </trkpt>
      <trkpt lat="45.74083" lon="4.81212">
        <ele>211.08879</ele>
        <time>2013-05-26T08:10:16Z</time>
      </trkpt>
      <trkpt lat="45.74062" lon="4.81209">
        <ele>212.52068</ele>
        <time>2013-05-26T08:10:20Z</time>
      </trkpt>
      <trkpt lat="45.74041" lon="4.81205">
        <ele>213.20381</ele>
        <time>2013-05-26T08:10:24Z</time>
      </trkpt>
      <trkpt lat="45.74019" lon="4.812">
        <ele>214.03636</ele>
        <time>2013-05-26T08:10:28Z</time>
      </trkpt>
      <trkpt lat="45.73999" lon="4.81195">
        <ele>213.65135</ele>
        <time>2013-05-26T08:10:32Z</time>
      </trkpt>
      <trkpt lat="45.73979" lon="4.81192">
        <ele>212.91196</ele>
        <time>2013-05-26T08:10:36Z</time>
      </trkpt>
      <trkpt lat="45.73958" lon="4.81188">
        <ele>212.86862</ele>
        <time>2013-05-26T08:10:40Z</time>
      </trkpt>
      <trkpt lat="45.73938" lon="4.81189">
        <ele>212.77367</ele>
        <time>2013-05-26T08:10:44Z</time>
      </trkpt>
      <trkpt lat="45.73918" lon="4.81186">
        <ele>213.65105</ele>
        <time>2013-05-26T08:10:48Z</time>
      </trkpt>
      <trkpt lat="45.73897" lon="4.81184">
        <ele>215.74623</ele>
        <time>2013-05-26T08:10:52Z</time>
      </trkpt>
      <trkpt lat="45.73875" lon="4.81183">
        <ele>217.09978</ele>
        <time>2013-05-26T08:10:56Z</time>
      </trkpt>
      <trkpt lat="45.73855" lon="4.81182">
        <ele>218.12923</ele>
        <time>2013-05-26T08:11:00Z</time>
      </trkpt>
      <trkpt lat="45.73835" lon="4.81178">
        <ele>218.16628</ele>
        <time>2013-05-26T08:11:04Z</time>
      </trkpt>
      <trkpt lat="45.73815" lon="4.81181">
        <ele>218.54129</ele>
        <time>2013-05-26T08:11:08Z</time>
      </trkpt>
      <trkpt lat="45.73797" lon="4.81181">
        <ele>218.24867</ele>
        <time>2013-05-26T08:11:11Z</time>
      </trkpt>
      <trkpt lat="45.73775" lon="4.81184">
        <ele>216.89821</ele>
        <time>2013-05-26T08:11:15Z</time>
      </trkpt>
      <trkpt lat="45.73755" lon="4.81187">
        <ele>217.46272</ele>
        <time>2013-05-26T08:11:19Z</time>
      </trkpt>
      <trkpt lat="45.73734" lon="4.81187">
        <ele>217.43547</ele>
        <time>2013-05-26T08:11:23Z</time>
      </trkpt>
      <trkpt lat="45.73712" lon="4.8119">
        <ele>216.16045</ele>
        <time>2013-05-26T08:11:27Z</time>
      </trkpt>
      <trkpt lat="45.73692" lon="4.81194">
        <ele>214.68748</ele>
        <time>2013-05-26T08:11:31Z</time>
      </trkpt>
      <trkpt lat="45.73672" lon="4.81201">
        <ele>214.00972</ele>
        <time>2013-05-26T08:11:35Z</time>
      </trkpt>
      <trkpt lat="45.73649" lon="4.81205">
        <ele>214.03276</ele>
        <time>2013-05-26T08:11:39Z</time>
      </trkpt>
      <trkpt lat="45.73629" lon="4.81211">
        <ele>215.16466</ele>
        <time>2013-05-26T08:11:43Z</time>
      </trkpt>
      <trkpt lat="45.73608" lon="4.81216">
        <ele>214.39311</ele>
        <time>2013-05-26T08:11:47Z</time>
      </trkpt>
      <trkpt lat="45.73588" lon="4.81222">
        <ele>214.2861</ele>
        <time>2013-05-26T08:11:51Z</time>
      </trkpt>
      <trkpt lat="45.73566" lon="4.81226">
        <ele>214.91084</ele>
        <time>2013-05-26T08:11:55Z</time>
      </trkpt>
      <trkpt lat="45.73544" lon="4.81233">
        <ele>215.64952</ele>
        <time>2013-05-26T08:11:59Z</time>
      </trkpt>
      <trkpt lat="45.73521" lon="4.81239">
        <ele>216.1434</ele>
        <time>2013-05-26T08:12:03Z</time>
      </trkpt>
      <trkpt lat="45.73502" lon="4.81244">
        <ele>216.73053</ele>
        <time>2013-05-26T08:12:07Z</time>
      </trkpt>
      <trkpt lat="45.73482" lon="4.81249">
        <ele>216.86005</ele>
        <time>2013-05-26T08:12:11Z</time>
      </trkpt>
      <trkpt lat="45.73462" lon="4.81253">
        <ele>216.01393</ele>
        <time>2013-05-26T08:12:15Z</time>
      </trkpt>
      <trkpt lat="45.73441" lon="4.81257">
        <ele>214.86574</ele>
        <time>2013-05-26T08:12:19Z</time>
      </trkpt>
      <trkpt lat="45.73422" lon="4.81261">
        <ele>214.54579</ele>
        <time>2013-05-26T08:12:23Z</time>
      </trkpt>
      <trkpt lat="45.73403" lon="4.81268">
        <ele>215.3852</ele>
        <time>2013-05-26T08:12:27Z</time>
      </trkpt>
      <trkpt lat="45.73383" lon="4.8127">
        <ele>215.6914</ele>
        <time>2013-05-26T08:12:31Z</time>
      </trkpt>
      <trkpt lat="45.73365" lon="4.81276">
        <ele>215.75432</ele>
        <time>2013-05-26T08:12:35Z</time>
      </trkpt>
      <trkpt lat="45.73344" lon="4.81281">
        <ele>216.1996</ele>
        <time>2013-05-26T08:12:39Z</time>
      </trkpt>
      <trkpt lat="45.73324" lon="4.81282">
        <ele>215.58621</ele>
        <time>2013-05-26T08:12:43Z</time>
      </trkpt>
      <trkpt lat="45.73304" lon="4.81286">
        <ele>214.52611</ele>
        <time>2013-05-26T08:12:47Z</time>
      </trkpt>
      <trkpt lat="45.73287" lon="4.81293">
        <ele>215.03912</ele>
        <time>2013-05-26T08:12:51Z</time>
      </trkpt>
      <trkpt lat="45.73269" lon="4.81299">
        <ele>215.39636</ele>
        <time>2013-05-26T08:12:55Z</time>
      </trkpt>
      <trkpt lat="45.7325" lon="4.81304">
        <ele>215.21017</ele>
        <time>2013-05-26T08:12:59Z</time>
      </trkpt>
      <trkpt lat="45.73232" lon="4.81309">
        <ele>217.09189</ele>
        <time>2013-05-26T08:13:03Z</time>
      </trkpt>
      <trkpt lat="45.73212" lon="4.81313">
        <ele>216.6388</ele>
        <time>2013-05-26T08:13:08Z</time>
      </trkpt>
      <trkpt lat="45.73191" lon="4.81321">
        <ele>215.92375</ele>
        <time>2013-05-26T08:13:13Z</time>
      </trkpt>
      <trkpt lat="45.73172" lon="4.81329">
        <ele>215.18533</ele>
        <time>2013-05-26T08:13:18Z</time>
      </trkpt>
      <trkpt lat="45.73153" lon="4.81339">
        <ele>215.7434</ele>
        <time>2013-05-26T08:13:23Z</time>
      </trkpt>
      <trkpt lat="45.73134" lon="4.81348">
        <ele>216.4811</ele>
        <time>2013-05-26T08:13:28Z</time>
      </trkpt>
      <trkpt lat="45.73119" lon="4.81366">
        <ele>217.92334</ele>
        <time>2013-05-26T08:13:33Z</time>
      </trkpt>
      <trkpt lat="45.73108" lon="4.8139">
        <ele>219.49796</ele>
        <time>2013-05-26T08:13:39Z</time>
      </trkpt>
      <trkpt lat="45.73097" lon="4.81414">
        <ele>221.34297</ele>
        <time>2013-05-26T08:13:45Z</time>
      </trkpt>
      <trkpt lat="45.73085" lon="4.81439">
        <ele>223.49481</ele>
        <time>2013-05-26T08:13:51Z</time>
      </trkpt>
      <trkpt lat="45.73072" lon="4.81461">
        <ele>226.27725</ele>
        <time>2013-05-26T08:13:57Z</time>
      </trkpt>
      <trkpt lat="45.73055" lon="4.81476">
        <ele>227.42761</ele>
        <time>2013-05-26T08:14:03Z</time>
      </trkpt>
      <trkpt lat="45.73037" lon="4.81494">
        <ele>226.85011</ele>
        <time>2013-05-26T08:14:08Z</time>
      </trkpt>
      <trkpt lat="45.73014" lon="4.81504">
        <ele>225.86078</ele>
        <time>2013-05-26T08:14:12Z</time>
      </trkpt>
      <trkpt lat="45.72995" lon="4.81509">
        <ele>224.57095</ele>
        <time>2013-05-26T08:14:15Z</time>
      </trkpt>
      <trkpt lat="45.72976" lon="4.81518">
        <ele>222.57524</ele>
        <time>2013-05-26T08:14:18Z</time>
      </trkpt>
      <trkpt lat="45.72958" lon="4.8152">
        <ele>221.22127</ele>
        <time>2013-05-26T08:14:23Z</time>
      </trkpt>
      <trkpt lat="45.72941" lon="4.81531">
        <ele>221.30994</ele>
        <time>2013-05-26T08:14:28Z</time>
      </trkpt>
      <trkpt lat="45.7292" lon="4.81538">
        <ele>222.3915</ele>
        <time>2013-05-26T08:14:34Z</time>
      </trkpt>
      <trkpt lat="45.72902" lon="4.81545">
        <ele>223.19514</ele>
        <time>2013-05-26T08:14:39Z</time>
      </trkpt>
      <trkpt lat="45.72884" lon="4.81551">
        <ele>224.58879</ele>
        <time>2013-05-26T08:14:44Z</time>
      </trkpt>
      <trkpt lat="45.72866" lon="4.81556">
        <ele>225.5615</ele>
        <time>2013-05-26T08:14:49Z</time>
      </trkpt>
      <trkpt lat="45.72848" lon="4.81551">
        <ele>226.62738</ele>
        <time>2013-05-26T08:14:54Z</time>
      </trkpt>
      <trkpt lat="45.72831" lon="4.8154">
        <ele>226.82076</ele>
        <time>2013-05-26T08:14:59Z</time>
      </trkpt>
      <trkpt lat="45.72814" lon="4.8153">
        <ele>226.84096</ele>
        <time>2013-05-26T08:15:04Z</time>
      </trkpt>
      <trkpt lat="45.72796" lon="4.8152">
        <ele>227.36792</ele>
        <time>2013-05-26T08:15:09Z</time>
      </trkpt>
      <trkpt lat="45.72779" lon="4.8151">
        <ele>228.10245</ele>
        <time>2013-05-26T08:15:14Z</time>
      </trkpt>
      <trkpt lat="45.72761" lon="4.81501">
        <ele>228.54697</ele>
        <time>2013-05-26T08:15:19Z</time>
      </trkpt>
      <trkpt lat="45.72744" lon="4.81492">
        <ele>228.94884</ele>
        <time>2013-05-26T08:15:24Z</time>
      </trkpt>
      <trkpt lat="45.72726" lon="4.81482">
        <ele>229.54108</ele>
        <time>2013-05-26T08:15:29Z</time>
      </trkpt>
      <trkpt lat="45.72708" lon="4.81473">
        <ele>230.44392</ele>
        <time>2013-05-26T08:15:34Z</time>
      </trkpt>
      <trkpt lat="45.7269" lon="4.81463">
        <ele>230.53142</ele>
        <time>2013-05-26T08:15:39Z</time>
      </trkpt>
      <trkpt lat="45.72673" lon="4.81453">
        <ele>229.73372</ele>
        <time>2013-05-26T08:15:44Z</time>
      </trkpt>
      <trkpt lat="45.72655" lon="4.81443">
        <ele>230.52324</ele>
        <time>2013-05-26T08:15:49Z</time>
      </trkpt>
      <trkpt lat="45.72637" lon="4.81434">
        <ele>231.72505</ele>
        <time>2013-05-26T08:15:54Z</time>
      </trkpt>
      <trkpt lat="45.72617" lon="4.81424">
        <ele>232.99623</ele>
        <time>2013-05-26T08:16:00Z</time>
      </trkpt>
      <trkpt lat="45.726" lon="4.81415">
        <ele>235.67351</ele>
        <time>2013-05-26T08:16:23Z</time>
      </trkpt>
      <trkpt lat="45.72581" lon="4.81404">
        <ele>236.29492</ele>
        <time>2013-05-26T08:16:29Z</time>
      </trkpt>
      <trkpt lat="45.72563" lon="4.81394">
        <ele>235.17107</ele>
        <time>2013-05-26T08:16:34Z</time>
      </trkpt>
      <trkpt lat="45.72545" lon="4.81385">
        <ele>234.42126</ele>
        <time>2013-05-26T08:16:39Z</time>
      </trkpt>
      <trkpt lat="45.72527" lon="4.81376">
        <ele>234.71608</ele>
        <time>2013-05-26T08:16:44Z</time>
      </trkpt>
      <trkpt lat="45.72509" lon="4.81367">
        <ele>235.8756</ele>
        <time>2013-05-26T08:16:49Z</time>
      </trkpt>
      <trkpt lat="45.7249" lon="4.81354">
        <ele>235.60417</ele>
        <time>2013-05-26T08:16:54Z</time>
      </trkpt>
      <trkpt lat="45.72474" lon="4.81338">
        <ele>235.56906</ele>
        <time>2013-05-26T08:16:59Z</time>
      </trkpt>
      <trkpt lat="45.7246" lon="4.81321">
        <ele>235.20506</ele>
        <time>2013-05-26T08:17:04Z</time>
      </trkpt>
      <trkpt lat="45.72446" lon="4.81304">
        <ele>235.23929</ele>
        <time>2013-05-26T08:17:09Z</time>
      </trkpt>
      <trkpt lat="45.7243" lon="4.81286">
        <ele>236.0226</ele>
        <time>2013-05-26T08:17:14Z</time>
      </trkpt>
      <trkpt lat="45.72416" lon="4.81269">
        <ele>237.93837</ele>
        <time>2013-05-26T08:17:19Z</time>
      </trkpt>
      <trkpt lat="45.72399" lon="4.81254">
        <ele>241.17464</ele>
        <time>2013-05-26T08:17:24Z</time>
      </trkpt>
      <trkpt lat="45.72382" lon="4.81241">
        <ele>244.03783</ele>
        <time>2013-05-26T08:17:29Z</time>
      </trkpt>
      <trkpt lat="45.72364" lon="4.81227">
        <ele>245.81181</ele>
        <time>2013-05-26T08:17:34Z</time>
      </trkpt>
      <trkpt lat="45.72345" lon="4.81215">
        <ele>244.29118</ele>
        <time>2013-05-26T08:17:39Z</time>
      </trkpt>
      <trkpt lat="45.72327" lon="4.812">
        <ele>240.84058</ele>
        <time>2013-05-26T08:17:44Z</time>
      </trkpt>
      <trkpt lat="45.72309" lon="4.81187">
        <ele>239.71402</ele>
        <time>2013-05-26T08:17:49Z</time>
      </trkpt>
      <trkpt lat="45.72289" lon="4.81179">
        <ele>239.43184</ele>
        <time>2013-05-26T08:17:54Z</time>
      </trkpt>
      <trkpt lat="45.72265" lon="4.8117">
        <ele>239.19249</ele>
        <time>2013-05-26T08:17:59Z</time>
      </trkpt>
      <trkpt lat="45.72246" lon="4.81163">
        <ele>238.79451</ele>
        <time>2013-05-26T08:18:03Z</time>
      </trkpt>
      <trkpt lat="45.72226" lon="4.81154">
        <ele>237.47052</ele>
        <time>2013-05-26T08:18:07Z</time>
      </trkpt>
      <trkpt lat="45.72208" lon="4.81147">
        <ele>236.38794</ele>
        <time>2013-05-26T08:18:11Z</time>
      </trkpt>
      <trkpt lat="45.72189" lon="4.81142">
        <ele>235.04852</ele>
        <time>2013-05-26T08:18:15Z</time>
      </trkpt>
      <trkpt lat="45.72169" lon="4.81136">
        <ele>234.01808</ele>
        <time>2013-05-26T08:18:19Z</time>
      </trkpt>
      <trkpt lat="45.72149" lon="4.81129">
        <ele>232.84987</ele>
        <time>2013-05-26T08:18:23Z</time>
      </trkpt>
      <trkpt lat="45.7213" lon="4.81122">
        <ele>235.1857</ele>
        <time>2013-05-26T08:18:27Z</time>
      </trkpt>
      <trkpt lat="45.7211" lon="4.81112">
        <ele>235.48492</ele>
        <time>2013-05-26T08:18:31Z</time>
      </trkpt>
      <trkpt lat="45.72092" lon="4.81104">
        <ele>237.1253</ele>
        <time>2013-05-26T08:18:35Z</time>
      </trkpt>
      <trkpt lat="45.72073" lon="4.81097">
        <ele>239.3877</ele>
        <time>2013-05-26T08:18:39Z</time>
      </trkpt>
      <trkpt lat="45.72052" lon="4.81091">
        <ele>240.83751</ele>
        <time>2013-05-26T08:18:43Z</time>
      </trkpt>
      <trkpt lat="45.72033" lon="4.81082">
        <ele>241.1127</ele>
        <time>2013-05-26T08:18:46Z</time>
      </trkpt>
      <trkpt lat="45.72013" lon="4.81072">
        <ele>240.88817</ele>
        <time>2013-05-26T08:18:49Z</time>
      </trkpt>
      <trkpt lat="45.71991" lon="4.81065">
        <ele>239.08408</ele>
        <time>2013-05-26T08:18:52Z</time>
      </trkpt>
      <trkpt lat="45.71967" lon="4.81054">
        <ele>237.33391</ele>
        <time>2013-05-26T08:18:55Z</time>
      </trkpt>
      <trkpt lat="45.71944" lon="4.81044">
        <ele>236.61275</ele>
        <time>2013-05-26T08:18:58Z</time>
      </trkpt>
      <trkpt lat="45.71921" lon="4.81034">
        <ele>235.92882</ele>
        <time>2013-05-26T08:19:01Z</time>
      </trkpt>
      <trkpt lat="45.71897" lon="4.81023">
        <ele>234.75278</ele>
        <time>2013-05-26T08:19:04Z</time>
      </trkpt>
      <trkpt lat="45.71877" lon="4.81013">
        <ele>233.16602</ele>
        <time>2013-05-26T08:19:07Z</time>
      </trkpt>
      <trkpt lat="45.71857" lon="4.81003">
        <ele>231.19817</ele>
        <time>2013-05-26T08:19:10Z</time>
      </trkpt>
      <trkpt lat="45.71834" lon="4.80997">
        <ele>229.78828</ele>
        <time>2013-05-26T08:19:13Z</time>
      </trkpt>
      <trkpt lat="45.71812" lon="4.80992">
        <ele>227.8638</ele>
        <time>2013-05-26T08:19:16Z</time>
      </trkpt>
      <trkpt lat="45.7179" lon="4.80983">
        <ele>225.9691</ele>
        <time>2013-05-26T08:19:19Z</time>
      </trkpt>
      <trkpt lat="45.71772" lon="4.80973">
        <ele>224.52448</ele>
        <time>2013-05-26T08:19:22Z</time>
      </trkpt>
      <trkpt lat="45.71762" lon="4.8095">
        <ele>222.38548</ele>
        <time>2013-05-26T08:19:54Z</time>
      </trkpt>
      <trkpt lat="45.71752" lon="4.80928">
        <ele>217.66527</ele>
        <time>2013-05-26T08:20:11Z</time>
      </trkpt>
      <trkpt lat="45.71739" lon="4.8091">
        <ele>218.5265</ele>
        <time>2013-05-26T08:20:15Z</time>
      </trkpt>
      <trkpt lat="45.71722" lon="4.80892">
        <ele>219.98846</ele>
        <time>2013-05-26T08:20:19Z</time>
      </trkpt>
      <trkpt lat="45.71709" lon="4.80873">
        <ele>220.17995</ele>
        <time>2013-05-26T08:20:23Z</time>
      </trkpt>
      <trkpt lat="45.71695" lon="4.80854">
        <ele>219.91866</ele>
        <time>2013-05-26T08:20:27Z</time>
      </trkpt>
      <trkpt lat="45.71686" lon="4.80827">
        <ele>222.09329</ele>
        <time>2013-05-26T08:20:32Z</time>
      </trkpt>
      <trkpt lat="45.71678" lon="4.80803">
        <ele>223.4159</ele>
        <time>2013-05-26T08:20:37Z</time>
      </trkpt>
      <trkpt lat="45.71668" lon="4.80781">
        <ele>223.78433</ele>
        <time>2013-05-26T08:20:42Z</time>
      </trkpt>
      <trkpt lat="45.71657" lon="4.8076">
        <ele>223.6685</ele>
        <time>2013-05-26T08:20:48Z</time>
      </trkpt>
      <trkpt lat="45.71637" lon="4.8077">
        <ele>221.41147</ele>
        <time>2013-05-26T08:20:54Z</time>
      </trkpt>
      <trkpt lat="45.71625" lon="4.8079">
        <ele>226.03168</ele>
        <time>2013-05-26T08:21:03Z</time>
      </trkpt>
      <trkpt lat="45.71611" lon="4.8081">
        <ele>230.60756</ele>
        <time>2013-05-26T08:21:10Z</time>
      </trkpt>
      <trkpt lat="45.71595" lon="4.80826">
        <ele>231.30493</ele>
        <time>2013-05-26T08:21:21Z</time>
      </trkpt>
      <trkpt lat="45.7158" lon="4.80846">
        <ele>232.98956</ele>
        <time>2013-05-26T08:21:28Z</time>
      </trkpt>
      <trkpt lat="45.71563" lon="4.80862">
        <ele>234.97885</ele>
        <time>2013-05-26T08:21:34Z</time>
      </trkpt>
      <trkpt lat="45.71544" lon="4.80857">
        <ele>235.93666</ele>
        <time>2013-05-26T08:21:45Z</time>
      </trkpt>
      <trkpt lat="45.7153" lon="4.80836">
        <ele>234.94893</ele>
        <time>2013-05-26T08:21:52Z</time>
      </trkpt>
      <trkpt lat="45.71517" lon="4.80814">
        <ele>235.26437</ele>
        <time>2013-05-26T08:22:00Z</time>
      </trkpt>
      <trkpt lat="45.71506" lon="4.80793">
        <ele>234.81339</ele>
        <time>2013-05-26T08:22:10Z</time>
      </trkpt>
      <trkpt lat="45.71493" lon="4.80771">
        <ele>234.0779</ele>
        <time>2013-05-26T08:22:30Z</time>
      </trkpt>
      <trkpt lat="45.71479" lon="4.80751">
        <ele>232.88509</ele>
        <time>2013-05-26T08:22:36Z</time>
      </trkpt>
      <trkpt lat="45.71465" lon="4.80729">
        <ele>231.96944</ele>
        <time>2013-05-26T08:23:23Z</time>
      </trkpt>
      <trkpt lat="45.71454" lon="4.80708">
        <ele>232.66568</ele>
        <time>2013-05-26T08:23:29Z</time>
      </trkpt>
      <trkpt lat="45.71436" lon="4.80721">
        <ele>234.31598</ele>
        <time>2013-05-26T08:23:47Z</time>
      </trkpt>
      <trkpt lat="45.7142" lon="4.80738">
        <ele>236.8534</ele>
        <time>2013-05-26T08:23:52Z</time>
      </trkpt>
      <trkpt lat="45.71408" lon="4.80761">
        <ele>235.0816</ele>
        <time>2013-05-26T08:23:58Z</time>
      </trkpt>
      <trkpt lat="45.71393" lon="4.80783">
        <ele>234.27312</ele>
        <time>2013-05-26T08:24:04Z</time>
      </trkpt>
      <trkpt lat="45.71375" lon="4.80785">
        <ele>234.92892</ele>
        <time>2013-05-26T08:24:11Z</time>
      </trkpt>
      <trkpt lat="45.71359" lon="4.80767">
        <ele>237.15663</ele>
        <time>2013-05-26T08:24:17Z</time>
      </trkpt>
      <trkpt lat="45.71343" lon="4.80752">
        <ele>240.64125</ele>
        <time>2013-05-26T08:24:23Z</time>
      </trkpt>
      <trkpt lat="45.71326" lon="4.80737">
        <ele>244.21132</ele>
        <time>2013-05-26T08:24:30Z</time>
      </trkpt>
      <trkpt lat="45.71309" lon="4.80723">
        <ele>249.02675</ele>
        <time>2013-05-26T08:24:36Z</time>
      </trkpt>
      <trkpt lat="45.71309" lon="4.80695">
        <ele>247.38625</ele>
        <time>2013-05-26T08:24:48Z</time>
      </trkpt>
      <trkpt lat="45.71321" lon="4.80674">
        <ele>246.1407</ele>
        <time>2013-05-26T08:24:56Z</time>
      </trkpt>
      <trkpt lat="45.71329" lon="4.80651">
        <ele>243.8469</ele>
        <time>2013-05-26T08:25:02Z</time>
      </trkpt>
      <trkpt lat="45.71342" lon="4.80627">
        <ele>239.85136</ele>
        <time>2013-05-26T08:25:07Z</time>
      </trkpt>
      <trkpt lat="45.71352" lon="4.80606">
        <ele>234.613</ele>
        <time>2013-05-26T08:25:13Z</time>
      </trkpt>
      <trkpt lat="45.71357" lon="4.80577">
        <ele>234.10712</ele>
        <time>2013-05-26T08:25:21Z</time>
      </trkpt>
      <trkpt lat="45.71359" lon="4.80551">
        <ele>237.16327</ele>
        <time>2013-05-26T08:25:27Z</time>
      </trkpt>
      <trkpt lat="45.71345" lon="4.80532">
        <ele>246.65868</ele>
        <time>2013-05-26T08:25:41Z</time>
      </trkpt>
      <trkpt lat="45.7134" lon="4.80507">
        <ele>241.51698</ele>
        <time>2013-05-26T08:26:42Z</time>
      </trkpt>
      <trkpt lat="45.71328" lon="4.80482">
        <ele>241.12596</ele>
        <time>2013-05-26T08:26:49Z</time>
      </trkpt>
      <trkpt lat="45.71318" lon="4.8046">
        <ele>240.54337</ele>
        <time>2013-05-26T08:26:54Z</time>
      </trkpt>
      <trkpt lat="45.71306" lon="4.80438">
        <ele>240.4304</ele>
        <time>2013-05-26T08:27:00Z</time>
      </trkpt>
      <trkpt lat="45.71293" lon="4.80417">
        <ele>240.94977</ele>
        <time>2013-05-26T08:27:06Z</time>
      </trkpt>
      <trkpt lat="45.71282" lon="4.80396">
        <ele>240.7288</ele>
        <time>2013-05-26T08:27:11Z</time>
      </trkpt>
      <trkpt lat="45.71269" lon="4.80374">
        <ele>240.16032</ele>
        <time>2013-05-26T08:27:17Z</time>
      </trkpt>
      <trkpt lat="45.71257" lon="4.80353">
        <ele>239.58766</ele>
        <time>2013-05-26T08:27:23Z</time>
      </trkpt>
      <trkpt lat="45.71246" lon="4.80333">
        <ele>239.53311</ele>
        <time>2013-05-26T08:27:29Z</time>
      </trkpt>
      <trkpt lat="45.71234" lon="4.80309">
        <ele>239.82437</ele>
        <time>2013-05-26T08:27:35Z</time>
      </trkpt>
      <trkpt lat="45.71221" lon="4.80287">
        <ele>240.74939</ele>
        <time>2013-05-26T08:27:41Z</time>
      </trkpt>
      <trkpt lat="45.7121" lon="4.80266">
        <ele>241.80238</ele>
        <time>2013-05-26T08:27:47Z</time>
      </trkpt>
      <trkpt lat="45.71197" lon="4.80245">
        <ele>242.78778</ele>
        <time>2013-05-26T08:27:53Z</time>
      </trkpt>
      <trkpt lat="45.71184" lon="4.80223">
        <ele>244.47432</ele>
        <time>2013-05-26T08:27:59Z</time>
      </trkpt>
      <trkpt lat="45.71171" lon="4.80202">
        <ele>247.03642</ele>
        <time>2013-05-26T08:28:05Z</time>
      </trkpt>
      <trkpt lat="45.71158" lon="4.80182">
        <ele>247.57358</ele>
        <time>2013-05-26T08:28:11Z</time>
      </trkpt>
      <trkpt lat="45.71146" lon="4.8016">
        <ele>247.44301</ele>
        <time>2013-05-26T08:28:17Z</time>
      </trkpt>
      <trkpt lat="45.71133" lon="4.80138">
        <ele>249.43088</ele>
        <time>2013-05-26T08:28:24Z</time>
      </trkpt>
      <trkpt lat="45.71121" lon="4.80118">
        <ele>251.35815</ele>
        <time>2013-05-26T08:28:30Z</time>
      </trkpt>
      <trkpt lat="45.7111" lon="4.80098">
        <ele>253.48291</ele>
        <time>2013-05-26T08:28:36Z</time>
      </trkpt>
      <trkpt lat="45.71096" lon="4.80076">
        <ele>254.99219</ele>
        <time>2013-05-26T08:28:43Z</time>
      </trkpt>
      <trkpt lat="45.71083" lon="4.80057">
        <ele>255.04755</ele>
        <time>2013-05-26T08:28:50Z</time>
      </trkpt>
      <trkpt lat="45.7107" lon="4.8004">
        <ele>255.62556</ele>
        <time>2013-05-26T08:28:57Z</time>
      </trkpt>
      <trkpt lat="45.71057" lon="4.80021">
        <ele>256.1924</ele>
        <time>2013-05-26T08:29:04Z</time>
      </trkpt>
      <trkpt lat="45.71043" lon="4.8">
        <ele>256.7001</ele>
        <time>2013-05-26T08:29:12Z</time>
      </trkpt>
      <trkpt lat="45.71029" lon="4.79981">
        <ele>256.65094</ele>
        <time>2013-05-26T08:29:20Z</time>
      </trkpt>
      <trkpt lat="45.71014" lon="4.79964">
        <ele>258.46942</ele>
        <time>2013-05-26T08:29:27Z</time>
      </trkpt>
      <trkpt lat="45.70998" lon="4.79949">
        <ele>260.30695</ele>
        <time>2013-05-26T08:29:34Z</time>
      </trkpt>
      <trkpt lat="45.70981" lon="4.79935">
        <ele>261.90482</ele>
        <time>2013-05-26T08:29:42Z</time>
      </trkpt>
      <trkpt lat="45.70964" lon="4.79921">
        <ele>264.11505</ele>
        <time>2013-05-26T08:29:50Z</time>
      </trkpt>
      <trkpt lat="45.70947" lon="4.79908">
        <ele>266.89276</ele>
        <time>2013-05-26T08:29:59Z</time>
      </trkpt>
      <trkpt lat="45.7093" lon="4.79897">
        <ele>269.36404</ele>
        <time>2013-05-26T08:30:07Z</time>
      </trkpt>
      <trkpt lat="45.70912" lon="4.7989">
        <ele>269.88312</ele>
        <time>2013-05-26T08:30:15Z</time>
      </trkpt>
      <trkpt lat="45.70893" lon="4.79879">
        <ele>271.50693</ele>
        <time>2013-05-26T08:30:23Z</time>
      </trkpt>
      <trkpt lat="45.70876" lon="4.79872">
        <ele>272.7081</ele>
        <time>2013-05-26T08:30:30Z</time>
      </trkpt>
      <trkpt lat="45.70857" lon="4.79865">
        <ele>275.24988</ele>
        <time>2013-05-26T08:30:38Z</time>
      </trkpt>
      <trkpt lat="45.70839" lon="4.79859">
        <ele>276.23596</ele>
        <time>2013-05-26T08:30:45Z</time>
      </trkpt>
      <trkpt lat="45.70819" lon="4.79851">
        <ele>278.16528</ele>
        <time>2013-05-26T08:30:53Z</time>
      </trkpt>
      <trkpt lat="45.708" lon="4.79843">
        <ele>280.05078</ele>
        <time>2013-05-26T08:31:01Z</time>
      </trkpt>
      <trkpt lat="45.70783" lon="4.79832">
        <ele>283.54892</ele>
        <time>2013-05-26T08:31:09Z</time>
      </trkpt>
      <trkpt lat="45.70763" lon="4.79826">
        <ele>284.64612</ele>
        <time>2013-05-26T08:31:17Z</time>
      </trkpt>
      <trkpt lat="45.70745" lon="4.79819">
        <ele>281.96854</ele>
        <time>2013-05-26T08:31:25Z</time>
      </trkpt>
      <trkpt lat="45.70727" lon="4.79815">
        <ele>279.96756</ele>
        <time>2013-05-26T08:31:32Z</time>
      </trkpt>
      <trkpt lat="45.70707" lon="4.79807">
        <ele>282.2932</ele>
        <time>2013-05-26T08:31:39Z</time>
      </trkpt>
      <trkpt lat="45.70687" lon="4.79801">
        <ele>283.37985</ele>
        <time>2013-05-26T08:31:46Z</time>
      </trkpt>
      <trkpt lat="45.70669" lon="4.79795">
        <ele>283.8497</ele>
        <time>2013-05-26T08:31:52Z</time>
      </trkpt>
      <trkpt lat="45.70651" lon="4.79787">
        <ele>281.93375</ele>
        <time>2013-05-26T08:31:58Z</time>
      </trkpt>
      <trkpt lat="45.70632" lon="4.79777">
        <ele>281.87973</ele>
        <time>2013-05-26T08:32:05Z</time>
      </trkpt>
      <trkpt lat="45.70612" lon="4.79769">
        <ele>283.1514</ele>
        <time>2013-05-26T08:32:12Z</time>
      </trkpt>
      <trkpt lat="45.70593" lon="4.79761">
        <ele>284.59213</ele>
        <time>2013-05-26T08:32:18Z</time>
      </trkpt>
      <trkpt lat="45.70575" lon="4.79754">
        <ele>285.57272</ele>
        <time>2013-05-26T08:32:24Z</time>
      </trkpt>
      <trkpt lat="45.70557" lon="4.79747">
        <ele>284.529</ele>
        <time>2013-05-26T08:32:30Z</time>
      </trkpt>
      <trkpt lat="45.70538" lon="4.79739">
        <ele>285.51346</ele>
        <time>2013-05-26T08:32:36Z</time>
      </trkpt>
      <trkpt lat="45.7052" lon="4.79732">
        <ele>286.83508</ele>
        <time>2013-05-26T08:32:42Z</time>
      </trkpt>
      <trkpt lat="45.70501" lon="4.79725">
        <ele>287.32358</ele>
        <time>2013-05-26T08:32:48Z</time>
      </trkpt>
      <trkpt lat="45.70483" lon="4.79718">
        <ele>287.58878</ele>
        <time>2013-05-26T08:32:54Z</time>
      </trkpt>
      <trkpt lat="45.70464" lon="4.79711">
        <ele>285.23517</ele>
        <time>2013-05-26T08:33:00Z</time>
      </trkpt>
      <trkpt lat="45.70445" lon="4.79705">
        <ele>284.6729</ele>
        <time>2013-05-26T08:33:06Z</time>
      </trkpt>
      <trkpt lat="45.70426" lon="4.79698">
        <ele>286.03174</ele>
        <time>2013-05-26T08:33:12Z</time>
      </trkpt>
      <trkpt lat="45.70407" lon="4.7969">
        <ele>287.94357</ele>
        <time>2013-05-26T08:33:18Z</time>
      </trkpt>
      <trkpt lat="45.70389" lon="4.79683">
        <ele>290.7504</ele>
        <time>2013-05-26T08:33:24Z</time>
      </trkpt>
      <trkpt lat="45.7037" lon="4.79675">
        <ele>291.7843</ele>
        <time>2013-05-26T08:33:30Z</time>
      </trkpt>
      <trkpt lat="45.7035" lon="4.79666">
        <ele>293.68896</ele>
        <time>2013-05-26T08:33:37Z</time>
      </trkpt>
      <trkpt lat="45.7033" lon="4.7966">
        <ele>294.11176</ele>
        <time>2013-05-26T08:33:43Z</time>
      </trkpt>
      <trkpt lat="45.70309" lon="4.79652">
        <ele>294.21494</ele>
        <time>2013-05-26T08:33:49Z</time>
      </trkpt>
      <trkpt lat="45.70288" lon="4.79644">
        <ele>295.62335</ele>
        <time>2013-05-26T08:33:55Z</time>
      </trkpt>
      <trkpt lat="45.70269" lon="4.79637">
        <ele>296.25397</ele>
        <time>2013-05-26T08:34:01Z</time>
      </trkpt>
      <trkpt lat="45.70249" lon="4.79629">
        <ele>296.63107</ele>
        <time>2013-05-26T08:34:07Z</time>
      </trkpt>
      <trkpt lat="45.70228" lon="4.79621">
        <ele>297.4525</ele>
        <time>2013-05-26T08:34:13Z</time>
      </trkpt>
      <trkpt lat="45.70211" lon="4.79615">
        <ele>297.2395</ele>
        <time>2013-05-26T08:34:18Z</time>
      </trkpt>
      <trkpt lat="45.70193" lon="4.79607">
        <ele>297.8422</ele>
        <time>2013-05-26T08:34:23Z</time>
      </trkpt>
      <trkpt lat="45.70175" lon="4.79599">
        <ele>298.19235</ele>
        <time>2013-05-26T08:34:28Z</time>
      </trkpt>
      <trkpt lat="45.70157" lon="4.79591">
        <ele>297.50327</ele>
        <time>2013-05-26T08:34:33Z</time>
      </trkpt>
      <trkpt lat="45.70139" lon="4.79577">
        <ele>297.27258</ele>
        <time>2013-05-26T08:34:39Z</time>
      </trkpt>
      <trkpt lat="45.70119" lon="4.7958">
        <ele>297.83136</ele>
        <time>2013-05-26T08:34:45Z</time>
      </trkpt>
      <trkpt lat="45.70097" lon="4.79574">
        <ele>298.65872</ele>
        <time>2013-05-26T08:34:50Z</time>
      </trkpt>
      <trkpt lat="45.70078" lon="4.79566">
        <ele>299.1317</ele>
        <time>2013-05-26T08:34:55Z</time>
      </trkpt>
      <trkpt lat="45.70058" lon="4.79559">
        <ele>298.10703</ele>
        <time>2013-05-26T08:35:00Z</time>
      </trkpt>
      <trkpt lat="45.70038" lon="4.79551">
        <ele>297.8622</ele>
        <time>2013-05-26T08:35:05Z</time>
      </trkpt>
      <trkpt lat="45.70019" lon="4.79542">
        <ele>298.84338</ele>
        <time>2013-05-26T08:35:10Z</time>
      </trkpt>
      <trkpt lat="45.7" lon="4.79535">
        <ele>300.06186</ele>
        <time>2013-05-26T08:35:15Z</time>
      </trkpt>
      <trkpt lat="45.69982" lon="4.79528">
        <ele>298.88538</ele>
        <time>2013-05-26T08:35:20Z</time>
      </trkpt>
      <trkpt lat="45.69962" lon="4.7952">
        <ele>296.86353</ele>
        <time>2013-05-26T08:35:25Z</time>
      </trkpt>
      <trkpt lat="45.69943" lon="4.79511">
        <ele>296.92444</ele>
        <time>2013-05-26T08:35:30Z</time>
      </trkpt>
      <trkpt lat="45.69922" lon="4.79504">
        <ele>298.8318</ele>
        <time>2013-05-26T08:35:35Z</time>
      </trkpt>
      <trkpt lat="45.69904" lon="4.79494">
        <ele>303.57568</ele>
        <time>2013-05-26T08:35:39Z</time>
      </trkpt>
      <trkpt lat="45.69885" lon="4.79489">
        <ele>305.7543</ele>
        <time>2013-05-26T08:35:44Z</time>
      </trkpt>
      <trkpt lat="45.69866" lon="4.79482">
        <ele>305.04385</ele>
        <time>2013-05-26T08:35:49Z</time>
      </trkpt>
      <trkpt lat="45.69846" lon="4.79474">
        <ele>305.306</ele>
        <time>2013-05-26T08:35:54Z</time>
      </trkpt>
      <trkpt lat="45.69827" lon="4.79467">
        <ele>306.73483</ele>
        <time>2013-05-26T08:35:59Z</time>
      </trkpt>
      <trkpt lat="45.69808" lon="4.79458">
        <ele>305.32712</ele>
        <time>2013-05-26T08:36:09Z</time>
      </trkpt>
      <trkpt lat="45.6979" lon="4.79451">
        <ele>303.74774</ele>
        <time>2013-05-26T08:36:14Z</time>
      </trkpt>
      <trkpt lat="45.69772" lon="4.79445">
        <ele>303.0112</ele>
        <time>2013-05-26T08:36:18Z</time>
      </trkpt>
      <trkpt lat="45.69753" lon="4.79438">
        <ele>302.15704</ele>
        <time>2013-05-26T08:36:22Z</time>
      </trkpt>
      <trkpt lat="45.69733" lon="4.7943">
        <ele>301.3134</ele>
        <time>2013-05-26T08:36:26Z</time>
      </trkpt>
      <trkpt lat="45.69711" lon="4.79421">
        <ele>298.998</ele>
        <time>2013-05-26T08:36:30Z</time>
      </trkpt>
      <trkpt lat="45.69693" lon="4.79414">
        <ele>297.9976</ele>
        <time>2013-05-26T08:36:33Z</time>
      </trkpt>
      <trkpt lat="45.69675" lon="4.79407">
        <ele>297.50055</ele>
        <time>2013-05-26T08:36:36Z</time>
      </trkpt>
      <trkpt lat="45.69656" lon="4.79398">
        <ele>296.824</ele>
        <time>2013-05-26T08:36:40Z</time>
      </trkpt>
      <trkpt lat="45.69635" lon="4.7939">
        <ele>298.32126</ele>
        <time>2013-05-26T08:36:44Z</time>
      </trkpt>
      <trkpt lat="45.69615" lon="4.79382">
        <ele>298.62314</ele>
        <time>2013-05-26T08:36:48Z</time>
      </trkpt>
      <trkpt lat="45.69594" lon="4.79373">
        <ele>298.0581</ele>
        <time>2013-05-26T08:36:52Z</time>
      </trkpt>
      <trkpt lat="45.69572" lon="4.79361">
        <ele>297.6129</ele>
        <time>2013-05-26T08:36:56Z</time>
      </trkpt>
      <trkpt lat="45.69554" lon="4.79359">
        <ele>299.40573</ele>
        <time>2013-05-26T08:37:13Z</time>
      </trkpt>
      <trkpt lat="45.69537" lon="4.79352">
        <ele>299.7707</ele>
        <time>2013-05-26T08:37:20Z</time>
      </trkpt>
      <trkpt lat="45.69519" lon="4.79344">
        <ele>299.84616</ele>
        <time>2013-05-26T08:37:29Z</time>
      </trkpt>
      <trkpt lat="45.69502" lon="4.79329">
        <ele>297.34363</ele>
        <time>2013-05-26T08:37:36Z</time>
      </trkpt>
      <trkpt lat="45.69486" lon="4.79309">
        <ele>294.80087</ele>
        <time>2013-05-26T08:37:41Z</time>
      </trkpt>
      <trkpt lat="45.69477" lon="4.79286">
        <ele>293.8288</ele>
        <time>2013-05-26T08:37:45Z</time>
      </trkpt>
      <trkpt lat="45.69464" lon="4.7926">
        <ele>293.6033</ele>
        <time>2013-05-26T08:37:50Z</time>
      </trkpt>
      <trkpt lat="45.69455" lon="4.79235">
        <ele>293.03113</ele>
        <time>2013-05-26T08:37:54Z</time>
      </trkpt>
      <trkpt lat="45.69446" lon="4.79207">
        <ele>291.18042</ele>
        <time>2013-05-26T08:37:59Z</time>
      </trkpt>
      <trkpt lat="45.69435" lon="4.79179">
        <ele>290.90756</ele>
        <time>2013-05-26T08:38:04Z</time>
      </trkpt>
      <trkpt lat="45.69423" lon="4.79152">
        <ele>291.66107</ele>
        <time>2013-05-26T08:38:09Z</time>
      </trkpt>
      <trkpt lat="45.69412" lon="4.7913">
        <ele>289.5107</ele>
        <time>2013-05-26T08:38:13Z</time>
      </trkpt>
      <trkpt lat="45.69394" lon="4.7911">
        <ele>287.67917</ele>
        <time>2013-05-26T08:38:17Z</time>
      </trkpt>
      <trkpt lat="45.69377" lon="4.79092">
        <ele>288.05682</ele>
        <time>2013-05-26T08:38:20Z</time>
      </trkpt>
      <trkpt lat="45.6936" lon="4.79071">
        <ele>286.8693</ele>
        <time>2013-05-26T08:38:23Z</time>
      </trkpt>
      <trkpt lat="45.69342" lon="4.79047">
        <ele>284.46518</ele>
        <time>2013-05-26T08:38:26Z</time>
      </trkpt>
      <trkpt lat="45.69325" lon="4.79023">
        <ele>282.17123</ele>
        <time>2013-05-26T08:38:29Z</time>
      </trkpt>
      <trkpt lat="45.69309" lon="4.79004">
        <ele>280.93942</ele>
        <time>2013-05-26T08:38:32Z</time>
      </trkpt>
      <trkpt lat="45.69286" lon="4.78988">
        <ele>280.39633</ele>
        <time>2013-05-26T08:38:35Z</time>
      </trkpt>
      <trkpt lat="45.69262" lon="4.78976">
        <ele>280.15314</ele>
        <time>2013-05-26T08:38:38Z</time>
      </trkpt>
      <trkpt lat="45.69238" lon="4.78968">
        <ele>279.11304</ele>
        <time>2013-05-26T08:38:41Z</time>
      </trkpt>
      <trkpt lat="45.69215" lon="4.78961">
        <ele>277.8227</ele>
        <time>2013-05-26T08:38:44Z</time>
      </trkpt>
      <trkpt lat="45.69193" lon="4.78956">
        <ele>276.37363</ele>
        <time>2013-05-26T08:38:47Z</time>
      </trkpt>
      <trkpt lat="45.69168" lon="4.7895">
        <ele>275.10764</ele>
        <time>2013-05-26T08:38:50Z</time>
      </trkpt>
      <trkpt lat="45.69142" lon="4.78946">
        <ele>274.5923</ele>
        <time>2013-05-26T08:38:53Z</time>
      </trkpt>
      <trkpt lat="45.69117" lon="4.78935">
        <ele>274.6952</ele>
        <time>2013-05-26T08:38:56Z</time>
      </trkpt>
      <trkpt lat="45.69095" lon="4.78918">
        <ele>273.8683</ele>
        <time>2013-05-26T08:38:59Z</time>
      </trkpt>
      <trkpt lat="45.69074" lon="4.78901">
        <ele>273.40225</ele>
        <time>2013-05-26T08:39:02Z</time>
      </trkpt>
      <trkpt lat="45.69051" lon="4.78885">
        <ele>272.87595</ele>
        <time>2013-05-26T08:39:05Z</time>
      </trkpt>
      <trkpt lat="45.69031" lon="4.78868">
        <ele>270.24765</ele>
        <time>2013-05-26T08:39:08Z</time>
      </trkpt>
      <trkpt lat="45.69009" lon="4.78853">
        <ele>267.11386</ele>
        <time>2013-05-26T08:39:11Z</time>
      </trkpt>
      <trkpt lat="45.68987" lon="4.78839">
        <ele>264.55115</ele>
        <time>2013-05-26T08:39:14Z</time>
      </trkpt>
      <trkpt lat="45.68968" lon="4.78823">
        <ele>263.2622</ele>
        <time>2013-05-26T08:39:17Z</time>
      </trkpt>
      <trkpt lat="45.68948" lon="4.78808">
        <ele>261.54654</ele>
        <time>2013-05-26T08:39:20Z</time>
      </trkpt>
      <trkpt lat="45.68929" lon="4.78795">
        <ele>260.579</ele>
        <time>2013-05-26T08:39:23Z</time>
      </trkpt>
      <trkpt lat="45.68912" lon="4.78781">
        <ele>260.25522</ele>
        <time>2013-05-26T08:39:26Z</time>
      </trkpt>
      <trkpt lat="45.68895" lon="4.78769">
        <ele>260.18423</ele>
        <time>2013-05-26T08:39:29Z</time>
      </trkpt>
      <trkpt lat="45.68873" lon="4.78754">
        <ele>260.0665</ele>
        <time>2013-05-26T08:39:33Z</time>
      </trkpt>
      <trkpt lat="45.68853" lon="4.78738">
        <ele>260.59448</ele>
        <time>2013-05-26T08:39:37Z</time>
      </trkpt>
      <trkpt lat="45.68835" lon="4.78726">
        <ele>261.058</ele>
        <time>2013-05-26T08:39:41Z</time>
      </trkpt>
      <trkpt lat="45.68818" lon="4.78714">
        <ele>260.7129</ele>
        <time>2013-05-26T08:39:45Z</time>
      </trkpt>
      <trkpt lat="45.68802" lon="4.78701">
        <ele>261.08493</ele>
        <time>2013-05-26T08:39:49Z</time>
      </trkpt>
      <trkpt lat="45.6879" lon="4.78681">
        <ele>261.69446</ele>
        <time>2013-05-26T08:39:53Z</time>
      </trkpt>
      <trkpt lat="45.68771" lon="4.78668">
        <ele>263.5063</ele>
        <time>2013-05-26T08:39:58Z</time>
      </trkpt>
      <trkpt lat="45.6875" lon="4.78661">
        <ele>264.17737</ele>
        <time>2013-05-26T08:40:02Z</time>
      </trkpt>
      <trkpt lat="45.68732" lon="4.78649">
        <ele>264.4112</ele>
        <time>2013-05-26T08:40:06Z</time>
      </trkpt>
      <trkpt lat="45.68714" lon="4.78637">
        <ele>265.09845</ele>
        <time>2013-05-26T08:40:10Z</time>
      </trkpt>
      <trkpt lat="45.68695" lon="4.7862">
        <ele>265.0584</ele>
        <time>2013-05-26T08:40:15Z</time>
      </trkpt>
      <trkpt lat="45.68676" lon="4.78602">
        <ele>264.57626</ele>
        <time>2013-05-26T08:40:20Z</time>
      </trkpt>
      <trkpt lat="45.68659" lon="4.78585">
        <ele>265.03186</ele>
        <time>2013-05-26T08:40:25Z</time>
      </trkpt>
      <trkpt lat="45.6864" lon="4.78567">
        <ele>266.8899</ele>
        <time>2013-05-26T08:40:30Z</time>
      </trkpt>
      <trkpt lat="45.68625" lon="4.78554">
        <ele>267.4972</ele>
        <time>2013-05-26T08:40:34Z</time>
      </trkpt>
      <trkpt lat="45.68607" lon="4.78535">
        <ele>268.99777</ele>
        <time>2013-05-26T08:40:39Z</time>
      </trkpt>
      <trkpt lat="45.68592" lon="4.78519">
        <ele>268.9106</ele>
        <time>2013-05-26T08:40:43Z</time>
      </trkpt>
      <trkpt lat="45.68576" lon="4.78504">
        <ele>268.77563</ele>
        <time>2013-05-26T08:40:47Z</time>
      </trkpt>
      <trkpt lat="45.68561" lon="4.78486">
        <ele>267.39502</ele>
        <time>2013-05-26T08:40:51Z</time>
      </trkpt>
      <trkpt lat="45.68546" lon="4.7847">
        <ele>266.52185</ele>
        <time>2013-05-26T08:40:55Z</time>
      </trkpt>
      <trkpt lat="45.6853" lon="4.78455">
        <ele>266.1616</ele>
        <time>2013-05-26T08:40:59Z</time>
      </trkpt>
      <trkpt lat="45.68515" lon="4.78437">
        <ele>264.74683</ele>
        <time>2013-05-26T08:41:03Z</time>
      </trkpt>
      <trkpt lat="45.68499" lon="4.78421">
        <ele>263.88083</ele>
        <time>2013-05-26T08:41:07Z</time>
      </trkpt>
      <trkpt lat="45.68482" lon="4.78404">
        <ele>264.00766</ele>
        <time>2013-05-26T08:41:12Z</time>
      </trkpt>
      <trkpt lat="45.68468" lon="4.78388">
        <ele>263.98523</ele>
        <time>2013-05-26T08:41:16Z</time>
      </trkpt>
      <trkpt lat="45.68451" lon="4.78369">
        <ele>262.7136</ele>
        <time>2013-05-26T08:41:21Z</time>
      </trkpt>
      <trkpt lat="45.68435" lon="4.78352">
        <ele>262.11603</ele>
        <time>2013-05-26T08:41:25Z</time>
      </trkpt>
      <trkpt lat="45.68421" lon="4.78335">
        <ele>260.88632</ele>
        <time>2013-05-26T08:41:29Z</time>
      </trkpt>
      <trkpt lat="45.68404" lon="4.78319">
        <ele>260.5816</ele>
        <time>2013-05-26T08:41:33Z</time>
      </trkpt>
      <trkpt lat="45.68387" lon="4.78303">
        <ele>261.97427</ele>
        <time>2013-05-26T08:41:37Z</time>
      </trkpt>
      <trkpt lat="45.68371" lon="4.78285">
        <ele>263.127</ele>
        <time>2013-05-26T08:41:41Z</time>
      </trkpt>
      <trkpt lat="45.68355" lon="4.78268">
        <ele>264.24994</ele>
        <time>2013-05-26T08:41:45Z</time>
      </trkpt>
      <trkpt lat="45.68341" lon="4.78252">
        <ele>265.05994</ele>
        <time>2013-05-26T08:41:49Z</time>
      </trkpt>
      <trkpt lat="45.68324" lon="4.78232">
        <ele>265.6984</ele>
        <time>2013-05-26T08:41:54Z</time>
      </trkpt>
      <trkpt lat="45.68309" lon="4.78215">
        <ele>265.81003</ele>
        <time>2013-05-26T08:41:58Z</time>
      </trkpt>
      <trkpt lat="45.68294" lon="4.78192">
        <ele>263.36194</ele>
        <time>2013-05-26T08:42:03Z</time>
      </trkpt>
      <trkpt lat="45.68281" lon="4.78174">
        <ele>262.45944</ele>
        <time>2013-05-26T08:42:07Z</time>
      </trkpt>
      <trkpt lat="45.68269" lon="4.78154">
        <ele>262.89926</ele>
        <time>2013-05-26T08:42:11Z</time>
      </trkpt>
      <trkpt lat="45.68257" lon="4.78134">
        <ele>263.59235</ele>
        <time>2013-05-26T08:42:15Z</time>
      </trkpt>
      <trkpt lat="45.68248" lon="4.7811">
        <ele>261.44702</ele>
        <time>2013-05-26T08:42:20Z</time>
      </trkpt>
      <trkpt lat="45.68236" lon="4.78083">
        <ele>262.0837</ele>
        <time>2013-05-26T08:42:25Z</time>
      </trkpt>
      <trkpt lat="45.68224" lon="4.78062">
        <ele>263.721</ele>
        <time>2013-05-26T08:42:29Z</time>
      </trkpt>
      <trkpt lat="45.68212" lon="4.78035">
        <ele>266.67062</ele>
        <time>2013-05-26T08:42:34Z</time>
      </trkpt>
      <trkpt lat="45.68202" lon="4.78014">
        <ele>268.63486</ele>
        <time>2013-05-26T08:42:38Z</time>
      </trkpt>
      <trkpt lat="45.68192" lon="4.77987">
        <ele>267.68045</ele>
        <time>2013-05-26T08:42:43Z</time>
      </trkpt>
      <trkpt lat="45.68181" lon="4.7796">
        <ele>266.5389</ele>
        <time>2013-05-26T08:42:48Z</time>
      </trkpt>
      <trkpt lat="45.68169" lon="4.77934">
        <ele>266.94138</ele>
        <time>2013-05-26T08:42:53Z</time>
      </trkpt>
      <trkpt lat="45.68157" lon="4.77907">
        <ele>268.2348</ele>
        <time>2013-05-26T08:42:58Z</time>
      </trkpt>
      <trkpt lat="45.68145" lon="4.7788">
        <ele>269.84097</ele>
        <time>2013-05-26T08:43:03Z</time>
      </trkpt>
      <trkpt lat="45.68135" lon="4.77854">
        <ele>270.8015</ele>
        <time>2013-05-26T08:43:08Z</time>
      </trkpt>
      <trkpt lat="45.68123" lon="4.77828">
        <ele>271.7067</ele>
        <time>2013-05-26T08:43:13Z</time>
      </trkpt>
      <trkpt lat="45.68112" lon="4.77802">
        <ele>272.92972</ele>
        <time>2013-05-26T08:43:18Z</time>
      </trkpt>
      <trkpt lat="45.68101" lon="4.77776">
        <ele>273.68088</ele>
        <time>2013-05-26T08:43:23Z</time>
      </trkpt>
      <trkpt lat="45.68089" lon="4.77749">
        <ele>274.1739</ele>
        <time>2013-05-26T08:43:28Z</time>
      </trkpt>
      <trkpt lat="45.68078" lon="4.77723">
        <ele>275.04343</ele>
        <time>2013-05-26T08:43:33Z</time>
      </trkpt>
      <trkpt lat="45.68067" lon="4.77696">
        <ele>276.26822</ele>
        <time>2013-05-26T08:43:38Z</time>
      </trkpt>
      <trkpt lat="45.68057" lon="4.7767">
        <ele>277.4323</ele>
        <time>2013-05-26T08:43:43Z</time>
      </trkpt>
      <trkpt lat="45.68047" lon="4.77646">
        <ele>278.28775</ele>
        <time>2013-05-26T08:43:48Z</time>
      </trkpt>
      <trkpt lat="45.68047" lon="4.77619">
        <ele>278.72757</ele>
        <time>2013-05-26T08:43:54Z</time>
      </trkpt>
      <trkpt lat="45.6803" lon="4.77604">
        <ele>277.72516</ele>
        <time>2013-05-26T08:44:00Z</time>
      </trkpt>
      <trkpt lat="45.68012" lon="4.77591">
        <ele>276.26227</ele>
        <time>2013-05-26T08:44:04Z</time>
      </trkpt>
      <trkpt lat="45.67994" lon="4.77569">
        <ele>274.87555</ele>
        <time>2013-05-26T08:44:08Z</time>
      </trkpt>
      <trkpt lat="45.67983" lon="4.77549">
        <ele>274.69907</ele>
        <time>2013-05-26T08:44:11Z</time>
      </trkpt>
      <trkpt lat="45.67971" lon="4.77526">
        <ele>273.89023</ele>
        <time>2013-05-26T08:44:14Z</time>
      </trkpt>
      <trkpt lat="45.67959" lon="4.77499">
        <ele>272.30527</ele>
        <time>2013-05-26T08:44:17Z</time>
      </trkpt>
      <trkpt lat="45.67947" lon="4.77468">
        <ele>270.6741</ele>
        <time>2013-05-26T08:44:20Z</time>
      </trkpt>
      <trkpt lat="45.67932" lon="4.77435">
        <ele>268.54376</ele>
        <time>2013-05-26T08:44:23Z</time>
      </trkpt>
      <trkpt lat="45.67923" lon="4.77411">
        <ele>267.18088</ele>
        <time>2013-05-26T08:44:25Z</time>
      </trkpt>
      <trkpt lat="45.6791" lon="4.77379">
        <ele>265.26535</ele>
        <time>2013-05-26T08:44:28Z</time>
      </trkpt>
      <trkpt lat="45.67898" lon="4.77346">
        <ele>264.82446</ele>
        <time>2013-05-26T08:44:31Z</time>
      </trkpt>
      <trkpt lat="45.67885" lon="4.77315">
        <ele>263.72906</ele>
        <time>2013-05-26T08:44:34Z</time>
      </trkpt>
      <trkpt lat="45.67873" lon="4.77288">
        <ele>262.95132</ele>
        <time>2013-05-26T08:44:37Z</time>
      </trkpt>
      <trkpt lat="45.67865" lon="4.7726">
        <ele>261.69666</ele>
        <time>2013-05-26T08:44:40Z</time>
      </trkpt>
      <trkpt lat="45.67854" lon="4.77236">
        <ele>261.0283</ele>
        <time>2013-05-26T08:44:43Z</time>
      </trkpt>
      <trkpt lat="45.67844" lon="4.77211">
        <ele>260.95724</ele>
        <time>2013-05-26T08:44:46Z</time>
      </trkpt>
      <trkpt lat="45.67834" lon="4.77186">
        <ele>261.2929</ele>
        <time>2013-05-26T08:44:49Z</time>
      </trkpt>
      <trkpt lat="45.67823" lon="4.77156">
        <ele>261.79462</ele>
        <time>2013-05-26T08:44:53Z</time>
      </trkpt>
      <trkpt lat="45.67812" lon="4.77129">
        <ele>262.00104</ele>
        <time>2013-05-26T08:44:57Z</time>
      </trkpt>
      <trkpt lat="45.67802" lon="4.77106">
        <ele>261.30658</ele>
        <time>2013-05-26T08:45:01Z</time>
      </trkpt>
      <trkpt lat="45.67793" lon="4.77082">
        <ele>261.3255</ele>
        <time>2013-05-26T08:45:05Z</time>
      </trkpt>
      <trkpt lat="45.67784" lon="4.77057">
        <ele>262.09363</ele>
        <time>2013-05-26T08:45:09Z</time>
      </trkpt>
      <trkpt lat="45.67774" lon="4.77032">
        <ele>262.2696</ele>
        <time>2013-05-26T08:45:14Z</time>
      </trkpt>
      <trkpt lat="45.67774" lon="4.77005">
        <ele>263.25534</ele>
        <time>2013-05-26T08:45:22Z</time>
      </trkpt>
      <trkpt lat="45.67776" lon="4.76973">
        <ele>263.10117</ele>
        <time>2013-05-26T08:45:28Z</time>
      </trkpt>
      <trkpt lat="45.67762" lon="4.76951">
        <ele>262.144</ele>
        <time>2013-05-26T08:45:33Z</time>
      </trkpt>
      <trkpt lat="45.67743" lon="4.76941">
        <ele>260.33243</ele>
        <time>2013-05-26T08:45:38Z</time>
      </trkpt>
      <trkpt lat="45.67728" lon="4.76914">
        <ele>259.21512</ele>
        <time>2013-05-26T08:45:43Z</time>
      </trkpt>
      <trkpt lat="45.67715" lon="4.76887">
        <ele>259.86725</ele>
        <time>2013-05-26T08:45:48Z</time>
      </trkpt>
      <trkpt lat="45.67706" lon="4.76862">
        <ele>262.01855</ele>
        <time>2013-05-26T08:45:52Z</time>
      </trkpt>
      <trkpt lat="45.67695" lon="4.76837">
        <ele>262.61798</ele>
        <time>2013-05-26T08:45:56Z</time>
      </trkpt>
      <trkpt lat="45.67685" lon="4.76812">
        <ele>262.66507</ele>
        <time>2013-05-26T08:46:00Z</time>
      </trkpt>
      <trkpt lat="45.67673" lon="4.76784">
        <ele>261.94754</ele>
        <time>2013-05-26T08:46:04Z</time>
      </trkpt>
      <trkpt lat="45.67661" lon="4.76763">
        <ele>261.8638</ele>
        <time>2013-05-26T08:46:07Z</time>
      </trkpt>
      <trkpt lat="45.67652" lon="4.76736">
        <ele>261.8198</ele>
        <time>2013-05-26T08:46:11Z</time>
      </trkpt>
      <trkpt lat="45.67644" lon="4.76709">
        <ele>261.16992</ele>
        <time>2013-05-26T08:46:15Z</time>
      </trkpt>
      <trkpt lat="45.67633" lon="4.76681">
        <ele>261.9213</ele>
        <time>2013-05-26T08:46:20Z</time>
      </trkpt>
      <trkpt lat="45.67625" lon="4.76657">
        <ele>260.36493</ele>
        <time>2013-05-26T08:46:24Z</time>
      </trkpt>
      <trkpt lat="45.67615" lon="4.7663">
        <ele>259.0407</ele>
        <time>2013-05-26T08:46:29Z</time>
      </trkpt>
      <trkpt lat="45.67602" lon="4.76603">
        <ele>259.7338</ele>
        <time>2013-05-26T08:46:34Z</time>
      </trkpt>
      <trkpt lat="45.67591" lon="4.76578">
        <ele>260.71506</ele>
        <time>2013-05-26T08:46:39Z</time>
      </trkpt>
      <trkpt lat="45.67582" lon="4.76552">
        <ele>258.1236</ele>
        <time>2013-05-26T08:46:44Z</time>
      </trkpt>
      <trkpt lat="45.67572" lon="4.76527">
        <ele>257.31244</ele>
        <time>2013-05-26T08:46:49Z</time>
      </trkpt>
      <trkpt lat="45.67564" lon="4.76504">
        <ele>258.3875</ele>
        <time>2013-05-26T08:46:53Z</time>
      </trkpt>
      <trkpt lat="45.67554" lon="4.76478">
        <ele>258.8367</ele>
        <time>2013-05-26T08:46:58Z</time>
      </trkpt>
      <trkpt lat="45.67543" lon="4.76454">
        <ele>259.20496</ele>
        <time>2013-05-26T08:47:02Z</time>
      </trkpt>
      <trkpt lat="45.67533" lon="4.76432">
        <ele>260.6418</ele>
        <time>2013-05-26T08:47:06Z</time>
      </trkpt>
      <trkpt lat="45.67524" lon="4.76406">
        <ele>261.62454</ele>
        <time>2013-05-26T08:47:10Z</time>
      </trkpt>
      <trkpt lat="45.67512" lon="4.76383">
        <ele>261.90466</ele>
        <time>2013-05-26T08:47:14Z</time>
      </trkpt>
      <trkpt lat="45.67503" lon="4.76359">
        <ele>263.8163</ele>
        <time>2013-05-26T08:47:18Z</time>
      </trkpt>
      <trkpt lat="45.67493" lon="4.76334">
        <ele>264.70047</ele>
        <time>2013-05-26T08:47:22Z</time>
      </trkpt>
      <trkpt lat="45.67485" lon="4.76308">
        <ele>265.2779</ele>
        <time>2013-05-26T08:47:26Z</time>
      </trkpt>
      <trkpt lat="45.67474" lon="4.76283">
        <ele>265.0219</ele>
        <time>2013-05-26T08:47:30Z</time>
      </trkpt>
      <trkpt lat="45.67465" lon="4.76256">
        <ele>263.74835</ele>
        <time>2013-05-26T08:47:34Z</time>
      </trkpt>
      <trkpt lat="45.67462" lon="4.76229">
        <ele>260.78406</ele>
        <time>2013-05-26T08:47:38Z</time>
      </trkpt>
      <trkpt lat="45.67461" lon="4.762">
        <ele>258.22934</ele>
        <time>2013-05-26T08:47:42Z</time>
      </trkpt>
      <trkpt lat="45.67462" lon="4.76168">
        <ele>257.89523</ele>
        <time>2013-05-26T08:47:47Z</time>
      </trkpt>
      <trkpt lat="45.67465" lon="4.76141">
        <ele>257.686</ele>
        <time>2013-05-26T08:47:51Z</time>
      </trkpt>
      <trkpt lat="45.67468" lon="4.76115">
        <ele>258.43423</ele>
        <time>2013-05-26T08:47:55Z</time>
      </trkpt>
      <trkpt lat="45.67482" lon="4.76093">
        <ele>259.49045</ele>
        <time>2013-05-26T08:48:00Z</time>
      </trkpt>
      <trkpt lat="45.67495" lon="4.76071">
        <ele>259.97528</ele>
        <time>2013-05-26T08:48:05Z</time>
      </trkpt>
      <trkpt lat="45.67488" lon="4.76047">
        <ele>258.50858</ele>
        <time>2013-05-26T08:48:09Z</time>
      </trkpt>
      <trkpt lat="45.67479" lon="4.76023">
        <ele>257.3242</ele>
        <time>2013-05-26T08:48:13Z</time>
      </trkpt>
      <trkpt lat="45.67481" lon="4.75996">
        <ele>257.13773</ele>
        <time>2013-05-26T08:48:17Z</time>
      </trkpt>
      <trkpt lat="45.67484" lon="4.75969">
        <ele>258.07053</ele>
        <time>2013-05-26T08:48:21Z</time>
      </trkpt>
      <trkpt lat="45.67487" lon="4.75942">
        <ele>259.336</ele>
        <time>2013-05-26T08:48:25Z</time>
      </trkpt>
      <trkpt lat="45.67488" lon="4.75915">
        <ele>260.66687</ele>
        <time>2013-05-26T08:48:29Z</time>
      </trkpt>
      <trkpt lat="45.67491" lon="4.75886">
        <ele>261.76022</ele>
        <time>2013-05-26T08:48:33Z</time>
      </trkpt>
      <trkpt lat="45.67494" lon="4.75857">
        <ele>261.98233</ele>
        <time>2013-05-26T08:48:37Z</time>
      </trkpt>
      <trkpt lat="45.67498" lon="4.7583">
        <ele>262.22018</ele>
        <time>2013-05-26T08:48:41Z</time>
      </trkpt>
      <trkpt lat="45.675" lon="4.75804">
        <ele>261.5189</ele>
        <time>2013-05-26T08:48:45Z</time>
      </trkpt>
      <trkpt lat="45.67498" lon="4.75777">
        <ele>261.54425</ele>
        <time>2013-05-26T08:48:49Z</time>
      </trkpt>
      <trkpt lat="45.67497" lon="4.75749">
        <ele>261.62964</ele>
        <time>2013-05-26T08:48:53Z</time>
      </trkpt>
      <trkpt lat="45.67494" lon="4.75717">
        <ele>265.58545</ele>
        <time>2013-05-26T08:48:58Z</time>
      </trkpt>
      <trkpt lat="45.67492" lon="4.75687">
        <ele>267.2695</ele>
        <time>2013-05-26T08:49:03Z</time>
      </trkpt>
      <trkpt lat="45.67486" lon="4.75661">
        <ele>269.3898</ele>
        <time>2013-05-26T08:49:17Z</time>
      </trkpt>
      <trkpt lat="45.67481" lon="4.75636">
        <ele>268.83466</ele>
        <time>2013-05-26T08:49:21Z</time>
      </trkpt>
      <trkpt lat="45.67474" lon="4.75608">
        <ele>268.6887</ele>
        <time>2013-05-26T08:49:25Z</time>
      </trkpt>
      <trkpt lat="45.67466" lon="4.75584">
        <ele>268.61713</ele>
        <time>2013-05-26T08:49:29Z</time>
      </trkpt>
      <trkpt lat="45.67457" lon="4.75555">
        <ele>269.07516</ele>
        <time>2013-05-26T08:49:34Z</time>
      </trkpt>
      <trkpt lat="45.6745" lon="4.75529">
        <ele>269.6093</ele>
        <time>2013-05-26T08:49:38Z</time>
      </trkpt>
      <trkpt lat="45.67442" lon="4.75502">
        <ele>268.2027</ele>
        <time>2013-05-26T08:49:43Z</time>
      </trkpt>
      <trkpt lat="45.67432" lon="4.75478">
        <ele>265.63016</ele>
        <time>2013-05-26T08:49:47Z</time>
      </trkpt>
      <trkpt lat="45.67425" lon="4.75445">
        <ele>263.6353</ele>
        <time>2013-05-26T08:49:51Z</time>
      </trkpt>
      <trkpt lat="45.67416" lon="4.75417">
        <ele>262.23813</ele>
        <time>2013-05-26T08:49:55Z</time>
      </trkpt>
      <trkpt lat="45.67408" lon="4.7539">
        <ele>262.16666</ele>
        <time>2013-05-26T08:50:00Z</time>
      </trkpt>
      <trkpt lat="45.674" lon="4.75367">
        <ele>259.18915</ele>
        <time>2013-05-26T08:50:46Z</time>
      </trkpt>
      <trkpt lat="45.6738" lon="4.75361">
        <ele>259.1982</ele>
        <time>2013-05-26T08:50:54Z</time>
      </trkpt>
      <trkpt lat="45.67361" lon="4.75357">
        <ele>258.95993</ele>
        <time>2013-05-26T08:50:59Z</time>
      </trkpt>
      <trkpt lat="45.67339" lon="4.75357">
        <ele>259.328</ele>
        <time>2013-05-26T08:51:04Z</time>
      </trkpt>
      <trkpt lat="45.67319" lon="4.75356">
        <ele>258.90985</ele>
        <time>2013-05-26T08:51:09Z</time>
      </trkpt>
      <trkpt lat="45.673" lon="4.75352">
        <ele>258.83456</ele>
        <time>2013-05-26T08:51:14Z</time>
      </trkpt>
      <trkpt lat="45.67282" lon="4.75348">
        <ele>259.56934</ele>
        <time>2013-05-26T08:51:21Z</time>
      </trkpt>
      <trkpt lat="45.67262" lon="4.75344">
        <ele>260.0562</ele>
        <time>2013-05-26T08:51:32Z</time>
      </trkpt>
      <trkpt lat="45.67244" lon="4.75342">
        <ele>254.44154</ele>
        <time>2013-05-26T08:51:41Z</time>
      </trkpt>
      <trkpt lat="45.67225" lon="4.75339">
        <ele>255.08212</ele>
        <time>2013-05-26T08:51:46Z</time>
      </trkpt>
      <trkpt lat="45.67207" lon="4.75336">
        <ele>258.20337</ele>
        <time>2013-05-26T08:51:51Z</time>
      </trkpt>
      <trkpt lat="45.6719" lon="4.7533">
        <ele>258.56186</ele>
        <time>2013-05-26T08:51:57Z</time>
      </trkpt>
      <trkpt lat="45.67171" lon="4.75328">
        <ele>259.9794</ele>
        <time>2013-05-26T08:52:04Z</time>
      </trkpt>
      <trkpt lat="45.67151" lon="4.75329">
        <ele>262.3935</ele>
        <time>2013-05-26T08:52:14Z</time>
      </trkpt>
      <trkpt lat="45.6713" lon="4.75325">
        <ele>261.6062</ele>
        <time>2013-05-26T08:52:20Z</time>
      </trkpt>
      <trkpt lat="45.6711" lon="4.75322">
        <ele>261.10577</ele>
        <time>2013-05-26T08:52:25Z</time>
      </trkpt>
      <trkpt lat="45.67091" lon="4.75319">
        <ele>261.16495</ele>
        <time>2013-05-26T08:52:30Z</time>
      </trkpt>
      <trkpt lat="45.67073" lon="4.75316">
        <ele>261.24988</ele>
        <time>2013-05-26T08:52:35Z</time>
      </trkpt>
      <trkpt lat="45.67053" lon="4.75315">
        <ele>262.3736</ele>
        <time>2013-05-26T08:52:39Z</time>
      </trkpt>
      <trkpt lat="45.67031" lon="4.7531">
        <ele>262.63446</ele>
        <time>2013-05-26T08:52:44Z</time>
      </trkpt>
      <trkpt lat="45.67013" lon="4.75309">
        <ele>261.7734</ele>
        <time>2013-05-26T08:52:48Z</time>
      </trkpt>
      <trkpt lat="45.66992" lon="4.75307">
        <ele>261.30774</ele>
        <time>2013-05-26T08:52:53Z</time>
      </trkpt>
      <trkpt lat="45.66973" lon="4.75303">
        <ele>262.12277</ele>
        <time>2013-05-26T08:52:57Z</time>
      </trkpt>
      <trkpt lat="45.66951" lon="4.75299">
        <ele>263.36722</ele>
        <time>2013-05-26T08:53:02Z</time>
      </trkpt>
      <trkpt lat="45.66929" lon="4.75296">
        <ele>263.52698</ele>
        <time>2013-05-26T08:53:07Z</time>
      </trkpt>
      <trkpt lat="45.66907" lon="4.75291">
        <ele>263.9856</ele>
        <time>2013-05-26T08:53:12Z</time>
      </trkpt>
      <trkpt lat="45.66888" lon="4.75288">
        <ele>264.38333</ele>
        <time>2013-05-26T08:53:16Z</time>
      </trkpt>
      <trkpt lat="45.66867" lon="4.75288">
        <ele>265.58783</ele>
        <time>2013-05-26T08:53:21Z</time>
      </trkpt>
      <trkpt lat="45.66848" lon="4.75284">
        <ele>267.0645</ele>
        <time>2013-05-26T08:53:25Z</time>
      </trkpt>
      <trkpt lat="45.66829" lon="4.75281">
        <ele>267.33878</ele>
        <time>2013-05-26T08:53:29Z</time>
      </trkpt>
      <trkpt lat="45.6681" lon="4.75279">
        <ele>266.69272</ele>
        <time>2013-05-26T08:53:33Z</time>
      </trkpt>
      <trkpt lat="45.66792" lon="4.75277">
        <ele>265.15472</ele>
        <time>2013-05-26T08:53:37Z</time>
      </trkpt>
      <trkpt lat="45.66772" lon="4.75272">
        <ele>263.8935</ele>
        <time>2013-05-26T08:53:41Z</time>
      </trkpt>
      <trkpt lat="45.66752" lon="4.7527">
        <ele>262.2624</ele>
        <time>2013-05-26T08:53:45Z</time>
      </trkpt>
      <trkpt lat="45.66734" lon="4.75266">
        <ele>261.02637</ele>
        <time>2013-05-26T08:53:49Z</time>
      </trkpt>
      <trkpt lat="45.66715" lon="4.75263">
        <ele>259.84586</ele>
        <time>2013-05-26T08:53:53Z</time>
      </trkpt>
      <trkpt lat="45.66694" lon="4.75256">
        <ele>257.80786</ele>
        <time>2013-05-26T08:53:58Z</time>
      </trkpt>
      <trkpt lat="45.66677" lon="4.75239">
        <ele>257.55423</ele>
        <time>2013-05-26T08:54:03Z</time>
      </trkpt>
      <trkpt lat="45.66659" lon="4.75245">
        <ele>258.1825</ele>
        <time>2013-05-26T08:54:08Z</time>
      </trkpt>
      <trkpt lat="45.66641" lon="4.75256">
        <ele>260.5162</ele>
        <time>2013-05-26T08:55:52Z</time>
      </trkpt>
      <trkpt lat="45.66622" lon="4.7525">
        <ele>259.02795</ele>
        <time>2013-05-26T08:55:57Z</time>
      </trkpt>
      <trkpt lat="45.66604" lon="4.75245">
        <ele>257.93915</ele>
        <time>2013-05-26T08:56:02Z</time>
      </trkpt>
      <trkpt lat="45.66622" lon="4.7524">
        <ele>259.06186</ele>
        <time>2013-05-26T08:56:37Z</time>
      </trkpt>
      <trkpt lat="45.66642" lon="4.75245">
        <ele>259.42175</ele>
        <time>2013-05-26T08:56:43Z</time>
      </trkpt>
      <trkpt lat="45.6666" lon="4.75247">
        <ele>260.7632</ele>
        <time>2013-05-26T08:56:49Z</time>
      </trkpt>
      <trkpt lat="45.66675" lon="4.75233">
        <ele>261.65872</ele>
        <time>2013-05-26T08:56:55Z</time>
      </trkpt>
      <trkpt lat="45.66686" lon="4.75208">
        <ele>261.69217</ele>
        <time>2013-05-26T08:57:03Z</time>
      </trkpt>
      <trkpt lat="45.66687" lon="4.75179">
        <ele>261.53152</ele>
        <time>2013-05-26T08:57:08Z</time>
      </trkpt>
      <trkpt lat="45.66688" lon="4.75151">
        <ele>261.762</ele>
        <time>2013-05-26T08:57:13Z</time>
      </trkpt>
      <trkpt lat="45.6669" lon="4.75125">
        <ele>263.16177</ele>
        <time>2013-05-26T08:57:18Z</time>
      </trkpt>
      <trkpt lat="45.66692" lon="4.75097">
        <ele>263.95667</ele>
        <time>2013-05-26T08:57:23Z</time>
      </trkpt>
      <trkpt lat="45.66693" lon="4.75068">
        <ele>264.2517</ele>
        <time>2013-05-26T08:57:28Z</time>
      </trkpt>
      <trkpt lat="45.66695" lon="4.7504">
        <ele>265.05164</ele>
        <time>2013-05-26T08:57:33Z</time>
      </trkpt>
      <trkpt lat="45.66698" lon="4.75013">
        <ele>265.26822</ele>
        <time>2013-05-26T08:57:39Z</time>
      </trkpt>
      <trkpt lat="45.66717" lon="4.75005">
        <ele>262.80292</ele>
        <time>2013-05-26T08:57:49Z</time>
      </trkpt>
      <trkpt lat="45.66737" lon="4.75009">
        <ele>262.36484</ele>
        <time>2013-05-26T08:57:55Z</time>
      </trkpt>
      <trkpt lat="45.66755" lon="4.75015">
        <ele>260.17682</ele>
        <time>2013-05-26T08:58:00Z</time>
      </trkpt>
      <trkpt lat="45.66774" lon="4.75021">
        <ele>259.99725</ele>
        <time>2013-05-26T08:58:06Z</time>
      </trkpt>
      <trkpt lat="45.66753" lon="4.7501">
        <ele>261.21643</ele>
        <time>2013-05-26T08:58:28Z</time>
      </trkpt>
      <trkpt lat="45.66733" lon="4.75004">
        <ele>262.67352</ele>
        <time>2013-05-26T08:58:33Z</time>
      </trkpt>
      <trkpt lat="45.66712" lon="4.75001">
        <ele>263.56546</ele>
        <time>2013-05-26T08:58:39Z</time>
      </trkpt>
      <trkpt lat="45.66691" lon="4.74999">
        <ele>263.3946</ele>
        <time>2013-05-26T08:58:45Z</time>
      </trkpt>
      <trkpt lat="45.66673" lon="4.75002">
        <ele>262.3533</ele>
        <time>2013-05-26T08:58:50Z</time>
      </trkpt>
      <trkpt lat="45.66653" lon="4.75003">
        <ele>261.9358</ele>
        <time>2013-05-26T08:58:55Z</time>
      </trkpt>
      <trkpt lat="45.66631" lon="4.75003">
        <ele>260.63388</ele>
        <time>2013-05-26T08:59:00Z</time>
      </trkpt>
      <trkpt lat="45.6661" lon="4.75001">
        <ele>260.00043</ele>
        <time>2013-05-26T08:59:05Z</time>
      </trkpt>
      <trkpt lat="45.6659" lon="4.75001">
        <ele>260.59796</ele>
        <time>2013-05-26T08:59:10Z</time>
      </trkpt>
      <trkpt lat="45.66572" lon="4.75002">
        <ele>259.71066</ele>
        <time>2013-05-26T08:59:14Z</time>
      </trkpt>
      <trkpt lat="45.66553" lon="4.74999">
        <ele>259.1319</ele>
        <time>2013-05-26T08:59:18Z</time>
      </trkpt>
      <trkpt lat="45.66534" lon="4.74996">
        <ele>257.8476</ele>
        <time>2013-05-26T08:59:22Z</time>
      </trkpt>
      <trkpt lat="45.66515" lon="4.74989">
        <ele>257.2725</ele>
        <time>2013-05-26T08:59:26Z</time>
      </trkpt>
      <trkpt lat="45.66493" lon="4.74983">
        <ele>256.91232</ele>
        <time>2013-05-26T08:59:31Z</time>
      </trkpt>
      <trkpt lat="45.66472" lon="4.74983">
        <ele>257.75906</ele>
        <time>2013-05-26T08:59:36Z</time>
      </trkpt>
      <trkpt lat="45.66465" lon="4.74958">
        <ele>258.1559</ele>
        <time>2013-05-26T08:59:41Z</time>
      </trkpt>
      <trkpt lat="45.66465" lon="4.74931">
        <ele>259.34705</ele>
        <time>2013-05-26T08:59:46Z</time>
      </trkpt>
      <trkpt lat="45.66467" lon="4.74905">
        <ele>261.44232</ele>
        <time>2013-05-26T08:59:51Z</time>
      </trkpt>
      <trkpt lat="45.66469" lon="4.74875">
        <ele>262.74838</ele>
        <time>2013-05-26T08:59:57Z</time>
      </trkpt>
      <trkpt lat="45.66471" lon="4.74847">
        <ele>262.01706</ele>
        <time>2013-05-26T09:00:03Z</time>
      </trkpt>
      <trkpt lat="45.66463" lon="4.7482">
        <ele>261.55728</ele>
        <time>2013-05-26T09:00:10Z</time>
      </trkpt>
      <trkpt lat="45.66449" lon="4.74801">
        <ele>263.1253</ele>
        <time>2013-05-26T09:00:18Z</time>
      </trkpt>
      <trkpt lat="45.66465" lon="4.74785">
        <ele>269.20996</ele>
        <time>2013-05-26T09:00:33Z</time>
      </trkpt>
      <trkpt lat="45.66483" lon="4.74787">
        <ele>272.25433</ele>
        <time>2013-05-26T09:00:41Z</time>
      </trkpt>
      <trkpt lat="45.66501" lon="4.7478">
        <ele>275.28577</ele>
        <time>2013-05-26T09:00:52Z</time>
      </trkpt>
      <trkpt lat="45.66489" lon="4.74759">
        <ele>276.17166</ele>
        <time>2013-05-26T09:01:01Z</time>
      </trkpt>
      <trkpt lat="45.66475" lon="4.74738">
        <ele>278.14798</ele>
        <time>2013-05-26T09:01:10Z</time>
      </trkpt>
      <trkpt lat="45.6646" lon="4.74723">
        <ele>278.9632</ele>
        <time>2013-05-26T09:01:18Z</time>
      </trkpt>
      <trkpt lat="45.66443" lon="4.74709">
        <ele>279.88242</ele>
        <time>2013-05-26T09:01:28Z</time>
      </trkpt>
      <trkpt lat="45.66425" lon="4.74708">
        <ele>283.5704</ele>
        <time>2013-05-26T09:01:38Z</time>
      </trkpt>
      <trkpt lat="45.66407" lon="4.7471">
        <ele>285.72836</ele>
        <time>2013-05-26T09:01:48Z</time>
      </trkpt>
      <trkpt lat="45.66389" lon="4.74716">
        <ele>286.33987</ele>
        <time>2013-05-26T09:02:00Z</time>
      </trkpt>
      <trkpt lat="45.6637" lon="4.74714">
        <ele>286.98328</ele>
        <time>2013-05-26T09:02:12Z</time>
      </trkpt>
      <trkpt lat="45.66351" lon="4.74712">
        <ele>287.56873</ele>
        <time>2013-05-26T09:02:24Z</time>
      </trkpt>
      <trkpt lat="45.66332" lon="4.74708">
        <ele>290.26245</ele>
        <time>2013-05-26T09:02:37Z</time>
      </trkpt>
      <trkpt lat="45.66314" lon="4.74713">
        <ele>293.72287</ele>
        <time>2013-05-26T09:02:49Z</time>
      </trkpt>
      <trkpt lat="45.66313" lon="4.74687">
        <ele>293.54807</ele>
        <time>2013-05-26T09:03:17Z</time>
      </trkpt>
      <trkpt lat="45.66302" lon="4.74666">
        <ele>293.74835</ele>
        <time>2013-05-26T09:03:31Z</time>
      </trkpt>
      <trkpt lat="45.6629" lon="4.74645">
        <ele>302.158</ele>
        <time>2013-05-26T09:03:47Z</time>
      </trkpt>
      <trkpt lat="45.66288" lon="4.74618">
        <ele>305.18225</ele>
        <time>2013-05-26T09:04:01Z</time>
      </trkpt>
      <trkpt lat="45.66286" lon="4.74592">
        <ele>303.07626</ele>
        <time>2013-05-26T09:04:15Z</time>
      </trkpt>
      <trkpt lat="45.66281" lon="4.74566">
        <ele>302.2719</ele>
        <time>2013-05-26T09:04:28Z</time>
      </trkpt>
      <trkpt lat="45.66271" lon="4.74543">
        <ele>308.87204</ele>
        <time>2013-05-26T09:04:41Z</time>
      </trkpt>
      <trkpt lat="45.66261" lon="4.74519">
        <ele>311.6823</ele>
        <time>2013-05-26T09:04:56Z</time>
      </trkpt>
      <trkpt lat="45.66255" lon="4.74494">
        <ele>313.66205</ele>
        <time>2013-05-26T09:05:10Z</time>
      </trkpt>
      <trkpt lat="45.66252" lon="4.74468">
        <ele>316.70334</ele>
        <time>2013-05-26T09:05:21Z</time>
      </trkpt>
      <trkpt lat="45.66233" lon="4.74456">
        <ele>320.06796</ele>
        <time>2013-05-26T09:05:30Z</time>
      </trkpt>
      <trkpt lat="45.66215" lon="4.74447">
        <ele>321.96948</ele>
        <time>2013-05-26T09:05:37Z</time>
      </trkpt>
      <trkpt lat="45.66197" lon="4.74442">
        <ele>323.01315</ele>
        <time>2013-05-26T09:05:43Z</time>
      </trkpt>
      <trkpt lat="45.66178" lon="4.74441">
        <ele>323.18246</ele>
        <time>2013-05-26T09:05:49Z</time>
      </trkpt>
      <trkpt lat="45.66158" lon="4.74443">
        <ele>322.58005</ele>
        <time>2013-05-26T09:05:55Z</time>
      </trkpt>
      <trkpt lat="45.66137" lon="4.74444">
        <ele>322.56055</ele>
        <time>2013-05-26T09:06:01Z</time>
      </trkpt>
      <trkpt lat="45.66119" lon="4.74435">
        <ele>323.54254</ele>
        <time>2013-05-26T09:06:07Z</time>
      </trkpt>
      <trkpt lat="45.66106" lon="4.74412">
        <ele>324.49387</ele>
        <time>2013-05-26T09:06:13Z</time>
      </trkpt>
      <trkpt lat="45.66097" lon="4.74389">
        <ele>325.7495</ele>
        <time>2013-05-26T09:06:18Z</time>
      </trkpt>
      <trkpt lat="45.66085" lon="4.74365">
        <ele>326.0342</ele>
        <time>2013-05-26T09:06:23Z</time>
      </trkpt>
      <trkpt lat="45.66073" lon="4.74346">
        <ele>328.2712</ele>
        <time>2013-05-26T09:06:28Z</time>
      </trkpt>
      <trkpt lat="45.66058" lon="4.74331">
        <ele>328.88068</ele>
        <time>2013-05-26T09:06:33Z</time>
      </trkpt>
      <trkpt lat="45.66043" lon="4.74314">
        <ele>329.3292</ele>
        <time>2013-05-26T09:06:38Z</time>
      </trkpt>
      <trkpt lat="45.66033" lon="4.74292">
        <ele>329.1953</ele>
        <time>2013-05-26T09:06:43Z</time>
      </trkpt>
      <trkpt lat="45.66023" lon="4.74268">
        <ele>328.0776</ele>
        <time>2013-05-26T09:06:48Z</time>
      </trkpt>
      <trkpt lat="45.6601" lon="4.74246">
        <ele>326.11215</ele>
        <time>2013-05-26T09:06:53Z</time>
      </trkpt>
      <trkpt lat="45.65996" lon="4.74225">
        <ele>325.23883</ele>
        <time>2013-05-26T09:06:58Z</time>
      </trkpt>
      <trkpt lat="45.65984" lon="4.74203">
        <ele>325.59808</ele>
        <time>2013-05-26T09:07:03Z</time>
      </trkpt>
      <trkpt lat="45.65984" lon="4.74173">
        <ele>324.78036</ele>
        <time>2013-05-26T09:07:09Z</time>
      </trkpt>
      <trkpt lat="45.65994" lon="4.74148">
        <ele>324.6022</ele>
        <time>2013-05-26T09:07:15Z</time>
      </trkpt>
      <trkpt lat="45.65986" lon="4.74171">
        <ele>322.56064</ele>
        <time>2013-05-26T09:07:30Z</time>
      </trkpt>
      <trkpt lat="45.65994" lon="4.74146">
        <ele>323.34055</ele>
        <time>2013-05-26T09:07:53Z</time>
      </trkpt>
      <trkpt lat="45.66003" lon="4.7412">
        <ele>325.58026</ele>
        <time>2013-05-26T09:08:01Z</time>
      </trkpt>
      <trkpt lat="45.66013" lon="4.74097">
        <ele>329.33746</ele>
        <time>2013-05-26T09:08:09Z</time>
      </trkpt>
      <trkpt lat="45.66027" lon="4.74079">
        <ele>334.54617</ele>
        <time>2013-05-26T09:08:20Z</time>
      </trkpt>
      <trkpt lat="45.66043" lon="4.74067">
        <ele>335.5542</ele>
        <time>2013-05-26T09:08:32Z</time>
      </trkpt>
      <trkpt lat="45.6606" lon="4.74055">
        <ele>336.74704</ele>
        <time>2013-05-26T09:08:41Z</time>
      </trkpt>
      <trkpt lat="45.66076" lon="4.74042">
        <ele>339.05225</ele>
        <time>2013-05-26T09:08:50Z</time>
      </trkpt>
      <trkpt lat="45.66092" lon="4.74028">
        <ele>340.52588</ele>
        <time>2013-05-26T09:08:58Z</time>
      </trkpt>
      <trkpt lat="45.66107" lon="4.74011">
        <ele>339.16794</ele>
        <time>2013-05-26T09:09:06Z</time>
      </trkpt>
      <trkpt lat="45.66122" lon="4.73995">
        <ele>336.8063</ele>
        <time>2013-05-26T09:09:14Z</time>
      </trkpt>
      <trkpt lat="45.66137" lon="4.73981">
        <ele>337.87155</ele>
        <time>2013-05-26T09:09:23Z</time>
      </trkpt>
      <trkpt lat="45.66154" lon="4.73968">
        <ele>340.17203</ele>
        <time>2013-05-26T09:09:32Z</time>
      </trkpt>
      <trkpt lat="45.6617" lon="4.73955">
        <ele>342.10846</ele>
        <time>2013-05-26T09:09:41Z</time>
      </trkpt>
      <trkpt lat="45.66187" lon="4.73944">
        <ele>341.62485</ele>
        <time>2013-05-26T09:09:51Z</time>
      </trkpt>
      <trkpt lat="45.66204" lon="4.73933">
        <ele>341.41464</ele>
        <time>2013-05-26T09:10:00Z</time>
      </trkpt>
      <trkpt lat="45.66222" lon="4.73922">
        <ele>341.61115</ele>
        <time>2013-05-26T09:10:07Z</time>
      </trkpt>
      <trkpt lat="45.66239" lon="4.73912">
        <ele>341.99634</ele>
        <time>2013-05-26T09:10:13Z</time>
      </trkpt>
      <trkpt lat="45.66256" lon="4.73904">
        <ele>340.8736</ele>
        <time>2013-05-26T09:10:19Z</time>
      </trkpt>
      <trkpt lat="45.66273" lon="4.73896">
        <ele>341.6151</ele>
        <time>2013-05-26T09:10:24Z</time>
      </trkpt>
      <trkpt lat="45.6629" lon="4.73888">
        <ele>342.2908</ele>
        <time>2013-05-26T09:10:29Z</time>
      </trkpt>
      <trkpt lat="45.66308" lon="4.73878">
        <ele>342.3719</ele>
        <time>2013-05-26T09:10:35Z</time>
      </trkpt>
      <trkpt lat="45.66325" lon="4.73867">
        <ele>342.91364</ele>
        <time>2013-05-26T09:10:41Z</time>
      </trkpt>
      <trkpt lat="45.66344" lon="4.73857">
        <ele>344.29648</ele>
        <time>2013-05-26T09:10:48Z</time>
      </trkpt>
      <trkpt lat="45.66361" lon="4.7384">
        <ele>343.13733</ele>
        <time>2013-05-26T09:10:54Z</time>
      </trkpt>
      <trkpt lat="45.66376" lon="4.7382">
        <ele>341.93173</ele>
        <time>2013-05-26T09:10:58Z</time>
      </trkpt>
      <trkpt lat="45.66392" lon="4.73804">
        <ele>339.27307</ele>
        <time>2013-05-26T09:11:03Z</time>
      </trkpt>
      <trkpt lat="45.66403" lon="4.73779">
        <ele>338.65494</ele>
        <time>2013-05-26T09:11:08Z</time>
      </trkpt>
      <trkpt lat="45.6641" lon="4.73756">
        <ele>339.3455</ele>
        <time>2013-05-26T09:11:12Z</time>
      </trkpt>
      <trkpt lat="45.66417" lon="4.73732">
        <ele>340.2554</ele>
        <time>2013-05-26T09:11:16Z</time>
      </trkpt>
      <trkpt lat="45.66421" lon="4.73705">
        <ele>341.023</ele>
        <time>2013-05-26T09:11:20Z</time>
      </trkpt>
      <trkpt lat="45.6642" lon="4.73677">
        <ele>340.97916</ele>
        <time>2013-05-26T09:11:24Z</time>
      </trkpt>
      <trkpt lat="45.66413" lon="4.73651">
        <ele>339.35904</ele>
        <time>2013-05-26T09:11:28Z</time>
      </trkpt>
      <trkpt lat="45.66404" lon="4.73624">
        <ele>338.98502</ele>
        <time>2013-05-26T09:11:33Z</time>
      </trkpt>
      <trkpt lat="45.66395" lon="4.73601">
        <ele>339.04614</ele>
        <time>2013-05-26T09:11:38Z</time>
      </trkpt>
      <trkpt lat="45.66389" lon="4.73576">
        <ele>339.31866</ele>
        <time>2013-05-26T09:11:43Z</time>
      </trkpt>
      <trkpt lat="45.66386" lon="4.7355">
        <ele>341.4179</ele>
        <time>2013-05-26T09:11:48Z</time>
      </trkpt>
      <trkpt lat="45.66389" lon="4.73522">
        <ele>343.23206</ele>
        <time>2013-05-26T09:11:54Z</time>
      </trkpt>
      <trkpt lat="45.66394" lon="4.73495">
        <ele>343.12576</ele>
        <time>2013-05-26T09:12:00Z</time>
      </trkpt>
      <trkpt lat="45.664" lon="4.73467">
        <ele>343.98648</ele>
        <time>2013-05-26T09:12:07Z</time>
      </trkpt>
      <trkpt lat="45.66405" lon="4.73441">
        <ele>344.27884</ele>
        <time>2013-05-26T09:12:14Z</time>
      </trkpt>
      <trkpt lat="45.66409" lon="4.73414">
        <ele>344.8417</ele>
        <time>2013-05-26T09:12:21Z</time>
      </trkpt>
      <trkpt lat="45.66414" lon="4.73388">
        <ele>347.3398</ele>
        <time>2013-05-26T09:12:28Z</time>
      </trkpt>
      <trkpt lat="45.66415" lon="4.73362">
        <ele>349.67084</ele>
        <time>2013-05-26T09:12:35Z</time>
      </trkpt>
      <trkpt lat="45.66418" lon="4.73334">
        <ele>356.712</ele>
        <time>2013-05-26T09:12:43Z</time>
      </trkpt>
      <trkpt lat="45.6642" lon="4.73308">
        <ele>358.6408</ele>
        <time>2013-05-26T09:12:50Z</time>
      </trkpt>
      <trkpt lat="45.66425" lon="4.7328">
        <ele>358.64154</ele>
        <time>2013-05-26T09:12:58Z</time>
      </trkpt>
      <trkpt lat="45.66425" lon="4.73251">
        <ele>356.32648</ele>
        <time>2013-05-26T09:13:06Z</time>
      </trkpt>
      <trkpt lat="45.66421" lon="4.73221">
        <ele>355.5442</ele>
        <time>2013-05-26T09:13:13Z</time>
      </trkpt>
      <trkpt lat="45.66417" lon="4.73194">
        <ele>355.87582</ele>
        <time>2013-05-26T09:13:18Z</time>
      </trkpt>
      <trkpt lat="45.66412" lon="4.73165">
        <ele>354.87042</ele>
        <time>2013-05-26T09:13:23Z</time>
      </trkpt>
      <trkpt lat="45.66408" lon="4.73137">
        <ele>353.1338</ele>
        <time>2013-05-26T09:13:28Z</time>
      </trkpt>
      <trkpt lat="45.66403" lon="4.73109">
        <ele>354.0505</ele>
        <time>2013-05-26T09:13:33Z</time>
      </trkpt>
      <trkpt lat="45.66402" lon="4.73081">
        <ele>355.25995</ele>
        <time>2013-05-26T09:13:38Z</time>
      </trkpt>
      <trkpt lat="45.66402" lon="4.73054">
        <ele>355.4734</ele>
        <time>2013-05-26T09:13:43Z</time>
      </trkpt>
      <trkpt lat="45.66402" lon="4.73024">
        <ele>355.73392</ele>
        <time>2013-05-26T09:13:48Z</time>
      </trkpt>
      <trkpt lat="45.66402" lon="4.72996">
        <ele>356.29886</ele>
        <time>2013-05-26T09:13:53Z</time>
      </trkpt>
      <trkpt lat="45.66403" lon="4.72968">
        <ele>357.22552</ele>
        <time>2013-05-26T09:13:58Z</time>
      </trkpt>
      <trkpt lat="45.66403" lon="4.72941">
        <ele>357.42645</ele>
        <time>2013-05-26T09:14:03Z</time>
      </trkpt>
      <trkpt lat="45.66403" lon="4.72913">
        <ele>357.25983</ele>
        <time>2013-05-26T09:14:09Z</time>
      </trkpt>
      <trkpt lat="45.66403" lon="4.72886">
        <ele>356.63852</ele>
        <time>2013-05-26T09:14:17Z</time>
      </trkpt>
      <trkpt lat="45.66406" lon="4.72857">
        <ele>355.6874</ele>
        <time>2013-05-26T09:14:24Z</time>
      </trkpt>
      <trkpt lat="45.66405" lon="4.72828">
        <ele>356.16324</ele>
        <time>2013-05-26T09:14:30Z</time>
      </trkpt>
      <trkpt lat="45.66407" lon="4.72799">
        <ele>356.4268</ele>
        <time>2013-05-26T09:14:37Z</time>
      </trkpt>
      <trkpt lat="45.66409" lon="4.72771">
        <ele>361.14688</ele>
        <time>2013-05-26T09:14:44Z</time>
      </trkpt>
      <trkpt lat="45.66413" lon="4.72743">
        <ele>362.48676</ele>
        <time>2013-05-26T09:14:51Z</time>
      </trkpt>
      <trkpt lat="45.66416" lon="4.72716">
        <ele>362.1584</ele>
        <time>2013-05-26T09:14:57Z</time>
      </trkpt>
      <trkpt lat="45.66419" lon="4.7269">
        <ele>362.9162</ele>
        <time>2013-05-26T09:15:03Z</time>
      </trkpt>
      <trkpt lat="45.66423" lon="4.72663">
        <ele>366.28174</ele>
        <time>2013-05-26T09:15:09Z</time>
      </trkpt>
      <trkpt lat="45.66426" lon="4.72635">
        <ele>366.5337</ele>
        <time>2013-05-26T09:15:15Z</time>
      </trkpt>
      <trkpt lat="45.66427" lon="4.72607">
        <ele>367.5348</ele>
        <time>2013-05-26T09:15:21Z</time>
      </trkpt>
      <trkpt lat="45.66427" lon="4.72579">
        <ele>368.13303</ele>
        <time>2013-05-26T09:15:27Z</time>
      </trkpt>
      <trkpt lat="45.66427" lon="4.72551">
        <ele>367.58994</ele>
        <time>2013-05-26T09:15:33Z</time>
      </trkpt>
      <trkpt lat="45.66427" lon="4.72523">
        <ele>366.25943</ele>
        <time>2013-05-26T09:15:39Z</time>
      </trkpt>
      <trkpt lat="45.66428" lon="4.72495">
        <ele>365.79654</ele>
        <time>2013-05-26T09:15:44Z</time>
      </trkpt>
      <trkpt lat="45.66428" lon="4.72468">
        <ele>365.04227</ele>
        <time>2013-05-26T09:15:48Z</time>
      </trkpt>
      <trkpt lat="45.66428" lon="4.72442">
        <ele>363.32095</ele>
        <time>2013-05-26T09:15:51Z</time>
      </trkpt>
      <trkpt lat="45.66429" lon="4.72413">
        <ele>361.23383</ele>
        <time>2013-05-26T09:15:54Z</time>
      </trkpt>
      <trkpt lat="45.66432" lon="4.72384">
        <ele>360.06583</ele>
        <time>2013-05-26T09:15:57Z</time>
      </trkpt>
      <trkpt lat="45.66437" lon="4.72356">
        <ele>359.89185</ele>
        <time>2013-05-26T09:16:00Z</time>
      </trkpt>
      <trkpt lat="45.66443" lon="4.72323">
        <ele>359.11578</ele>
        <time>2013-05-26T09:16:04Z</time>
      </trkpt>
      <trkpt lat="45.66448" lon="4.72297">
        <ele>358.80823</ele>
        <time>2013-05-26T09:16:07Z</time>
      </trkpt>
      <trkpt lat="45.66449" lon="4.72265">
        <ele>359.69675</ele>
        <time>2013-05-26T09:16:11Z</time>
      </trkpt>
      <trkpt lat="45.6645" lon="4.72236">
        <ele>362.10596</ele>
        <time>2013-05-26T09:16:16Z</time>
      </trkpt>
      <trkpt lat="45.66452" lon="4.72206">
        <ele>364.04556</ele>
        <time>2013-05-26T09:16:21Z</time>
      </trkpt>
      <trkpt lat="45.66454" lon="4.72181">
        <ele>362.96988</ele>
        <time>2013-05-26T09:16:25Z</time>
      </trkpt>
      <trkpt lat="45.66456" lon="4.72152">
        <ele>362.60867</ele>
        <time>2013-05-26T09:16:30Z</time>
      </trkpt>
      <trkpt lat="45.66459" lon="4.72124">
        <ele>363.29688</ele>
        <time>2013-05-26T09:16:35Z</time>
      </trkpt>
      <trkpt lat="45.66462" lon="4.72094">
        <ele>363.3301</ele>
        <time>2013-05-26T09:16:40Z</time>
      </trkpt>
      <trkpt lat="45.66464" lon="4.72066">
        <ele>363.26672</ele>
        <time>2013-05-26T09:16:45Z</time>
      </trkpt>
      <trkpt lat="45.66461" lon="4.72039">
        <ele>363.725</ele>
        <time>2013-05-26T09:16:50Z</time>
      </trkpt>
      <trkpt lat="45.66453" lon="4.72011">
        <ele>363.579</ele>
        <time>2013-05-26T09:16:56Z</time>
      </trkpt>
      <trkpt lat="45.66439" lon="4.71997">
        <ele>362.86826</ele>
        <time>2013-05-26T09:17:01Z</time>
      </trkpt>
      <trkpt lat="45.66419" lon="4.71986">
        <ele>362.00418</ele>
        <time>2013-05-26T09:17:06Z</time>
      </trkpt>
      <trkpt lat="45.664" lon="4.71978">
        <ele>363.1419</ele>
        <time>2013-05-26T09:17:11Z</time>
      </trkpt>
      <trkpt lat="45.66381" lon="4.71969">
        <ele>364.1378</ele>
        <time>2013-05-26T09:17:16Z</time>
      </trkpt>
      <trkpt lat="45.66362" lon="4.7196">
        <ele>364.15768</ele>
        <time>2013-05-26T09:17:21Z</time>
      </trkpt>
      <trkpt lat="45.66344" lon="4.7195">
        <ele>363.68558</ele>
        <time>2013-05-26T09:17:26Z</time>
      </trkpt>
      <trkpt lat="45.66325" lon="4.7194">
        <ele>365.1033</ele>
        <time>2013-05-26T09:17:32Z</time>
      </trkpt>
      <trkpt lat="45.66304" lon="4.71934">
        <ele>368.93344</ele>
        <time>2013-05-26T09:17:38Z</time>
      </trkpt>
      <trkpt lat="45.66285" lon="4.71929">
        <ele>373.6345</ele>
        <time>2013-05-26T09:17:43Z</time>
      </trkpt>
      <trkpt lat="45.66265" lon="4.71921">
        <ele>375.20428</ele>
        <time>2013-05-26T09:17:47Z</time>
      </trkpt>
      <trkpt lat="45.66248" lon="4.71902">
        <ele>374.77597</ele>
        <time>2013-05-26T09:17:51Z</time>
      </trkpt>
      <trkpt lat="45.66244" lon="4.7187">
        <ele>373.2174</ele>
        <time>2013-05-26T09:17:55Z</time>
      </trkpt>
      <trkpt lat="45.6625" lon="4.71844">
        <ele>371.4417</ele>
        <time>2013-05-26T09:17:58Z</time>
      </trkpt>
      <trkpt lat="45.66259" lon="4.71818">
        <ele>368.2598</ele>
        <time>2013-05-26T09:18:01Z</time>
      </trkpt>
      <trkpt lat="45.66274" lon="4.71794">
        <ele>365.70023</ele>
        <time>2013-05-26T09:18:04Z</time>
      </trkpt>
      <trkpt lat="45.66293" lon="4.7178">
        <ele>363.6032</ele>
        <time>2013-05-26T09:18:07Z</time>
      </trkpt>
      <trkpt lat="45.66314" lon="4.71769">
        <ele>361.58887</ele>
        <time>2013-05-26T09:18:10Z</time>
      </trkpt>
      <trkpt lat="45.66331" lon="4.71755">
        <ele>360.30624</ele>
        <time>2013-05-26T09:18:13Z</time>
      </trkpt>
      <trkpt lat="45.66338" lon="4.71729">
        <ele>360.16357</ele>
        <time>2013-05-26T09:18:16Z</time>
      </trkpt>
      <trkpt lat="45.66333" lon="4.717">
        <ele>359.30338</ele>
        <time>2013-05-26T09:18:19Z</time>
      </trkpt>
      <trkpt lat="45.66321" lon="4.7168">
        <ele>358.3108</ele>
        <time>2013-05-26T09:18:22Z</time>
      </trkpt>
      <trkpt lat="45.66299" lon="4.71669">
        <ele>357.0108</ele>
        <time>2013-05-26T09:18:25Z</time>
      </trkpt>
      <trkpt lat="45.66278" lon="4.7166">
        <ele>355.5108</ele>
        <time>2013-05-26T09:18:28Z</time>
      </trkpt>
      <trkpt lat="45.66257" lon="4.71649">
        <ele>354.08737</ele>
        <time>2013-05-26T09:18:31Z</time>
      </trkpt>
      <trkpt lat="45.66242" lon="4.71625">
        <ele>352.82748</ele>
        <time>2013-05-26T09:18:34Z</time>
      </trkpt>
      <trkpt lat="45.66245" lon="4.71594">
        <ele>350.65848</ele>
        <time>2013-05-26T09:18:37Z</time>
      </trkpt>
      <trkpt lat="45.66251" lon="4.71563">
        <ele>348.12936</ele>
        <time>2013-05-26T09:18:40Z</time>
      </trkpt>
      <trkpt lat="45.6626" lon="4.71536">
        <ele>346.24207</ele>
        <time>2013-05-26T09:18:43Z</time>
      </trkpt>
      <trkpt lat="45.66275" lon="4.71509">
        <ele>343.48492</ele>
        <time>2013-05-26T09:18:46Z</time>
      </trkpt>
      <trkpt lat="45.66288" lon="4.71485">
        <ele>340.23895</ele>
        <time>2013-05-26T09:18:49Z</time>
      </trkpt>
      <trkpt lat="45.66288" lon="4.71448">
        <ele>339.83673</ele>
        <time>2013-05-26T09:18:52Z</time>
      </trkpt>
      <trkpt lat="45.66291" lon="4.71415">
        <ele>339.31238</ele>
        <time>2013-05-26T09:18:55Z</time>
      </trkpt>
      <trkpt lat="45.66289" lon="4.71385">
        <ele>337.6552</ele>
        <time>2013-05-26T09:18:58Z</time>
      </trkpt>
      <trkpt lat="45.66288" lon="4.71353">
        <ele>335.7046</ele>
        <time>2013-05-26T09:19:02Z</time>
      </trkpt>
      <trkpt lat="45.66275" lon="4.71331">
        <ele>337.47968</ele>
        <time>2013-05-26T09:19:08Z</time>
      </trkpt>
      <trkpt lat="45.66261" lon="4.71346">
        <ele>334.9754</ele>
        <time>2013-05-26T09:19:14Z</time>
      </trkpt>
      <trkpt lat="45.66249" lon="4.71373">
        <ele>331.70178</ele>
        <time>2013-05-26T09:19:19Z</time>
      </trkpt>
      <trkpt lat="45.66238" lon="4.71394">
        <ele>330.65878</ele>
        <time>2013-05-26T09:19:23Z</time>
      </trkpt>
      <trkpt lat="45.66225" lon="4.71418">
        <ele>331.1326</ele>
        <time>2013-05-26T09:19:28Z</time>
      </trkpt>
      <trkpt lat="45.66214" lon="4.71443">
        <ele>331.56644</ele>
        <time>2013-05-26T09:19:33Z</time>
      </trkpt>
      <trkpt lat="45.662" lon="4.71466">
        <ele>332.1103</ele>
        <time>2013-05-26T09:19:38Z</time>
      </trkpt>
      <trkpt lat="45.66186" lon="4.71488">
        <ele>334.05362</ele>
        <time>2013-05-26T09:19:43Z</time>
      </trkpt>
      <trkpt lat="45.66173" lon="4.71512">
        <ele>336.45325</ele>
        <time>2013-05-26T09:19:48Z</time>
      </trkpt>
      <trkpt lat="45.66163" lon="4.71537">
        <ele>337.97778</ele>
        <time>2013-05-26T09:19:53Z</time>
      </trkpt>
      <trkpt lat="45.66153" lon="4.71562">
        <ele>337.6332</ele>
        <time>2013-05-26T09:19:58Z</time>
      </trkpt>
      <trkpt lat="45.66144" lon="4.71586">
        <ele>335.67065</ele>
        <time>2013-05-26T09:20:03Z</time>
      </trkpt>
      <trkpt lat="45.66137" lon="4.71611">
        <ele>334.98688</ele>
        <time>2013-05-26T09:20:08Z</time>
      </trkpt>
      <trkpt lat="45.66131" lon="4.71639">
        <ele>335.79373</ele>
        <time>2013-05-26T09:20:14Z</time>
      </trkpt>
      <trkpt lat="45.66126" lon="4.71668">
        <ele>335.79675</ele>
        <time>2013-05-26T09:20:20Z</time>
      </trkpt>
      <trkpt lat="45.66117" lon="4.71692">
        <ele>336.97165</ele>
        <time>2013-05-26T09:20:26Z</time>
      </trkpt>
      <trkpt lat="45.661" lon="4.71708">
        <ele>337.5813</ele>
        <time>2013-05-26T09:20:32Z</time>
      </trkpt>
      <trkpt lat="45.66082" lon="4.71724">
        <ele>338.5948</ele>
        <time>2013-05-26T09:20:38Z</time>
      </trkpt>
      <trkpt lat="45.66065" lon="4.71733">
        <ele>338.95175</ele>
        <time>2013-05-26T09:20:44Z</time>
      </trkpt>
      <trkpt lat="45.66045" lon="4.7174">
        <ele>339.3244</ele>
        <time>2013-05-26T09:20:51Z</time>
      </trkpt>
      <trkpt lat="45.66026" lon="4.7175">
        <ele>344.1957</ele>
        <time>2013-05-26T09:20:58Z</time>
      </trkpt>
      <trkpt lat="45.66011" lon="4.71768">
        <ele>346.73248</ele>
        <time>2013-05-26T09:21:05Z</time>
      </trkpt>
      <trkpt lat="45.66002" lon="4.71791">
        <ele>344.90555</ele>
        <time>2013-05-26T09:21:12Z</time>
      </trkpt>
      <trkpt lat="45.65989" lon="4.71814">
        <ele>345.54803</ele>
        <time>2013-05-26T09:21:20Z</time>
      </trkpt>
      <trkpt lat="45.65974" lon="4.71833">
        <ele>345.98993</ele>
        <time>2013-05-26T09:21:29Z</time>
      </trkpt>
      <trkpt lat="45.65959" lon="4.71848">
        <ele>345.7475</ele>
        <time>2013-05-26T09:21:37Z</time>
      </trkpt>
      <trkpt lat="45.65942" lon="4.71862">
        <ele>347.4975</ele>
        <time>2013-05-26T09:21:45Z</time>
      </trkpt>
      <trkpt lat="45.65924" lon="4.7187">
        <ele>348.6276</ele>
        <time>2013-05-26T09:21:53Z</time>
      </trkpt>
      <trkpt lat="45.65905" lon="4.71874">
        <ele>373.57843</ele>
        <time>2013-05-26T09:30:22Z</time>
      </trkpt>
      <trkpt lat="45.65886" lon="4.71869">
        <ele>372.92682</ele>
        <time>2013-05-26T09:30:30Z</time>
      </trkpt>
      <trkpt lat="45.65868" lon="4.71864">
        <ele>371.96878</ele>
        <time>2013-05-26T09:30:36Z</time>
      </trkpt>
      <trkpt lat="45.65864" lon="4.71834">
        <ele>368.6395</ele>
        <time>2013-05-26T09:30:44Z</time>
      </trkpt>
      <trkpt lat="45.6587" lon="4.71807">
        <ele>365.36423</ele>
        <time>2013-05-26T09:30:50Z</time>
      </trkpt>
      <trkpt lat="45.65873" lon="4.71781">
        <ele>363.05228</ele>
        <time>2013-05-26T09:30:56Z</time>
      </trkpt>
      <trkpt lat="45.65856" lon="4.71763">
        <ele>362.9289</ele>
        <time>2013-05-26T09:31:03Z</time>
      </trkpt>
      <trkpt lat="45.65841" lon="4.71748">
        <ele>363.41925</ele>
        <time>2013-05-26T09:31:09Z</time>
      </trkpt>
      <trkpt lat="45.65825" lon="4.71732">
        <ele>365.5482</ele>
        <time>2013-05-26T09:31:16Z</time>
      </trkpt>
      <trkpt lat="45.65814" lon="4.71711">
        <ele>366.95398</ele>
        <time>2013-05-26T09:31:23Z</time>
      </trkpt>
      <trkpt lat="45.65802" lon="4.71687">
        <ele>367.18307</ele>
        <time>2013-05-26T09:31:30Z</time>
      </trkpt>
      <trkpt lat="45.65792" lon="4.71665">
        <ele>368.2879</ele>
        <time>2013-05-26T09:31:37Z</time>
      </trkpt>
      <trkpt lat="45.65782" lon="4.71642">
        <ele>367.22568</ele>
        <time>2013-05-26T09:31:44Z</time>
      </trkpt>
      <trkpt lat="45.65771" lon="4.71618">
        <ele>367.15356</ele>
        <time>2013-05-26T09:31:51Z</time>
      </trkpt>
      <trkpt lat="45.65759" lon="4.71595">
        <ele>371.4089</ele>
        <time>2013-05-26T09:31:58Z</time>
      </trkpt>
      <trkpt lat="45.65752" lon="4.71571">
        <ele>372.76483</ele>
        <time>2013-05-26T09:32:04Z</time>
      </trkpt>
      <trkpt lat="45.65736" lon="4.71551">
        <ele>372.34216</ele>
        <time>2013-05-26T09:32:10Z</time>
      </trkpt>
      <trkpt lat="45.65718" lon="4.71536">
        <ele>372.79874</ele>
        <time>2013-05-26T09:32:16Z</time>
      </trkpt>
      <trkpt lat="45.65699" lon="4.71526">
        <ele>372.41904</ele>
        <time>2013-05-26T09:32:21Z</time>
      </trkpt>
      <trkpt lat="45.65679" lon="4.71514">
        <ele>370.8887</ele>
        <time>2013-05-26T09:32:26Z</time>
      </trkpt>
      <trkpt lat="45.6566" lon="4.71502">
        <ele>369.72162</ele>
        <time>2013-05-26T09:32:31Z</time>
      </trkpt>
      <trkpt lat="45.65644" lon="4.71487">
        <ele>369.03378</ele>
        <time>2013-05-26T09:32:35Z</time>
      </trkpt>
      <trkpt lat="45.65633" lon="4.71464">
        <ele>368.4599</ele>
        <time>2013-05-26T09:32:39Z</time>
      </trkpt>
      <trkpt lat="45.65628" lon="4.71439">
        <ele>368.0217</ele>
        <time>2013-05-26T09:32:43Z</time>
      </trkpt>
      <trkpt lat="45.65623" lon="4.71414">
        <ele>367.119</ele>
        <time>2013-05-26T09:32:47Z</time>
      </trkpt>
      <trkpt lat="45.65617" lon="4.7139">
        <ele>366.8103</ele>
        <time>2013-05-26T09:32:51Z</time>
      </trkpt>
      <trkpt lat="45.65612" lon="4.71362">
        <ele>369.3833</ele>
        <time>2013-05-26T09:32:56Z</time>
      </trkpt>
      <trkpt lat="45.65608" lon="4.71334">
        <ele>371.48618</ele>
        <time>2013-05-26T09:33:01Z</time>
      </trkpt>
      <trkpt lat="45.65604" lon="4.71306">
        <ele>374.4026</ele>
        <time>2013-05-26T09:33:06Z</time>
      </trkpt>
      <trkpt lat="45.65599" lon="4.71277">
        <ele>379.997</ele>
        <time>2013-05-26T09:33:12Z</time>
      </trkpt>
      <trkpt lat="45.65594" lon="4.71248">
        <ele>378.01462</ele>
        <time>2013-05-26T09:33:17Z</time>
      </trkpt>
      <trkpt lat="45.65589" lon="4.7122">
        <ele>375.88052</ele>
        <time>2013-05-26T09:33:22Z</time>
      </trkpt>
      <trkpt lat="45.65585" lon="4.71194">
        <ele>376.519</ele>
        <time>2013-05-26T09:33:27Z</time>
      </trkpt>
      <trkpt lat="45.65581" lon="4.71168">
        <ele>374.67325</ele>
        <time>2013-05-26T09:33:32Z</time>
      </trkpt>
      <trkpt lat="45.65576" lon="4.71142">
        <ele>373.39523</ele>
        <time>2013-05-26T09:33:37Z</time>
      </trkpt>
      <trkpt lat="45.6557" lon="4.71114">
        <ele>373.65466</ele>
        <time>2013-05-26T09:33:43Z</time>
      </trkpt>
      <trkpt lat="45.65561" lon="4.71087">
        <ele>372.5052</ele>
        <time>2013-05-26T09:33:49Z</time>
      </trkpt>
      <trkpt lat="45.6555" lon="4.71066">
        <ele>373.92007</ele>
        <time>2013-05-26T09:33:55Z</time>
      </trkpt>
      <trkpt lat="45.65538" lon="4.71044">
        <ele>375.43103</ele>
        <time>2013-05-26T09:34:01Z</time>
      </trkpt>
      <trkpt lat="45.65528" lon="4.7102">
        <ele>376.33044</ele>
        <time>2013-05-26T09:34:07Z</time>
      </trkpt>
      <trkpt lat="45.65522" lon="4.70994">
        <ele>372.76105</ele>
        <time>2013-05-26T09:34:14Z</time>
      </trkpt>
      <trkpt lat="45.65518" lon="4.70966">
        <ele>365.6448</ele>
        <time>2013-05-26T09:34:20Z</time>
      </trkpt>
      <trkpt lat="45.6551" lon="4.70943">
        <ele>360.50262</ele>
        <time>2013-05-26T09:34:28Z</time>
      </trkpt>
      <trkpt lat="45.65505" lon="4.70918">
        <ele>365.48755</ele>
        <time>2013-05-26T09:34:34Z</time>
      </trkpt>
      <trkpt lat="45.65498" lon="4.70893">
        <ele>370.3867</ele>
        <time>2013-05-26T09:34:40Z</time>
      </trkpt>
      <trkpt lat="45.65493" lon="4.70867">
        <ele>372.20517</ele>
        <time>2013-05-26T09:34:46Z</time>
      </trkpt>
      <trkpt lat="45.65487" lon="4.70841">
        <ele>374.32654</ele>
        <time>2013-05-26T09:34:52Z</time>
      </trkpt>
      <trkpt lat="45.65481" lon="4.70816">
        <ele>379.4448</ele>
        <time>2013-05-26T09:34:58Z</time>
      </trkpt>
      <trkpt lat="45.65474" lon="4.7079">
        <ele>382.52734</ele>
        <time>2013-05-26T09:35:04Z</time>
      </trkpt>
      <trkpt lat="45.65468" lon="4.70763">
        <ele>381.8728</ele>
        <time>2013-05-26T09:35:10Z</time>
      </trkpt>
      <trkpt lat="45.65462" lon="4.70735">
        <ele>385.6569</ele>
        <time>2013-05-26T09:35:17Z</time>
      </trkpt>
      <trkpt lat="45.65454" lon="4.70707">
        <ele>385.8927</ele>
        <time>2013-05-26T09:35:23Z</time>
      </trkpt>
      <trkpt lat="45.65447" lon="4.7068">
        <ele>384.7329</ele>
        <time>2013-05-26T09:35:29Z</time>
      </trkpt>
      <trkpt lat="45.65442" lon="4.70653">
        <ele>382.8602</ele>
        <time>2013-05-26T09:35:35Z</time>
      </trkpt>
      <trkpt lat="45.65437" lon="4.70628">
        <ele>383.75357</ele>
        <time>2013-05-26T09:35:41Z</time>
      </trkpt>
      <trkpt lat="45.65427" lon="4.70604">
        <ele>383.98062</ele>
        <time>2013-05-26T09:35:47Z</time>
      </trkpt>
      <trkpt lat="45.65414" lon="4.70585">
        <ele>383.65814</ele>
        <time>2013-05-26T09:35:53Z</time>
      </trkpt>
      <trkpt lat="45.654" lon="4.70565">
        <ele>384.334</ele>
        <time>2013-05-26T09:35:59Z</time>
      </trkpt>
      <trkpt lat="45.65385" lon="4.70546">
        <ele>387.2816</ele>
        <time>2013-05-26T09:36:05Z</time>
      </trkpt>
      <trkpt lat="45.65369" lon="4.70526">
        <ele>389.37173</ele>
        <time>2013-05-26T09:36:12Z</time>
      </trkpt>
      <trkpt lat="45.65355" lon="4.70508">
        <ele>389.909</ele>
        <time>2013-05-26T09:36:18Z</time>
      </trkpt>
      <trkpt lat="45.65339" lon="4.70488">
        <ele>390.53333</ele>
        <time>2013-05-26T09:36:24Z</time>
      </trkpt>
      <trkpt lat="45.65323" lon="4.70469">
        <ele>391.6277</ele>
        <time>2013-05-26T09:36:30Z</time>
      </trkpt>
      <trkpt lat="45.65307" lon="4.70449">
        <ele>391.65</ele>
        <time>2013-05-26T09:36:36Z</time>
      </trkpt>
      <trkpt lat="45.65293" lon="4.70431">
        <ele>391.94156</ele>
        <time>2013-05-26T09:36:41Z</time>
      </trkpt>
      <trkpt lat="45.65277" lon="4.70412">
        <ele>393.3266</ele>
        <time>2013-05-26T09:36:47Z</time>
      </trkpt>
      <trkpt lat="45.65263" lon="4.70395">
        <ele>392.88266</ele>
        <time>2013-05-26T09:36:52Z</time>
      </trkpt>
      <trkpt lat="45.65248" lon="4.70376">
        <ele>392.63687</ele>
        <time>2013-05-26T09:36:58Z</time>
      </trkpt>
      <trkpt lat="45.65233" lon="4.70359">
        <ele>392.95837</ele>
        <time>2013-05-26T09:37:04Z</time>
      </trkpt>
      <trkpt lat="45.65219" lon="4.70341">
        <ele>393.38086</ele>
        <time>2013-05-26T09:37:10Z</time>
      </trkpt>
      <trkpt lat="45.65204" lon="4.70322">
        <ele>393.34778</ele>
        <time>2013-05-26T09:37:16Z</time>
      </trkpt>
      <trkpt lat="45.65189" lon="4.70305">
        <ele>393.82574</ele>
        <time>2013-05-26T09:37:22Z</time>
      </trkpt>
      <trkpt lat="45.65174" lon="4.70286">
        <ele>393.06952</ele>
        <time>2013-05-26T09:37:28Z</time>
      </trkpt>
      <trkpt lat="45.65158" lon="4.70268">
        <ele>392.58667</ele>
        <time>2013-05-26T09:37:34Z</time>
      </trkpt>
      <trkpt lat="45.65143" lon="4.70251">
        <ele>393.51123</ele>
        <time>2013-05-26T09:37:40Z</time>
      </trkpt>
      <trkpt lat="45.65127" lon="4.70232">
        <ele>392.8752</ele>
        <time>2013-05-26T09:37:46Z</time>
      </trkpt>
      <trkpt lat="45.6511" lon="4.70217">
        <ele>392.2777</ele>
        <time>2013-05-26T09:37:52Z</time>
      </trkpt>
      <trkpt lat="45.65091" lon="4.70205">
        <ele>392.0572</ele>
        <time>2013-05-26T09:37:58Z</time>
      </trkpt>
      <trkpt lat="45.65072" lon="4.70197">
        <ele>391.8913</ele>
        <time>2013-05-26T09:38:04Z</time>
      </trkpt>
      <trkpt lat="45.65054" lon="4.70191">
        <ele>391.793</ele>
        <time>2013-05-26T09:38:10Z</time>
      </trkpt>
      <trkpt lat="45.65036" lon="4.70187">
        <ele>393.7761</ele>
        <time>2013-05-26T09:38:16Z</time>
      </trkpt>
      <trkpt lat="45.65018" lon="4.70183">
        <ele>394.9566</ele>
        <time>2013-05-26T09:38:22Z</time>
      </trkpt>
      <trkpt lat="45.64997" lon="4.7018">
        <ele>395.07104</ele>
        <time>2013-05-26T09:38:29Z</time>
      </trkpt>
      <trkpt lat="45.64977" lon="4.70176">
        <ele>396.00992</ele>
        <time>2013-05-26T09:38:36Z</time>
      </trkpt>
      <trkpt lat="45.64959" lon="4.70173">
        <ele>398.4281</ele>
        <time>2013-05-26T09:38:42Z</time>
      </trkpt>
      <trkpt lat="45.6494" lon="4.70165">
        <ele>400.32343</ele>
        <time>2013-05-26T09:38:50Z</time>
      </trkpt>
      <trkpt lat="45.64921" lon="4.70157">
        <ele>404.3331</ele>
        <time>2013-05-26T09:38:58Z</time>
      </trkpt>
      <trkpt lat="45.64903" lon="4.70148">
        <ele>404.99692</ele>
        <time>2013-05-26T09:39:06Z</time>
      </trkpt>
      <trkpt lat="45.64886" lon="4.70138">
        <ele>397.8855</ele>
        <time>2013-05-26T09:39:14Z</time>
      </trkpt>
      <trkpt lat="45.64868" lon="4.70129">
        <ele>402.01364</ele>
        <time>2013-05-26T09:39:23Z</time>
      </trkpt>
      <trkpt lat="45.64851" lon="4.70116">
        <ele>407.4979</ele>
        <time>2013-05-26T09:39:32Z</time>
      </trkpt>
      <trkpt lat="45.64832" lon="4.70108">
        <ele>410.55087</ele>
        <time>2013-05-26T09:39:40Z</time>
      </trkpt>
      <trkpt lat="45.64814" lon="4.70096">
        <ele>412.49265</ele>
        <time>2013-05-26T09:39:49Z</time>
      </trkpt>
      <trkpt lat="45.64796" lon="4.70087">
        <ele>413.70767</ele>
        <time>2013-05-26T09:39:58Z</time>
      </trkpt>
      <trkpt lat="45.64778" lon="4.70074">
        <ele>416.63477</ele>
        <time>2013-05-26T09:40:08Z</time>
      </trkpt>
      <trkpt lat="45.64767" lon="4.70053">
        <ele>421.2751</ele>
        <time>2013-05-26T09:40:17Z</time>
      </trkpt>
      <trkpt lat="45.64763" lon="4.70026">
        <ele>424.18387</ele>
        <time>2013-05-26T09:40:27Z</time>
      </trkpt>
      <trkpt lat="45.6476" lon="4.69999">
        <ele>425.46243</ele>
        <time>2013-05-26T09:40:36Z</time>
      </trkpt>
      <trkpt lat="45.6476" lon="4.69972">
        <ele>422.8851</ele>
        <time>2013-05-26T09:40:45Z</time>
      </trkpt>
      <trkpt lat="45.64758" lon="4.69944">
        <ele>410.96832</ele>
        <time>2013-05-26T09:40:53Z</time>
      </trkpt>
      <trkpt lat="45.64754" lon="4.69918">
        <ele>415.81027</ele>
        <time>2013-05-26T09:41:05Z</time>
      </trkpt>
      <trkpt lat="45.64751" lon="4.69891">
        <ele>424.27258</ele>
        <time>2013-05-26T09:41:14Z</time>
      </trkpt>
      <trkpt lat="45.64738" lon="4.69874">
        <ele>427.22318</ele>
        <time>2013-05-26T09:41:21Z</time>
      </trkpt>
      <trkpt lat="45.64725" lon="4.69856">
        <ele>427.4952</ele>
        <time>2013-05-26T09:41:29Z</time>
      </trkpt>
      <trkpt lat="45.64711" lon="4.69838">
        <ele>428.41672</ele>
        <time>2013-05-26T09:41:37Z</time>
      </trkpt>
      <trkpt lat="45.64697" lon="4.69819">
        <ele>431.56372</ele>
        <time>2013-05-26T09:41:46Z</time>
      </trkpt>
      <trkpt lat="45.64682" lon="4.69799">
        <ele>434.1536</ele>
        <time>2013-05-26T09:41:55Z</time>
      </trkpt>
      <trkpt lat="45.64668" lon="4.6978">
        <ele>436.43558</ele>
        <time>2013-05-26T09:42:04Z</time>
      </trkpt>
      <trkpt lat="45.64653" lon="4.69761">
        <ele>438.1676</ele>
        <time>2013-05-26T09:42:13Z</time>
      </trkpt>
      <trkpt lat="45.6464" lon="4.69742">
        <ele>442.463</ele>
        <time>2013-05-26T09:42:22Z</time>
      </trkpt>
      <trkpt lat="45.64627" lon="4.69723">
        <ele>443.35556</ele>
        <time>2013-05-26T09:42:30Z</time>
      </trkpt>
      <trkpt lat="45.64614" lon="4.69705">
        <ele>442.8833</ele>
        <time>2013-05-26T09:42:39Z</time>
      </trkpt>
      <trkpt lat="45.64599" lon="4.69689">
        <ele>444.21634</ele>
        <time>2013-05-26T09:42:48Z</time>
      </trkpt>
      <trkpt lat="45.64585" lon="4.69671">
        <ele>446.87988</ele>
        <time>2013-05-26T09:42:58Z</time>
      </trkpt>
      <trkpt lat="45.64571" lon="4.69654">
        <ele>451.1858</ele>
        <time>2013-05-26T09:43:06Z</time>
      </trkpt>
      <trkpt lat="45.64558" lon="4.69633">
        <ele>452.5755</ele>
        <time>2013-05-26T09:43:15Z</time>
      </trkpt>
      <trkpt lat="45.64546" lon="4.69614">
        <ele>449.67755</ele>
        <time>2013-05-26T09:43:23Z</time>
      </trkpt>
      <trkpt lat="45.64532" lon="4.69594">
        <ele>450.13205</ele>
        <time>2013-05-26T09:43:30Z</time>
      </trkpt>
      <trkpt lat="45.64519" lon="4.69575">
        <ele>451.2941</ele>
        <time>2013-05-26T09:43:38Z</time>
      </trkpt>
      <trkpt lat="45.64509" lon="4.6955">
        <ele>454.19818</ele>
        <time>2013-05-26T09:43:46Z</time>
      </trkpt>
      <trkpt lat="45.64506" lon="4.69521">
        <ele>455.85065</ele>
        <time>2013-05-26T09:43:54Z</time>
      </trkpt>
      <trkpt lat="45.64507" lon="4.69494">
        <ele>455.96323</ele>
        <time>2013-05-26T09:44:01Z</time>
      </trkpt>
      <trkpt lat="45.64505" lon="4.69469">
        <ele>456.08783</ele>
        <time>2013-05-26T09:44:08Z</time>
      </trkpt>
      <trkpt lat="45.64503" lon="4.69442">
        <ele>454.52884</ele>
        <time>2013-05-26T09:44:16Z</time>
      </trkpt>
      <trkpt lat="45.64504" lon="4.69415">
        <ele>454.13632</ele>
        <time>2013-05-26T09:44:24Z</time>
      </trkpt>
      <trkpt lat="45.64506" lon="4.69388">
        <ele>452.73434</ele>
        <time>2013-05-26T09:44:31Z</time>
      </trkpt>
      <trkpt lat="45.64508" lon="4.69359">
        <ele>453.8043</ele>
        <time>2013-05-26T09:44:39Z</time>
      </trkpt>
      <trkpt lat="45.6451" lon="4.69332">
        <ele>456.42923</ele>
        <time>2013-05-26T09:44:46Z</time>
      </trkpt>
      <trkpt lat="45.64514" lon="4.69303">
        <ele>459.2942</ele>
        <time>2013-05-26T09:44:53Z</time>
      </trkpt>
      <trkpt lat="45.64517" lon="4.69277">
        <ele>459.69324</ele>
        <time>2013-05-26T09:44:59Z</time>
      </trkpt>
      <trkpt lat="45.64521" lon="4.69248">
        <ele>459.17578</ele>
        <time>2013-05-26T09:45:05Z</time>
      </trkpt>
      <trkpt lat="45.64525" lon="4.69219">
        <ele>459.2545</ele>
        <time>2013-05-26T09:45:11Z</time>
      </trkpt>
      <trkpt lat="45.64514" lon="4.69196">
        <ele>458.60376</ele>
        <time>2013-05-26T09:45:16Z</time>
      </trkpt>
      <trkpt lat="45.64494" lon="4.69186">
        <ele>456.85666</ele>
        <time>2013-05-26T09:45:20Z</time>
      </trkpt>
      <trkpt lat="45.64473" lon="4.6918">
        <ele>456.30984</ele>
        <time>2013-05-26T09:45:23Z</time>
      </trkpt>
      <trkpt lat="45.64452" lon="4.69175">
        <ele>455.5432</ele>
        <time>2013-05-26T09:45:26Z</time>
      </trkpt>
      <trkpt lat="45.64429" lon="4.69165">
        <ele>454.53854</ele>
        <time>2013-05-26T09:45:29Z</time>
      </trkpt>
      <trkpt lat="45.64406" lon="4.69153">
        <ele>453.79596</ele>
        <time>2013-05-26T09:45:32Z</time>
      </trkpt>
      <trkpt lat="45.64387" lon="4.69144">
        <ele>453.45297</ele>
        <time>2013-05-26T09:45:35Z</time>
      </trkpt>
      <trkpt lat="45.64368" lon="4.6913">
        <ele>451.30035</ele>
        <time>2013-05-26T09:45:39Z</time>
      </trkpt>
      <trkpt lat="45.64352" lon="4.69118">
        <ele>449.92984</ele>
        <time>2013-05-26T09:45:42Z</time>
      </trkpt>
      <trkpt lat="45.64333" lon="4.69105">
        <ele>446.73758</ele>
        <time>2013-05-26T09:45:45Z</time>
      </trkpt>
      <trkpt lat="45.64313" lon="4.69092">
        <ele>445.1815</ele>
        <time>2013-05-26T09:45:48Z</time>
      </trkpt>
      <trkpt lat="45.64292" lon="4.69078">
        <ele>443.3672</ele>
        <time>2013-05-26T09:45:51Z</time>
      </trkpt>
      <trkpt lat="45.6427" lon="4.69066">
        <ele>442.29398</ele>
        <time>2013-05-26T09:45:54Z</time>
      </trkpt>
      <trkpt lat="45.64252" lon="4.69053">
        <ele>441.7662</ele>
        <time>2013-05-26T09:45:57Z</time>
      </trkpt>
      <trkpt lat="45.64234" lon="4.69039">
        <ele>441.39667</ele>
        <time>2013-05-26T09:46:00Z</time>
      </trkpt>
      <trkpt lat="45.64218" lon="4.69018">
        <ele>441.11893</ele>
        <time>2013-05-26T09:46:03Z</time>
      </trkpt>
      <trkpt lat="45.64204" lon="4.68999">
        <ele>440.20016</ele>
        <time>2013-05-26T09:46:06Z</time>
      </trkpt>
      <trkpt lat="45.64191" lon="4.68978">
        <ele>439.9235</ele>
        <time>2013-05-26T09:46:09Z</time>
      </trkpt>
      <trkpt lat="45.64178" lon="4.68955">
        <ele>439.274</ele>
        <time>2013-05-26T09:46:12Z</time>
      </trkpt>
      <trkpt lat="45.64167" lon="4.68932">
        <ele>438.9859</ele>
        <time>2013-05-26T09:46:15Z</time>
      </trkpt>
      <trkpt lat="45.64156" lon="4.68911">
        <ele>440.68625</ele>
        <time>2013-05-26T09:46:18Z</time>
      </trkpt>
      <trkpt lat="45.64149" lon="4.68883">
        <ele>441.73013</ele>
        <time>2013-05-26T09:46:21Z</time>
      </trkpt>
      <trkpt lat="45.64142" lon="4.68855">
        <ele>442.57208</ele>
        <time>2013-05-26T09:46:24Z</time>
      </trkpt>
      <trkpt lat="45.64135" lon="4.68829">
        <ele>443.38354</ele>
        <time>2013-05-26T09:46:27Z</time>
      </trkpt>
      <trkpt lat="45.6413" lon="4.68799">
        <ele>443.87488</ele>
        <time>2013-05-26T09:46:31Z</time>
      </trkpt>
      <trkpt lat="45.64127" lon="4.68771">
        <ele>442.63855</ele>
        <time>2013-05-26T09:46:35Z</time>
      </trkpt>
      <trkpt lat="45.64123" lon="4.68742">
        <ele>439.93494</ele>
        <time>2013-05-26T09:46:40Z</time>
      </trkpt>
      <trkpt lat="45.64119" lon="4.68711">
        <ele>438.30954</ele>
        <time>2013-05-26T09:46:45Z</time>
      </trkpt>
      <trkpt lat="45.64113" lon="4.68684">
        <ele>436.11066</ele>
        <time>2013-05-26T09:46:50Z</time>
      </trkpt>
      <trkpt lat="45.64108" lon="4.68654">
        <ele>436.55292</ele>
        <time>2013-05-26T09:46:55Z</time>
      </trkpt>
      <trkpt lat="45.64105" lon="4.68628">
        <ele>435.31595</ele>
        <time>2013-05-26T09:46:59Z</time>
      </trkpt>
      <trkpt lat="45.64102" lon="4.68602">
        <ele>433.29294</ele>
        <time>2013-05-26T09:47:03Z</time>
      </trkpt>
      <trkpt lat="45.64099" lon="4.68572">
        <ele>433.95663</ele>
        <time>2013-05-26T09:47:08Z</time>
      </trkpt>
      <trkpt lat="45.64081" lon="4.68559">
        <ele>433.22595</ele>
        <time>2013-05-26T09:47:13Z</time>
      </trkpt>
      <trkpt lat="45.64063" lon="4.68551">
        <ele>432.46133</ele>
        <time>2013-05-26T09:47:17Z</time>
      </trkpt>
      <trkpt lat="45.64042" lon="4.68541">
        <ele>432.83575</ele>
        <time>2013-05-26T09:47:22Z</time>
      </trkpt>
      <trkpt lat="45.64024" lon="4.68534">
        <ele>433.60428</ele>
        <time>2013-05-26T09:47:26Z</time>
      </trkpt>
      <trkpt lat="45.64005" lon="4.68532">
        <ele>433.34003</ele>
        <time>2013-05-26T09:47:30Z</time>
      </trkpt>
      <trkpt lat="45.63986" lon="4.68532">
        <ele>433.76813</ele>
        <time>2013-05-26T09:47:34Z</time>
      </trkpt>
      <trkpt lat="45.63968" lon="4.68532">
        <ele>432.63678</ele>
        <time>2013-05-26T09:47:38Z</time>
      </trkpt>
      <trkpt lat="45.63948" lon="4.68533">
        <ele>432.02493</ele>
        <time>2013-05-26T09:47:42Z</time>
      </trkpt>
      <trkpt lat="45.63929" lon="4.68533">
        <ele>431.72897</ele>
        <time>2013-05-26T09:47:46Z</time>
      </trkpt>
      <trkpt lat="45.63908" lon="4.68534">
        <ele>430.28354</ele>
        <time>2013-05-26T09:47:51Z</time>
      </trkpt>
      <trkpt lat="45.6389" lon="4.68535">
        <ele>430.74948</ele>
        <time>2013-05-26T09:47:55Z</time>
      </trkpt>
      <trkpt lat="45.6387" lon="4.68534">
        <ele>430.98715</ele>
        <time>2013-05-26T09:47:59Z</time>
      </trkpt>
      <trkpt lat="45.63848" lon="4.6853">
        <ele>431.37213</ele>
        <time>2013-05-26T09:48:04Z</time>
      </trkpt>
      <trkpt lat="45.63828" lon="4.68519">
        <ele>431.0514</ele>
        <time>2013-05-26T09:48:09Z</time>
      </trkpt>
      <trkpt lat="45.63808" lon="4.68517">
        <ele>430.8045</ele>
        <time>2013-05-26T09:48:14Z</time>
      </trkpt>
      <trkpt lat="45.63788" lon="4.68518">
        <ele>432.19003</ele>
        <time>2013-05-26T09:48:19Z</time>
      </trkpt>
      <trkpt lat="45.63768" lon="4.68513">
        <ele>432.20273</ele>
        <time>2013-05-26T09:48:24Z</time>
      </trkpt>
      <trkpt lat="45.63749" lon="4.68504">
        <ele>432.73474</ele>
        <time>2013-05-26T09:48:29Z</time>
      </trkpt>
      <trkpt lat="45.63732" lon="4.68493">
        <ele>434.85394</ele>
        <time>2013-05-26T09:48:34Z</time>
      </trkpt>
      <trkpt lat="45.63717" lon="4.68478">
        <ele>436.97842</ele>
        <time>2013-05-26T09:48:39Z</time>
      </trkpt>
      <trkpt lat="45.63703" lon="4.68457">
        <ele>438.67487</ele>
        <time>2013-05-26T09:48:44Z</time>
      </trkpt>
      <trkpt lat="45.63693" lon="4.68434">
        <ele>439.68143</ele>
        <time>2013-05-26T09:48:49Z</time>
      </trkpt>
      <trkpt lat="45.63684" lon="4.68408">
        <ele>439.94217</ele>
        <time>2013-05-26T09:48:54Z</time>
      </trkpt>
      <trkpt lat="45.63676" lon="4.68381">
        <ele>439.8644</ele>
        <time>2013-05-26T09:48:59Z</time>
      </trkpt>
      <trkpt lat="45.63667" lon="4.68355">
        <ele>440.1976</ele>
        <time>2013-05-26T09:49:04Z</time>
      </trkpt>
      <trkpt lat="45.6366" lon="4.68327">
        <ele>440.34015</ele>
        <time>2013-05-26T09:49:09Z</time>
      </trkpt>
      <trkpt lat="45.63651" lon="4.68301">
        <ele>441.15756</ele>
        <time>2013-05-26T09:49:14Z</time>
      </trkpt>
      <trkpt lat="45.63642" lon="4.68272">
        <ele>440.5696</ele>
        <time>2013-05-26T09:49:19Z</time>
      </trkpt>
      <trkpt lat="45.63632" lon="4.68244">
        <ele>440.1716</ele>
        <time>2013-05-26T09:49:24Z</time>
      </trkpt>
      <trkpt lat="45.63624" lon="4.6822">
        <ele>439.51367</ele>
        <time>2013-05-26T09:49:28Z</time>
      </trkpt>
      <trkpt lat="45.63615" lon="4.68198">
        <ele>439.19614</ele>
        <time>2013-05-26T09:49:32Z</time>
      </trkpt>
      <trkpt lat="45.63602" lon="4.68179">
        <ele>438.4855</ele>
        <time>2013-05-26T09:49:36Z</time>
      </trkpt>
      <trkpt lat="45.63588" lon="4.68159">
        <ele>438.7552</ele>
        <time>2013-05-26T09:49:40Z</time>
      </trkpt>
      <trkpt lat="45.63573" lon="4.68141">
        <ele>439.03348</ele>
        <time>2013-05-26T09:49:44Z</time>
      </trkpt>
      <trkpt lat="45.63558" lon="4.68124">
        <ele>439.20554</ele>
        <time>2013-05-26T09:49:48Z</time>
      </trkpt>
      <trkpt lat="45.63544" lon="4.68105">
        <ele>438.3283</ele>
        <time>2013-05-26T09:49:52Z</time>
      </trkpt>
      <trkpt lat="45.63528" lon="4.6809">
        <ele>438.1859</ele>
        <time>2013-05-26T09:49:56Z</time>
      </trkpt>
      <trkpt lat="45.63511" lon="4.68077">
        <ele>438.38382</ele>
        <time>2013-05-26T09:50:00Z</time>
      </trkpt>
      <trkpt lat="45.63491" lon="4.68064">
        <ele>437.85526</ele>
        <time>2013-05-26T09:50:05Z</time>
      </trkpt>
      <trkpt lat="45.63472" lon="4.6805">
        <ele>436.71747</ele>
        <time>2013-05-26T09:50:09Z</time>
      </trkpt>
      <trkpt lat="45.63455" lon="4.68037">
        <ele>435.5946</ele>
        <time>2013-05-26T09:50:13Z</time>
      </trkpt>
      <trkpt lat="45.63437" lon="4.68021">
        <ele>434.57367</ele>
        <time>2013-05-26T09:50:17Z</time>
      </trkpt>
      <trkpt lat="45.63419" lon="4.68002">
        <ele>434.03348</ele>
        <time>2013-05-26T09:50:21Z</time>
      </trkpt>
      <trkpt lat="45.63403" lon="4.67977">
        <ele>434.04303</ele>
        <time>2013-05-26T09:50:25Z</time>
      </trkpt>
      <trkpt lat="45.6339" lon="4.67958">
        <ele>434.515</ele>
        <time>2013-05-26T09:50:28Z</time>
      </trkpt>
      <trkpt lat="45.63376" lon="4.67938">
        <ele>434.92508</ele>
        <time>2013-05-26T09:50:31Z</time>
      </trkpt>
      <trkpt lat="45.6336" lon="4.67919">
        <ele>433.31683</ele>
        <time>2013-05-26T09:50:34Z</time>
      </trkpt>
      <trkpt lat="45.63345" lon="4.67902">
        <ele>431.03677</ele>
        <time>2013-05-26T09:50:37Z</time>
      </trkpt>
      <trkpt lat="45.63328" lon="4.67884">
        <ele>429.81396</ele>
        <time>2013-05-26T09:50:40Z</time>
      </trkpt>
      <trkpt lat="45.6331" lon="4.67865">
        <ele>429.26837</ele>
        <time>2013-05-26T09:50:43Z</time>
      </trkpt>
      <trkpt lat="45.63291" lon="4.67845">
        <ele>428.54446</ele>
        <time>2013-05-26T09:50:46Z</time>
      </trkpt>
      <trkpt lat="45.63271" lon="4.67825">
        <ele>427.8719</ele>
        <time>2013-05-26T09:50:49Z</time>
      </trkpt>
      <trkpt lat="45.63249" lon="4.67803">
        <ele>427.78345</ele>
        <time>2013-05-26T09:50:52Z</time>
      </trkpt>
      <trkpt lat="45.63233" lon="4.67789">
        <ele>427.47818</ele>
        <time>2013-05-26T09:50:54Z</time>
      </trkpt>
      <trkpt lat="45.63216" lon="4.67776">
        <ele>427.13773</ele>
        <time>2013-05-26T09:50:56Z</time>
      </trkpt>
      <trkpt lat="45.63199" lon="4.67764">
        <ele>426.82748</ele>
        <time>2013-05-26T09:50:58Z</time>
      </trkpt>
      <trkpt lat="45.63182" lon="4.6775">
        <ele>426.2467</ele>
        <time>2013-05-26T09:51:00Z</time>
      </trkpt>
      <trkpt lat="45.63165" lon="4.6773">
        <ele>425.545</ele>
        <time>2013-05-26T09:51:02Z</time>
      </trkpt>
      <trkpt lat="45.63152" lon="4.67705">
        <ele>424.86282</ele>
        <time>2013-05-26T09:51:04Z</time>
      </trkpt>
      <trkpt lat="45.63143" lon="4.67678">
        <ele>423.7666</ele>
        <time>2013-05-26T09:51:06Z</time>
      </trkpt>
      <trkpt lat="45.63136" lon="4.67649">
        <ele>422.5187</ele>
        <time>2013-05-26T09:51:08Z</time>
      </trkpt>
      <trkpt lat="45.63131" lon="4.67619">
        <ele>420.96054</ele>
        <time>2013-05-26T09:51:10Z</time>
      </trkpt>
      <trkpt lat="45.63124" lon="4.67589">
        <ele>419.4278</ele>
        <time>2013-05-26T09:51:12Z</time>
      </trkpt>
      <trkpt lat="45.63116" lon="4.67563">
        <ele>418.72815</ele>
        <time>2013-05-26T09:51:14Z</time>
      </trkpt>
      <trkpt lat="45.63102" lon="4.67539">
        <ele>417.39084</ele>
        <time>2013-05-26T09:51:16Z</time>
      </trkpt>
      <trkpt lat="45.63087" lon="4.67521">
        <ele>416.40735</ele>
        <time>2013-05-26T09:51:18Z</time>
      </trkpt>
      <trkpt lat="45.63072" lon="4.67503">
        <ele>415.8416</ele>
        <time>2013-05-26T09:51:20Z</time>
      </trkpt>
      <trkpt lat="45.63057" lon="4.67485">
        <ele>415.72342</ele>
        <time>2013-05-26T09:51:22Z</time>
      </trkpt>
      <trkpt lat="45.63038" lon="4.67463">
        <ele>415.71613</ele>
        <time>2013-05-26T09:51:25Z</time>
      </trkpt>
      <trkpt lat="45.63022" lon="4.67441">
        <ele>415.2865</ele>
        <time>2013-05-26T09:51:28Z</time>
      </trkpt>
      <trkpt lat="45.63009" lon="4.67421">
        <ele>415.32867</ele>
        <time>2013-05-26T09:51:31Z</time>
      </trkpt>
      <trkpt lat="45.63" lon="4.67397">
        <ele>416.88397</ele>
        <time>2013-05-26T09:51:34Z</time>
      </trkpt>
      <trkpt lat="45.62991" lon="4.67371">
        <ele>416.58554</ele>
        <time>2013-05-26T09:51:38Z</time>
      </trkpt>
      <trkpt lat="45.62981" lon="4.67346">
        <ele>415.66806</ele>
        <time>2013-05-26T09:51:43Z</time>
      </trkpt>
      <trkpt lat="45.62974" lon="4.67318">
        <ele>414.8725</ele>
        <time>2013-05-26T09:51:48Z</time>
      </trkpt>
      <trkpt lat="45.62968" lon="4.67288">
        <ele>414.78284</ele>
        <time>2013-05-26T09:51:53Z</time>
      </trkpt>
      <trkpt lat="45.62958" lon="4.67262">
        <ele>415.71262</ele>
        <time>2013-05-26T09:51:58Z</time>
      </trkpt>
      <trkpt lat="45.62944" lon="4.67239">
        <ele>416.7655</ele>
        <time>2013-05-26T09:52:03Z</time>
      </trkpt>
      <trkpt lat="45.62931" lon="4.67219">
        <ele>417.32257</ele>
        <time>2013-05-26T09:52:08Z</time>
      </trkpt>
      <trkpt lat="45.62916" lon="4.672">
        <ele>419.013</ele>
        <time>2013-05-26T09:52:12Z</time>
      </trkpt>
      <trkpt lat="45.629" lon="4.67179">
        <ele>420.1323</ele>
        <time>2013-05-26T09:52:17Z</time>
      </trkpt>
      <trkpt lat="45.62886" lon="4.6716">
        <ele>420.5856</ele>
        <time>2013-05-26T09:52:21Z</time>
      </trkpt>
      <trkpt lat="45.62873" lon="4.67139">
        <ele>419.94702</ele>
        <time>2013-05-26T09:52:25Z</time>
      </trkpt>
      <trkpt lat="45.62859" lon="4.6712">
        <ele>419.0887</ele>
        <time>2013-05-26T09:52:29Z</time>
      </trkpt>
      <trkpt lat="45.62842" lon="4.67099">
        <ele>419.29953</ele>
        <time>2013-05-26T09:52:33Z</time>
      </trkpt>
      <trkpt lat="45.62828" lon="4.67081">
        <ele>419.7889</ele>
        <time>2013-05-26T09:52:37Z</time>
      </trkpt>
      <trkpt lat="45.62815" lon="4.67061">
        <ele>420.20587</ele>
        <time>2013-05-26T09:52:41Z</time>
      </trkpt>
      <trkpt lat="45.62801" lon="4.67042">
        <ele>420.3409</ele>
        <time>2013-05-26T09:52:45Z</time>
      </trkpt>
      <trkpt lat="45.6278" lon="4.67027">
        <ele>420.10825</ele>
        <time>2013-05-26T09:52:49Z</time>
      </trkpt>
      <trkpt lat="45.62762" lon="4.67014">
        <ele>420.36316</ele>
        <time>2013-05-26T09:52:53Z</time>
      </trkpt>
      <trkpt lat="45.62746" lon="4.67001">
        <ele>420.11685</ele>
        <time>2013-05-26T09:52:57Z</time>
      </trkpt>
      <trkpt lat="45.6273" lon="4.66987">
        <ele>420.0643</ele>
        <time>2013-05-26T09:53:01Z</time>
      </trkpt>
      <trkpt lat="45.6271" lon="4.66973">
        <ele>421.10443</ele>
        <time>2013-05-26T09:53:06Z</time>
      </trkpt>
      <trkpt lat="45.62691" lon="4.66959">
        <ele>421.76938</ele>
        <time>2013-05-26T09:53:10Z</time>
      </trkpt>
      <trkpt lat="45.62674" lon="4.66946">
        <ele>421.80475</ele>
        <time>2013-05-26T09:53:14Z</time>
      </trkpt>
      <trkpt lat="45.62658" lon="4.66931">
        <ele>421.61832</ele>
        <time>2013-05-26T09:53:18Z</time>
      </trkpt>
      <trkpt lat="45.62639" lon="4.66917">
        <ele>421.48795</ele>
        <time>2013-05-26T09:53:23Z</time>
      </trkpt>
      <trkpt lat="45.62623" lon="4.66902">
        <ele>421.0669</ele>
        <time>2013-05-26T09:53:27Z</time>
      </trkpt>
      <trkpt lat="45.62605" lon="4.66885">
        <ele>420.94693</ele>
        <time>2013-05-26T09:53:32Z</time>
      </trkpt>
      <trkpt lat="45.62588" lon="4.66869">
        <ele>421.78232</ele>
        <time>2013-05-26T09:53:37Z</time>
      </trkpt>
      <trkpt lat="45.6257" lon="4.66852">
        <ele>422.30783</ele>
        <time>2013-05-26T09:53:42Z</time>
      </trkpt>
      <trkpt lat="45.62553" lon="4.66837">
        <ele>423.4969</ele>
        <time>2013-05-26T09:53:47Z</time>
      </trkpt>
      <trkpt lat="45.62536" lon="4.66821">
        <ele>424.44046</ele>
        <time>2013-05-26T09:53:52Z</time>
      </trkpt>
      <trkpt lat="45.6252" lon="4.66807">
        <ele>424.3554</ele>
        <time>2013-05-26T09:53:57Z</time>
      </trkpt>
      <trkpt lat="45.62505" lon="4.66792">
        <ele>424.93286</ele>
        <time>2013-05-26T09:54:02Z</time>
      </trkpt>
      <trkpt lat="45.6249" lon="4.66773">
        <ele>426.5476</ele>
        <time>2013-05-26T09:54:08Z</time>
      </trkpt>
      <trkpt lat="45.62483" lon="4.66747">
        <ele>426.92685</ele>
        <time>2013-05-26T09:54:14Z</time>
      </trkpt>
      <trkpt lat="45.62463" lon="4.66741">
        <ele>428.3296</ele>
        <time>2013-05-26T09:54:20Z</time>
      </trkpt>
      <trkpt lat="45.62447" lon="4.66729">
        <ele>428.6746</ele>
        <time>2013-05-26T09:54:25Z</time>
      </trkpt>
      <trkpt lat="45.62433" lon="4.66709">
        <ele>429.42322</ele>
        <time>2013-05-26T09:54:31Z</time>
      </trkpt>
      <trkpt lat="45.62418" lon="4.66693">
        <ele>434.1107</ele>
        <time>2013-05-26T09:55:18Z</time>
      </trkpt>
      <trkpt lat="45.62406" lon="4.66675">
        <ele>433.6016</ele>
        <time>2013-05-26T09:55:24Z</time>
      </trkpt>
      <trkpt lat="45.62392" lon="4.66654">
        <ele>433.08</ele>
        <time>2013-05-26T09:55:30Z</time>
      </trkpt>
      <trkpt lat="45.6238" lon="4.66632">
        <ele>432.31696</ele>
        <time>2013-05-26T09:55:36Z</time>
      </trkpt>
      <trkpt lat="45.62385" lon="4.66606">
        <ele>430.57513</ele>
        <time>2013-05-26T09:55:41Z</time>
      </trkpt>
      <trkpt lat="45.62394" lon="4.66581">
        <ele>428.1276</ele>
        <time>2013-05-26T09:55:46Z</time>
      </trkpt>
      <trkpt lat="45.62398" lon="4.66555">
        <ele>426.62317</ele>
        <time>2013-05-26T09:55:50Z</time>
      </trkpt>
      <trkpt lat="45.62401" lon="4.66525">
        <ele>425.00732</ele>
        <time>2013-05-26T09:55:54Z</time>
      </trkpt>
      <trkpt lat="45.6241" lon="4.66494">
        <ele>424.74216</ele>
        <time>2013-05-26T09:55:58Z</time>
      </trkpt>
      <trkpt lat="45.62416" lon="4.66468">
        <ele>424.12717</ele>
        <time>2013-05-26T09:56:01Z</time>
      </trkpt>
      <trkpt lat="45.62424" lon="4.6644">
        <ele>422.83176</ele>
        <time>2013-05-26T09:56:04Z</time>
      </trkpt>
      <trkpt lat="45.62435" lon="4.66412">
        <ele>421.47903</ele>
        <time>2013-05-26T09:56:07Z</time>
      </trkpt>
      <trkpt lat="45.62447" lon="4.66389">
        <ele>420.98334</ele>
        <time>2013-05-26T09:56:10Z</time>
      </trkpt>
      <trkpt lat="45.62462" lon="4.66365">
        <ele>420.17987</ele>
        <time>2013-05-26T09:56:14Z</time>
      </trkpt>
      <trkpt lat="45.62475" lon="4.66339">
        <ele>420.40234</ele>
        <time>2013-05-26T09:56:19Z</time>
      </trkpt>
      <trkpt lat="45.62487" lon="4.66314">
        <ele>420.90137</ele>
        <time>2013-05-26T09:56:25Z</time>
      </trkpt>
      <trkpt lat="45.62501" lon="4.6629">
        <ele>422.64566</ele>
        <time>2013-05-26T09:56:31Z</time>
      </trkpt>
      <trkpt lat="45.62514" lon="4.66266">
        <ele>423.29965</ele>
        <time>2013-05-26T09:56:37Z</time>
      </trkpt>
      <trkpt lat="45.62526" lon="4.66242">
        <ele>423.0154</ele>
        <time>2013-05-26T09:56:43Z</time>
      </trkpt>
      <trkpt lat="45.62537" lon="4.66217">
        <ele>421.71036</ele>
        <time>2013-05-26T09:56:49Z</time>
      </trkpt>
      <trkpt lat="45.62547" lon="4.66191">
        <ele>428.36966</ele>
        <time>2013-05-26T09:58:46Z</time>
      </trkpt>
      <trkpt lat="45.62557" lon="4.66165">
        <ele>426.55896</ele>
        <time>2013-05-26T09:58:54Z</time>
      </trkpt>
      <trkpt lat="45.62546" lon="4.66186">
        <ele>428.1728</ele>
        <time>2013-05-26T09:59:07Z</time>
      </trkpt>
      <trkpt lat="45.62559" lon="4.66163">
        <ele>426.9871</ele>
        <time>2013-05-26T09:59:27Z</time>
      </trkpt>
      <trkpt lat="45.62569" lon="4.66138">
        <ele>425.37158</ele>
        <time>2013-05-26T09:59:33Z</time>
      </trkpt>
      <trkpt lat="45.62579" lon="4.66112">
        <ele>422.80414</ele>
        <time>2013-05-26T09:59:39Z</time>
      </trkpt>
      <trkpt lat="45.62588" lon="4.66088">
        <ele>421.9628</ele>
        <time>2013-05-26T09:59:44Z</time>
      </trkpt>
      <trkpt lat="45.62596" lon="4.66061">
        <ele>421.64136</ele>
        <time>2013-05-26T09:59:49Z</time>
      </trkpt>
      <trkpt lat="45.62604" lon="4.66032">
        <ele>422.09506</ele>
        <time>2013-05-26T09:59:54Z</time>
      </trkpt>
      <trkpt lat="45.62612" lon="4.66006">
        <ele>422.3797</ele>
        <time>2013-05-26T09:59:58Z</time>
      </trkpt>
      <trkpt lat="45.62623" lon="4.65981">
        <ele>421.70065</ele>
        <time>2013-05-26T10:00:03Z</time>
      </trkpt>
      <trkpt lat="45.62609" lon="4.66004">
        <ele>423.0041</ele>
        <time>2013-05-26T10:00:36Z</time>
      </trkpt>
      <trkpt lat="45.62601" lon="4.66031">
        <ele>423.7876</ele>
        <time>2013-05-26T10:00:41Z</time>
      </trkpt>
      <trkpt lat="45.62593" lon="4.66059">
        <ele>424.63837</ele>
        <time>2013-05-26T10:00:46Z</time>
      </trkpt>
      <trkpt lat="45.62585" lon="4.66086">
        <ele>425.62384</ele>
        <time>2013-05-26T10:00:51Z</time>
      </trkpt>
      <trkpt lat="45.62576" lon="4.66112">
        <ele>426.36728</ele>
        <time>2013-05-26T10:00:56Z</time>
      </trkpt>
      <trkpt lat="45.62566" lon="4.66138">
        <ele>427.04437</ele>
        <time>2013-05-26T10:01:01Z</time>
      </trkpt>
      <trkpt lat="45.62555" lon="4.66164">
        <ele>427.3665</ele>
        <time>2013-05-26T10:01:06Z</time>
      </trkpt>
      <trkpt lat="45.62544" lon="4.66192">
        <ele>427.53366</ele>
        <time>2013-05-26T10:01:11Z</time>
      </trkpt>
      <trkpt lat="45.62535" lon="4.66214">
        <ele>427.66925</ele>
        <time>2013-05-26T10:01:15Z</time>
      </trkpt>
      <trkpt lat="45.62526" lon="4.66236">
        <ele>427.5774</ele>
        <time>2013-05-26T10:01:19Z</time>
      </trkpt>
      <trkpt lat="45.62515" lon="4.66258">
        <ele>427.36276</ele>
        <time>2013-05-26T10:01:23Z</time>
      </trkpt>
      <trkpt lat="45.62503" lon="4.66281">
        <ele>426.79486</ele>
        <time>2013-05-26T10:01:27Z</time>
      </trkpt>
      <trkpt lat="45.62489" lon="4.66306">
        <ele>426.3476</ele>
        <time>2013-05-26T10:01:31Z</time>
      </trkpt>
      <trkpt lat="45.62476" lon="4.66332">
        <ele>425.68692</ele>
        <time>2013-05-26T10:01:35Z</time>
      </trkpt>
      <trkpt lat="45.62463" lon="4.66357">
        <ele>424.66696</ele>
        <time>2013-05-26T10:01:39Z</time>
      </trkpt>
      <trkpt lat="45.62449" lon="4.66382">
        <ele>424.52588</ele>
        <time>2013-05-26T10:01:43Z</time>
      </trkpt>
      <trkpt lat="45.62436" lon="4.66406">
        <ele>423.9824</ele>
        <time>2013-05-26T10:01:47Z</time>
      </trkpt>
      <trkpt lat="45.62426" lon="4.66432">
        <ele>423.55225</ele>
        <time>2013-05-26T10:01:51Z</time>
      </trkpt>
      <trkpt lat="45.62418" lon="4.66456">
        <ele>423.90247</ele>
        <time>2013-05-26T10:01:55Z</time>
      </trkpt>
      <trkpt lat="45.62411" lon="4.6648">
        <ele>424.44092</ele>
        <time>2013-05-26T10:02:00Z</time>
      </trkpt>
      <trkpt lat="45.62404" lon="4.66507">
        <ele>424.1526</ele>
        <time>2013-05-26T10:02:06Z</time>
      </trkpt>
      <trkpt lat="45.62397" lon="4.66531">
        <ele>423.491</ele>
        <time>2013-05-26T10:02:11Z</time>
      </trkpt>
      <trkpt lat="45.62393" lon="4.6656">
        <ele>424.2457</ele>
        <time>2013-05-26T10:02:17Z</time>
      </trkpt>
      <trkpt lat="45.62388" lon="4.66588">
        <ele>424.63623</ele>
        <time>2013-05-26T10:02:23Z</time>
      </trkpt>
      <trkpt lat="45.62376" lon="4.66609">
        <ele>425.00217</ele>
        <time>2013-05-26T10:02:29Z</time>
      </trkpt>
      <trkpt lat="45.62356" lon="4.66608">
        <ele>424.0955</ele>
        <time>2013-05-26T10:02:37Z</time>
      </trkpt>
      <trkpt lat="45.6234" lon="4.66582">
        <ele>423.27863</ele>
        <time>2013-05-26T10:02:43Z</time>
      </trkpt>
      <trkpt lat="45.62325" lon="4.66563">
        <ele>422.71393</ele>
        <time>2013-05-26T10:02:47Z</time>
      </trkpt>
      <trkpt lat="45.62309" lon="4.6655">
        <ele>421.96368</ele>
        <time>2013-05-26T10:02:50Z</time>
      </trkpt>
      <trkpt lat="45.62289" lon="4.66541">
        <ele>421.23782</ele>
        <time>2013-05-26T10:02:53Z</time>
      </trkpt>
      <trkpt lat="45.62264" lon="4.66538">
        <ele>419.73</ele>
        <time>2013-05-26T10:02:56Z</time>
      </trkpt>
      <trkpt lat="45.62245" lon="4.66545">
        <ele>418.63562</ele>
        <time>2013-05-26T10:02:58Z</time>
      </trkpt>
      <trkpt lat="45.62227" lon="4.66555">
        <ele>417.09503</ele>
        <time>2013-05-26T10:03:00Z</time>
      </trkpt>
      <trkpt lat="45.62211" lon="4.66571">
        <ele>415.51596</ele>
        <time>2013-05-26T10:03:02Z</time>
      </trkpt>
      <trkpt lat="45.62196" lon="4.66589">
        <ele>414.02148</ele>
        <time>2013-05-26T10:03:04Z</time>
      </trkpt>
      <trkpt lat="45.6218" lon="4.66606">
        <ele>412.5746</ele>
        <time>2013-05-26T10:03:06Z</time>
      </trkpt>
      <trkpt lat="45.62166" lon="4.66624">
        <ele>410.9982</ele>
        <time>2013-05-26T10:03:08Z</time>
      </trkpt>
      <trkpt lat="45.62145" lon="4.66647">
        <ele>408.72894</ele>
        <time>2013-05-26T10:03:11Z</time>
      </trkpt>
      <trkpt lat="45.62125" lon="4.66663">
        <ele>406.5716</ele>
        <time>2013-05-26T10:03:14Z</time>
      </trkpt>
      <trkpt lat="45.62104" lon="4.66672">
        <ele>404.69583</ele>
        <time>2013-05-26T10:03:17Z</time>
      </trkpt>
      <trkpt lat="45.62085" lon="4.66671">
        <ele>402.78418</ele>
        <time>2013-05-26T10:03:20Z</time>
      </trkpt>
      <trkpt lat="45.62067" lon="4.66664">
        <ele>401.22623</ele>
        <time>2013-05-26T10:03:24Z</time>
      </trkpt>
      <trkpt lat="45.62073" lon="4.66638">
        <ele>400.0009</ele>
        <time>2013-05-26T10:03:28Z</time>
      </trkpt>
      <trkpt lat="45.62076" lon="4.66613">
        <ele>398.28537</ele>
        <time>2013-05-26T10:03:33Z</time>
      </trkpt>
      <trkpt lat="45.6208" lon="4.66587">
        <ele>397.4511</ele>
        <time>2013-05-26T10:03:39Z</time>
      </trkpt>
      <trkpt lat="45.62082" lon="4.66561">
        <ele>398.7596</ele>
        <time>2013-05-26T10:03:46Z</time>
      </trkpt>
      <trkpt lat="45.62083" lon="4.66533">
        <ele>399.69266</ele>
        <time>2013-05-26T10:03:54Z</time>
      </trkpt>
      <trkpt lat="45.62083" lon="4.66505">
        <ele>400.9968</ele>
        <time>2013-05-26T10:04:02Z</time>
      </trkpt>
      <trkpt lat="45.62082" lon="4.66476">
        <ele>403.03036</ele>
        <time>2013-05-26T10:04:11Z</time>
      </trkpt>
      <trkpt lat="45.62087" lon="4.66449">
        <ele>405.99277</ele>
        <time>2013-05-26T10:04:20Z</time>
      </trkpt>
      <trkpt lat="45.62092" lon="4.66422">
        <ele>407.53888</ele>
        <time>2013-05-26T10:04:30Z</time>
      </trkpt>
      <trkpt lat="45.62099" lon="4.66396">
        <ele>409.1082</ele>
        <time>2013-05-26T10:04:39Z</time>
      </trkpt>
      <trkpt lat="45.62106" lon="4.66372">
        <ele>409.77554</ele>
        <time>2013-05-26T10:04:48Z</time>
      </trkpt>
      <trkpt lat="45.62115" lon="4.66348">
        <ele>411.46002</ele>
        <time>2013-05-26T10:04:58Z</time>
      </trkpt>
      <trkpt lat="45.62125" lon="4.66326">
        <ele>414.11612</ele>
        <time>2013-05-26T10:05:07Z</time>
      </trkpt>
      <trkpt lat="45.62135" lon="4.66304">
        <ele>416.26</ele>
        <time>2013-05-26T10:05:15Z</time>
      </trkpt>
      <trkpt lat="45.62146" lon="4.66282">
        <ele>417.32327</ele>
        <time>2013-05-26T10:05:24Z</time>
      </trkpt>
      <trkpt lat="45.62158" lon="4.66261">
        <ele>419.19125</ele>
        <time>2013-05-26T10:05:33Z</time>
      </trkpt>
      <trkpt lat="45.62169" lon="4.6624">
        <ele>420.69342</ele>
        <time>2013-05-26T10:05:42Z</time>
      </trkpt>
      <trkpt lat="45.62176" lon="4.66216">
        <ele>421.44604</ele>
        <time>2013-05-26T10:05:50Z</time>
      </trkpt>
      <trkpt lat="45.62182" lon="4.6619">
        <ele>421.8867</ele>
        <time>2013-05-26T10:05:58Z</time>
      </trkpt>
      <trkpt lat="45.62187" lon="4.66164">
        <ele>423.1055</ele>
        <time>2013-05-26T10:06:06Z</time>
      </trkpt>
      <trkpt lat="45.62193" lon="4.66136">
        <ele>424.70523</ele>
        <time>2013-05-26T10:06:14Z</time>
      </trkpt>
      <trkpt lat="45.62198" lon="4.66107">
        <ele>425.51334</ele>
        <time>2013-05-26T10:06:22Z</time>
      </trkpt>
      <trkpt lat="45.62202" lon="4.66081">
        <ele>425.4215</ele>
        <time>2013-05-26T10:06:29Z</time>
      </trkpt>
      <trkpt lat="45.62204" lon="4.66053">
        <ele>425.9682</ele>
        <time>2013-05-26T10:06:36Z</time>
      </trkpt>
      <trkpt lat="45.62206" lon="4.66025">
        <ele>426.5872</ele>
        <time>2013-05-26T10:06:43Z</time>
      </trkpt>
      <trkpt lat="45.62208" lon="4.65999">
        <ele>427.1616</ele>
        <time>2013-05-26T10:06:49Z</time>
      </trkpt>
      <trkpt lat="45.6221" lon="4.65974">
        <ele>427.80005</ele>
        <time>2013-05-26T10:06:55Z</time>
      </trkpt>
      <trkpt lat="45.62212" lon="4.65948">
        <ele>428.39517</ele>
        <time>2013-05-26T10:07:01Z</time>
      </trkpt>
      <trkpt lat="45.62215" lon="4.65921">
        <ele>429.17007</ele>
        <time>2013-05-26T10:07:07Z</time>
      </trkpt>
      <trkpt lat="45.62218" lon="4.65895">
        <ele>430.08105</ele>
        <time>2013-05-26T10:07:13Z</time>
      </trkpt>
      <trkpt lat="45.62221" lon="4.65869">
        <ele>431.04065</ele>
        <time>2013-05-26T10:07:19Z</time>
      </trkpt>
      <trkpt lat="45.62225" lon="4.65843">
        <ele>431.83386</ele>
        <time>2013-05-26T10:07:25Z</time>
      </trkpt>
      <trkpt lat="45.62229" lon="4.65818">
        <ele>433.75592</ele>
        <time>2013-05-26T10:07:31Z</time>
      </trkpt>
      <trkpt lat="45.62233" lon="4.65791">
        <ele>434.7753</ele>
        <time>2013-05-26T10:07:38Z</time>
      </trkpt>
      <trkpt lat="45.62238" lon="4.65764">
        <ele>436.3341</ele>
        <time>2013-05-26T10:07:45Z</time>
      </trkpt>
      <trkpt lat="45.62242" lon="4.65736">
        <ele>437.79962</ele>
        <time>2013-05-26T10:07:53Z</time>
      </trkpt>
      <trkpt lat="45.62243" lon="4.6571">
        <ele>438.2728</ele>
        <time>2013-05-26T10:08:00Z</time>
      </trkpt>
      <trkpt lat="45.62243" lon="4.65682">
        <ele>439.88947</ele>
        <time>2013-05-26T10:08:08Z</time>
      </trkpt>
      <trkpt lat="45.62245" lon="4.65653">
        <ele>439.79852</ele>
        <time>2013-05-26T10:08:15Z</time>
      </trkpt>
      <trkpt lat="45.62246" lon="4.65626">
        <ele>441.00467</ele>
        <time>2013-05-26T10:08:22Z</time>
      </trkpt>
      <trkpt lat="45.62245" lon="4.65598">
        <ele>442.92285</ele>
        <time>2013-05-26T10:08:30Z</time>
      </trkpt>
      <trkpt lat="45.62246" lon="4.65571">
        <ele>444.25867</ele>
        <time>2013-05-26T10:08:38Z</time>
      </trkpt>
      <trkpt lat="45.62248" lon="4.65544">
        <ele>442.68884</ele>
        <time>2013-05-26T10:08:46Z</time>
      </trkpt>
      <trkpt lat="45.62249" lon="4.65517">
        <ele>442.25864</ele>
        <time>2013-05-26T10:08:54Z</time>
      </trkpt>
      <trkpt lat="45.62247" lon="4.6549">
        <ele>443.3839</ele>
        <time>2013-05-26T10:09:02Z</time>
      </trkpt>
      <trkpt lat="45.62244" lon="4.65464">
        <ele>445.38153</ele>
        <time>2013-05-26T10:09:10Z</time>
      </trkpt>
      <trkpt lat="45.62241" lon="4.65436">
        <ele>446.8215</ele>
        <time>2013-05-26T10:09:19Z</time>
      </trkpt>
      <trkpt lat="45.62238" lon="4.65409">
        <ele>448.27945</ele>
        <time>2013-05-26T10:09:28Z</time>
      </trkpt>
      <trkpt lat="45.62235" lon="4.65383">
        <ele>450.57742</ele>
        <time>2013-05-26T10:09:36Z</time>
      </trkpt>
      <trkpt lat="45.62233" lon="4.65357">
        <ele>452.87268</ele>
        <time>2013-05-26T10:09:44Z</time>
      </trkpt>
      <trkpt lat="45.62231" lon="4.65331">
        <ele>454.40152</ele>
        <time>2013-05-26T10:09:52Z</time>
      </trkpt>
      <trkpt lat="45.62228" lon="4.65303">
        <ele>455.5124</ele>
        <time>2013-05-26T10:10:01Z</time>
      </trkpt>
      <trkpt lat="45.62224" lon="4.65276">
        <ele>456.1675</ele>
        <time>2013-05-26T10:10:10Z</time>
      </trkpt>
      <trkpt lat="45.62222" lon="4.65249">
        <ele>456.94858</ele>
        <time>2013-05-26T10:10:19Z</time>
      </trkpt>
      <trkpt lat="45.62219" lon="4.65221">
        <ele>458.59076</ele>
        <time>2013-05-26T10:10:28Z</time>
      </trkpt>
      <trkpt lat="45.6222" lon="4.65193">
        <ele>460.91</ele>
        <time>2013-05-26T10:10:37Z</time>
      </trkpt>
      <trkpt lat="45.62221" lon="4.65167">
        <ele>461.8024</ele>
        <time>2013-05-26T10:10:45Z</time>
      </trkpt>
      <trkpt lat="45.62225" lon="4.65141">
        <ele>464.56683</ele>
        <time>2013-05-26T10:10:53Z</time>
      </trkpt>
      <trkpt lat="45.62228" lon="4.65113">
        <ele>465.83957</ele>
        <time>2013-05-26T10:11:02Z</time>
      </trkpt>
      <trkpt lat="45.62229" lon="4.65085">
        <ele>466.4639</ele>
        <time>2013-05-26T10:11:11Z</time>
      </trkpt>
      <trkpt lat="45.62227" lon="4.6506">
        <ele>467.95825</ele>
        <time>2013-05-26T10:11:19Z</time>
      </trkpt>
      <trkpt lat="45.62218" lon="4.65037">
        <ele>469.34036</ele>
        <time>2013-05-26T10:11:27Z</time>
      </trkpt>
      <trkpt lat="45.62203" lon="4.65022">
        <ele>469.88837</ele>
        <time>2013-05-26T10:11:35Z</time>
      </trkpt>
      <trkpt lat="45.62189" lon="4.65005">
        <ele>470.94177</ele>
        <time>2013-05-26T10:11:43Z</time>
      </trkpt>
      <trkpt lat="45.62177" lon="4.64984">
        <ele>471.87943</ele>
        <time>2013-05-26T10:11:51Z</time>
      </trkpt>
      <trkpt lat="45.62168" lon="4.6496">
        <ele>473.5814</ele>
        <time>2013-05-26T10:12:00Z</time>
      </trkpt>
      <trkpt lat="45.62162" lon="4.64935">
        <ele>474.8265</ele>
        <time>2013-05-26T10:12:08Z</time>
      </trkpt>
      <trkpt lat="45.62157" lon="4.6491">
        <ele>475.8282</ele>
        <time>2013-05-26T10:12:16Z</time>
      </trkpt>
      <trkpt lat="45.6215" lon="4.64885">
        <ele>477.44147</ele>
        <time>2013-05-26T10:12:24Z</time>
      </trkpt>
      <trkpt lat="45.62145" lon="4.64858">
        <ele>479.2492</ele>
        <time>2013-05-26T10:12:33Z</time>
      </trkpt>
      <trkpt lat="45.6214" lon="4.64831">
        <ele>480.10013</ele>
        <time>2013-05-26T10:12:42Z</time>
      </trkpt>
      <trkpt lat="45.62137" lon="4.64803">
        <ele>481.61267</ele>
        <time>2013-05-26T10:12:51Z</time>
      </trkpt>
      <trkpt lat="45.62136" lon="4.64777">
        <ele>482.66592</ele>
        <time>2013-05-26T10:12:59Z</time>
      </trkpt>
      <trkpt lat="45.62134" lon="4.64749">
        <ele>482.09802</ele>
        <time>2013-05-26T10:13:08Z</time>
      </trkpt>
      <trkpt lat="45.62133" lon="4.6472">
        <ele>482.83115</ele>
        <time>2013-05-26T10:13:17Z</time>
      </trkpt>
      <trkpt lat="45.62137" lon="4.64694">
        <ele>483.2936</ele>
        <time>2013-05-26T10:13:25Z</time>
      </trkpt>
      <trkpt lat="45.62154" lon="4.64679">
        <ele>484.88876</ele>
        <time>2013-05-26T10:13:34Z</time>
      </trkpt>
      <trkpt lat="45.62172" lon="4.64675">
        <ele>486.38803</ele>
        <time>2013-05-26T10:13:42Z</time>
      </trkpt>
      <trkpt lat="45.6219" lon="4.64673">
        <ele>487.36362</ele>
        <time>2013-05-26T10:13:50Z</time>
      </trkpt>
      <trkpt lat="45.6221" lon="4.6467">
        <ele>488.21066</ele>
        <time>2013-05-26T10:13:59Z</time>
      </trkpt>
      <trkpt lat="45.62229" lon="4.64668">
        <ele>489.09232</ele>
        <time>2013-05-26T10:14:07Z</time>
      </trkpt>
      <trkpt lat="45.62248" lon="4.64664">
        <ele>490.6144</ele>
        <time>2013-05-26T10:14:15Z</time>
      </trkpt>
      <trkpt lat="45.62267" lon="4.64662">
        <ele>491.65497</ele>
        <time>2013-05-26T10:14:23Z</time>
      </trkpt>
      <trkpt lat="45.62286" lon="4.64659">
        <ele>492.23727</ele>
        <time>2013-05-26T10:14:31Z</time>
      </trkpt>
      <trkpt lat="45.62306" lon="4.64656">
        <ele>493.54724</ele>
        <time>2013-05-26T10:14:39Z</time>
      </trkpt>
      <trkpt lat="45.62325" lon="4.64654">
        <ele>494.43173</ele>
        <time>2013-05-26T10:14:47Z</time>
      </trkpt>
      <trkpt lat="45.62343" lon="4.64651">
        <ele>495.4909</ele>
        <time>2013-05-26T10:14:55Z</time>
      </trkpt>
      <trkpt lat="45.62362" lon="4.64647">
        <ele>496.4738</ele>
        <time>2013-05-26T10:15:03Z</time>
      </trkpt>
      <trkpt lat="45.62378" lon="4.64632">
        <ele>498.71567</ele>
        <time>2013-05-26T10:15:12Z</time>
      </trkpt>
      <trkpt lat="45.62392" lon="4.64611">
        <ele>501.64243</ele>
        <time>2013-05-26T10:15:21Z</time>
      </trkpt>
      <trkpt lat="45.62405" lon="4.64591">
        <ele>499.91464</ele>
        <time>2013-05-26T10:15:30Z</time>
      </trkpt>
      <trkpt lat="45.62417" lon="4.64568">
        <ele>502.03204</ele>
        <time>2013-05-26T10:15:39Z</time>
      </trkpt>
      <trkpt lat="45.62427" lon="4.64546">
        <ele>503.79642</ele>
        <time>2013-05-26T10:15:47Z</time>
      </trkpt>
      <trkpt lat="45.62434" lon="4.6452">
        <ele>505.6846</ele>
        <time>2013-05-26T10:15:56Z</time>
      </trkpt>
      <trkpt lat="45.62439" lon="4.64492">
        <ele>506.99103</ele>
        <time>2013-05-26T10:16:05Z</time>
      </trkpt>
      <trkpt lat="45.62442" lon="4.64467">
        <ele>506.2024</ele>
        <time>2013-05-26T10:16:14Z</time>
      </trkpt>
      <trkpt lat="45.62444" lon="4.6444">
        <ele>505.99158</ele>
        <time>2013-05-26T10:16:23Z</time>
      </trkpt>
      <trkpt lat="45.62449" lon="4.64413">
        <ele>505.1657</ele>
        <time>2013-05-26T10:16:31Z</time>
      </trkpt>
      <trkpt lat="45.62458" lon="4.64388">
        <ele>507.75333</ele>
        <time>2013-05-26T10:16:40Z</time>
      </trkpt>
      <trkpt lat="45.62464" lon="4.64363">
        <ele>509.32257</ele>
        <time>2013-05-26T10:16:50Z</time>
      </trkpt>
      <trkpt lat="45.62459" lon="4.64337">
        <ele>512.33923</ele>
        <time>2013-05-26T10:17:00Z</time>
      </trkpt>
      <trkpt lat="45.62444" lon="4.64323">
        <ele>515.3474</ele>
        <time>2013-05-26T10:17:10Z</time>
      </trkpt>
      <trkpt lat="45.62425" lon="4.64322">
        <ele>517.5073</ele>
        <time>2013-05-26T10:17:19Z</time>
      </trkpt>
      <trkpt lat="45.62407" lon="4.64327">
        <ele>520.244</ele>
        <time>2013-05-26T10:17:28Z</time>
      </trkpt>
      <trkpt lat="45.62388" lon="4.64329">
        <ele>521.1816</ele>
        <time>2013-05-26T10:17:37Z</time>
      </trkpt>
      <trkpt lat="45.62369" lon="4.64321">
        <ele>522.51465</ele>
        <time>2013-05-26T10:17:46Z</time>
      </trkpt>
      <trkpt lat="45.62352" lon="4.64312">
        <ele>523.2416</ele>
        <time>2013-05-26T10:17:55Z</time>
      </trkpt>
      <trkpt lat="45.62336" lon="4.64298">
        <ele>523.4902</ele>
        <time>2013-05-26T10:18:04Z</time>
      </trkpt>
      <trkpt lat="45.62321" lon="4.64282">
        <ele>524.74445</ele>
        <time>2013-05-26T10:18:13Z</time>
      </trkpt>
      <trkpt lat="45.62307" lon="4.64264">
        <ele>525.3592</ele>
        <time>2013-05-26T10:18:22Z</time>
      </trkpt>
      <trkpt lat="45.62296" lon="4.64244">
        <ele>526.3857</ele>
        <time>2013-05-26T10:18:31Z</time>
      </trkpt>
      <trkpt lat="45.62286" lon="4.64219">
        <ele>527.76715</ele>
        <time>2013-05-26T10:18:40Z</time>
      </trkpt>
      <trkpt lat="45.62281" lon="4.64192">
        <ele>528.2021</ele>
        <time>2013-05-26T10:18:49Z</time>
      </trkpt>
      <trkpt lat="45.62273" lon="4.64167">
        <ele>530.03406</ele>
        <time>2013-05-26T10:19:00Z</time>
      </trkpt>
      <trkpt lat="45.62264" lon="4.64144">
        <ele>531.7404</ele>
        <time>2013-05-26T10:19:10Z</time>
      </trkpt>
      <trkpt lat="45.6226" lon="4.64118">
        <ele>534.38336</ele>
        <time>2013-05-26T10:19:20Z</time>
      </trkpt>
      <trkpt lat="45.6225" lon="4.64095">
        <ele>537.46686</ele>
        <time>2013-05-26T10:19:30Z</time>
      </trkpt>
      <trkpt lat="45.62244" lon="4.64068">
        <ele>540.0353</ele>
        <time>2013-05-26T10:19:41Z</time>
      </trkpt>
      <trkpt lat="45.62238" lon="4.64042">
        <ele>543.8449</ele>
        <time>2013-05-26T10:19:51Z</time>
      </trkpt>
      <trkpt lat="45.62228" lon="4.64018">
        <ele>549.21136</ele>
        <time>2013-05-26T10:20:00Z</time>
      </trkpt>
      <trkpt lat="45.62211" lon="4.64004">
        <ele>549.1113</ele>
        <time>2013-05-26T10:20:10Z</time>
      </trkpt>
      <trkpt lat="45.62192" lon="4.63996">
        <ele>548.60144</ele>
        <time>2013-05-26T10:20:19Z</time>
      </trkpt>
      <trkpt lat="45.62172" lon="4.6399">
        <ele>548.96954</ele>
        <time>2013-05-26T10:20:27Z</time>
      </trkpt>
      <trkpt lat="45.62153" lon="4.63983">
        <ele>550.31067</ele>
        <time>2013-05-26T10:20:37Z</time>
      </trkpt>
      <trkpt lat="45.62135" lon="4.63974">
        <ele>548.51514</ele>
        <time>2013-05-26T10:20:47Z</time>
      </trkpt>
      <trkpt lat="45.62117" lon="4.63968">
        <ele>551.62915</ele>
        <time>2013-05-26T10:20:57Z</time>
      </trkpt>
      <trkpt lat="45.62099" lon="4.63959">
        <ele>552.47565</ele>
        <time>2013-05-26T10:21:08Z</time>
      </trkpt>
      <trkpt lat="45.6209" lon="4.63937">
        <ele>558.33014</ele>
        <time>2013-05-26T10:21:20Z</time>
      </trkpt>
      <trkpt lat="45.62085" lon="4.63911">
        <ele>559.7692</ele>
        <time>2013-05-26T10:21:29Z</time>
      </trkpt>
      <trkpt lat="45.62073" lon="4.63892">
        <ele>559.251</ele>
        <time>2013-05-26T10:21:38Z</time>
      </trkpt>
      <trkpt lat="45.62061" lon="4.63873">
        <ele>558.43414</ele>
        <time>2013-05-26T10:21:46Z</time>
      </trkpt>
      <trkpt lat="45.62048" lon="4.63853">
        <ele>558.0277</ele>
        <time>2013-05-26T10:21:53Z</time>
      </trkpt>
      <trkpt lat="45.62033" lon="4.63835">
        <ele>555.6428</ele>
        <time>2013-05-26T10:22:39Z</time>
      </trkpt>
      <trkpt lat="45.62018" lon="4.6382">
        <ele>556.2448</ele>
        <time>2013-05-26T10:22:45Z</time>
      </trkpt>
      <trkpt lat="45.62003" lon="4.63802">
        <ele>555.7411</ele>
        <time>2013-05-26T10:22:50Z</time>
      </trkpt>
      <trkpt lat="45.61986" lon="4.63785">
        <ele>554.1128</ele>
        <time>2013-05-26T10:22:55Z</time>
      </trkpt>
      <trkpt lat="45.61969" lon="4.63772">
        <ele>554.6181</ele>
        <time>2013-05-26T10:22:59Z</time>
      </trkpt>
      <trkpt lat="45.61953" lon="4.63756">
        <ele>554.2452</ele>
        <time>2013-05-26T10:23:03Z</time>
      </trkpt>
      <trkpt lat="45.61937" lon="4.6374">
        <ele>553.551</ele>
        <time>2013-05-26T10:23:07Z</time>
      </trkpt>
      <trkpt lat="45.61922" lon="4.63726">
        <ele>554.13214</ele>
        <time>2013-05-26T10:23:12Z</time>
      </trkpt>
      <trkpt lat="45.61907" lon="4.63711">
        <ele>554.90314</ele>
        <time>2013-05-26T10:23:18Z</time>
      </trkpt>
      <trkpt lat="45.61894" lon="4.63691">
        <ele>554.6919</ele>
        <time>2013-05-26T10:23:25Z</time>
      </trkpt>
      <trkpt lat="45.61879" lon="4.63671">
        <ele>553.64813</ele>
        <time>2013-05-26T10:23:31Z</time>
      </trkpt>
      <trkpt lat="45.61864" lon="4.63652">
        <ele>554.094</ele>
        <time>2013-05-26T10:23:37Z</time>
      </trkpt>
      <trkpt lat="45.61852" lon="4.63631">
        <ele>553.8911</ele>
        <time>2013-05-26T10:23:43Z</time>
      </trkpt>
      <trkpt lat="45.6184" lon="4.63607">
        <ele>555.56964</ele>
        <time>2013-05-26T10:23:49Z</time>
      </trkpt>
      <trkpt lat="45.61827" lon="4.63585">
        <ele>555.8639</ele>
        <time>2013-05-26T10:23:55Z</time>
      </trkpt>
      <trkpt lat="45.61817" lon="4.6356">
        <ele>556.33997</ele>
        <time>2013-05-26T10:24:01Z</time>
      </trkpt>
      <trkpt lat="45.61806" lon="4.63534">
        <ele>556.3983</ele>
        <time>2013-05-26T10:24:07Z</time>
      </trkpt>
      <trkpt lat="45.61796" lon="4.63507">
        <ele>555.23035</ele>
        <time>2013-05-26T10:24:13Z</time>
      </trkpt>
      <trkpt lat="45.61787" lon="4.63479">
        <ele>553.9154</ele>
        <time>2013-05-26T10:24:18Z</time>
      </trkpt>
      <trkpt lat="45.6178" lon="4.63453">
        <ele>552.57404</ele>
        <time>2013-05-26T10:24:22Z</time>
      </trkpt>
      <trkpt lat="45.61777" lon="4.63427">
        <ele>551.5933</ele>
        <time>2013-05-26T10:24:26Z</time>
      </trkpt>
      <trkpt lat="45.61775" lon="4.63395">
        <ele>550.47327</ele>
        <time>2013-05-26T10:24:30Z</time>
      </trkpt>
      <trkpt lat="45.61773" lon="4.63361">
        <ele>549.997</ele>
        <time>2013-05-26T10:24:34Z</time>
      </trkpt>
      <trkpt lat="45.61773" lon="4.63335">
        <ele>549.84875</ele>
        <time>2013-05-26T10:24:37Z</time>
      </trkpt>
      <trkpt lat="45.61773" lon="4.63301">
        <ele>550.17633</ele>
        <time>2013-05-26T10:24:41Z</time>
      </trkpt>
      <trkpt lat="45.61774" lon="4.63273">
        <ele>550.2374</ele>
        <time>2013-05-26T10:24:45Z</time>
      </trkpt>
      <trkpt lat="45.61773" lon="4.63243">
        <ele>550.6589</ele>
        <time>2013-05-26T10:24:50Z</time>
      </trkpt>
      <trkpt lat="45.61771" lon="4.63216">
        <ele>552.22217</ele>
        <time>2013-05-26T10:24:56Z</time>
      </trkpt>
      <trkpt lat="45.61764" lon="4.63189">
        <ele>552.11774</ele>
        <time>2013-05-26T10:25:03Z</time>
      </trkpt>
      <trkpt lat="45.61755" lon="4.63165">
        <ele>556.02716</ele>
        <time>2013-05-26T10:25:10Z</time>
      </trkpt>
      <trkpt lat="45.61744" lon="4.63143">
        <ele>559.65497</ele>
        <time>2013-05-26T10:25:17Z</time>
      </trkpt>
      <trkpt lat="45.61734" lon="4.63121">
        <ele>559.689</ele>
        <time>2013-05-26T10:25:24Z</time>
      </trkpt>
      <trkpt lat="45.61725" lon="4.63099">
        <ele>559.89667</ele>
        <time>2013-05-26T10:25:31Z</time>
      </trkpt>
      <trkpt lat="45.61719" lon="4.63072">
        <ele>561.27625</ele>
        <time>2013-05-26T10:25:39Z</time>
      </trkpt>
      <trkpt lat="45.61717" lon="4.63045">
        <ele>561.00916</ele>
        <time>2013-05-26T10:25:47Z</time>
      </trkpt>
      <trkpt lat="45.61717" lon="4.63019">
        <ele>562.02435</ele>
        <time>2013-05-26T10:25:55Z</time>
      </trkpt>
      <trkpt lat="45.61716" lon="4.62991">
        <ele>563.10004</ele>
        <time>2013-05-26T10:26:03Z</time>
      </trkpt>
      <trkpt lat="45.61714" lon="4.62963">
        <ele>562.996</ele>
        <time>2013-05-26T10:26:11Z</time>
      </trkpt>
      <trkpt lat="45.61713" lon="4.62936">
        <ele>563.16144</ele>
        <time>2013-05-26T10:26:18Z</time>
      </trkpt>
      <trkpt lat="45.61712" lon="4.62907">
        <ele>563.1255</ele>
        <time>2013-05-26T10:26:25Z</time>
      </trkpt>
      <trkpt lat="45.61712" lon="4.62881">
        <ele>563.70496</ele>
        <time>2013-05-26T10:26:31Z</time>
      </trkpt>
      <trkpt lat="45.61706" lon="4.62852">
        <ele>562.3382</ele>
        <time>2013-05-26T10:26:38Z</time>
      </trkpt>
      <trkpt lat="45.61701" lon="4.62826">
        <ele>561.98346</ele>
        <time>2013-05-26T10:26:44Z</time>
      </trkpt>
      <trkpt lat="45.61695" lon="4.628">
        <ele>562.26624</ele>
        <time>2013-05-26T10:26:50Z</time>
      </trkpt>
      <trkpt lat="45.6169" lon="4.62774">
        <ele>562.06616</ele>
        <time>2013-05-26T10:26:56Z</time>
      </trkpt>
      <trkpt lat="45.61684" lon="4.62749">
        <ele>562.2965</ele>
        <time>2013-05-26T10:27:02Z</time>
      </trkpt>
      <trkpt lat="45.61678" lon="4.62722">
        <ele>562.9586</ele>
        <time>2013-05-26T10:27:08Z</time>
      </trkpt>
      <trkpt lat="45.6167" lon="4.62695">
        <ele>565.52905</ele>
        <time>2013-05-26T10:27:14Z</time>
      </trkpt>
      <trkpt lat="45.61664" lon="4.62668">
        <ele>566.5974</ele>
        <time>2013-05-26T10:27:20Z</time>
      </trkpt>
      <trkpt lat="45.61657" lon="4.6264">
        <ele>565.80865</ele>
        <time>2013-05-26T10:27:26Z</time>
      </trkpt>
      <trkpt lat="45.61653" lon="4.6261">
        <ele>565.0581</ele>
        <time>2013-05-26T10:27:32Z</time>
      </trkpt>
      <trkpt lat="45.61651" lon="4.62583">
        <ele>564.06604</ele>
        <time>2013-05-26T10:27:37Z</time>
      </trkpt>
      <trkpt lat="45.61649" lon="4.62555">
        <ele>565.37134</ele>
        <time>2013-05-26T10:27:42Z</time>
      </trkpt>
      <trkpt lat="45.61635" lon="4.62532">
        <ele>565.7076</ele>
        <time>2013-05-26T10:27:48Z</time>
      </trkpt>
      <trkpt lat="45.61617" lon="4.62526">
        <ele>567.5439</ele>
        <time>2013-05-26T10:27:53Z</time>
      </trkpt>
      <trkpt lat="45.61599" lon="4.62521">
        <ele>570.1492</ele>
        <time>2013-05-26T10:27:59Z</time>
      </trkpt>
      <trkpt lat="45.61581" lon="4.62513">
        <ele>572.9645</ele>
        <time>2013-05-26T10:28:05Z</time>
      </trkpt>
      <trkpt lat="45.61565" lon="4.62494">
        <ele>573.99817</ele>
        <time>2013-05-26T10:28:12Z</time>
      </trkpt>
      <trkpt lat="45.61553" lon="4.62474">
        <ele>573.536</ele>
        <time>2013-05-26T10:28:18Z</time>
      </trkpt>
      <trkpt lat="45.61545" lon="4.62451">
        <ele>572.0296</ele>
        <time>2013-05-26T10:28:24Z</time>
      </trkpt>
      <trkpt lat="45.61538" lon="4.62425">
        <ele>573.68243</ele>
        <time>2013-05-26T10:28:31Z</time>
      </trkpt>
      <trkpt lat="45.61531" lon="4.62398">
        <ele>574.6332</ele>
        <time>2013-05-26T10:28:38Z</time>
      </trkpt>
      <trkpt lat="45.61524" lon="4.62373">
        <ele>576.13495</ele>
        <time>2013-05-26T10:28:44Z</time>
      </trkpt>
      <trkpt lat="45.61519" lon="4.62347">
        <ele>575.9742</ele>
        <time>2013-05-26T10:28:50Z</time>
      </trkpt>
      <trkpt lat="45.61516" lon="4.62319">
        <ele>575.73895</ele>
        <time>2013-05-26T10:28:56Z</time>
      </trkpt>
      <trkpt lat="45.61516" lon="4.62289">
        <ele>575.5287</ele>
        <time>2013-05-26T10:29:01Z</time>
      </trkpt>
      <trkpt lat="45.61519" lon="4.62262">
        <ele>576.04626</ele>
        <time>2013-05-26T10:29:06Z</time>
      </trkpt>
      <trkpt lat="45.61525" lon="4.62234">
        <ele>577.18335</ele>
        <time>2013-05-26T10:29:12Z</time>
      </trkpt>
      <trkpt lat="45.61533" lon="4.62206">
        <ele>577.7357</ele>
        <time>2013-05-26T10:29:18Z</time>
      </trkpt>
      <trkpt lat="45.6154" lon="4.62182">
        <ele>577.45337</ele>
        <time>2013-05-26T10:29:23Z</time>
      </trkpt>
      <trkpt lat="45.61546" lon="4.62155">
        <ele>577.56696</ele>
        <time>2013-05-26T10:29:29Z</time>
      </trkpt>
      <trkpt lat="45.61555" lon="4.62129">
        <ele>576.44763</ele>
        <time>2013-05-26T10:29:35Z</time>
      </trkpt>
      <trkpt lat="45.61563" lon="4.62102">
        <ele>574.1914</ele>
        <time>2013-05-26T10:29:41Z</time>
      </trkpt>
      <trkpt lat="45.61572" lon="4.62077">
        <ele>570.37305</ele>
        <time>2013-05-26T10:29:47Z</time>
      </trkpt>
      <trkpt lat="45.61578" lon="4.62052">
        <ele>569.94</ele>
        <time>2013-05-26T10:29:52Z</time>
      </trkpt>
      <trkpt lat="45.61587" lon="4.62025">
        <ele>566.9708</ele>
        <time>2013-05-26T10:29:58Z</time>
      </trkpt>
      <trkpt lat="45.61593" lon="4.62">
        <ele>568.7116</ele>
        <time>2013-05-26T10:30:03Z</time>
      </trkpt>
      <trkpt lat="45.61596" lon="4.61974">
        <ele>570.2023</ele>
        <time>2013-05-26T10:30:08Z</time>
      </trkpt>
      <trkpt lat="45.6159" lon="4.61945">
        <ele>570.76044</ele>
        <time>2013-05-26T10:30:14Z</time>
      </trkpt>
      <trkpt lat="45.61572" lon="4.61932">
        <ele>570.8381</ele>
        <time>2013-05-26T10:30:19Z</time>
      </trkpt>
      <trkpt lat="45.61552" lon="4.61932">
        <ele>573.3358</ele>
        <time>2013-05-26T10:30:25Z</time>
      </trkpt>
      <trkpt lat="45.61535" lon="4.61945">
        <ele>577.8818</ele>
        <time>2013-05-26T10:30:32Z</time>
      </trkpt>
      <trkpt lat="45.61516" lon="4.61953">
        <ele>579.62537</ele>
        <time>2013-05-26T10:30:39Z</time>
      </trkpt>
      <trkpt lat="45.61496" lon="4.61959">
        <ele>580.7036</ele>
        <time>2013-05-26T10:30:46Z</time>
      </trkpt>
      <trkpt lat="45.61477" lon="4.61958">
        <ele>581.9421</ele>
        <time>2013-05-26T10:30:53Z</time>
      </trkpt>
      <trkpt lat="45.61457" lon="4.61955">
        <ele>582.4177</ele>
        <time>2013-05-26T10:31:00Z</time>
      </trkpt>
      <trkpt lat="45.61438" lon="4.61947">
        <ele>582.4442</ele>
        <time>2013-05-26T10:31:07Z</time>
      </trkpt>
      <trkpt lat="45.6142" lon="4.61937">
        <ele>582.8213</ele>
        <time>2013-05-26T10:31:14Z</time>
      </trkpt>
      <trkpt lat="45.61401" lon="4.6193">
        <ele>585.1112</ele>
        <time>2013-05-26T10:31:21Z</time>
      </trkpt>
      <trkpt lat="45.61382" lon="4.61931">
        <ele>587.4804</ele>
        <time>2013-05-26T10:31:27Z</time>
      </trkpt>
      <trkpt lat="45.61362" lon="4.61937">
        <ele>589.28595</ele>
        <time>2013-05-26T10:31:35Z</time>
      </trkpt>
      <trkpt lat="45.61345" lon="4.61944">
        <ele>590.5469</ele>
        <time>2013-05-26T10:31:42Z</time>
      </trkpt>
      <trkpt lat="45.61326" lon="4.61946">
        <ele>591.6175</ele>
        <time>2013-05-26T10:31:49Z</time>
      </trkpt>
      <trkpt lat="45.61308" lon="4.6194">
        <ele>594.09625</ele>
        <time>2013-05-26T10:31:56Z</time>
      </trkpt>
      <trkpt lat="45.61291" lon="4.61926">
        <ele>594.4786</ele>
        <time>2013-05-26T10:32:03Z</time>
      </trkpt>
      <trkpt lat="45.61277" lon="4.61908">
        <ele>593.3139</ele>
        <time>2013-05-26T10:32:11Z</time>
      </trkpt>
      <trkpt lat="45.61261" lon="4.61892">
        <ele>595.4565</ele>
        <time>2013-05-26T10:32:20Z</time>
      </trkpt>
      <trkpt lat="45.61244" lon="4.61876">
        <ele>597.2285</ele>
        <time>2013-05-26T10:32:28Z</time>
      </trkpt>
      <trkpt lat="45.61229" lon="4.61861">
        <ele>598.8041</ele>
        <time>2013-05-26T10:32:35Z</time>
      </trkpt>
      <trkpt lat="45.61213" lon="4.61846">
        <ele>599.78485</ele>
        <time>2013-05-26T10:32:42Z</time>
      </trkpt>
      <trkpt lat="45.61198" lon="4.61829">
        <ele>602.22186</ele>
        <time>2013-05-26T10:32:49Z</time>
      </trkpt>
      <trkpt lat="45.61187" lon="4.61807">
        <ele>600.56824</ele>
        <time>2013-05-26T10:32:57Z</time>
      </trkpt>
      <trkpt lat="45.61177" lon="4.61783">
        <ele>599.29016</ele>
        <time>2013-05-26T10:33:06Z</time>
      </trkpt>
      <trkpt lat="45.61159" lon="4.6178">
        <ele>600.8471</ele>
        <time>2013-05-26T10:33:16Z</time>
      </trkpt>
      <trkpt lat="45.61177" lon="4.61784">
        <ele>602.42584</ele>
        <time>2013-05-26T10:36:29Z</time>
      </trkpt>
      <trkpt lat="45.61171" lon="4.61758">
        <ele>603.8809</ele>
        <time>2013-05-26T10:36:36Z</time>
      </trkpt>
      <trkpt lat="45.61163" lon="4.61735">
        <ele>604.21094</ele>
        <time>2013-05-26T10:36:43Z</time>
      </trkpt>
      <trkpt lat="45.61154" lon="4.61709">
        <ele>604.66736</ele>
        <time>2013-05-26T10:36:51Z</time>
      </trkpt>
      <trkpt lat="45.61147" lon="4.61685">
        <ele>606.2667</ele>
        <time>2013-05-26T10:36:58Z</time>
      </trkpt>
      <trkpt lat="45.61143" lon="4.61657">
        <ele>606.7105</ele>
        <time>2013-05-26T10:37:06Z</time>
      </trkpt>
      <trkpt lat="45.61143" lon="4.61631">
        <ele>607.10175</ele>
        <time>2013-05-26T10:37:13Z</time>
      </trkpt>
      <trkpt lat="45.61144" lon="4.61604">
        <ele>606.2161</ele>
        <time>2013-05-26T10:37:20Z</time>
      </trkpt>
      <trkpt lat="45.61146" lon="4.61578">
        <ele>604.4725</ele>
        <time>2013-05-26T10:37:28Z</time>
      </trkpt>
      <trkpt lat="45.61145" lon="4.61552">
        <ele>605.37897</ele>
        <time>2013-05-26T10:37:36Z</time>
      </trkpt>
      <trkpt lat="45.61145" lon="4.61523">
        <ele>608.96094</ele>
        <time>2013-05-26T10:37:44Z</time>
      </trkpt>
      <trkpt lat="45.61145" lon="4.61496">
        <ele>610.389</ele>
        <time>2013-05-26T10:37:52Z</time>
      </trkpt>
      <trkpt lat="45.61146" lon="4.61468">
        <ele>612.28156</ele>
        <time>2013-05-26T10:38:00Z</time>
      </trkpt>
      <trkpt lat="45.61147" lon="4.61442">
        <ele>614.41235</ele>
        <time>2013-05-26T10:38:07Z</time>
      </trkpt>
      <trkpt lat="45.61145" lon="4.61413">
        <ele>614.93713</ele>
        <time>2013-05-26T10:38:15Z</time>
      </trkpt>
      <trkpt lat="45.61141" lon="4.61386">
        <ele>615.12054</ele>
        <time>2013-05-26T10:38:22Z</time>
      </trkpt>
      <trkpt lat="45.61132" lon="4.6136">
        <ele>616.34094</ele>
        <time>2013-05-26T10:38:29Z</time>
      </trkpt>
      <trkpt lat="45.61119" lon="4.61339">
        <ele>618.5863</ele>
        <time>2013-05-26T10:38:36Z</time>
      </trkpt>
      <trkpt lat="45.61104" lon="4.61324">
        <ele>621.50653</ele>
        <time>2013-05-26T10:38:44Z</time>
      </trkpt>
      <trkpt lat="45.61084" lon="4.61318">
        <ele>623.2188</ele>
        <time>2013-05-26T10:38:52Z</time>
      </trkpt>
      <trkpt lat="45.61065" lon="4.6132">
        <ele>622.1723</ele>
        <time>2013-05-26T10:39:00Z</time>
      </trkpt>
      <trkpt lat="45.61046" lon="4.61326">
        <ele>622.19214</ele>
        <time>2013-05-26T10:39:08Z</time>
      </trkpt>
      <trkpt lat="45.61029" lon="4.61335">
        <ele>623.9059</ele>
        <time>2013-05-26T10:39:15Z</time>
      </trkpt>
      <trkpt lat="45.61011" lon="4.61342">
        <ele>625.4809</ele>
        <time>2013-05-26T10:39:23Z</time>
      </trkpt>
      <trkpt lat="45.60992" lon="4.61347">
        <ele>628.5799</ele>
        <time>2013-05-26T10:39:32Z</time>
      </trkpt>
      <trkpt lat="45.60971" lon="4.61347">
        <ele>627.6812</ele>
        <time>2013-05-26T10:39:41Z</time>
      </trkpt>
      <trkpt lat="45.60952" lon="4.61339">
        <ele>627.0273</ele>
        <time>2013-05-26T10:39:49Z</time>
      </trkpt>
      <trkpt lat="45.60936" lon="4.61326">
        <ele>628.8079</ele>
        <time>2013-05-26T10:39:57Z</time>
      </trkpt>
      <trkpt lat="45.60924" lon="4.61307">
        <ele>630.3445</ele>
        <time>2013-05-26T10:40:05Z</time>
      </trkpt>
      <trkpt lat="45.60911" lon="4.61288">
        <ele>632.7021</ele>
        <time>2013-05-26T10:40:13Z</time>
      </trkpt>
      <trkpt lat="45.60898" lon="4.61266">
        <ele>631.8096</ele>
        <time>2013-05-26T10:40:21Z</time>
      </trkpt>
      <trkpt lat="45.60886" lon="4.61244">
        <ele>632.25024</ele>
        <time>2013-05-26T10:40:29Z</time>
      </trkpt>
      <trkpt lat="45.60873" lon="4.61226">
        <ele>632.14044</ele>
        <time>2013-05-26T10:40:37Z</time>
      </trkpt>
      <trkpt lat="45.6086" lon="4.61206">
        <ele>632.8323</ele>
        <time>2013-05-26T10:40:45Z</time>
      </trkpt>
      <trkpt lat="45.60854" lon="4.6118">
        <ele>633.53326</ele>
        <time>2013-05-26T10:40:54Z</time>
      </trkpt>
      <trkpt lat="45.60849" lon="4.61153">
        <ele>635.63605</ele>
        <time>2013-05-26T10:41:03Z</time>
      </trkpt>
      <trkpt lat="45.60843" lon="4.61125">
        <ele>637.06226</ele>
        <time>2013-05-26T10:41:12Z</time>
      </trkpt>
      <trkpt lat="45.6084" lon="4.61098">
        <ele>637.8557</ele>
        <time>2013-05-26T10:41:20Z</time>
      </trkpt>
      <trkpt lat="45.60838" lon="4.61072">
        <ele>638.4827</ele>
        <time>2013-05-26T10:41:28Z</time>
      </trkpt>
      <trkpt lat="45.60838" lon="4.61043">
        <ele>638.90155</ele>
        <time>2013-05-26T10:41:36Z</time>
      </trkpt>
      <trkpt lat="45.60842" lon="4.61018">
        <ele>638.2573</ele>
        <time>2013-05-26T10:41:44Z</time>
      </trkpt>
      <trkpt lat="45.60841" lon="4.60991">
        <ele>640.8469</ele>
        <time>2013-05-26T10:41:52Z</time>
      </trkpt>
      <trkpt lat="45.60842" lon="4.60964">
        <ele>643.0729</ele>
        <time>2013-05-26T10:42:00Z</time>
      </trkpt>
      <trkpt lat="45.60844" lon="4.60937">
        <ele>644.4825</ele>
        <time>2013-05-26T10:42:08Z</time>
      </trkpt>
      <trkpt lat="45.60845" lon="4.60909">
        <ele>645.9092</ele>
        <time>2013-05-26T10:42:16Z</time>
      </trkpt>
      <trkpt lat="45.60846" lon="4.60883">
        <ele>647.3114</ele>
        <time>2013-05-26T10:42:23Z</time>
      </trkpt>
      <trkpt lat="45.60847" lon="4.60857">
        <ele>649.30054</ele>
        <time>2013-05-26T10:42:31Z</time>
      </trkpt>
      <trkpt lat="45.60852" lon="4.60831">
        <ele>650.4832</ele>
        <time>2013-05-26T10:42:39Z</time>
      </trkpt>
      <trkpt lat="45.60858" lon="4.60806">
        <ele>651.112</ele>
        <time>2013-05-26T10:42:47Z</time>
      </trkpt>
      <trkpt lat="45.60861" lon="4.60781">
        <ele>650.25903</ele>
        <time>2013-05-26T10:42:55Z</time>
      </trkpt>
      <trkpt lat="45.60866" lon="4.60756">
        <ele>651.90607</ele>
        <time>2013-05-26T10:43:03Z</time>
      </trkpt>
      <trkpt lat="45.6087" lon="4.60731">
        <ele>653.4931</ele>
        <time>2013-05-26T10:43:11Z</time>
      </trkpt>
      <trkpt lat="45.60875" lon="4.60703">
        <ele>654.96326</ele>
        <time>2013-05-26T10:43:20Z</time>
      </trkpt>
      <trkpt lat="45.60881" lon="4.60678">
        <ele>655.7569</ele>
        <time>2013-05-26T10:43:28Z</time>
      </trkpt>
      <trkpt lat="45.60889" lon="4.60653">
        <ele>655.51404</ele>
        <time>2013-05-26T10:43:37Z</time>
      </trkpt>
      <trkpt lat="45.60897" lon="4.60628">
        <ele>654.76825</ele>
        <time>2013-05-26T10:43:46Z</time>
      </trkpt>
      <trkpt lat="45.60902" lon="4.60603">
        <ele>658.27405</ele>
        <time>2013-05-26T10:43:55Z</time>
      </trkpt>
      <trkpt lat="45.60908" lon="4.60579">
        <ele>660.83105</ele>
        <time>2013-05-26T10:44:03Z</time>
      </trkpt>
      <trkpt lat="45.60912" lon="4.60551">
        <ele>665.9648</ele>
        <time>2013-05-26T10:44:12Z</time>
      </trkpt>
      <trkpt lat="45.60912" lon="4.60521">
        <ele>669.72125</ele>
        <time>2013-05-26T10:44:22Z</time>
      </trkpt>
      <trkpt lat="45.60908" lon="4.60495">
        <ele>669.7073</ele>
        <time>2013-05-26T10:44:30Z</time>
      </trkpt>
      <trkpt lat="45.60897" lon="4.60476">
        <ele>665.6977</ele>
        <time>2013-05-26T10:44:39Z</time>
      </trkpt>
      <trkpt lat="45.6088" lon="4.60465">
        <ele>666.7528</ele>
        <time>2013-05-26T10:44:49Z</time>
      </trkpt>
      <trkpt lat="45.6086" lon="4.60471">
        <ele>672.3683</ele>
        <time>2013-05-26T10:44:57Z</time>
      </trkpt>
      <trkpt lat="45.60842" lon="4.60479">
        <ele>666.9797</ele>
        <time>2013-05-26T10:45:05Z</time>
      </trkpt>
      <trkpt lat="45.60826" lon="4.60493">
        <ele>667.64246</ele>
        <time>2013-05-26T10:45:16Z</time>
      </trkpt>
      <trkpt lat="45.60806" lon="4.60498">
        <ele>670.2554</ele>
        <time>2013-05-26T10:45:25Z</time>
      </trkpt>
      <trkpt lat="45.60787" lon="4.605">
        <ele>673.14465</ele>
        <time>2013-05-26T10:45:33Z</time>
      </trkpt>
      <trkpt lat="45.60768" lon="4.60496">
        <ele>675.38226</ele>
        <time>2013-05-26T10:45:42Z</time>
      </trkpt>
      <trkpt lat="45.60753" lon="4.60477">
        <ele>677.15106</ele>
        <time>2013-05-26T10:45:52Z</time>
      </trkpt>
      <trkpt lat="45.60744" lon="4.60454">
        <ele>676.3528</ele>
        <time>2013-05-26T10:46:00Z</time>
      </trkpt>
      <trkpt lat="45.60741" lon="4.60425">
        <ele>672.48645</ele>
        <time>2013-05-26T10:46:07Z</time>
      </trkpt>
      <trkpt lat="45.60735" lon="4.60401">
        <ele>674.839</ele>
        <time>2013-05-26T10:46:15Z</time>
      </trkpt>
      <trkpt lat="45.60727" lon="4.60378">
        <ele>674.0812</ele>
        <time>2013-05-26T10:46:23Z</time>
      </trkpt>
      <trkpt lat="45.60721" lon="4.60354">
        <ele>674.3351</ele>
        <time>2013-05-26T10:46:31Z</time>
      </trkpt>
      <trkpt lat="45.60708" lon="4.60334">
        <ele>676.9825</ele>
        <time>2013-05-26T10:46:40Z</time>
      </trkpt>
      <trkpt lat="45.60694" lon="4.60317">
        <ele>679.85925</ele>
        <time>2013-05-26T10:46:50Z</time>
      </trkpt>
      <trkpt lat="45.60681" lon="4.60299">
        <ele>681.45337</ele>
        <time>2013-05-26T10:46:59Z</time>
      </trkpt>
      <trkpt lat="45.60666" lon="4.6028">
        <ele>682.9004</ele>
        <time>2013-05-26T10:47:08Z</time>
      </trkpt>
      <trkpt lat="45.60656" lon="4.60258">
        <ele>685.4696</ele>
        <time>2013-05-26T10:47:16Z</time>
      </trkpt>
      <trkpt lat="45.60647" lon="4.60236">
        <ele>685.21185</ele>
        <time>2013-05-26T10:47:24Z</time>
      </trkpt>
      <trkpt lat="45.60639" lon="4.6021">
        <ele>685.9532</ele>
        <time>2013-05-26T10:47:33Z</time>
      </trkpt>
      <trkpt lat="45.60642" lon="4.60182">
        <ele>684.745</ele>
        <time>2013-05-26T10:47:44Z</time>
      </trkpt>
      <trkpt lat="45.60649" lon="4.60155">
        <ele>686.84283</ele>
        <time>2013-05-26T10:47:53Z</time>
      </trkpt>
      <trkpt lat="45.60656" lon="4.60132">
        <ele>684.4354</ele>
        <time>2013-05-26T10:48:02Z</time>
      </trkpt>
      <trkpt lat="45.60663" lon="4.60105">
        <ele>682.1387</ele>
        <time>2013-05-26T10:48:11Z</time>
      </trkpt>
      <trkpt lat="45.60672" lon="4.60082">
        <ele>684.5353</ele>
        <time>2013-05-26T10:48:19Z</time>
      </trkpt>
      <trkpt lat="45.60678" lon="4.60057">
        <ele>685.8642</ele>
        <time>2013-05-26T10:48:28Z</time>
      </trkpt>
      <trkpt lat="45.6067" lon="4.6003">
        <ele>690.04913</ele>
        <time>2013-05-26T10:48:36Z</time>
      </trkpt>
      <trkpt lat="45.60654" lon="4.60015">
        <ele>693.48346</ele>
        <time>2013-05-26T10:48:45Z</time>
      </trkpt>
      <trkpt lat="45.60635" lon="4.60008">
        <ele>695.8794</ele>
        <time>2013-05-26T10:48:53Z</time>
      </trkpt>
      <trkpt lat="45.60619" lon="4.59995">
        <ele>697.97327</ele>
        <time>2013-05-26T10:49:02Z</time>
      </trkpt>
      <trkpt lat="45.6061" lon="4.59971">
        <ele>697.66077</ele>
        <time>2013-05-26T10:49:12Z</time>
      </trkpt>
      <trkpt lat="45.60603" lon="4.59945">
        <ele>695.56036</ele>
        <time>2013-05-26T10:49:21Z</time>
      </trkpt>
      <trkpt lat="45.60597" lon="4.59919">
        <ele>697.6504</ele>
        <time>2013-05-26T10:49:31Z</time>
      </trkpt>
      <trkpt lat="45.60591" lon="4.59893">
        <ele>698.9558</ele>
        <time>2013-05-26T10:49:40Z</time>
      </trkpt>
      <trkpt lat="45.6058" lon="4.59871">
        <ele>701.0708</ele>
        <time>2013-05-26T10:49:50Z</time>
      </trkpt>
      <trkpt lat="45.60566" lon="4.59852">
        <ele>704.1093</ele>
        <time>2013-05-26T10:50:00Z</time>
      </trkpt>
      <trkpt lat="45.60547" lon="4.59842">
        <ele>707.08746</ele>
        <time>2013-05-26T10:50:10Z</time>
      </trkpt>
      <trkpt lat="45.60529" lon="4.59838">
        <ele>708.3462</ele>
        <time>2013-05-26T10:50:18Z</time>
      </trkpt>
      <trkpt lat="45.6051" lon="4.59838">
        <ele>711.57526</ele>
        <time>2013-05-26T10:50:26Z</time>
      </trkpt>
      <trkpt lat="45.60491" lon="4.59829">
        <ele>711.0307</ele>
        <time>2013-05-26T10:50:36Z</time>
      </trkpt>
      <trkpt lat="45.60475" lon="4.59815">
        <ele>709.7118</ele>
        <time>2013-05-26T10:50:45Z</time>
      </trkpt>
      <trkpt lat="45.60462" lon="4.59797">
        <ele>710.328</ele>
        <time>2013-05-26T10:50:54Z</time>
      </trkpt>
      <trkpt lat="45.60456" lon="4.59771">
        <ele>709.09753</ele>
        <time>2013-05-26T10:51:03Z</time>
      </trkpt>
      <trkpt lat="45.60451" lon="4.59746">
        <ele>708.6465</ele>
        <time>2013-05-26T10:51:12Z</time>
      </trkpt>
      <trkpt lat="45.60452" lon="4.59718">
        <ele>708.1384</ele>
        <time>2013-05-26T10:51:22Z</time>
      </trkpt>
      <trkpt lat="45.60457" lon="4.59691">
        <ele>708.3801</ele>
        <time>2013-05-26T10:51:32Z</time>
      </trkpt>
      <trkpt lat="45.60466" lon="4.59668">
        <ele>710.08545</ele>
        <time>2013-05-26T10:51:42Z</time>
      </trkpt>
      <trkpt lat="45.60477" lon="4.59646">
        <ele>711.54144</ele>
        <time>2013-05-26T10:51:51Z</time>
      </trkpt>
      <trkpt lat="45.60486" lon="4.59624">
        <ele>711.77014</ele>
        <time>2013-05-26T10:52:00Z</time>
      </trkpt>
      <trkpt lat="45.60496" lon="4.59602">
        <ele>711.1587</ele>
        <time>2013-05-26T10:52:09Z</time>
      </trkpt>
      <trkpt lat="45.60505" lon="4.5958">
        <ele>713.8319</ele>
        <time>2013-05-26T10:52:19Z</time>
      </trkpt>
      <trkpt lat="45.60516" lon="4.59558">
        <ele>713.0589</ele>
        <time>2013-05-26T10:52:28Z</time>
      </trkpt>
      <trkpt lat="45.60525" lon="4.59534">
        <ele>715.2696</ele>
        <time>2013-05-26T10:52:37Z</time>
      </trkpt>
      <trkpt lat="45.60533" lon="4.59509">
        <ele>717.2916</ele>
        <time>2013-05-26T10:52:47Z</time>
      </trkpt>
      <trkpt lat="45.60532" lon="4.59482">
        <ele>719.87555</ele>
        <time>2013-05-26T10:52:57Z</time>
      </trkpt>
      <trkpt lat="45.60552" lon="4.59463">
        <ele>726.2</ele>
        <time>2013-05-26T11:42:31Z</time>
      </trkpt>
      <trkpt lat="45.60513" lon="4.59397">
        <ele>721.9332</ele>
        <time>2013-05-26T11:43:09Z</time>
      </trkpt>
      <trkpt lat="45.60498" lon="4.59414">
        <ele>721.51685</ele>
        <time>2013-05-26T11:43:17Z</time>
      </trkpt>
      <trkpt lat="45.6048" lon="4.59423">
        <ele>722.96545</ele>
        <time>2013-05-26T11:43:25Z</time>
      </trkpt>
      <trkpt lat="45.6046" lon="4.59426">
        <ele>725.1595</ele>
        <time>2013-05-26T11:43:36Z</time>
      </trkpt>
      <trkpt lat="45.60442" lon="4.59429">
        <ele>722.19116</ele>
        <time>2013-05-26T11:43:43Z</time>
      </trkpt>
      <trkpt lat="45.60424" lon="4.59432">
        <ele>717.9616</ele>
        <time>2013-05-26T11:43:49Z</time>
      </trkpt>
      <trkpt lat="45.60406" lon="4.5943">
        <ele>714.5415</ele>
        <time>2013-05-26T11:43:56Z</time>
      </trkpt>
      <trkpt lat="45.60388" lon="4.59432">
        <ele>715.33936</ele>
        <time>2013-05-26T11:44:03Z</time>
      </trkpt>
      <trkpt lat="45.6037" lon="4.59426">
        <ele>720.0072</ele>
        <time>2013-05-26T11:44:10Z</time>
      </trkpt>
      <trkpt lat="45.60354" lon="4.5941">
        <ele>726.3564</ele>
        <time>2013-05-26T11:44:18Z</time>
      </trkpt>
      <trkpt lat="45.60341" lon="4.59392">
        <ele>730.14124</ele>
        <time>2013-05-26T11:44:26Z</time>
      </trkpt>
      <trkpt lat="45.60329" lon="4.59373">
        <ele>732.9782</ele>
        <time>2013-05-26T11:44:34Z</time>
      </trkpt>
      <trkpt lat="45.60317" lon="4.59351">
        <ele>735.01575</ele>
        <time>2013-05-26T11:44:42Z</time>
      </trkpt>
      <trkpt lat="45.60309" lon="4.59327">
        <ele>739.45056</ele>
        <time>2013-05-26T11:44:51Z</time>
      </trkpt>
      <trkpt lat="45.60301" lon="4.59302">
        <ele>744.4096</ele>
        <time>2013-05-26T11:45:00Z</time>
      </trkpt>
      <trkpt lat="45.60295" lon="4.59277">
        <ele>744.31506</ele>
        <time>2013-05-26T11:45:07Z</time>
      </trkpt>
      <trkpt lat="45.60292" lon="4.59251">
        <ele>743.693</ele>
        <time>2013-05-26T11:45:14Z</time>
      </trkpt>
      <trkpt lat="45.60289" lon="4.59223">
        <ele>744.2323</ele>
        <time>2013-05-26T11:45:22Z</time>
      </trkpt>
      <trkpt lat="45.60287" lon="4.59197">
        <ele>745.037</ele>
        <time>2013-05-26T11:45:31Z</time>
      </trkpt>
      <trkpt lat="45.60277" lon="4.59173">
        <ele>748.1032</ele>
        <time>2013-05-26T11:45:40Z</time>
      </trkpt>
      <trkpt lat="45.6026" lon="4.59159">
        <ele>754.10034</ele>
        <time>2013-05-26T11:45:48Z</time>
      </trkpt>
      <trkpt lat="45.60241" lon="4.59145">
        <ele>757.09717</ele>
        <time>2013-05-26T11:45:56Z</time>
      </trkpt>
      <trkpt lat="45.60225" lon="4.59129">
        <ele>758.6211</ele>
        <time>2013-05-26T11:46:04Z</time>
      </trkpt>
      <trkpt lat="45.60212" lon="4.59107">
        <ele>760.5005</ele>
        <time>2013-05-26T11:46:12Z</time>
      </trkpt>
      <trkpt lat="45.60203" lon="4.59081">
        <ele>760.26154</ele>
        <time>2013-05-26T11:46:20Z</time>
      </trkpt>
      <trkpt lat="45.60194" lon="4.59056">
        <ele>758.81134</ele>
        <time>2013-05-26T11:46:27Z</time>
      </trkpt>
      <trkpt lat="45.60185" lon="4.59033">
        <ele>758.03613</ele>
        <time>2013-05-26T11:46:34Z</time>
      </trkpt>
      <trkpt lat="45.60172" lon="4.59014">
        <ele>758.05475</ele>
        <time>2013-05-26T11:46:41Z</time>
      </trkpt>
      <trkpt lat="45.60161" lon="4.58993">
        <ele>758.92914</ele>
        <time>2013-05-26T11:46:48Z</time>
      </trkpt>
      <trkpt lat="45.60147" lon="4.58971">
        <ele>759.41113</ele>
        <time>2013-05-26T11:46:56Z</time>
      </trkpt>
      <trkpt lat="45.60136" lon="4.58949">
        <ele>759.59625</ele>
        <time>2013-05-26T11:47:04Z</time>
      </trkpt>
      <trkpt lat="45.60132" lon="4.58923">
        <ele>760.7269</ele>
        <time>2013-05-26T11:47:12Z</time>
      </trkpt>
      <trkpt lat="45.60138" lon="4.58898">
        <ele>761.42487</ele>
        <time>2013-05-26T11:47:24Z</time>
      </trkpt>
      <trkpt lat="45.60141" lon="4.58821">
        <ele>759.97864</ele>
        <time>2013-05-26T11:48:09Z</time>
      </trkpt>
      <trkpt lat="45.60153" lon="4.58797">
        <ele>757.3626</ele>
        <time>2013-05-26T11:48:14Z</time>
      </trkpt>
      <trkpt lat="45.60168" lon="4.58775">
        <ele>758.39484</ele>
        <time>2013-05-26T11:48:18Z</time>
      </trkpt>
      <trkpt lat="45.6018" lon="4.58749">
        <ele>758.6339</ele>
        <time>2013-05-26T11:48:22Z</time>
      </trkpt>
      <trkpt lat="45.60181" lon="4.58719">
        <ele>756.3662</ele>
        <time>2013-05-26T11:48:26Z</time>
      </trkpt>
      <trkpt lat="45.60194" lon="4.58694">
        <ele>754.4026</ele>
        <time>2013-05-26T11:48:30Z</time>
      </trkpt>
      <trkpt lat="45.60189" lon="4.58663">
        <ele>752.2879</ele>
        <time>2013-05-26T11:48:34Z</time>
      </trkpt>
      <trkpt lat="45.60175" lon="4.58637">
        <ele>749.65125</ele>
        <time>2013-05-26T11:48:38Z</time>
      </trkpt>
      <trkpt lat="45.60168" lon="4.58613">
        <ele>747.0111</ele>
        <time>2013-05-26T11:48:42Z</time>
      </trkpt>
      <trkpt lat="45.60158" lon="4.58587">
        <ele>746.9556</ele>
        <time>2013-05-26T11:48:48Z</time>
      </trkpt>
      <trkpt lat="45.60144" lon="4.58567">
        <ele>748.3781</ele>
        <time>2013-05-26T11:48:55Z</time>
      </trkpt>
      <trkpt lat="45.60131" lon="4.58546">
        <ele>750.7423</ele>
        <time>2013-05-26T11:49:02Z</time>
      </trkpt>
      <trkpt lat="45.60122" lon="4.5852">
        <ele>751.6574</ele>
        <time>2013-05-26T11:49:09Z</time>
      </trkpt>
      <trkpt lat="45.60117" lon="4.58493">
        <ele>752.03735</ele>
        <time>2013-05-26T11:49:15Z</time>
      </trkpt>
      <trkpt lat="45.60112" lon="4.58464">
        <ele>751.5456</ele>
        <time>2013-05-26T11:49:21Z</time>
      </trkpt>
      <trkpt lat="45.60106" lon="4.58435">
        <ele>751.3576</ele>
        <time>2013-05-26T11:49:26Z</time>
      </trkpt>
      <trkpt lat="45.60101" lon="4.58406">
        <ele>751.26495</ele>
        <time>2013-05-26T11:49:31Z</time>
      </trkpt>
      <trkpt lat="45.60096" lon="4.58379">
        <ele>751.41296</ele>
        <time>2013-05-26T11:49:36Z</time>
      </trkpt>
      <trkpt lat="45.60092" lon="4.58351">
        <ele>751.3466</ele>
        <time>2013-05-26T11:49:41Z</time>
      </trkpt>
      <trkpt lat="45.60088" lon="4.58324">
        <ele>751.5631</ele>
        <time>2013-05-26T11:49:46Z</time>
      </trkpt>
      <trkpt lat="45.60084" lon="4.58297">
        <ele>751.6078</ele>
        <time>2013-05-26T11:49:51Z</time>
      </trkpt>
      <trkpt lat="45.60081" lon="4.58271">
        <ele>751.8077</ele>
        <time>2013-05-26T11:49:56Z</time>
      </trkpt>
      <trkpt lat="45.6008" lon="4.58244">
        <ele>752.0432</ele>
        <time>2013-05-26T11:50:01Z</time>
      </trkpt>
      <trkpt lat="45.60079" lon="4.58216">
        <ele>752.0884</ele>
        <time>2013-05-26T11:50:06Z</time>
      </trkpt>
      <trkpt lat="45.60079" lon="4.58188">
        <ele>752.10095</ele>
        <time>2013-05-26T11:50:11Z</time>
      </trkpt>
      <trkpt lat="45.60079" lon="4.58158">
        <ele>751.8901</ele>
        <time>2013-05-26T11:50:16Z</time>
      </trkpt>
      <trkpt lat="45.60081" lon="4.58131">
        <ele>751.8285</ele>
        <time>2013-05-26T11:50:20Z</time>
      </trkpt>
      <trkpt lat="45.60082" lon="4.58102">
        <ele>751.29926</ele>
        <time>2013-05-26T11:50:24Z</time>
      </trkpt>
      <trkpt lat="45.60084" lon="4.58071">
        <ele>751.0865</ele>
        <time>2013-05-26T11:50:28Z</time>
      </trkpt>
      <trkpt lat="45.60085" lon="4.58039">
        <ele>750.684</ele>
        <time>2013-05-26T11:50:32Z</time>
      </trkpt>
      <trkpt lat="45.60083" lon="4.58008">
        <ele>750.29297</ele>
        <time>2013-05-26T11:50:36Z</time>
      </trkpt>
      <trkpt lat="45.60081" lon="4.57975">
        <ele>749.8435</ele>
        <time>2013-05-26T11:50:40Z</time>
      </trkpt>
      <trkpt lat="45.6008" lon="4.57942">
        <ele>749.06885</ele>
        <time>2013-05-26T11:50:44Z</time>
      </trkpt>
      <trkpt lat="45.60083" lon="4.57908">
        <ele>748.53235</ele>
        <time>2013-05-26T11:50:48Z</time>
      </trkpt>
      <trkpt lat="45.60093" lon="4.57878">
        <ele>748.30475</ele>
        <time>2013-05-26T11:50:52Z</time>
      </trkpt>
      <trkpt lat="45.60108" lon="4.57852">
        <ele>747.79877</ele>
        <time>2013-05-26T11:50:56Z</time>
      </trkpt>
      <trkpt lat="45.60123" lon="4.57827">
        <ele>747.0117</ele>
        <time>2013-05-26T11:51:00Z</time>
      </trkpt>
      <trkpt lat="45.60131" lon="4.57804">
        <ele>745.6784</ele>
        <time>2013-05-26T11:51:03Z</time>
      </trkpt>
      <trkpt lat="45.60134" lon="4.5777">
        <ele>744.32947</ele>
        <time>2013-05-26T11:51:07Z</time>
      </trkpt>
      <trkpt lat="45.6013" lon="4.57744">
        <ele>743.5437</ele>
        <time>2013-05-26T11:51:10Z</time>
      </trkpt>
      <trkpt lat="45.60124" lon="4.57713">
        <ele>742.9584</ele>
        <time>2013-05-26T11:51:14Z</time>
      </trkpt>
      <trkpt lat="45.60115" lon="4.57688">
        <ele>742.723</ele>
        <time>2013-05-26T11:51:17Z</time>
      </trkpt>
      <trkpt lat="45.60104" lon="4.57666">
        <ele>743.0644</ele>
        <time>2013-05-26T11:51:20Z</time>
      </trkpt>
      <trkpt lat="45.60088" lon="4.57648">
        <ele>743.3537</ele>
        <time>2013-05-26T11:51:23Z</time>
      </trkpt>
      <trkpt lat="45.60073" lon="4.57632">
        <ele>743.7758</ele>
        <time>2013-05-26T11:51:26Z</time>
      </trkpt>
      <trkpt lat="45.6006" lon="4.57613">
        <ele>744.1086</ele>
        <time>2013-05-26T11:51:29Z</time>
      </trkpt>
      <trkpt lat="45.60049" lon="4.57587">
        <ele>744.25934</ele>
        <time>2013-05-26T11:51:33Z</time>
      </trkpt>
      <trkpt lat="45.60041" lon="4.57562">
        <ele>746.2102</ele>
        <time>2013-05-26T11:51:39Z</time>
      </trkpt>
      <trkpt lat="45.60033" lon="4.57535">
        <ele>747.5781</ele>
        <time>2013-05-26T11:51:46Z</time>
      </trkpt>
      <trkpt lat="45.60029" lon="4.57506">
        <ele>747.5651</ele>
        <time>2013-05-26T11:51:53Z</time>
      </trkpt>
      <trkpt lat="45.60025" lon="4.5748">
        <ele>747.3131</ele>
        <time>2013-05-26T11:51:59Z</time>
      </trkpt>
      <trkpt lat="45.60021" lon="4.57452">
        <ele>745.8043</ele>
        <time>2013-05-26T11:52:05Z</time>
      </trkpt>
      <trkpt lat="45.60017" lon="4.57425">
        <ele>748.0784</ele>
        <time>2013-05-26T11:53:11Z</time>
      </trkpt>
      <trkpt lat="45.60013" lon="4.57396">
        <ele>748.42883</ele>
        <time>2013-05-26T11:53:16Z</time>
      </trkpt>
      <trkpt lat="45.6001" lon="4.57371">
        <ele>748.7939</ele>
        <time>2013-05-26T11:53:20Z</time>
      </trkpt>
      <trkpt lat="45.60006" lon="4.57343">
        <ele>748.7426</ele>
        <time>2013-05-26T11:53:24Z</time>
      </trkpt>
      <trkpt lat="45.60003" lon="4.57316">
        <ele>748.2744</ele>
        <time>2013-05-26T11:53:28Z</time>
      </trkpt>
      <trkpt lat="45.6" lon="4.5729">
        <ele>748.25635</ele>
        <time>2013-05-26T11:53:32Z</time>
      </trkpt>
      <trkpt lat="45.59998" lon="4.57264">
        <ele>748.3643</ele>
        <time>2013-05-26T11:53:36Z</time>
      </trkpt>
      <trkpt lat="45.59995" lon="4.57239">
        <ele>747.4</ele>
        <time>2013-05-26T11:53:40Z</time>
      </trkpt>
      <trkpt lat="45.59991" lon="4.57212">
        <ele>747.932</ele>
        <time>2013-05-26T11:53:44Z</time>
      </trkpt>
      <trkpt lat="45.59987" lon="4.57182">
        <ele>748.8397</ele>
        <time>2013-05-26T11:53:49Z</time>
      </trkpt>
      <trkpt lat="45.59983" lon="4.57153">
        <ele>749.5709</ele>
        <time>2013-05-26T11:53:54Z</time>
      </trkpt>
      <trkpt lat="45.5998" lon="4.57128">
        <ele>750.9276</ele>
        <time>2013-05-26T11:53:59Z</time>
      </trkpt>
      <trkpt lat="45.59976" lon="4.57102">
        <ele>751.8295</ele>
        <time>2013-05-26T11:54:05Z</time>
      </trkpt>
      <trkpt lat="45.5997" lon="4.57075">
        <ele>751.63965</ele>
        <time>2013-05-26T11:54:11Z</time>
      </trkpt>
      <trkpt lat="45.59959" lon="4.5705">
        <ele>752.66486</ele>
        <time>2013-05-26T11:54:18Z</time>
      </trkpt>
      <trkpt lat="45.5995" lon="4.57023">
        <ele>753.9342</ele>
        <time>2013-05-26T11:54:24Z</time>
      </trkpt>
      <trkpt lat="45.5995" lon="4.56996">
        <ele>751.589</ele>
        <time>2013-05-26T11:54:29Z</time>
      </trkpt>
      <trkpt lat="45.59956" lon="4.56961">
        <ele>748.33105</ele>
        <time>2013-05-26T11:54:34Z</time>
      </trkpt>
      <trkpt lat="45.59961" lon="4.56933">
        <ele>747.74554</ele>
        <time>2013-05-26T11:54:39Z</time>
      </trkpt>
      <trkpt lat="45.59969" lon="4.569">
        <ele>747.9328</ele>
        <time>2013-05-26T11:54:44Z</time>
      </trkpt>
      <trkpt lat="45.59978" lon="4.56873">
        <ele>747.24164</ele>
        <time>2013-05-26T11:54:48Z</time>
      </trkpt>
      <trkpt lat="45.59988" lon="4.56849">
        <ele>746.98004</ele>
        <time>2013-05-26T11:54:51Z</time>
      </trkpt>
      <trkpt lat="45.59996" lon="4.5682">
        <ele>747.0322</ele>
        <time>2013-05-26T11:54:54Z</time>
      </trkpt>
      <trkpt lat="45.60005" lon="4.56791">
        <ele>747.062</ele>
        <time>2013-05-26T11:54:57Z</time>
      </trkpt>
      <trkpt lat="45.60012" lon="4.56762">
        <ele>746.4574</ele>
        <time>2013-05-26T11:55:00Z</time>
      </trkpt>
      <trkpt lat="45.6002" lon="4.56732">
        <ele>745.47894</ele>
        <time>2013-05-26T11:55:03Z</time>
      </trkpt>
      <trkpt lat="45.60029" lon="4.56704">
        <ele>744.28485</ele>
        <time>2013-05-26T11:55:06Z</time>
      </trkpt>
      <trkpt lat="45.60037" lon="4.56675">
        <ele>742.8804</ele>
        <time>2013-05-26T11:55:10Z</time>
      </trkpt>
      <trkpt lat="45.60046" lon="4.56645">
        <ele>740.4223</ele>
        <time>2013-05-26T11:55:14Z</time>
      </trkpt>
      <trkpt lat="45.60053" lon="4.5662">
        <ele>739.2438</ele>
        <time>2013-05-26T11:55:17Z</time>
      </trkpt>
      <trkpt lat="45.60064" lon="4.56596">
        <ele>738.3372</ele>
        <time>2013-05-26T11:55:20Z</time>
      </trkpt>
      <trkpt lat="45.60074" lon="4.56571">
        <ele>737.4813</ele>
        <time>2013-05-26T11:55:23Z</time>
      </trkpt>
      <trkpt lat="45.60087" lon="4.56546">
        <ele>736.5234</ele>
        <time>2013-05-26T11:55:26Z</time>
      </trkpt>
      <trkpt lat="45.60099" lon="4.56522">
        <ele>735.888</ele>
        <time>2013-05-26T11:55:29Z</time>
      </trkpt>
      <trkpt lat="45.6011" lon="4.56498">
        <ele>735.19653</ele>
        <time>2013-05-26T11:55:32Z</time>
      </trkpt>
      <trkpt lat="45.60119" lon="4.56474">
        <ele>734.7251</ele>
        <time>2013-05-26T11:55:35Z</time>
      </trkpt>
      <trkpt lat="45.60129" lon="4.56449">
        <ele>733.7465</ele>
        <time>2013-05-26T11:55:38Z</time>
      </trkpt>
      <trkpt lat="45.60139" lon="4.56424">
        <ele>732.94617</ele>
        <time>2013-05-26T11:55:41Z</time>
      </trkpt>
      <trkpt lat="45.60148" lon="4.56402">
        <ele>732.8429</ele>
        <time>2013-05-26T11:55:44Z</time>
      </trkpt>
      <trkpt lat="45.60157" lon="4.56378">
        <ele>733.1837</ele>
        <time>2013-05-26T11:55:47Z</time>
      </trkpt>
      <trkpt lat="45.60168" lon="4.56355">
        <ele>732.90094</ele>
        <time>2013-05-26T11:55:50Z</time>
      </trkpt>
      <trkpt lat="45.60176" lon="4.56331">
        <ele>732.13165</ele>
        <time>2013-05-26T11:55:53Z</time>
      </trkpt>
      <trkpt lat="45.60188" lon="4.56303">
        <ele>731.246</ele>
        <time>2013-05-26T11:55:57Z</time>
      </trkpt>
      <trkpt lat="45.60202" lon="4.56276">
        <ele>730.0106</ele>
        <time>2013-05-26T11:56:01Z</time>
      </trkpt>
      <trkpt lat="45.60216" lon="4.56252">
        <ele>728.70374</ele>
        <time>2013-05-26T11:56:05Z</time>
      </trkpt>
      <trkpt lat="45.60231" lon="4.56232">
        <ele>728.05316</ele>
        <time>2013-05-26T11:56:09Z</time>
      </trkpt>
      <trkpt lat="45.60248" lon="4.56215">
        <ele>727.7129</ele>
        <time>2013-05-26T11:56:13Z</time>
      </trkpt>
      <trkpt lat="45.60267" lon="4.562">
        <ele>727.51697</ele>
        <time>2013-05-26T11:56:17Z</time>
      </trkpt>
      <trkpt lat="45.60285" lon="4.56186">
        <ele>726.99365</ele>
        <time>2013-05-26T11:56:21Z</time>
      </trkpt>
      <trkpt lat="45.60302" lon="4.56172">
        <ele>726.27765</ele>
        <time>2013-05-26T11:56:25Z</time>
      </trkpt>
      <trkpt lat="45.60319" lon="4.56159">
        <ele>723.9699</ele>
        <time>2013-05-26T11:56:29Z</time>
      </trkpt>
      <trkpt lat="45.60337" lon="4.56145">
        <ele>722.5487</ele>
        <time>2013-05-26T11:56:33Z</time>
      </trkpt>
      <trkpt lat="45.60353" lon="4.56132">
        <ele>721.57324</ele>
        <time>2013-05-26T11:56:37Z</time>
      </trkpt>
      <trkpt lat="45.6037" lon="4.56116">
        <ele>721.1204</ele>
        <time>2013-05-26T11:56:41Z</time>
      </trkpt>
      <trkpt lat="45.60389" lon="4.56099">
        <ele>721.36426</ele>
        <time>2013-05-26T11:56:45Z</time>
      </trkpt>
      <trkpt lat="45.60404" lon="4.56081">
        <ele>721.6043</ele>
        <time>2013-05-26T11:56:49Z</time>
      </trkpt>
      <trkpt lat="45.60418" lon="4.56062">
        <ele>721.1994</ele>
        <time>2013-05-26T11:56:53Z</time>
      </trkpt>
      <trkpt lat="45.60434" lon="4.5604">
        <ele>721.1558</ele>
        <time>2013-05-26T11:56:58Z</time>
      </trkpt>
      <trkpt lat="45.6045" lon="4.56018">
        <ele>721.2403</ele>
        <time>2013-05-26T11:57:02Z</time>
      </trkpt>
      <trkpt lat="45.60461" lon="4.55994">
        <ele>721.328</ele>
        <time>2013-05-26T11:57:06Z</time>
      </trkpt>
      <trkpt lat="45.6046" lon="4.55964">
        <ele>721.40625</ele>
        <time>2013-05-26T11:57:11Z</time>
      </trkpt>
      <trkpt lat="45.60455" lon="4.55937">
        <ele>720.71625</ele>
        <time>2013-05-26T11:57:16Z</time>
      </trkpt>
      <trkpt lat="45.60456" lon="4.5591">
        <ele>720.8936</ele>
        <time>2013-05-26T11:57:21Z</time>
      </trkpt>
      <trkpt lat="45.60465" lon="4.55885">
        <ele>721.7093</ele>
        <time>2013-05-26T11:57:28Z</time>
      </trkpt>
      <trkpt lat="45.60477" lon="4.55863">
        <ele>723.45605</ele>
        <time>2013-05-26T11:57:36Z</time>
      </trkpt>
      <trkpt lat="45.60502" lon="4.55772">
        <ele>725.0025</ele>
        <time>2013-05-26T11:58:08Z</time>
      </trkpt>
      <trkpt lat="45.60504" lon="4.55744">
        <ele>728.49994</ele>
        <time>2013-05-26T11:58:18Z</time>
      </trkpt>
      <trkpt lat="45.60502" lon="4.55716">
        <ele>729.22375</ele>
        <time>2013-05-26T11:58:25Z</time>
      </trkpt>
      <trkpt lat="45.605" lon="4.5569">
        <ele>728.71045</ele>
        <time>2013-05-26T11:58:31Z</time>
      </trkpt>
      <trkpt lat="45.60498" lon="4.5566">
        <ele>728.3578</ele>
        <time>2013-05-26T11:58:37Z</time>
      </trkpt>
      <trkpt lat="45.60498" lon="4.5563">
        <ele>728.93005</ele>
        <time>2013-05-26T11:58:43Z</time>
      </trkpt>
      <trkpt lat="45.60501" lon="4.556">
        <ele>728.8038</ele>
        <time>2013-05-26T11:58:49Z</time>
      </trkpt>
      <trkpt lat="45.60506" lon="4.55571">
        <ele>728.9039</ele>
        <time>2013-05-26T11:58:55Z</time>
      </trkpt>
      <trkpt lat="45.6051" lon="4.55545">
        <ele>727.9596</ele>
        <time>2013-05-26T11:59:01Z</time>
      </trkpt>
      <trkpt lat="45.60512" lon="4.55516">
        <ele>729.33685</ele>
        <time>2013-05-26T11:59:07Z</time>
      </trkpt>
      <trkpt lat="45.60512" lon="4.55488">
        <ele>730.49585</ele>
        <time>2013-05-26T11:59:13Z</time>
      </trkpt>
      <trkpt lat="45.6051" lon="4.55462">
        <ele>732.21497</ele>
        <time>2013-05-26T11:59:19Z</time>
      </trkpt>
      <trkpt lat="45.60507" lon="4.55435">
        <ele>732.2608</ele>
        <time>2013-05-26T11:59:25Z</time>
      </trkpt>
      <trkpt lat="45.60502" lon="4.55409">
        <ele>732.8032</ele>
        <time>2013-05-26T11:59:31Z</time>
      </trkpt>
      <trkpt lat="45.60491" lon="4.55385">
        <ele>731.78564</ele>
        <time>2013-05-26T11:59:36Z</time>
      </trkpt>
      <trkpt lat="45.6048" lon="4.5536">
        <ele>731.7301</ele>
        <time>2013-05-26T11:59:42Z</time>
      </trkpt>
      <trkpt lat="45.60466" lon="4.55339">
        <ele>730.858</ele>
        <time>2013-05-26T11:59:46Z</time>
      </trkpt>
      <trkpt lat="45.60453" lon="4.55318">
        <ele>732.3488</ele>
        <time>2013-05-26T11:59:50Z</time>
      </trkpt>
      <trkpt lat="45.6045" lon="4.55291">
        <ele>738.18414</ele>
        <time>2013-05-26T11:59:58Z</time>
      </trkpt>
      <trkpt lat="45.60441" lon="4.55261">
        <ele>742.79913</ele>
        <time>2013-05-26T12:00:04Z</time>
      </trkpt>
      <trkpt lat="45.60421" lon="4.55238">
        <ele>741.89935</ele>
        <time>2013-05-26T12:00:05Z</time>
      </trkpt>
      <trkpt lat="45.60404" lon="4.55226">
        <ele>738.98883</ele>
        <time>2013-05-26T12:00:09Z</time>
      </trkpt>
      <trkpt lat="45.60389" lon="4.55205">
        <ele>737.4777</ele>
        <time>2013-05-26T12:00:14Z</time>
      </trkpt>
      <trkpt lat="45.60374" lon="4.55186">
        <ele>735.37256</ele>
        <time>2013-05-26T12:00:19Z</time>
      </trkpt>
      <trkpt lat="45.60356" lon="4.55175">
        <ele>735.7346</ele>
        <time>2013-05-26T12:00:24Z</time>
      </trkpt>
      <trkpt lat="45.60338" lon="4.55167">
        <ele>732.4833</ele>
        <time>2013-05-26T12:00:29Z</time>
      </trkpt>
      <trkpt lat="45.60317" lon="4.5516">
        <ele>729.65015</ele>
        <time>2013-05-26T12:00:34Z</time>
      </trkpt>
      <trkpt lat="45.60298" lon="4.55158">
        <ele>729.06323</ele>
        <time>2013-05-26T12:00:39Z</time>
      </trkpt>
      <trkpt lat="45.60278" lon="4.55158">
        <ele>728.90076</ele>
        <time>2013-05-26T12:00:44Z</time>
      </trkpt>
      <trkpt lat="45.6026" lon="4.55156">
        <ele>727.3893</ele>
        <time>2013-05-26T12:00:48Z</time>
      </trkpt>
      <trkpt lat="45.60238" lon="4.55151">
        <ele>727.9923</ele>
        <time>2013-05-26T12:00:52Z</time>
      </trkpt>
      <trkpt lat="45.60219" lon="4.55143">
        <ele>728.6237</ele>
        <time>2013-05-26T12:00:56Z</time>
      </trkpt>
      <trkpt lat="45.60202" lon="4.55127">
        <ele>728.53033</ele>
        <time>2013-05-26T12:00:59Z</time>
      </trkpt>
      <trkpt lat="45.60193" lon="4.55096">
        <ele>729.553</ele>
        <time>2013-05-26T12:01:03Z</time>
      </trkpt>
      <trkpt lat="45.60194" lon="4.55066">
        <ele>730.9496</ele>
        <time>2013-05-26T12:01:07Z</time>
      </trkpt>
      <trkpt lat="45.6019" lon="4.55039">
        <ele>731.9094</ele>
        <time>2013-05-26T12:01:12Z</time>
      </trkpt>
      <trkpt lat="45.60184" lon="4.55013">
        <ele>733.52295</ele>
        <time>2013-05-26T12:01:19Z</time>
      </trkpt>
      <trkpt lat="45.60178" lon="4.54989">
        <ele>734.58984</ele>
        <time>2013-05-26T12:01:26Z</time>
      </trkpt>
      <trkpt lat="45.60174" lon="4.54963">
        <ele>735.713</ele>
        <time>2013-05-26T12:01:33Z</time>
      </trkpt>
      <trkpt lat="45.60172" lon="4.54935">
        <ele>740.2838</ele>
        <time>2013-05-26T12:01:41Z</time>
      </trkpt>
      <trkpt lat="45.60168" lon="4.54908">
        <ele>743.6479</ele>
        <time>2013-05-26T12:01:50Z</time>
      </trkpt>
      <trkpt lat="45.60165" lon="4.54881">
        <ele>743.0981</ele>
        <time>2013-05-26T12:02:00Z</time>
      </trkpt>
      <trkpt lat="45.60162" lon="4.54853">
        <ele>744.27094</ele>
        <time>2013-05-26T12:02:09Z</time>
      </trkpt>
      <trkpt lat="45.60164" lon="4.54826">
        <ele>746.65424</ele>
        <time>2013-05-26T12:02:17Z</time>
      </trkpt>
      <trkpt lat="45.60164" lon="4.548">
        <ele>746.8495</ele>
        <time>2013-05-26T12:02:25Z</time>
      </trkpt>
      <trkpt lat="45.60165" lon="4.54771">
        <ele>746.5962</ele>
        <time>2013-05-26T12:02:34Z</time>
      </trkpt>
      <trkpt lat="45.60164" lon="4.54744">
        <ele>747.5173</ele>
        <time>2013-05-26T12:02:42Z</time>
      </trkpt>
      <trkpt lat="45.60164" lon="4.54716">
        <ele>749.7349</ele>
        <time>2013-05-26T12:02:50Z</time>
      </trkpt>
      <trkpt lat="45.6016" lon="4.54688">
        <ele>748.98016</ele>
        <time>2013-05-26T12:02:58Z</time>
      </trkpt>
      <trkpt lat="45.60156" lon="4.54662">
        <ele>749.9255</ele>
        <time>2013-05-26T12:03:05Z</time>
      </trkpt>
      <trkpt lat="45.60152" lon="4.54634">
        <ele>751.12103</ele>
        <time>2013-05-26T12:03:12Z</time>
      </trkpt>
      <trkpt lat="45.60147" lon="4.54608">
        <ele>752.6895</ele>
        <time>2013-05-26T12:03:19Z</time>
      </trkpt>
      <trkpt lat="45.60141" lon="4.54583">
        <ele>752.9124</ele>
        <time>2013-05-26T12:03:26Z</time>
      </trkpt>
      <trkpt lat="45.60134" lon="4.54559">
        <ele>752.82587</ele>
        <time>2013-05-26T12:03:33Z</time>
      </trkpt>
      <trkpt lat="45.60125" lon="4.54536">
        <ele>752.49066</ele>
        <time>2013-05-26T12:03:40Z</time>
      </trkpt>
      <trkpt lat="45.60117" lon="4.54513">
        <ele>752.322</ele>
        <time>2013-05-26T12:03:47Z</time>
      </trkpt>
      <trkpt lat="45.60113" lon="4.54487">
        <ele>753.4876</ele>
        <time>2013-05-26T12:03:54Z</time>
      </trkpt>
      <trkpt lat="45.60117" lon="4.54459">
        <ele>754.8196</ele>
        <time>2013-05-26T12:04:02Z</time>
      </trkpt>
      <trkpt lat="45.60122" lon="4.54432">
        <ele>755.88995</ele>
        <time>2013-05-26T12:04:10Z</time>
      </trkpt>
      <trkpt lat="45.60128" lon="4.54406">
        <ele>755.8338</ele>
        <time>2013-05-26T12:04:17Z</time>
      </trkpt>
      <trkpt lat="45.60133" lon="4.54381">
        <ele>757.3109</ele>
        <time>2013-05-26T12:04:24Z</time>
      </trkpt>
      <trkpt lat="45.6014" lon="4.54355">
        <ele>757.8755</ele>
        <time>2013-05-26T12:04:32Z</time>
      </trkpt>
      <trkpt lat="45.60144" lon="4.54328">
        <ele>760.2648</ele>
        <time>2013-05-26T12:04:40Z</time>
      </trkpt>
      <trkpt lat="45.60145" lon="4.543">
        <ele>760.91003</ele>
        <time>2013-05-26T12:04:49Z</time>
      </trkpt>
      <trkpt lat="45.60139" lon="4.54274">
        <ele>762.3369</ele>
        <time>2013-05-26T12:04:58Z</time>
      </trkpt>
      <trkpt lat="45.60129" lon="4.54251">
        <ele>766.2144</ele>
        <time>2013-05-26T12:05:07Z</time>
      </trkpt>
      <trkpt lat="45.60115" lon="4.54233">
        <ele>766.62756</ele>
        <time>2013-05-26T12:05:17Z</time>
      </trkpt>
      <trkpt lat="45.60101" lon="4.54213">
        <ele>768.45917</ele>
        <time>2013-05-26T12:05:27Z</time>
      </trkpt>
      <trkpt lat="45.60091" lon="4.54191">
        <ele>769.06476</ele>
        <time>2013-05-26T12:05:36Z</time>
      </trkpt>
      <trkpt lat="45.60087" lon="4.54165">
        <ele>769.2889</ele>
        <time>2013-05-26T12:05:46Z</time>
      </trkpt>
      <trkpt lat="45.60084" lon="4.54139">
        <ele>771.88556</ele>
        <time>2013-05-26T12:05:56Z</time>
      </trkpt>
      <trkpt lat="45.60082" lon="4.54112">
        <ele>772.61017</ele>
        <time>2013-05-26T12:06:05Z</time>
      </trkpt>
      <trkpt lat="45.60079" lon="4.54084">
        <ele>774.87726</ele>
        <time>2013-05-26T12:06:15Z</time>
      </trkpt>
      <trkpt lat="45.60077" lon="4.54057">
        <ele>779.2197</ele>
        <time>2013-05-26T12:06:25Z</time>
      </trkpt>
      <trkpt lat="45.60073" lon="4.54031">
        <ele>778.6271</ele>
        <time>2013-05-26T12:06:35Z</time>
      </trkpt>
      <trkpt lat="45.60067" lon="4.54004">
        <ele>779.67523</ele>
        <time>2013-05-26T12:06:45Z</time>
      </trkpt>
      <trkpt lat="45.60062" lon="4.53978">
        <ele>779.47595</ele>
        <time>2013-05-26T12:06:55Z</time>
      </trkpt>
      <trkpt lat="45.60057" lon="4.53951">
        <ele>780.7323</ele>
        <time>2013-05-26T12:07:05Z</time>
      </trkpt>
      <trkpt lat="45.60053" lon="4.53924">
        <ele>782.79364</ele>
        <time>2013-05-26T12:07:15Z</time>
      </trkpt>
      <trkpt lat="45.60047" lon="4.53899">
        <ele>784.6449</ele>
        <time>2013-05-26T12:07:24Z</time>
      </trkpt>
      <trkpt lat="45.60043" lon="4.53873">
        <ele>784.70386</ele>
        <time>2013-05-26T12:07:34Z</time>
      </trkpt>
      <trkpt lat="45.60038" lon="4.53849">
        <ele>784.73474</ele>
        <time>2013-05-26T12:07:43Z</time>
      </trkpt>
      <trkpt lat="45.60034" lon="4.53823">
        <ele>784.3506</ele>
        <time>2013-05-26T12:07:52Z</time>
      </trkpt>
      <trkpt lat="45.6003" lon="4.53797">
        <ele>786.30005</ele>
        <time>2013-05-26T12:08:01Z</time>
      </trkpt>
      <trkpt lat="45.60029" lon="4.53769">
        <ele>785.83655</ele>
        <time>2013-05-26T12:08:11Z</time>
      </trkpt>
      <trkpt lat="45.60032" lon="4.53743">
        <ele>787.2379</ele>
        <time>2013-05-26T12:08:20Z</time>
      </trkpt>
      <trkpt lat="45.60034" lon="4.53717">
        <ele>789.44885</ele>
        <time>2013-05-26T12:08:29Z</time>
      </trkpt>
      <trkpt lat="45.60036" lon="4.53691">
        <ele>791.3037</ele>
        <time>2013-05-26T12:08:38Z</time>
      </trkpt>
      <trkpt lat="45.60036" lon="4.53665">
        <ele>795.7135</ele>
        <time>2013-05-26T12:08:46Z</time>
      </trkpt>
      <trkpt lat="45.60039" lon="4.53638">
        <ele>795.544</ele>
        <time>2013-05-26T12:08:55Z</time>
      </trkpt>
      <trkpt lat="45.60049" lon="4.53617">
        <ele>795.5466</ele>
        <time>2013-05-26T12:09:05Z</time>
      </trkpt>
      <trkpt lat="45.60062" lon="4.53637">
        <ele>797.07086</ele>
        <time>2013-05-26T12:09:15Z</time>
      </trkpt>
      <trkpt lat="45.60068" lon="4.53664">
        <ele>799.4988</ele>
        <time>2013-05-26T12:09:24Z</time>
      </trkpt>
      <trkpt lat="45.60071" lon="4.53689">
        <ele>800.7549</ele>
        <time>2013-05-26T12:09:32Z</time>
      </trkpt>
      <trkpt lat="45.60074" lon="4.53715">
        <ele>802.076</ele>
        <time>2013-05-26T12:09:40Z</time>
      </trkpt>
      <trkpt lat="45.60078" lon="4.53744">
        <ele>803.77277</ele>
        <time>2013-05-26T12:09:49Z</time>
      </trkpt>
      <trkpt lat="45.60079" lon="4.53771">
        <ele>805.2772</ele>
        <time>2013-05-26T12:09:57Z</time>
      </trkpt>
      <trkpt lat="45.60081" lon="4.53799">
        <ele>806.3807</ele>
        <time>2013-05-26T12:10:05Z</time>
      </trkpt>
      <trkpt lat="45.60088" lon="4.53823">
        <ele>806.56305</ele>
        <time>2013-05-26T12:10:13Z</time>
      </trkpt>
      <trkpt lat="45.60106" lon="4.53814">
        <ele>807.32025</ele>
        <time>2013-05-26T12:10:23Z</time>
      </trkpt>
      <trkpt lat="45.60108" lon="4.53786">
        <ele>808.1778</ele>
        <time>2013-05-26T12:10:31Z</time>
      </trkpt>
      <trkpt lat="45.60109" lon="4.5376">
        <ele>808.6801</ele>
        <time>2013-05-26T12:10:39Z</time>
      </trkpt>
      <trkpt lat="45.60111" lon="4.53732">
        <ele>809.6735</ele>
        <time>2013-05-26T12:10:48Z</time>
      </trkpt>
      <trkpt lat="45.60114" lon="4.53704">
        <ele>810.7739</ele>
        <time>2013-05-26T12:10:57Z</time>
      </trkpt>
      <trkpt lat="45.60118" lon="4.53677">
        <ele>810.9517</ele>
        <time>2013-05-26T12:11:06Z</time>
      </trkpt>
      <trkpt lat="45.60123" lon="4.53652">
        <ele>812.18335</ele>
        <time>2013-05-26T12:11:14Z</time>
      </trkpt>
      <trkpt lat="45.60131" lon="4.53626">
        <ele>812.29407</ele>
        <time>2013-05-26T12:11:24Z</time>
      </trkpt>
      <trkpt lat="45.60141" lon="4.53605">
        <ele>813.1065</ele>
        <time>2013-05-26T12:11:33Z</time>
      </trkpt>
      <trkpt lat="45.6015" lon="4.53581">
        <ele>812.3743</ele>
        <time>2013-05-26T12:11:43Z</time>
      </trkpt>
      <trkpt lat="45.60159" lon="4.53557">
        <ele>818.15546</ele>
        <time>2013-05-26T12:11:53Z</time>
      </trkpt>
      <trkpt lat="45.60167" lon="4.53533">
        <ele>820.7498</ele>
        <time>2013-05-26T12:12:03Z</time>
      </trkpt>
      <trkpt lat="45.60178" lon="4.53511">
        <ele>821.4737</ele>
        <time>2013-05-26T12:12:13Z</time>
      </trkpt>
      <trkpt lat="45.60185" lon="4.53487">
        <ele>817.3865</ele>
        <time>2013-05-26T12:12:24Z</time>
      </trkpt>
      <trkpt lat="45.60195" lon="4.53463">
        <ele>819.7782</ele>
        <time>2013-05-26T12:12:34Z</time>
      </trkpt>
      <trkpt lat="45.60204" lon="4.53441">
        <ele>825.12823</ele>
        <time>2013-05-26T12:12:44Z</time>
      </trkpt>
      <trkpt lat="45.60216" lon="4.5342">
        <ele>820.8127</ele>
        <time>2013-05-26T12:12:55Z</time>
      </trkpt>
      <trkpt lat="45.60228" lon="4.53401">
        <ele>824.1538</ele>
        <time>2013-05-26T12:13:05Z</time>
      </trkpt>
      <trkpt lat="45.6024" lon="4.53382">
        <ele>823.56464</ele>
        <time>2013-05-26T12:13:17Z</time>
      </trkpt>
      <trkpt lat="45.60255" lon="4.53364">
        <ele>826.2167</ele>
        <time>2013-05-26T12:13:28Z</time>
      </trkpt>
      <trkpt lat="45.60271" lon="4.53349">
        <ele>827.6099</ele>
        <time>2013-05-26T12:13:39Z</time>
      </trkpt>
      <trkpt lat="45.60284" lon="4.53329">
        <ele>830.2804</ele>
        <time>2013-05-26T12:13:49Z</time>
      </trkpt>
      <trkpt lat="45.60287" lon="4.53303">
        <ele>832.2944</ele>
        <time>2013-05-26T12:13:58Z</time>
      </trkpt>
      <trkpt lat="45.60285" lon="4.53276">
        <ele>834.6487</ele>
        <time>2013-05-26T12:14:07Z</time>
      </trkpt>
      <trkpt lat="45.60287" lon="4.53248">
        <ele>834.47675</ele>
        <time>2013-05-26T12:14:16Z</time>
      </trkpt>
      <trkpt lat="45.6029" lon="4.53223">
        <ele>835.64435</ele>
        <time>2013-05-26T12:14:24Z</time>
      </trkpt>
      <trkpt lat="45.60296" lon="4.53196">
        <ele>836.26184</ele>
        <time>2013-05-26T12:14:32Z</time>
      </trkpt>
      <trkpt lat="45.60301" lon="4.5317">
        <ele>834.69415</ele>
        <time>2013-05-26T12:14:40Z</time>
      </trkpt>
      <trkpt lat="45.60309" lon="4.53148">
        <ele>835.0571</ele>
        <time>2013-05-26T12:14:48Z</time>
      </trkpt>
      <trkpt lat="45.60319" lon="4.53124">
        <ele>837.2773</ele>
        <time>2013-05-26T12:14:57Z</time>
      </trkpt>
      <trkpt lat="45.60331" lon="4.53102">
        <ele>838.68536</ele>
        <time>2013-05-26T12:15:06Z</time>
      </trkpt>
      <trkpt lat="45.60342" lon="4.5308">
        <ele>839.65625</ele>
        <time>2013-05-26T12:15:16Z</time>
      </trkpt>
      <trkpt lat="45.60355" lon="4.53062">
        <ele>841.4737</ele>
        <time>2013-05-26T12:15:25Z</time>
      </trkpt>
      <trkpt lat="45.60368" lon="4.53043">
        <ele>840.822</ele>
        <time>2013-05-26T12:15:35Z</time>
      </trkpt>
      <trkpt lat="45.60383" lon="4.53025">
        <ele>841.5694</ele>
        <time>2013-05-26T12:15:46Z</time>
      </trkpt>
      <trkpt lat="45.60397" lon="4.53008">
        <ele>846.0377</ele>
        <time>2013-05-26T12:15:56Z</time>
      </trkpt>
      <trkpt lat="45.60413" lon="4.52992">
        <ele>848.65295</ele>
        <time>2013-05-26T12:16:06Z</time>
      </trkpt>
      <trkpt lat="45.60428" lon="4.52974">
        <ele>851.5458</ele>
        <time>2013-05-26T12:16:16Z</time>
      </trkpt>
      <trkpt lat="45.60442" lon="4.52957">
        <ele>851.6117</ele>
        <time>2013-05-26T12:16:25Z</time>
      </trkpt>
      <trkpt lat="45.60452" lon="4.52935">
        <ele>850.5914</ele>
        <time>2013-05-26T12:16:35Z</time>
      </trkpt>
      <trkpt lat="45.60456" lon="4.52908">
        <ele>851.5347</ele>
        <time>2013-05-26T12:16:45Z</time>
      </trkpt>
      <trkpt lat="45.60456" lon="4.52882">
        <ele>854.26807</ele>
        <time>2013-05-26T12:16:54Z</time>
      </trkpt>
      <trkpt lat="45.60454" lon="4.52856">
        <ele>857.7029</ele>
        <time>2013-05-26T12:17:04Z</time>
      </trkpt>
      <trkpt lat="45.60458" lon="4.5283">
        <ele>861.5477</ele>
        <time>2013-05-26T12:17:15Z</time>
      </trkpt>
      <trkpt lat="45.60461" lon="4.52804">
        <ele>862.3466</ele>
        <time>2013-05-26T12:17:26Z</time>
      </trkpt>
      <trkpt lat="45.60464" lon="4.52777">
        <ele>864.1247</ele>
        <time>2013-05-26T12:17:37Z</time>
      </trkpt>
      <trkpt lat="45.60463" lon="4.52749">
        <ele>866.2439</ele>
        <time>2013-05-26T12:17:46Z</time>
      </trkpt>
      <trkpt lat="45.60455" lon="4.52721">
        <ele>866.1115</ele>
        <time>2013-05-26T12:17:53Z</time>
      </trkpt>
      <trkpt lat="45.60448" lon="4.52697">
        <ele>866.9505</ele>
        <time>2013-05-26T12:17:58Z</time>
      </trkpt>
      <trkpt lat="45.60442" lon="4.52672">
        <ele>867.04645</ele>
        <time>2013-05-26T12:18:03Z</time>
      </trkpt>
      <trkpt lat="45.60435" lon="4.52647">
        <ele>866.50476</ele>
        <time>2013-05-26T12:18:08Z</time>
      </trkpt>
      <trkpt lat="45.60429" lon="4.52621">
        <ele>865.8122</ele>
        <time>2013-05-26T12:18:13Z</time>
      </trkpt>
      <trkpt lat="45.60423" lon="4.52593">
        <ele>866.04816</ele>
        <time>2013-05-26T12:18:19Z</time>
      </trkpt>
      <trkpt lat="45.60417" lon="4.52566">
        <ele>866.0094</ele>
        <time>2013-05-26T12:18:25Z</time>
      </trkpt>
      <trkpt lat="45.60412" lon="4.52537">
        <ele>866.02356</ele>
        <time>2013-05-26T12:18:31Z</time>
      </trkpt>
      <trkpt lat="45.60408" lon="4.52508">
        <ele>867.1812</ele>
        <time>2013-05-26T12:18:37Z</time>
      </trkpt>
      <trkpt lat="45.60406" lon="4.5248">
        <ele>868.46436</ele>
        <time>2013-05-26T12:18:43Z</time>
      </trkpt>
      <trkpt lat="45.60403" lon="4.5245">
        <ele>868.4568</ele>
        <time>2013-05-26T12:18:49Z</time>
      </trkpt>
      <trkpt lat="45.60401" lon="4.52423">
        <ele>866.8817</ele>
        <time>2013-05-26T12:18:55Z</time>
      </trkpt>
      <trkpt lat="45.60393" lon="4.52395">
        <ele>866.1371</ele>
        <time>2013-05-26T12:19:01Z</time>
      </trkpt>
      <trkpt lat="45.60388" lon="4.52369">
        <ele>866.50244</ele>
        <time>2013-05-26T12:19:07Z</time>
      </trkpt>
      <trkpt lat="45.6038" lon="4.52342">
        <ele>871.68005</ele>
        <time>2013-05-26T12:19:13Z</time>
      </trkpt>
      <trkpt lat="45.60373" lon="4.52314">
        <ele>875.7877</ele>
        <time>2013-05-26T12:19:19Z</time>
      </trkpt>
      <trkpt lat="45.60363" lon="4.52289">
        <ele>877.605</ele>
        <time>2013-05-26T12:19:25Z</time>
      </trkpt>
      <trkpt lat="45.60347" lon="4.52271">
        <ele>874.42413</ele>
        <time>2013-05-26T12:19:30Z</time>
      </trkpt>
      <trkpt lat="45.60336" lon="4.52247">
        <ele>871.63745</ele>
        <time>2013-05-26T12:19:36Z</time>
      </trkpt>
      <trkpt lat="45.6032" lon="4.52235">
        <ele>874.3002</ele>
        <time>2013-05-26T12:19:46Z</time>
      </trkpt>
      <trkpt lat="45.603" lon="4.52242">
        <ele>872.4849</ele>
        <time>2013-05-26T12:19:55Z</time>
      </trkpt>
      <trkpt lat="45.60284" lon="4.52226">
        <ele>870.8978</ele>
        <time>2013-05-26T12:20:03Z</time>
      </trkpt>
      <trkpt lat="45.60272" lon="4.52205">
        <ele>872.25714</ele>
        <time>2013-05-26T12:20:12Z</time>
      </trkpt>
      <trkpt lat="45.60261" lon="4.52184">
        <ele>879.0248</ele>
        <time>2013-05-26T12:20:21Z</time>
      </trkpt>
      <trkpt lat="45.60253" lon="4.52159">
        <ele>880.42255</ele>
        <time>2013-05-26T12:20:31Z</time>
      </trkpt>
      <trkpt lat="45.60238" lon="4.52141">
        <ele>880.8988</ele>
        <time>2013-05-26T12:20:41Z</time>
      </trkpt>
      <trkpt lat="45.60223" lon="4.52124">
        <ele>881.6723</ele>
        <time>2013-05-26T12:20:51Z</time>
      </trkpt>
      <trkpt lat="45.60207" lon="4.52109">
        <ele>882.4483</ele>
        <time>2013-05-26T12:21:00Z</time>
      </trkpt>
      <trkpt lat="45.60189" lon="4.52101">
        <ele>885.1977</ele>
        <time>2013-05-26T12:21:08Z</time>
      </trkpt>
      <trkpt lat="45.60169" lon="4.52097">
        <ele>884.53845</ele>
        <time>2013-05-26T12:21:17Z</time>
      </trkpt>
      <trkpt lat="45.6015" lon="4.52094">
        <ele>884.3128</ele>
        <time>2013-05-26T12:21:25Z</time>
      </trkpt>
      <trkpt lat="45.60132" lon="4.5209">
        <ele>886.61694</ele>
        <time>2013-05-26T12:21:32Z</time>
      </trkpt>
      <trkpt lat="45.60113" lon="4.52087">
        <ele>886.78156</ele>
        <time>2013-05-26T12:21:39Z</time>
      </trkpt>
      <trkpt lat="45.60095" lon="4.52081">
        <ele>887.8034</ele>
        <time>2013-05-26T12:21:47Z</time>
      </trkpt>
      <trkpt lat="45.60077" lon="4.5207">
        <ele>890.8382</ele>
        <time>2013-05-26T12:21:56Z</time>
      </trkpt>
      <trkpt lat="45.60062" lon="4.52056">
        <ele>892.102</ele>
        <time>2013-05-26T12:22:04Z</time>
      </trkpt>
      <trkpt lat="45.60047" lon="4.5204">
        <ele>890.85626</ele>
        <time>2013-05-26T12:22:12Z</time>
      </trkpt>
      <trkpt lat="45.60031" lon="4.52026">
        <ele>891.8584</ele>
        <time>2013-05-26T12:22:20Z</time>
      </trkpt>
      <trkpt lat="45.60016" lon="4.5201">
        <ele>894.61554</ele>
        <time>2013-05-26T12:22:28Z</time>
      </trkpt>
      <trkpt lat="45.6" lon="4.51993">
        <ele>893.6942</ele>
        <time>2013-05-26T12:22:36Z</time>
      </trkpt>
      <trkpt lat="45.59985" lon="4.51979">
        <ele>894.4022</ele>
        <time>2013-05-26T12:22:44Z</time>
      </trkpt>
      <trkpt lat="45.59967" lon="4.51965">
        <ele>891.14294</ele>
        <time>2013-05-26T12:22:52Z</time>
      </trkpt>
      <trkpt lat="45.59948" lon="4.51956">
        <ele>893.8004</ele>
        <time>2013-05-26T12:23:01Z</time>
      </trkpt>
      <trkpt lat="45.5993" lon="4.51948">
        <ele>895.62836</ele>
        <time>2013-05-26T12:23:10Z</time>
      </trkpt>
      <trkpt lat="45.59911" lon="4.5194">
        <ele>897.01373</ele>
        <time>2013-05-26T12:23:19Z</time>
      </trkpt>
      <trkpt lat="45.59892" lon="4.51932">
        <ele>898.0097</ele>
        <time>2013-05-26T12:23:28Z</time>
      </trkpt>
      <trkpt lat="45.59874" lon="4.51922">
        <ele>897.859</ele>
        <time>2013-05-26T12:23:37Z</time>
      </trkpt>
      <trkpt lat="45.59858" lon="4.51909">
        <ele>898.4562</ele>
        <time>2013-05-26T12:23:45Z</time>
      </trkpt>
      <trkpt lat="45.59843" lon="4.51892">
        <ele>901.1793</ele>
        <time>2013-05-26T12:23:54Z</time>
      </trkpt>
      <trkpt lat="45.59827" lon="4.51876">
        <ele>900.63617</ele>
        <time>2013-05-26T12:24:03Z</time>
      </trkpt>
      <trkpt lat="45.59811" lon="4.51859">
        <ele>901.19617</ele>
        <time>2013-05-26T12:24:12Z</time>
      </trkpt>
      <trkpt lat="45.59794" lon="4.51844">
        <ele>904.37134</ele>
        <time>2013-05-26T12:24:21Z</time>
      </trkpt>
      <trkpt lat="45.59779" lon="4.5183">
        <ele>907.1709</ele>
        <time>2013-05-26T12:24:29Z</time>
      </trkpt>
      <trkpt lat="45.59761" lon="4.51817">
        <ele>909.0753</ele>
        <time>2013-05-26T12:24:38Z</time>
      </trkpt>
      <trkpt lat="45.59742" lon="4.51808">
        <ele>913.4145</ele>
        <time>2013-05-26T12:24:47Z</time>
      </trkpt>
      <trkpt lat="45.59721" lon="4.51801">
        <ele>915.12286</ele>
        <time>2013-05-26T12:24:55Z</time>
      </trkpt>
      <trkpt lat="45.59702" lon="4.51796">
        <ele>913.45337</ele>
        <time>2013-05-26T12:25:03Z</time>
      </trkpt>
      <trkpt lat="45.59683" lon="4.51795">
        <ele>913.4334</ele>
        <time>2013-05-26T12:25:11Z</time>
      </trkpt>
      <trkpt lat="45.59665" lon="4.518">
        <ele>915.0536</ele>
        <time>2013-05-26T12:25:19Z</time>
      </trkpt>
      <trkpt lat="45.59647" lon="4.51808">
        <ele>916.77</ele>
        <time>2013-05-26T12:25:28Z</time>
      </trkpt>
      <trkpt lat="45.59628" lon="4.51817">
        <ele>917.35065</ele>
        <time>2013-05-26T12:25:36Z</time>
      </trkpt>
      <trkpt lat="45.59609" lon="4.51825">
        <ele>917.1375</ele>
        <time>2013-05-26T12:25:44Z</time>
      </trkpt>
      <trkpt lat="45.59589" lon="4.51832">
        <ele>914.98663</ele>
        <time>2013-05-26T12:25:52Z</time>
      </trkpt>
      <trkpt lat="45.59572" lon="4.51838">
        <ele>918.8625</ele>
        <time>2013-05-26T12:26:00Z</time>
      </trkpt>
      <trkpt lat="45.59553" lon="4.51841">
        <ele>918.8293</ele>
        <time>2013-05-26T12:26:08Z</time>
      </trkpt>
      <trkpt lat="45.59535" lon="4.51844">
        <ele>919.51263</ele>
        <time>2013-05-26T12:26:16Z</time>
      </trkpt>
      <trkpt lat="45.59516" lon="4.51849">
        <ele>921.6611</ele>
        <time>2013-05-26T12:26:24Z</time>
      </trkpt>
      <trkpt lat="45.59496" lon="4.51854">
        <ele>924.1279</ele>
        <time>2013-05-26T12:26:32Z</time>
      </trkpt>
      <trkpt lat="45.59477" lon="4.51863">
        <ele>924.69885</ele>
        <time>2013-05-26T12:26:40Z</time>
      </trkpt>
      <trkpt lat="45.59459" lon="4.51873">
        <ele>927.43396</ele>
        <time>2013-05-26T12:26:48Z</time>
      </trkpt>
      <trkpt lat="45.59441" lon="4.51882">
        <ele>929.2822</ele>
        <time>2013-05-26T12:26:55Z</time>
      </trkpt>
      <trkpt lat="45.59423" lon="4.51894">
        <ele>929.00256</ele>
        <time>2013-05-26T12:27:02Z</time>
      </trkpt>
      <trkpt lat="45.59406" lon="4.51905">
        <ele>928.90784</ele>
        <time>2013-05-26T12:27:09Z</time>
      </trkpt>
      <trkpt lat="45.59388" lon="4.51902">
        <ele>927.80524</ele>
        <time>2013-05-26T12:28:46Z</time>
      </trkpt>
      <trkpt lat="45.59368" lon="4.51905">
        <ele>928.8423</ele>
        <time>2013-05-26T12:28:52Z</time>
      </trkpt>
      <trkpt lat="45.59347" lon="4.51906">
        <ele>929.1497</ele>
        <time>2013-05-26T12:28:58Z</time>
      </trkpt>
      <trkpt lat="45.59326" lon="4.51901">
        <ele>930.1335</ele>
        <time>2013-05-26T12:29:03Z</time>
      </trkpt>
      <trkpt lat="45.59308" lon="4.51896">
        <ele>929.4153</ele>
        <time>2013-05-26T12:29:07Z</time>
      </trkpt>
      <trkpt lat="45.59289" lon="4.51889">
        <ele>928.1318</ele>
        <time>2013-05-26T12:29:11Z</time>
      </trkpt>
      <trkpt lat="45.5927" lon="4.51877">
        <ele>926.9464</ele>
        <time>2013-05-26T12:29:15Z</time>
      </trkpt>
      <trkpt lat="45.59251" lon="4.51862">
        <ele>926.1494</ele>
        <time>2013-05-26T12:29:19Z</time>
      </trkpt>
      <trkpt lat="45.59236" lon="4.51844">
        <ele>925.7571</ele>
        <time>2013-05-26T12:29:23Z</time>
      </trkpt>
      <trkpt lat="45.59221" lon="4.5182">
        <ele>924.92096</ele>
        <time>2013-05-26T12:29:28Z</time>
      </trkpt>
      <trkpt lat="45.59208" lon="4.51797">
        <ele>923.1542</ele>
        <time>2013-05-26T12:29:33Z</time>
      </trkpt>
      <trkpt lat="45.59193" lon="4.51778">
        <ele>921.42926</ele>
        <time>2013-05-26T12:29:37Z</time>
      </trkpt>
      <trkpt lat="45.5918" lon="4.51757">
        <ele>920.79285</ele>
        <time>2013-05-26T12:29:41Z</time>
      </trkpt>
      <trkpt lat="45.59168" lon="4.51738">
        <ele>920.9614</ele>
        <time>2013-05-26T12:29:45Z</time>
      </trkpt>
      <trkpt lat="45.59154" lon="4.51716">
        <ele>921.6382</ele>
        <time>2013-05-26T12:29:50Z</time>
      </trkpt>
      <trkpt lat="45.5914" lon="4.51696">
        <ele>922.0129</ele>
        <time>2013-05-26T12:29:55Z</time>
      </trkpt>
      <trkpt lat="45.59129" lon="4.51675">
        <ele>923.7637</ele>
        <time>2013-05-26T12:30:00Z</time>
      </trkpt>
      <trkpt lat="45.59116" lon="4.51654">
        <ele>927.2207</ele>
        <time>2013-05-26T12:30:06Z</time>
      </trkpt>
      <trkpt lat="45.59104" lon="4.5163">
        <ele>927.9292</ele>
        <time>2013-05-26T12:30:11Z</time>
      </trkpt>
      <trkpt lat="45.59091" lon="4.5161">
        <ele>928.9723</ele>
        <time>2013-05-26T12:30:16Z</time>
      </trkpt>
      <trkpt lat="45.59078" lon="4.51592">
        <ele>927.6319</ele>
        <time>2013-05-26T12:30:21Z</time>
      </trkpt>
      <trkpt lat="45.59063" lon="4.51575">
        <ele>928.3168</ele>
        <time>2013-05-26T12:30:26Z</time>
      </trkpt>
      <trkpt lat="45.5905" lon="4.51556">
        <ele>928.1265</ele>
        <time>2013-05-26T12:30:31Z</time>
      </trkpt>
      <trkpt lat="45.59038" lon="4.51536">
        <ele>927.4685</ele>
        <time>2013-05-26T12:30:36Z</time>
      </trkpt>
      <trkpt lat="45.59026" lon="4.51517">
        <ele>928.07025</ele>
        <time>2013-05-26T12:30:41Z</time>
      </trkpt>
      <trkpt lat="45.59014" lon="4.51493">
        <ele>929.8052</ele>
        <time>2013-05-26T12:30:47Z</time>
      </trkpt>
      <trkpt lat="45.59005" lon="4.51469">
        <ele>929.45276</ele>
        <time>2013-05-26T12:30:52Z</time>
      </trkpt>
      <trkpt lat="45.59" lon="4.51442">
        <ele>929.2716</ele>
        <time>2013-05-26T12:30:57Z</time>
      </trkpt>
      <trkpt lat="45.58999" lon="4.51413">
        <ele>929.1106</ele>
        <time>2013-05-26T12:31:03Z</time>
      </trkpt>
      <trkpt lat="45.59001" lon="4.51386">
        <ele>929.62445</ele>
        <time>2013-05-26T12:31:09Z</time>
      </trkpt>
      <trkpt lat="45.59004" lon="4.51358">
        <ele>930.4984</ele>
        <time>2013-05-26T12:31:16Z</time>
      </trkpt>
      <trkpt lat="45.59007" lon="4.51332">
        <ele>931.3114</ele>
        <time>2013-05-26T12:31:22Z</time>
      </trkpt>
      <trkpt lat="45.5901" lon="4.51306">
        <ele>931.0617</ele>
        <time>2013-05-26T12:31:28Z</time>
      </trkpt>
      <trkpt lat="45.59012" lon="4.5128">
        <ele>929.8385</ele>
        <time>2013-05-26T12:31:34Z</time>
      </trkpt>
      <trkpt lat="45.59015" lon="4.51253">
        <ele>929.54517</ele>
        <time>2013-05-26T12:31:40Z</time>
      </trkpt>
      <trkpt lat="45.59016" lon="4.51225">
        <ele>929.49634</ele>
        <time>2013-05-26T12:31:46Z</time>
      </trkpt>
      <trkpt lat="45.59015" lon="4.51198">
        <ele>929.5219</ele>
        <time>2013-05-26T12:31:52Z</time>
      </trkpt>
      <trkpt lat="45.59012" lon="4.51171">
        <ele>930.7599</ele>
        <time>2013-05-26T12:31:58Z</time>
      </trkpt>
      <trkpt lat="45.59002" lon="4.51148">
        <ele>931.8303</ele>
        <time>2013-05-26T12:32:04Z</time>
      </trkpt>
      <trkpt lat="45.58987" lon="4.5113">
        <ele>933.0736</ele>
        <time>2013-05-26T12:32:10Z</time>
      </trkpt>
      <trkpt lat="45.5897" lon="4.51115">
        <ele>934.60223</ele>
        <time>2013-05-26T12:32:16Z</time>
      </trkpt>
      <trkpt lat="45.58954" lon="4.51101">
        <ele>936.5132</ele>
        <time>2013-05-26T12:32:22Z</time>
      </trkpt>
      <trkpt lat="45.58938" lon="4.51084">
        <ele>937.3112</ele>
        <time>2013-05-26T12:32:29Z</time>
      </trkpt>
      <trkpt lat="45.58923" lon="4.51066">
        <ele>937.7354</ele>
        <time>2013-05-26T12:32:35Z</time>
      </trkpt>
      <trkpt lat="45.5891" lon="4.51047">
        <ele>939.59656</ele>
        <time>2013-05-26T12:32:41Z</time>
      </trkpt>
      <trkpt lat="45.58897" lon="4.51027">
        <ele>941.67584</ele>
        <time>2013-05-26T12:32:47Z</time>
      </trkpt>
      <trkpt lat="45.58884" lon="4.51006">
        <ele>942.9329</ele>
        <time>2013-05-26T12:32:53Z</time>
      </trkpt>
      <trkpt lat="45.5887" lon="4.50986">
        <ele>943.20087</ele>
        <time>2013-05-26T12:32:59Z</time>
      </trkpt>
      <trkpt lat="45.58856" lon="4.50967">
        <ele>942.3328</ele>
        <time>2013-05-26T12:33:05Z</time>
      </trkpt>
      <trkpt lat="45.58842" lon="4.50945">
        <ele>940.55383</ele>
        <time>2013-05-26T12:33:11Z</time>
      </trkpt>
      <trkpt lat="45.58827" lon="4.50925">
        <ele>939.4996</ele>
        <time>2013-05-26T12:33:17Z</time>
      </trkpt>
      <trkpt lat="45.58811" lon="4.50907">
        <ele>939.4982</ele>
        <time>2013-05-26T12:33:23Z</time>
      </trkpt>
      <trkpt lat="45.58795" lon="4.50891">
        <ele>940.62897</ele>
        <time>2013-05-26T12:33:28Z</time>
      </trkpt>
      <trkpt lat="45.5878" lon="4.50874">
        <ele>941.4277</ele>
        <time>2013-05-26T12:33:33Z</time>
      </trkpt>
      <trkpt lat="45.58765" lon="4.50858">
        <ele>942.41064</ele>
        <time>2013-05-26T12:33:38Z</time>
      </trkpt>
      <trkpt lat="45.58743" lon="4.50848">
        <ele>942.4696</ele>
        <time>2013-05-26T12:33:43Z</time>
      </trkpt>
      <trkpt lat="45.58723" lon="4.50856">
        <ele>942.1459</ele>
        <time>2013-05-26T12:33:47Z</time>
      </trkpt>
      <trkpt lat="45.58707" lon="4.50878">
        <ele>941.2294</ele>
        <time>2013-05-26T12:33:51Z</time>
      </trkpt>
      <trkpt lat="45.58692" lon="4.509">
        <ele>939.4886</ele>
        <time>2013-05-26T12:33:55Z</time>
      </trkpt>
      <trkpt lat="45.5868" lon="4.50921">
        <ele>939.09875</ele>
        <time>2013-05-26T12:33:59Z</time>
      </trkpt>
      <trkpt lat="45.58667" lon="4.50942">
        <ele>939.4566</ele>
        <time>2013-05-26T12:34:03Z</time>
      </trkpt>
      <trkpt lat="45.58652" lon="4.50963">
        <ele>939.55414</ele>
        <time>2013-05-26T12:34:08Z</time>
      </trkpt>
      <trkpt lat="45.58637" lon="4.50983">
        <ele>939.40076</ele>
        <time>2013-05-26T12:34:13Z</time>
      </trkpt>
      <trkpt lat="45.58619" lon="4.51">
        <ele>939.74335</ele>
        <time>2013-05-26T12:34:18Z</time>
      </trkpt>
      <trkpt lat="45.58599" lon="4.51015">
        <ele>940.2529</ele>
        <time>2013-05-26T12:34:23Z</time>
      </trkpt>
      <trkpt lat="45.58581" lon="4.51021">
        <ele>941.6672</ele>
        <time>2013-05-26T12:34:27Z</time>
      </trkpt>
      <trkpt lat="45.58559" lon="4.51027">
        <ele>941.9033</ele>
        <time>2013-05-26T12:34:32Z</time>
      </trkpt>
      <trkpt lat="45.58538" lon="4.51026">
        <ele>942.9953</ele>
        <time>2013-05-26T12:34:37Z</time>
      </trkpt>
      <trkpt lat="45.58519" lon="4.5102">
        <ele>943.32275</ele>
        <time>2013-05-26T12:34:41Z</time>
      </trkpt>
      <trkpt lat="45.58501" lon="4.51009">
        <ele>941.7326</ele>
        <time>2013-05-26T12:34:45Z</time>
      </trkpt>
      <trkpt lat="45.58483" lon="4.51001">
        <ele>939.73376</ele>
        <time>2013-05-26T12:34:49Z</time>
      </trkpt>
      <trkpt lat="45.58466" lon="4.50993">
        <ele>939.122</ele>
        <time>2013-05-26T12:34:53Z</time>
      </trkpt>
      <trkpt lat="45.58445" lon="4.50982">
        <ele>940.7719</ele>
        <time>2013-05-26T12:34:58Z</time>
      </trkpt>
      <trkpt lat="45.58424" lon="4.50974">
        <ele>940.38477</ele>
        <time>2013-05-26T12:35:03Z</time>
      </trkpt>
      <trkpt lat="45.58403" lon="4.50964">
        <ele>940.33563</ele>
        <time>2013-05-26T12:35:08Z</time>
      </trkpt>
      <trkpt lat="45.58381" lon="4.50951">
        <ele>940.6338</ele>
        <time>2013-05-26T12:35:12Z</time>
      </trkpt>
      <trkpt lat="45.58362" lon="4.50935">
        <ele>940.2123</ele>
        <time>2013-05-26T12:35:16Z</time>
      </trkpt>
      <trkpt lat="45.58345" lon="4.50922">
        <ele>939.78796</ele>
        <time>2013-05-26T12:35:19Z</time>
      </trkpt>
      <trkpt lat="45.58325" lon="4.50904">
        <ele>939.4083</ele>
        <time>2013-05-26T12:35:23Z</time>
      </trkpt>
      <trkpt lat="45.58308" lon="4.50891">
        <ele>938.9722</ele>
        <time>2013-05-26T12:35:26Z</time>
      </trkpt>
      <trkpt lat="45.58292" lon="4.50876">
        <ele>938.72894</ele>
        <time>2013-05-26T12:35:29Z</time>
      </trkpt>
      <trkpt lat="45.58277" lon="4.5086">
        <ele>938.80597</ele>
        <time>2013-05-26T12:35:32Z</time>
      </trkpt>
      <trkpt lat="45.58262" lon="4.50842">
        <ele>938.6447</ele>
        <time>2013-05-26T12:35:35Z</time>
      </trkpt>
      <trkpt lat="45.58246" lon="4.50825">
        <ele>938.07513</ele>
        <time>2013-05-26T12:35:38Z</time>
      </trkpt>
      <trkpt lat="45.5823" lon="4.50807">
        <ele>937.65356</ele>
        <time>2013-05-26T12:35:41Z</time>
      </trkpt>
      <trkpt lat="45.58215" lon="4.50787">
        <ele>936.9148</ele>
        <time>2013-05-26T12:35:44Z</time>
      </trkpt>
      <trkpt lat="45.582" lon="4.5077">
        <ele>936.1141</ele>
        <time>2013-05-26T12:35:47Z</time>
      </trkpt>
      <trkpt lat="45.58183" lon="4.50753">
        <ele>935.2856</ele>
        <time>2013-05-26T12:35:50Z</time>
      </trkpt>
      <trkpt lat="45.58165" lon="4.50737">
        <ele>934.21735</ele>
        <time>2013-05-26T12:35:53Z</time>
      </trkpt>
      <trkpt lat="45.58145" lon="4.50722">
        <ele>933.21045</ele>
        <time>2013-05-26T12:35:56Z</time>
      </trkpt>
      <trkpt lat="45.58126" lon="4.50708">
        <ele>932.8263</ele>
        <time>2013-05-26T12:35:59Z</time>
      </trkpt>
      <trkpt lat="45.58109" lon="4.50693">
        <ele>932.34235</ele>
        <time>2013-05-26T12:36:02Z</time>
      </trkpt>
      <trkpt lat="45.58092" lon="4.50681">
        <ele>932.0304</ele>
        <time>2013-05-26T12:36:05Z</time>
      </trkpt>
      <trkpt lat="45.58072" lon="4.50667">
        <ele>932.23145</ele>
        <time>2013-05-26T12:36:10Z</time>
      </trkpt>
      <trkpt lat="45.58055" lon="4.50653">
        <ele>933.4341</ele>
        <time>2013-05-26T12:36:16Z</time>
      </trkpt>
      <trkpt lat="45.58036" lon="4.50639">
        <ele>933.222</ele>
        <time>2013-05-26T12:36:23Z</time>
      </trkpt>
      <trkpt lat="45.58019" lon="4.5063">
        <ele>932.795</ele>
        <time>2013-05-26T12:36:29Z</time>
      </trkpt>
      <trkpt lat="45.58" lon="4.50618">
        <ele>934.06665</ele>
        <time>2013-05-26T12:36:37Z</time>
      </trkpt>
      <trkpt lat="45.57982" lon="4.50611">
        <ele>936.5014</ele>
        <time>2013-05-26T12:36:44Z</time>
      </trkpt>
      <trkpt lat="45.57961" lon="4.50606">
        <ele>936.65106</ele>
        <time>2013-05-26T12:36:51Z</time>
      </trkpt>
      <trkpt lat="45.57942" lon="4.506">
        <ele>937.2719</ele>
        <time>2013-05-26T12:36:57Z</time>
      </trkpt>
      <trkpt lat="45.57922" lon="4.50596">
        <ele>939.7339</ele>
        <time>2013-05-26T12:37:03Z</time>
      </trkpt>
      <trkpt lat="45.57903" lon="4.50592">
        <ele>939.5506</ele>
        <time>2013-05-26T12:37:07Z</time>
      </trkpt>
      <trkpt lat="45.5788" lon="4.50586">
        <ele>939.09607</ele>
        <time>2013-05-26T12:37:11Z</time>
      </trkpt>
      <trkpt lat="45.57859" lon="4.5058">
        <ele>937.8499</ele>
        <time>2013-05-26T12:37:14Z</time>
      </trkpt>
      <trkpt lat="45.57837" lon="4.50572">
        <ele>936.32886</ele>
        <time>2013-05-26T12:37:17Z</time>
      </trkpt>
      <trkpt lat="45.57815" lon="4.50564">
        <ele>935.3762</ele>
        <time>2013-05-26T12:37:20Z</time>
      </trkpt>
      <trkpt lat="45.57789" lon="4.50556">
        <ele>934.20874</ele>
        <time>2013-05-26T12:37:23Z</time>
      </trkpt>
      <trkpt lat="45.57771" lon="4.50549">
        <ele>933.3799</ele>
        <time>2013-05-26T12:37:25Z</time>
      </trkpt>
      <trkpt lat="45.57752" lon="4.50543">
        <ele>932.45746</ele>
        <time>2013-05-26T12:37:27Z</time>
      </trkpt>
      <trkpt lat="45.57733" lon="4.50537">
        <ele>931.4761</ele>
        <time>2013-05-26T12:37:29Z</time>
      </trkpt>
      <trkpt lat="45.57713" lon="4.50531">
        <ele>930.41156</ele>
        <time>2013-05-26T12:37:31Z</time>
      </trkpt>
      <trkpt lat="45.57694" lon="4.50518">
        <ele>929.38776</ele>
        <time>2013-05-26T12:37:33Z</time>
      </trkpt>
      <trkpt lat="45.57679" lon="4.50501">
        <ele>928.6931</ele>
        <time>2013-05-26T12:37:35Z</time>
      </trkpt>
      <trkpt lat="45.57665" lon="4.50484">
        <ele>928.1899</ele>
        <time>2013-05-26T12:37:37Z</time>
      </trkpt>
      <trkpt lat="45.57652" lon="4.50466">
        <ele>927.7443</ele>
        <time>2013-05-26T12:37:39Z</time>
      </trkpt>
      <trkpt lat="45.57639" lon="4.50449">
        <ele>927.1749</ele>
        <time>2013-05-26T12:37:41Z</time>
      </trkpt>
      <trkpt lat="45.57621" lon="4.50421">
        <ele>926.2754</ele>
        <time>2013-05-26T12:37:44Z</time>
      </trkpt>
      <trkpt lat="45.57603" lon="4.50394">
        <ele>925.18964</ele>
        <time>2013-05-26T12:37:47Z</time>
      </trkpt>
      <trkpt lat="45.57588" lon="4.50365">
        <ele>924.52374</ele>
        <time>2013-05-26T12:37:50Z</time>
      </trkpt>
      <trkpt lat="45.57571" lon="4.50339">
        <ele>923.91626</ele>
        <time>2013-05-26T12:37:53Z</time>
      </trkpt>
      <trkpt lat="45.57554" lon="4.50311">
        <ele>923.0584</ele>
        <time>2013-05-26T12:37:56Z</time>
      </trkpt>
      <trkpt lat="45.57535" lon="4.50284">
        <ele>921.8653</ele>
        <time>2013-05-26T12:37:59Z</time>
      </trkpt>
      <trkpt lat="45.57512" lon="4.50267">
        <ele>920.22754</ele>
        <time>2013-05-26T12:38:02Z</time>
      </trkpt>
      <trkpt lat="45.57486" lon="4.50257">
        <ele>918.94446</ele>
        <time>2013-05-26T12:38:05Z</time>
      </trkpt>
      <trkpt lat="45.57468" lon="4.50251">
        <ele>919.025</ele>
        <time>2013-05-26T12:38:07Z</time>
      </trkpt>
      <trkpt lat="45.57441" lon="4.50243">
        <ele>917.4559</ele>
        <time>2013-05-26T12:38:10Z</time>
      </trkpt>
      <trkpt lat="45.57423" lon="4.50237">
        <ele>915.43146</ele>
        <time>2013-05-26T12:38:12Z</time>
      </trkpt>
      <trkpt lat="45.57404" lon="4.50232">
        <ele>913.73016</ele>
        <time>2013-05-26T12:38:14Z</time>
      </trkpt>
      <trkpt lat="45.57386" lon="4.50226">
        <ele>912.3732</ele>
        <time>2013-05-26T12:38:16Z</time>
      </trkpt>
      <trkpt lat="45.57367" lon="4.50222">
        <ele>911.37244</ele>
        <time>2013-05-26T12:38:18Z</time>
      </trkpt>
      <trkpt lat="45.57347" lon="4.50212">
        <ele>910.6658</ele>
        <time>2013-05-26T12:38:20Z</time>
      </trkpt>
      <trkpt lat="45.57327" lon="4.50208">
        <ele>909.987</ele>
        <time>2013-05-26T12:38:22Z</time>
      </trkpt>
      <trkpt lat="45.57308" lon="4.50203">
        <ele>909.4427</ele>
        <time>2013-05-26T12:38:24Z</time>
      </trkpt>
      <trkpt lat="45.5729" lon="4.50197">
        <ele>908.9365</ele>
        <time>2013-05-26T12:38:26Z</time>
      </trkpt>
      <trkpt lat="45.57272" lon="4.50193">
        <ele>908.5955</ele>
        <time>2013-05-26T12:38:28Z</time>
      </trkpt>
      <trkpt lat="45.57254" lon="4.50186">
        <ele>908.235</ele>
        <time>2013-05-26T12:38:30Z</time>
      </trkpt>
      <trkpt lat="45.57236" lon="4.5018">
        <ele>907.72595</ele>
        <time>2013-05-26T12:38:32Z</time>
      </trkpt>
      <trkpt lat="45.57218" lon="4.50175">
        <ele>907.00836</ele>
        <time>2013-05-26T12:38:34Z</time>
      </trkpt>
      <trkpt lat="45.57199" lon="4.50171">
        <ele>906.0672</ele>
        <time>2013-05-26T12:38:36Z</time>
      </trkpt>
      <trkpt lat="45.57179" lon="4.50169">
        <ele>905.0565</ele>
        <time>2013-05-26T12:38:38Z</time>
      </trkpt>
      <trkpt lat="45.57159" lon="4.50174">
        <ele>904.00055</ele>
        <time>2013-05-26T12:38:40Z</time>
      </trkpt>
      <trkpt lat="45.5714" lon="4.50187">
        <ele>902.9316</ele>
        <time>2013-05-26T12:38:42Z</time>
      </trkpt>
      <trkpt lat="45.57122" lon="4.50202">
        <ele>901.86774</ele>
        <time>2013-05-26T12:38:44Z</time>
      </trkpt>
      <trkpt lat="45.57104" lon="4.50217">
        <ele>900.64435</ele>
        <time>2013-05-26T12:38:46Z</time>
      </trkpt>
      <trkpt lat="45.57085" lon="4.50231">
        <ele>899.5499</ele>
        <time>2013-05-26T12:38:48Z</time>
      </trkpt>
      <trkpt lat="45.57066" lon="4.50241">
        <ele>898.8093</ele>
        <time>2013-05-26T12:38:50Z</time>
      </trkpt>
      <trkpt lat="45.57049" lon="4.50252">
        <ele>898.3615</ele>
        <time>2013-05-26T12:38:52Z</time>
      </trkpt>
      <trkpt lat="45.57024" lon="4.5026">
        <ele>897.80096</ele>
        <time>2013-05-26T12:38:55Z</time>
      </trkpt>
      <trkpt lat="45.56999" lon="4.50248">
        <ele>896.82385</ele>
        <time>2013-05-26T12:38:58Z</time>
      </trkpt>
      <trkpt lat="45.56984" lon="4.50218">
        <ele>894.36163</ele>
        <time>2013-05-26T12:39:01Z</time>
      </trkpt>
      <trkpt lat="45.56972" lon="4.50194">
        <ele>892.63464</ele>
        <time>2013-05-26T12:39:03Z</time>
      </trkpt>
      <trkpt lat="45.56956" lon="4.50179">
        <ele>891.1695</ele>
        <time>2013-05-26T12:39:05Z</time>
      </trkpt>
      <trkpt lat="45.56937" lon="4.50168">
        <ele>890.1016</ele>
        <time>2013-05-26T12:39:07Z</time>
      </trkpt>
      <trkpt lat="45.56917" lon="4.5016">
        <ele>888.94464</ele>
        <time>2013-05-26T12:39:09Z</time>
      </trkpt>
      <trkpt lat="45.56897" lon="4.50162">
        <ele>888.3376</ele>
        <time>2013-05-26T12:39:11Z</time>
      </trkpt>
      <trkpt lat="45.56876" lon="4.5016">
        <ele>887.6587</ele>
        <time>2013-05-26T12:39:13Z</time>
      </trkpt>
      <trkpt lat="45.56856" lon="4.5015">
        <ele>886.8768</ele>
        <time>2013-05-26T12:39:15Z</time>
      </trkpt>
      <trkpt lat="45.56838" lon="4.50134">
        <ele>885.9494</ele>
        <time>2013-05-26T12:39:17Z</time>
      </trkpt>
      <trkpt lat="45.5682" lon="4.50116">
        <ele>885.0278</ele>
        <time>2013-05-26T12:39:19Z</time>
      </trkpt>
      <trkpt lat="45.56803" lon="4.501">
        <ele>884.1719</ele>
        <time>2013-05-26T12:39:21Z</time>
      </trkpt>
      <trkpt lat="45.56786" lon="4.50083">
        <ele>883.40295</ele>
        <time>2013-05-26T12:39:23Z</time>
      </trkpt>
      <trkpt lat="45.56769" lon="4.50068">
        <ele>882.7954</ele>
        <time>2013-05-26T12:39:25Z</time>
      </trkpt>
      <trkpt lat="45.56754" lon="4.50052">
        <ele>882.29114</ele>
        <time>2013-05-26T12:39:27Z</time>
      </trkpt>
      <trkpt lat="45.56739" lon="4.50037">
        <ele>882.10126</ele>
        <time>2013-05-26T12:39:29Z</time>
      </trkpt>
      <trkpt lat="45.56719" lon="4.50017">
        <ele>882.07556</ele>
        <time>2013-05-26T12:39:32Z</time>
      </trkpt>
      <trkpt lat="45.56702" lon="4.49996">
        <ele>881.8819</ele>
        <time>2013-05-26T12:39:35Z</time>
      </trkpt>
      <trkpt lat="45.56685" lon="4.49978">
        <ele>881.71735</ele>
        <time>2013-05-26T12:39:38Z</time>
      </trkpt>
      <trkpt lat="45.56668" lon="4.49958">
        <ele>881.5828</ele>
        <time>2013-05-26T12:39:42Z</time>
      </trkpt>
      <trkpt lat="45.56652" lon="4.49944">
        <ele>881.2872</ele>
        <time>2013-05-26T12:39:46Z</time>
      </trkpt>
      <trkpt lat="45.56636" lon="4.49932">
        <ele>881.5718</ele>
        <time>2013-05-26T12:39:51Z</time>
      </trkpt>
      <trkpt lat="45.56617" lon="4.4992">
        <ele>883.03406</ele>
        <time>2013-05-26T12:39:57Z</time>
      </trkpt>
      <trkpt lat="45.56599" lon="4.49907">
        <ele>884.2517</ele>
        <time>2013-05-26T12:40:03Z</time>
      </trkpt>
      <trkpt lat="45.56583" lon="4.49894">
        <ele>884.861</ele>
        <time>2013-05-26T12:40:08Z</time>
      </trkpt>
      <trkpt lat="45.56565" lon="4.49879">
        <ele>885.4003</ele>
        <time>2013-05-26T12:40:14Z</time>
      </trkpt>
      <trkpt lat="45.56549" lon="4.49863">
        <ele>886.6534</ele>
        <time>2013-05-26T12:40:20Z</time>
      </trkpt>
      <trkpt lat="45.56531" lon="4.49848">
        <ele>888.21246</ele>
        <time>2013-05-26T12:40:26Z</time>
      </trkpt>
      <trkpt lat="45.56515" lon="4.49836">
        <ele>888.25586</ele>
        <time>2013-05-26T12:40:31Z</time>
      </trkpt>
      <trkpt lat="45.56498" lon="4.49826">
        <ele>888.7644</ele>
        <time>2013-05-26T12:40:36Z</time>
      </trkpt>
      <trkpt lat="45.56479" lon="4.49814">
        <ele>888.95746</ele>
        <time>2013-05-26T12:40:42Z</time>
      </trkpt>
      <trkpt lat="45.56463" lon="4.49802">
        <ele>888.33466</ele>
        <time>2013-05-26T12:40:47Z</time>
      </trkpt>
      <trkpt lat="45.56446" lon="4.49786">
        <ele>887.9245</ele>
        <time>2013-05-26T12:40:52Z</time>
      </trkpt>
      <trkpt lat="45.5643" lon="4.4977">
        <ele>889.2694</ele>
        <time>2013-05-26T12:40:57Z</time>
      </trkpt>
      <trkpt lat="45.56414" lon="4.49751">
        <ele>889.7133</ele>
        <time>2013-05-26T12:41:02Z</time>
      </trkpt>
      <trkpt lat="45.56398" lon="4.49735">
        <ele>889.2862</ele>
        <time>2013-05-26T12:41:07Z</time>
      </trkpt>
      <trkpt lat="45.5638" lon="4.49721">
        <ele>889.7053</ele>
        <time>2013-05-26T12:41:12Z</time>
      </trkpt>
      <trkpt lat="45.56359" lon="4.49707">
        <ele>890.439</ele>
        <time>2013-05-26T12:41:17Z</time>
      </trkpt>
      <trkpt lat="45.56343" lon="4.49691">
        <ele>889.844</ele>
        <time>2013-05-26T12:41:21Z</time>
      </trkpt>
      <trkpt lat="45.56324" lon="4.49678">
        <ele>889.62366</ele>
        <time>2013-05-26T12:41:25Z</time>
      </trkpt>
      <trkpt lat="45.56305" lon="4.49666">
        <ele>890.2837</ele>
        <time>2013-05-26T12:41:29Z</time>
      </trkpt>
      <trkpt lat="45.56287" lon="4.49648">
        <ele>888.4593</ele>
        <time>2013-05-26T12:41:33Z</time>
      </trkpt>
      <trkpt lat="45.56268" lon="4.49632">
        <ele>887.959</ele>
        <time>2013-05-26T12:41:37Z</time>
      </trkpt>
      <trkpt lat="45.5625" lon="4.49616">
        <ele>885.98157</ele>
        <time>2013-05-26T12:41:41Z</time>
      </trkpt>
      <trkpt lat="45.56231" lon="4.49602">
        <ele>884.9106</ele>
        <time>2013-05-26T12:41:45Z</time>
      </trkpt>
      <trkpt lat="45.56212" lon="4.49588">
        <ele>885.0049</ele>
        <time>2013-05-26T12:41:49Z</time>
      </trkpt>
      <trkpt lat="45.56195" lon="4.49574">
        <ele>885.8547</ele>
        <time>2013-05-26T12:41:53Z</time>
      </trkpt>
      <trkpt lat="45.56177" lon="4.49559">
        <ele>887.43945</ele>
        <time>2013-05-26T12:41:58Z</time>
      </trkpt>
      <trkpt lat="45.5616" lon="4.49545">
        <ele>888.9787</ele>
        <time>2013-05-26T12:42:03Z</time>
      </trkpt>
      <trkpt lat="45.56144" lon="4.49532">
        <ele>890.40283</ele>
        <time>2013-05-26T12:42:08Z</time>
      </trkpt>
      <trkpt lat="45.56126" lon="4.49517">
        <ele>891.27905</ele>
        <time>2013-05-26T12:42:14Z</time>
      </trkpt>
      <trkpt lat="45.56109" lon="4.49504">
        <ele>892.19147</ele>
        <time>2013-05-26T12:42:20Z</time>
      </trkpt>
      <trkpt lat="45.56091" lon="4.49493">
        <ele>892.2948</ele>
        <time>2013-05-26T12:42:26Z</time>
      </trkpt>
      <trkpt lat="45.56074" lon="4.49485">
        <ele>892.42096</ele>
        <time>2013-05-26T12:42:32Z</time>
      </trkpt>
      <trkpt lat="45.56056" lon="4.49477">
        <ele>892.62744</ele>
        <time>2013-05-26T12:42:38Z</time>
      </trkpt>
      <trkpt lat="45.56036" lon="4.49471">
        <ele>892.83545</ele>
        <time>2013-05-26T12:42:45Z</time>
      </trkpt>
      <trkpt lat="45.56015" lon="4.49469">
        <ele>892.1723</ele>
        <time>2013-05-26T12:42:52Z</time>
      </trkpt>
      <trkpt lat="45.55996" lon="4.49468">
        <ele>892.5568</ele>
        <time>2013-05-26T12:42:58Z</time>
      </trkpt>
      <trkpt lat="45.55976" lon="4.49468">
        <ele>894.3041</ele>
        <time>2013-05-26T12:43:04Z</time>
      </trkpt>
      <trkpt lat="45.55955" lon="4.49467">
        <ele>894.6873</ele>
        <time>2013-05-26T12:43:10Z</time>
      </trkpt>
      <trkpt lat="45.55935" lon="4.49467">
        <ele>894.31036</ele>
        <time>2013-05-26T12:43:15Z</time>
      </trkpt>
      <trkpt lat="45.55914" lon="4.49468">
        <ele>893.4668</ele>
        <time>2013-05-26T12:43:20Z</time>
      </trkpt>
      <trkpt lat="45.55894" lon="4.49471">
        <ele>893.3813</ele>
        <time>2013-05-26T12:43:25Z</time>
      </trkpt>
      <trkpt lat="45.55873" lon="4.49476">
        <ele>892.7704</ele>
        <time>2013-05-26T12:43:30Z</time>
      </trkpt>
      <trkpt lat="45.55851" lon="4.49478">
        <ele>892.70953</ele>
        <time>2013-05-26T12:43:35Z</time>
      </trkpt>
      <trkpt lat="45.5583" lon="4.49476">
        <ele>892.666</ele>
        <time>2013-05-26T12:43:40Z</time>
      </trkpt>
      <trkpt lat="45.55811" lon="4.49472">
        <ele>893.1236</ele>
        <time>2013-05-26T12:43:44Z</time>
      </trkpt>
      <trkpt lat="45.55792" lon="4.49457">
        <ele>893.4186</ele>
        <time>2013-05-26T12:43:49Z</time>
      </trkpt>
      <trkpt lat="45.5578" lon="4.49436">
        <ele>893.5758</ele>
        <time>2013-05-26T12:43:53Z</time>
      </trkpt>
      <trkpt lat="45.55768" lon="4.49414">
        <ele>893.7728</ele>
        <time>2013-05-26T12:43:57Z</time>
      </trkpt>
      <trkpt lat="45.55755" lon="4.4939">
        <ele>894.5662</ele>
        <time>2013-05-26T12:44:02Z</time>
      </trkpt>
      <trkpt lat="45.55743" lon="4.49366">
        <ele>894.78674</ele>
        <time>2013-05-26T12:44:08Z</time>
      </trkpt>
      <trkpt lat="45.5573" lon="4.49346">
        <ele>895.0043</ele>
        <time>2013-05-26T12:44:13Z</time>
      </trkpt>
      <trkpt lat="45.55716" lon="4.49327">
        <ele>896.4894</ele>
        <time>2013-05-26T12:44:18Z</time>
      </trkpt>
      <trkpt lat="45.55701" lon="4.49309">
        <ele>897.54706</ele>
        <time>2013-05-26T12:44:22Z</time>
      </trkpt>
      <trkpt lat="45.55686" lon="4.49292">
        <ele>897.6707</ele>
        <time>2013-05-26T12:44:26Z</time>
      </trkpt>
      <trkpt lat="45.55675" lon="4.49272">
        <ele>897.82275</ele>
        <time>2013-05-26T12:44:30Z</time>
      </trkpt>
      <trkpt lat="45.55663" lon="4.4925">
        <ele>896.6748</ele>
        <time>2013-05-26T12:44:34Z</time>
      </trkpt>
      <trkpt lat="45.55651" lon="4.49228">
        <ele>896.66626</ele>
        <time>2013-05-26T12:44:38Z</time>
      </trkpt>
      <trkpt lat="45.5564" lon="4.49206">
        <ele>896.5178</ele>
        <time>2013-05-26T12:44:42Z</time>
      </trkpt>
      <trkpt lat="45.55629" lon="4.49183">
        <ele>896.70953</ele>
        <time>2013-05-26T12:44:46Z</time>
      </trkpt>
      <trkpt lat="45.55619" lon="4.4916">
        <ele>896.3444</ele>
        <time>2013-05-26T12:44:50Z</time>
      </trkpt>
      <trkpt lat="45.55606" lon="4.49136">
        <ele>896.3081</ele>
        <time>2013-05-26T12:44:55Z</time>
      </trkpt>
      <trkpt lat="45.55594" lon="4.4911">
        <ele>898.3555</ele>
        <time>2013-05-26T12:45:00Z</time>
      </trkpt>
      <trkpt lat="45.55582" lon="4.4909">
        <ele>900.0284</ele>
        <time>2013-05-26T12:45:05Z</time>
      </trkpt>
      <trkpt lat="45.55567" lon="4.49068">
        <ele>900.1039</ele>
        <time>2013-05-26T12:45:10Z</time>
      </trkpt>
      <trkpt lat="45.5555" lon="4.49048">
        <ele>899.29553</ele>
        <time>2013-05-26T12:45:15Z</time>
      </trkpt>
      <trkpt lat="45.55534" lon="4.4903">
        <ele>897.6396</ele>
        <time>2013-05-26T12:45:19Z</time>
      </trkpt>
      <trkpt lat="45.55516" lon="4.49013">
        <ele>897.1274</ele>
        <time>2013-05-26T12:45:23Z</time>
      </trkpt>
      <trkpt lat="45.55495" lon="4.49001">
        <ele>897.92</ele>
        <time>2013-05-26T12:45:27Z</time>
      </trkpt>
      <trkpt lat="45.55479" lon="4.48991">
        <ele>898.16315</ele>
        <time>2013-05-26T12:45:30Z</time>
      </trkpt>
      <trkpt lat="45.55459" lon="4.48986">
        <ele>897.50635</ele>
        <time>2013-05-26T12:45:33Z</time>
      </trkpt>
      <trkpt lat="45.55438" lon="4.48983">
        <ele>896.5073</ele>
        <time>2013-05-26T12:45:36Z</time>
      </trkpt>
      <trkpt lat="45.55416" lon="4.48988">
        <ele>895.8531</ele>
        <time>2013-05-26T12:45:39Z</time>
      </trkpt>
      <trkpt lat="45.55398" lon="4.49">
        <ele>895.60364</ele>
        <time>2013-05-26T12:45:42Z</time>
      </trkpt>
      <trkpt lat="45.5538" lon="4.49015">
        <ele>895.1672</ele>
        <time>2013-05-26T12:45:45Z</time>
      </trkpt>
      <trkpt lat="45.55363" lon="4.49032">
        <ele>894.3252</ele>
        <time>2013-05-26T12:45:48Z</time>
      </trkpt>
      <trkpt lat="45.55346" lon="4.49048">
        <ele>894.4575</ele>
        <time>2013-05-26T12:45:51Z</time>
      </trkpt>
      <trkpt lat="45.55328" lon="4.49065">
        <ele>892.70764</ele>
        <time>2013-05-26T12:45:55Z</time>
      </trkpt>
      <trkpt lat="45.55312" lon="4.49088">
        <ele>892.74927</ele>
        <time>2013-05-26T12:45:59Z</time>
      </trkpt>
      <trkpt lat="45.55299" lon="4.49117">
        <ele>892.9097</ele>
        <time>2013-05-26T12:46:03Z</time>
      </trkpt>
      <trkpt lat="45.55286" lon="4.49144">
        <ele>893.24646</ele>
        <time>2013-05-26T12:46:07Z</time>
      </trkpt>
      <trkpt lat="45.55272" lon="4.49171">
        <ele>891.64044</ele>
        <time>2013-05-26T12:46:11Z</time>
      </trkpt>
      <trkpt lat="45.55256" lon="4.49184">
        <ele>891.4405</ele>
        <time>2013-05-26T12:46:14Z</time>
      </trkpt>
      <trkpt lat="45.55234" lon="4.49184">
        <ele>891.3152</ele>
        <time>2013-05-26T12:46:18Z</time>
      </trkpt>
      <trkpt lat="45.55213" lon="4.49177">
        <ele>890.85516</ele>
        <time>2013-05-26T12:46:22Z</time>
      </trkpt>
      <trkpt lat="45.55196" lon="4.49165">
        <ele>890.0467</ele>
        <time>2013-05-26T12:46:25Z</time>
      </trkpt>
      <trkpt lat="45.5518" lon="4.49151">
        <ele>890.02905</ele>
        <time>2013-05-26T12:46:28Z</time>
      </trkpt>
      <trkpt lat="45.55162" lon="4.49139">
        <ele>889.9654</ele>
        <time>2013-05-26T12:46:31Z</time>
      </trkpt>
      <trkpt lat="45.55145" lon="4.49127">
        <ele>889.7792</ele>
        <time>2013-05-26T12:46:34Z</time>
      </trkpt>
      <trkpt lat="45.55126" lon="4.49116">
        <ele>890.00995</ele>
        <time>2013-05-26T12:46:37Z</time>
      </trkpt>
      <trkpt lat="45.55106" lon="4.49112">
        <ele>889.937</ele>
        <time>2013-05-26T12:46:40Z</time>
      </trkpt>
      <trkpt lat="45.55087" lon="4.49114">
        <ele>889.40155</ele>
        <time>2013-05-26T12:46:43Z</time>
      </trkpt>
      <trkpt lat="45.55068" lon="4.4912">
        <ele>888.6413</ele>
        <time>2013-05-26T12:46:46Z</time>
      </trkpt>
      <trkpt lat="45.55047" lon="4.49114">
        <ele>888.9096</ele>
        <time>2013-05-26T12:46:49Z</time>
      </trkpt>
      <trkpt lat="45.5503" lon="4.49102">
        <ele>888.2431</ele>
        <time>2013-05-26T12:46:52Z</time>
      </trkpt>
      <trkpt lat="45.55013" lon="4.49089">
        <ele>887.8135</ele>
        <time>2013-05-26T12:46:55Z</time>
      </trkpt>
      <trkpt lat="45.54995" lon="4.4907">
        <ele>887.5613</ele>
        <time>2013-05-26T12:46:59Z</time>
      </trkpt>
      <trkpt lat="45.54979" lon="4.49052">
        <ele>887.57605</ele>
        <time>2013-05-26T12:47:03Z</time>
      </trkpt>
      <trkpt lat="45.54961" lon="4.49033">
        <ele>887.9952</ele>
        <time>2013-05-26T12:47:08Z</time>
      </trkpt>
      <trkpt lat="45.54943" lon="4.49015">
        <ele>888.17365</ele>
        <time>2013-05-26T12:47:13Z</time>
      </trkpt>
      <trkpt lat="45.54926" lon="4.48994">
        <ele>887.16364</ele>
        <time>2013-05-26T12:47:18Z</time>
      </trkpt>
      <trkpt lat="45.5491" lon="4.48975">
        <ele>887.2363</ele>
        <time>2013-05-26T12:47:23Z</time>
      </trkpt>
      <trkpt lat="45.54898" lon="4.48955">
        <ele>886.5935</ele>
        <time>2013-05-26T12:47:27Z</time>
      </trkpt>
      <trkpt lat="45.54887" lon="4.48933">
        <ele>886.1077</ele>
        <time>2013-05-26T12:47:31Z</time>
      </trkpt>
      <trkpt lat="45.54875" lon="4.48905">
        <ele>885.49817</ele>
        <time>2013-05-26T12:47:35Z</time>
      </trkpt>
      <trkpt lat="45.54865" lon="4.48883">
        <ele>884.7711</ele>
        <time>2013-05-26T12:47:38Z</time>
      </trkpt>
      <trkpt lat="45.54853" lon="4.48856">
        <ele>884.3706</ele>
        <time>2013-05-26T12:47:41Z</time>
      </trkpt>
      <trkpt lat="45.54841" lon="4.48828">
        <ele>883.57043</ele>
        <time>2013-05-26T12:47:44Z</time>
      </trkpt>
      <trkpt lat="45.54824" lon="4.48804">
        <ele>882.4672</ele>
        <time>2013-05-26T12:47:47Z</time>
      </trkpt>
      <trkpt lat="45.54801" lon="4.48786">
        <ele>882.0377</ele>
        <time>2013-05-26T12:47:50Z</time>
      </trkpt>
      <trkpt lat="45.54784" lon="4.4878">
        <ele>881.40875</ele>
        <time>2013-05-26T12:47:52Z</time>
      </trkpt>
      <trkpt lat="45.54759" lon="4.48774">
        <ele>880.32556</ele>
        <time>2013-05-26T12:47:55Z</time>
      </trkpt>
      <trkpt lat="45.54731" lon="4.48774">
        <ele>878.89984</ele>
        <time>2013-05-26T12:47:58Z</time>
      </trkpt>
      <trkpt lat="45.54713" lon="4.48773">
        <ele>878.0812</ele>
        <time>2013-05-26T12:48:00Z</time>
      </trkpt>
      <trkpt lat="45.54686" lon="4.48774">
        <ele>876.77014</ele>
        <time>2013-05-26T12:48:03Z</time>
      </trkpt>
      <trkpt lat="45.54668" lon="4.48772">
        <ele>875.63947</ele>
        <time>2013-05-26T12:48:05Z</time>
      </trkpt>
      <trkpt lat="45.54644" lon="4.48769">
        <ele>874.95105</ele>
        <time>2013-05-26T12:48:08Z</time>
      </trkpt>
      <trkpt lat="45.54616" lon="4.48767">
        <ele>874.44806</ele>
        <time>2013-05-26T12:48:11Z</time>
      </trkpt>
      <trkpt lat="45.54596" lon="4.48763">
        <ele>872.8812</ele>
        <time>2013-05-26T12:48:14Z</time>
      </trkpt>
      <trkpt lat="45.54576" lon="4.48763">
        <ele>871.3003</ele>
        <time>2013-05-26T12:48:18Z</time>
      </trkpt>
      <trkpt lat="45.54559" lon="4.48747">
        <ele>869.9899</ele>
        <time>2013-05-26T12:48:24Z</time>
      </trkpt>
      <trkpt lat="45.5455" lon="4.48724">
        <ele>869.67554</ele>
        <time>2013-05-26T12:48:30Z</time>
      </trkpt>
      <trkpt lat="45.54547" lon="4.48697">
        <ele>869.90765</ele>
        <time>2013-05-26T12:48:36Z</time>
      </trkpt>
      <trkpt lat="45.54544" lon="4.48671">
        <ele>871.5559</ele>
        <time>2013-05-26T12:48:42Z</time>
      </trkpt>
      <trkpt lat="45.54542" lon="4.48645">
        <ele>872.466</ele>
        <time>2013-05-26T12:48:48Z</time>
      </trkpt>
      <trkpt lat="45.5454" lon="4.48616">
        <ele>870.573</ele>
        <time>2013-05-26T12:48:54Z</time>
      </trkpt>
      <trkpt lat="45.54547" lon="4.48592">
        <ele>870.1189</ele>
        <time>2013-05-26T12:49:02Z</time>
      </trkpt>
      <trkpt lat="45.54531" lon="4.48608">
        <ele>873.0562</ele>
        <time>2013-05-26T12:49:12Z</time>
      </trkpt>
      <trkpt lat="45.54511" lon="4.48616">
        <ele>870.9192</ele>
        <time>2013-05-26T12:49:18Z</time>
      </trkpt>
      <trkpt lat="45.54492" lon="4.48629">
        <ele>868.1124</ele>
        <time>2013-05-26T12:49:24Z</time>
      </trkpt>
      <trkpt lat="45.54476" lon="4.48642">
        <ele>866.2698</ele>
        <time>2013-05-26T12:49:29Z</time>
      </trkpt>
      <trkpt lat="45.54461" lon="4.48624">
        <ele>863.5514</ele>
        <time>2013-05-26T12:49:40Z</time>
      </trkpt>
      <trkpt lat="45.54453" lon="4.486">
        <ele>860.715</ele>
        <time>2013-05-26T12:49:46Z</time>
      </trkpt>
      <trkpt lat="45.54451" lon="4.48574">
        <ele>860.3424</ele>
        <time>2013-05-26T12:49:52Z</time>
      </trkpt>
      <trkpt lat="45.54453" lon="4.48547">
        <ele>858.9904</ele>
        <time>2013-05-26T12:49:57Z</time>
      </trkpt>
      <trkpt lat="45.54453" lon="4.48518">
        <ele>855.58014</ele>
        <time>2013-05-26T12:50:02Z</time>
      </trkpt>
      <trkpt lat="45.54429" lon="4.48516">
        <ele>850.8327</ele>
        <time>2013-05-26T12:50:09Z</time>
      </trkpt>
      <trkpt lat="45.5441" lon="4.48517">
        <ele>849.69586</ele>
        <time>2013-05-26T12:50:13Z</time>
      </trkpt>
      <trkpt lat="45.5439" lon="4.48521">
        <ele>850.13934</ele>
        <time>2013-05-26T12:50:17Z</time>
      </trkpt>
      <trkpt lat="45.54372" lon="4.48526">
        <ele>850.1796</ele>
        <time>2013-05-26T12:50:21Z</time>
      </trkpt>
      <trkpt lat="45.54349" lon="4.48529">
        <ele>849.72504</ele>
        <time>2013-05-26T12:50:26Z</time>
      </trkpt>
      <trkpt lat="45.54329" lon="4.48536">
        <ele>847.09247</ele>
        <time>2013-05-26T12:50:32Z</time>
      </trkpt>
      <trkpt lat="45.5431" lon="4.48545">
        <ele>843.4853</ele>
        <time>2013-05-26T12:50:37Z</time>
      </trkpt>
      <trkpt lat="45.5429" lon="4.48547">
        <ele>840.35315</ele>
        <time>2013-05-26T12:50:42Z</time>
      </trkpt>
      <trkpt lat="45.54273" lon="4.48528">
        <ele>836.81525</ele>
        <time>2013-05-26T12:50:46Z</time>
      </trkpt>
      <trkpt lat="45.54263" lon="4.48499">
        <ele>835.4392</ele>
        <time>2013-05-26T12:50:50Z</time>
      </trkpt>
      <trkpt lat="45.54252" lon="4.48476">
        <ele>833.3775</ele>
        <time>2013-05-26T12:50:53Z</time>
      </trkpt>
      <trkpt lat="45.5424" lon="4.48451">
        <ele>831.1405</ele>
        <time>2013-05-26T12:50:56Z</time>
      </trkpt>
      <trkpt lat="45.54225" lon="4.48427">
        <ele>827.62335</ele>
        <time>2013-05-26T12:50:59Z</time>
      </trkpt>
      <trkpt lat="45.54209" lon="4.48405">
        <ele>824.5723</ele>
        <time>2013-05-26T12:51:02Z</time>
      </trkpt>
      <trkpt lat="45.54191" lon="4.48389">
        <ele>821.05554</ele>
        <time>2013-05-26T12:51:05Z</time>
      </trkpt>
      <trkpt lat="45.54174" lon="4.48376">
        <ele>818.83124</ele>
        <time>2013-05-26T12:51:07Z</time>
      </trkpt>
      <trkpt lat="45.54157" lon="4.48364">
        <ele>816.8926</ele>
        <time>2013-05-26T12:51:09Z</time>
      </trkpt>
      <trkpt lat="45.5414" lon="4.48351">
        <ele>815.65204</ele>
        <time>2013-05-26T12:51:11Z</time>
      </trkpt>
      <trkpt lat="45.54124" lon="4.48336">
        <ele>814.87305</ele>
        <time>2013-05-26T12:51:13Z</time>
      </trkpt>
      <trkpt lat="45.54109" lon="4.48306">
        <ele>814.0824</ele>
        <time>2013-05-26T12:51:16Z</time>
      </trkpt>
      <trkpt lat="45.54096" lon="4.48276">
        <ele>813.266</ele>
        <time>2013-05-26T12:51:19Z</time>
      </trkpt>
      <trkpt lat="45.54087" lon="4.48248">
        <ele>812.8794</ele>
        <time>2013-05-26T12:51:22Z</time>
      </trkpt>
      <trkpt lat="45.5408" lon="4.48223">
        <ele>812.06006</ele>
        <time>2013-05-26T12:51:25Z</time>
      </trkpt>
      <trkpt lat="45.54079" lon="4.48195">
        <ele>810.9066</ele>
        <time>2013-05-26T12:51:28Z</time>
      </trkpt>
      <trkpt lat="45.54078" lon="4.48168">
        <ele>809.6106</ele>
        <time>2013-05-26T12:51:31Z</time>
      </trkpt>
      <trkpt lat="45.54078" lon="4.48136">
        <ele>808.4092</ele>
        <time>2013-05-26T12:51:34Z</time>
      </trkpt>
      <trkpt lat="45.5407" lon="4.48104">
        <ele>806.9039</ele>
        <time>2013-05-26T12:51:37Z</time>
      </trkpt>
      <trkpt lat="45.54059" lon="4.4808">
        <ele>805.33344</ele>
        <time>2013-05-26T12:51:39Z</time>
      </trkpt>
      <trkpt lat="45.54047" lon="4.48055">
        <ele>803.9813</ele>
        <time>2013-05-26T12:51:41Z</time>
      </trkpt>
      <trkpt lat="45.54035" lon="4.48033">
        <ele>802.95197</ele>
        <time>2013-05-26T12:51:43Z</time>
      </trkpt>
      <trkpt lat="45.5402" lon="4.4801">
        <ele>801.6855</ele>
        <time>2013-05-26T12:51:45Z</time>
      </trkpt>
      <trkpt lat="45.54008" lon="4.47986">
        <ele>799.1731</ele>
        <time>2013-05-26T12:51:47Z</time>
      </trkpt>
      <trkpt lat="45.53998" lon="4.4796">
        <ele>796.72235</ele>
        <time>2013-05-26T12:51:49Z</time>
      </trkpt>
      <trkpt lat="45.53987" lon="4.47938">
        <ele>793.6376</ele>
        <time>2013-05-26T12:51:51Z</time>
      </trkpt>
      <trkpt lat="45.53978" lon="4.47912">
        <ele>790.2711</ele>
        <time>2013-05-26T12:51:53Z</time>
      </trkpt>
      <trkpt lat="45.53968" lon="4.47889">
        <ele>787.215</ele>
        <time>2013-05-26T12:51:55Z</time>
      </trkpt>
      <trkpt lat="45.53955" lon="4.47868">
        <ele>783.8772</ele>
        <time>2013-05-26T12:51:57Z</time>
      </trkpt>
      <trkpt lat="45.53938" lon="4.47851">
        <ele>780.2247</ele>
        <time>2013-05-26T12:51:59Z</time>
      </trkpt>
      <trkpt lat="45.5392" lon="4.47834">
        <ele>776.88885</ele>
        <time>2013-05-26T12:52:01Z</time>
      </trkpt>
      <trkpt lat="45.53902" lon="4.47822">
        <ele>774.275</ele>
        <time>2013-05-26T12:52:03Z</time>
      </trkpt>
      <trkpt lat="45.53883" lon="4.47816">
        <ele>771.7609</ele>
        <time>2013-05-26T12:52:05Z</time>
      </trkpt>
      <trkpt lat="45.53863" lon="4.47815">
        <ele>770.10925</ele>
        <time>2013-05-26T12:52:07Z</time>
      </trkpt>
      <trkpt lat="45.53843" lon="4.47821">
        <ele>767.9677</ele>
        <time>2013-05-26T12:52:09Z</time>
      </trkpt>
      <trkpt lat="45.53821" lon="4.47828">
        <ele>765.81934</ele>
        <time>2013-05-26T12:52:11Z</time>
      </trkpt>
      <trkpt lat="45.53801" lon="4.47829">
        <ele>763.95465</ele>
        <time>2013-05-26T12:52:13Z</time>
      </trkpt>
      <trkpt lat="45.53782" lon="4.47826">
        <ele>763.19324</ele>
        <time>2013-05-26T12:52:15Z</time>
      </trkpt>
      <trkpt lat="45.53756" lon="4.47826">
        <ele>761.8018</ele>
        <time>2013-05-26T12:52:18Z</time>
      </trkpt>
      <trkpt lat="45.5373" lon="4.47825">
        <ele>761.0633</ele>
        <time>2013-05-26T12:52:21Z</time>
      </trkpt>
      <trkpt lat="45.53703" lon="4.47823">
        <ele>759.672</ele>
        <time>2013-05-26T12:52:24Z</time>
      </trkpt>
      <trkpt lat="45.53685" lon="4.47824">
        <ele>758.1467</ele>
        <time>2013-05-26T12:52:26Z</time>
      </trkpt>
      <trkpt lat="45.53659" lon="4.47824">
        <ele>754.9025</ele>
        <time>2013-05-26T12:52:29Z</time>
      </trkpt>
      <trkpt lat="45.53633" lon="4.47813">
        <ele>751.0479</ele>
        <time>2013-05-26T12:52:32Z</time>
      </trkpt>
      <trkpt lat="45.53614" lon="4.47802">
        <ele>748.5395</ele>
        <time>2013-05-26T12:52:34Z</time>
      </trkpt>
      <trkpt lat="45.53598" lon="4.47792">
        <ele>746.65344</ele>
        <time>2013-05-26T12:52:36Z</time>
      </trkpt>
      <trkpt lat="45.53583" lon="4.47769">
        <ele>744.2663</ele>
        <time>2013-05-26T12:52:39Z</time>
      </trkpt>
      <trkpt lat="45.53576" lon="4.47745">
        <ele>743.1561</ele>
        <time>2013-05-26T12:52:42Z</time>
      </trkpt>
      <trkpt lat="45.53563" lon="4.47727">
        <ele>742.68494</ele>
        <time>2013-05-26T12:52:46Z</time>
      </trkpt>
      <trkpt lat="45.53549" lon="4.47706">
        <ele>742.6457</ele>
        <time>2013-05-26T12:52:54Z</time>
      </trkpt>
      <trkpt lat="45.53538" lon="4.47684">
        <ele>742.91797</ele>
        <time>2013-05-26T12:52:59Z</time>
      </trkpt>
      <trkpt lat="45.53519" lon="4.47674">
        <ele>742.0088</ele>
        <time>2013-05-26T12:53:03Z</time>
      </trkpt>
      <trkpt lat="45.53499" lon="4.47664">
        <ele>741.63873</ele>
        <time>2013-05-26T12:53:07Z</time>
      </trkpt>
      <trkpt lat="45.53476" lon="4.47655">
        <ele>742.72125</ele>
        <time>2013-05-26T12:53:11Z</time>
      </trkpt>
      <trkpt lat="45.53454" lon="4.4765">
        <ele>742.87585</ele>
        <time>2013-05-26T12:53:15Z</time>
      </trkpt>
      <trkpt lat="45.53431" lon="4.47643">
        <ele>742.5096</ele>
        <time>2013-05-26T12:53:19Z</time>
      </trkpt>
      <trkpt lat="45.53413" lon="4.47631">
        <ele>742.0634</ele>
        <time>2013-05-26T12:53:22Z</time>
      </trkpt>
      <trkpt lat="45.53397" lon="4.47615">
        <ele>741.508</ele>
        <time>2013-05-26T12:53:25Z</time>
      </trkpt>
      <trkpt lat="45.5338" lon="4.47598">
        <ele>741.23773</ele>
        <time>2013-05-26T12:53:28Z</time>
      </trkpt>
      <trkpt lat="45.53361" lon="4.47583">
        <ele>740.3034</ele>
        <time>2013-05-26T12:53:31Z</time>
      </trkpt>
      <trkpt lat="45.53341" lon="4.47567">
        <ele>738.5452</ele>
        <time>2013-05-26T12:53:34Z</time>
      </trkpt>
      <trkpt lat="45.53319" lon="4.47557">
        <ele>737.3191</ele>
        <time>2013-05-26T12:53:37Z</time>
      </trkpt>
      <trkpt lat="45.53296" lon="4.47548">
        <ele>736.4596</ele>
        <time>2013-05-26T12:53:40Z</time>
      </trkpt>
      <trkpt lat="45.53273" lon="4.47538">
        <ele>735.2064</ele>
        <time>2013-05-26T12:53:43Z</time>
      </trkpt>
      <trkpt lat="45.53249" lon="4.47531">
        <ele>734.4527</ele>
        <time>2013-05-26T12:53:46Z</time>
      </trkpt>
      <trkpt lat="45.53225" lon="4.47531">
        <ele>733.7816</ele>
        <time>2013-05-26T12:53:49Z</time>
      </trkpt>
      <trkpt lat="45.53201" lon="4.47538">
        <ele>731.98914</ele>
        <time>2013-05-26T12:53:52Z</time>
      </trkpt>
      <trkpt lat="45.53175" lon="4.47544">
        <ele>730.30634</ele>
        <time>2013-05-26T12:53:55Z</time>
      </trkpt>
      <trkpt lat="45.5315" lon="4.47547">
        <ele>730.17456</ele>
        <time>2013-05-26T12:53:58Z</time>
      </trkpt>
      <trkpt lat="45.53125" lon="4.4755">
        <ele>729.4455</ele>
        <time>2013-05-26T12:54:01Z</time>
      </trkpt>
      <trkpt lat="45.531" lon="4.47553">
        <ele>729.1817</ele>
        <time>2013-05-26T12:54:04Z</time>
      </trkpt>
      <trkpt lat="45.53077" lon="4.47554">
        <ele>729.5251</ele>
        <time>2013-05-26T12:54:07Z</time>
      </trkpt>
      <trkpt lat="45.53053" lon="4.4755">
        <ele>728.94806</ele>
        <time>2013-05-26T12:54:10Z</time>
      </trkpt>
      <trkpt lat="45.53028" lon="4.47538">
        <ele>727.8578</ele>
        <time>2013-05-26T12:54:13Z</time>
      </trkpt>
      <trkpt lat="45.53013" lon="4.47521">
        <ele>726.945</ele>
        <time>2013-05-26T12:54:15Z</time>
      </trkpt>
      <trkpt lat="45.53004" lon="4.47497">
        <ele>725.72534</ele>
        <time>2013-05-26T12:54:17Z</time>
      </trkpt>
      <trkpt lat="45.53" lon="4.47471">
        <ele>724.60175</ele>
        <time>2013-05-26T12:54:19Z</time>
      </trkpt>
      <trkpt lat="45.52996" lon="4.47444">
        <ele>723.6322</ele>
        <time>2013-05-26T12:54:21Z</time>
      </trkpt>
      <trkpt lat="45.52991" lon="4.47407">
        <ele>722.34955</ele>
        <time>2013-05-26T12:54:24Z</time>
      </trkpt>
      <trkpt lat="45.52987" lon="4.4737">
        <ele>721.1787</ele>
        <time>2013-05-26T12:54:27Z</time>
      </trkpt>
      <trkpt lat="45.52979" lon="4.47337">
        <ele>720.17224</ele>
        <time>2013-05-26T12:54:30Z</time>
      </trkpt>
      <trkpt lat="45.52969" lon="4.47309">
        <ele>719.8758</ele>
        <time>2013-05-26T12:54:33Z</time>
      </trkpt>
      <trkpt lat="45.52956" lon="4.47281">
        <ele>719.63043</ele>
        <time>2013-05-26T12:54:36Z</time>
      </trkpt>
      <trkpt lat="45.52943" lon="4.47253">
        <ele>719.2269</ele>
        <time>2013-05-26T12:54:39Z</time>
      </trkpt>
      <trkpt lat="45.52928" lon="4.47228">
        <ele>718.341</ele>
        <time>2013-05-26T12:54:42Z</time>
      </trkpt>
      <trkpt lat="45.52919" lon="4.47193">
        <ele>717.1142</ele>
        <time>2013-05-26T12:54:45Z</time>
      </trkpt>
      <trkpt lat="45.52917" lon="4.47167">
        <ele>715.9392</ele>
        <time>2013-05-26T12:54:47Z</time>
      </trkpt>
      <trkpt lat="45.52925" lon="4.47132">
        <ele>713.89465</ele>
        <time>2013-05-26T12:54:50Z</time>
      </trkpt>
      <trkpt lat="45.52936" lon="4.47111">
        <ele>713.4915</ele>
        <time>2013-05-26T12:54:53Z</time>
      </trkpt>
      <trkpt lat="45.52949" lon="4.47093">
        <ele>719.77637</ele>
        <time>2013-05-26T12:58:12Z</time>
      </trkpt>
      <trkpt lat="45.52961" lon="4.4707">
        <ele>717.4427</ele>
        <time>2013-05-26T12:58:18Z</time>
      </trkpt>
      <trkpt lat="45.52975" lon="4.47048">
        <ele>716.0363</ele>
        <time>2013-05-26T12:58:23Z</time>
      </trkpt>
      <trkpt lat="45.52988" lon="4.47024">
        <ele>715.20325</ele>
        <time>2013-05-26T12:58:28Z</time>
      </trkpt>
      <trkpt lat="45.52998" lon="4.47002">
        <ele>714.7651</ele>
        <time>2013-05-26T12:58:32Z</time>
      </trkpt>
      <trkpt lat="45.53007" lon="4.46976">
        <ele>714.06006</ele>
        <time>2013-05-26T12:58:36Z</time>
      </trkpt>
      <trkpt lat="45.53012" lon="4.4695">
        <ele>713.21783</ele>
        <time>2013-05-26T12:58:40Z</time>
      </trkpt>
      <trkpt lat="45.53018" lon="4.46919">
        <ele>712.2779</ele>
        <time>2013-05-26T12:58:44Z</time>
      </trkpt>
      <trkpt lat="45.53019" lon="4.46888">
        <ele>711.0231</ele>
        <time>2013-05-26T12:58:48Z</time>
      </trkpt>
      <trkpt lat="45.53016" lon="4.46856">
        <ele>709.2546</ele>
        <time>2013-05-26T12:58:52Z</time>
      </trkpt>
      <trkpt lat="45.53009" lon="4.46824">
        <ele>709.06885</ele>
        <time>2013-05-26T12:58:56Z</time>
      </trkpt>
      <trkpt lat="45.53008" lon="4.46796">
        <ele>708.16187</ele>
        <time>2013-05-26T12:58:59Z</time>
      </trkpt>
      <trkpt lat="45.5301" lon="4.4677">
        <ele>706.9308</ele>
        <time>2013-05-26T12:59:02Z</time>
      </trkpt>
      <trkpt lat="45.53016" lon="4.46737">
        <ele>706.3992</ele>
        <time>2013-05-26T12:59:06Z</time>
      </trkpt>
      <trkpt lat="45.53016" lon="4.46708">
        <ele>706.1168</ele>
        <time>2013-05-26T12:59:09Z</time>
      </trkpt>
      <trkpt lat="45.53013" lon="4.46677">
        <ele>705.7118</ele>
        <time>2013-05-26T12:59:12Z</time>
      </trkpt>
      <trkpt lat="45.53005" lon="4.46647">
        <ele>704.7909</ele>
        <time>2013-05-26T12:59:15Z</time>
      </trkpt>
      <trkpt lat="45.52996" lon="4.46615">
        <ele>703.55865</ele>
        <time>2013-05-26T12:59:18Z</time>
      </trkpt>
      <trkpt lat="45.52986" lon="4.46584">
        <ele>702.8482</ele>
        <time>2013-05-26T12:59:21Z</time>
      </trkpt>
      <trkpt lat="45.52972" lon="4.46556">
        <ele>701.9985</ele>
        <time>2013-05-26T12:59:24Z</time>
      </trkpt>
      <trkpt lat="45.52952" lon="4.46534">
        <ele>701.40094</ele>
        <time>2013-05-26T12:59:27Z</time>
      </trkpt>
      <trkpt lat="45.52929" lon="4.4652">
        <ele>700.7676</ele>
        <time>2013-05-26T12:59:30Z</time>
      </trkpt>
      <trkpt lat="45.52905" lon="4.46511">
        <ele>700.4097</ele>
        <time>2013-05-26T12:59:33Z</time>
      </trkpt>
      <trkpt lat="45.52882" lon="4.46497">
        <ele>699.251</ele>
        <time>2013-05-26T12:59:36Z</time>
      </trkpt>
      <trkpt lat="45.52861" lon="4.46476">
        <ele>699.2809</ele>
        <time>2013-05-26T12:59:39Z</time>
      </trkpt>
      <trkpt lat="45.52841" lon="4.46453">
        <ele>698.69977</ele>
        <time>2013-05-26T12:59:42Z</time>
      </trkpt>
      <trkpt lat="45.52826" lon="4.46437">
        <ele>697.6311</ele>
        <time>2013-05-26T12:59:44Z</time>
      </trkpt>
      <trkpt lat="45.52802" lon="4.46427">
        <ele>696.3209</ele>
        <time>2013-05-26T12:59:47Z</time>
      </trkpt>
      <trkpt lat="45.52776" lon="4.46421">
        <ele>695.0104</ele>
        <time>2013-05-26T12:59:50Z</time>
      </trkpt>
      <trkpt lat="45.52749" lon="4.46418">
        <ele>693.8544</ele>
        <time>2013-05-26T12:59:53Z</time>
      </trkpt>
      <trkpt lat="45.52723" lon="4.46413">
        <ele>692.7589</ele>
        <time>2013-05-26T12:59:56Z</time>
      </trkpt>
      <trkpt lat="45.52699" lon="4.46399">
        <ele>690.85455</ele>
        <time>2013-05-26T12:59:59Z</time>
      </trkpt>
      <trkpt lat="45.52676" lon="4.46381">
        <ele>689.86676</ele>
        <time>2013-05-26T13:00:02Z</time>
      </trkpt>
      <trkpt lat="45.52663" lon="4.46362">
        <ele>689.25006</ele>
        <time>2013-05-26T13:00:04Z</time>
      </trkpt>
      <trkpt lat="45.52651" lon="4.46329">
        <ele>687.93207</ele>
        <time>2013-05-26T13:00:07Z</time>
      </trkpt>
      <trkpt lat="45.52639" lon="4.46298">
        <ele>686.75726</ele>
        <time>2013-05-26T13:00:10Z</time>
      </trkpt>
      <trkpt lat="45.52622" lon="4.4627">
        <ele>685.8054</ele>
        <time>2013-05-26T13:00:13Z</time>
      </trkpt>
      <trkpt lat="45.52604" lon="4.46245">
        <ele>684.61945</ele>
        <time>2013-05-26T13:00:16Z</time>
      </trkpt>
      <trkpt lat="45.52587" lon="4.46223">
        <ele>683.2129</ele>
        <time>2013-05-26T13:00:19Z</time>
      </trkpt>
      <trkpt lat="45.52571" lon="4.46197">
        <ele>682.19293</ele>
        <time>2013-05-26T13:00:22Z</time>
      </trkpt>
      <trkpt lat="45.52561" lon="4.46169">
        <ele>681.1439</ele>
        <time>2013-05-26T13:00:25Z</time>
      </trkpt>
      <trkpt lat="45.52566" lon="4.46133">
        <ele>680.5154</ele>
        <time>2013-05-26T13:00:28Z</time>
      </trkpt>
      <trkpt lat="45.52577" lon="4.46105">
        <ele>680.01276</ele>
        <time>2013-05-26T13:00:31Z</time>
      </trkpt>
      <trkpt lat="45.52591" lon="4.4608">
        <ele>679.2007</ele>
        <time>2013-05-26T13:00:34Z</time>
      </trkpt>
      <trkpt lat="45.52599" lon="4.46054">
        <ele>677.87683</ele>
        <time>2013-05-26T13:00:37Z</time>
      </trkpt>
      <trkpt lat="45.52606" lon="4.46026">
        <ele>676.6715</ele>
        <time>2013-05-26T13:00:40Z</time>
      </trkpt>
      <trkpt lat="45.52609" lon="4.45996">
        <ele>676.05206</ele>
        <time>2013-05-26T13:00:43Z</time>
      </trkpt>
      <trkpt lat="45.52606" lon="4.45966">
        <ele>674.45166</ele>
        <time>2013-05-26T13:00:46Z</time>
      </trkpt>
      <trkpt lat="45.52597" lon="4.4594">
        <ele>673.514</ele>
        <time>2013-05-26T13:00:49Z</time>
      </trkpt>
      <trkpt lat="45.5259" lon="4.45912">
        <ele>671.24963</ele>
        <time>2013-05-26T13:00:52Z</time>
      </trkpt>
      <trkpt lat="45.52585" lon="4.45884">
        <ele>671.03656</ele>
        <time>2013-05-26T13:00:55Z</time>
      </trkpt>
      <trkpt lat="45.52582" lon="4.45857">
        <ele>670.6201</ele>
        <time>2013-05-26T13:00:58Z</time>
      </trkpt>
      <trkpt lat="45.52581" lon="4.45826">
        <ele>669.55066</ele>
        <time>2013-05-26T13:01:01Z</time>
      </trkpt>
      <trkpt lat="45.5259" lon="4.45797">
        <ele>668.6761</ele>
        <time>2013-05-26T13:01:04Z</time>
      </trkpt>
      <trkpt lat="45.52597" lon="4.45761">
        <ele>667.5118</ele>
        <time>2013-05-26T13:01:07Z</time>
      </trkpt>
      <trkpt lat="45.52594" lon="4.45726">
        <ele>666.6331</ele>
        <time>2013-05-26T13:01:10Z</time>
      </trkpt>
      <trkpt lat="45.52579" lon="4.45696">
        <ele>666.22174</ele>
        <time>2013-05-26T13:01:13Z</time>
      </trkpt>
      <trkpt lat="45.52563" lon="4.45678">
        <ele>665.7935</ele>
        <time>2013-05-26T13:01:15Z</time>
      </trkpt>
      <trkpt lat="45.52544" lon="4.45664">
        <ele>664.6713</ele>
        <time>2013-05-26T13:01:17Z</time>
      </trkpt>
      <trkpt lat="45.52529" lon="4.45645">
        <ele>663.6089</ele>
        <time>2013-05-26T13:01:19Z</time>
      </trkpt>
      <trkpt lat="45.52513" lon="4.45617">
        <ele>663.15845</ele>
        <time>2013-05-26T13:01:22Z</time>
      </trkpt>
      <trkpt lat="45.52503" lon="4.45596">
        <ele>662.3891</ele>
        <time>2013-05-26T13:01:24Z</time>
      </trkpt>
      <trkpt lat="45.52491" lon="4.45575">
        <ele>661.1751</ele>
        <time>2013-05-26T13:01:26Z</time>
      </trkpt>
      <trkpt lat="45.52477" lon="4.45545">
        <ele>659.3754</ele>
        <time>2013-05-26T13:01:29Z</time>
      </trkpt>
      <trkpt lat="45.52466" lon="4.45521">
        <ele>658.4112</ele>
        <time>2013-05-26T13:01:31Z</time>
      </trkpt>
      <trkpt lat="45.52454" lon="4.45493">
        <ele>655.84534</ele>
        <time>2013-05-26T13:01:34Z</time>
      </trkpt>
      <trkpt lat="45.5244" lon="4.45459">
        <ele>654.11285</ele>
        <time>2013-05-26T13:01:37Z</time>
      </trkpt>
      <trkpt lat="45.52429" lon="4.45439">
        <ele>653.05096</ele>
        <time>2013-05-26T13:01:39Z</time>
      </trkpt>
      <trkpt lat="45.52413" lon="4.45421">
        <ele>652.05994</ele>
        <time>2013-05-26T13:01:41Z</time>
      </trkpt>
      <trkpt lat="45.52401" lon="4.45401">
        <ele>651.29</ele>
        <time>2013-05-26T13:01:43Z</time>
      </trkpt>
      <trkpt lat="45.5239" lon="4.45378">
        <ele>650.4131</ele>
        <time>2013-05-26T13:01:45Z</time>
      </trkpt>
      <trkpt lat="45.52382" lon="4.45354">
        <ele>649.4011</ele>
        <time>2013-05-26T13:01:47Z</time>
      </trkpt>
      <trkpt lat="45.52375" lon="4.4533">
        <ele>648.5694</ele>
        <time>2013-05-26T13:01:49Z</time>
      </trkpt>
      <trkpt lat="45.52365" lon="4.45295">
        <ele>647.43396</ele>
        <time>2013-05-26T13:01:52Z</time>
      </trkpt>
      <trkpt lat="45.52355" lon="4.45264">
        <ele>645.89716</ele>
        <time>2013-05-26T13:01:55Z</time>
      </trkpt>
      <trkpt lat="45.52342" lon="4.45231">
        <ele>645.28625</ele>
        <time>2013-05-26T13:01:58Z</time>
      </trkpt>
      <trkpt lat="45.52332" lon="4.45201">
        <ele>644.15045</ele>
        <time>2013-05-26T13:02:01Z</time>
      </trkpt>
      <trkpt lat="45.52322" lon="4.45178">
        <ele>643.8534</ele>
        <time>2013-05-26T13:02:03Z</time>
      </trkpt>
      <trkpt lat="45.52308" lon="4.45147">
        <ele>643.28815</ele>
        <time>2013-05-26T13:02:06Z</time>
      </trkpt>
      <trkpt lat="45.52292" lon="4.45117">
        <ele>642.07153</ele>
        <time>2013-05-26T13:02:09Z</time>
      </trkpt>
      <trkpt lat="45.52279" lon="4.45098">
        <ele>641.4215</ele>
        <time>2013-05-26T13:02:11Z</time>
      </trkpt>
      <trkpt lat="45.52264" lon="4.45084">
        <ele>641.0184</ele>
        <time>2013-05-26T13:02:13Z</time>
      </trkpt>
      <trkpt lat="45.5224" lon="4.45067">
        <ele>640.139</ele>
        <time>2013-05-26T13:02:16Z</time>
      </trkpt>
      <trkpt lat="45.52215" lon="4.45056">
        <ele>639.5008</ele>
        <time>2013-05-26T13:02:19Z</time>
      </trkpt>
      <trkpt lat="45.5219" lon="4.45044">
        <ele>639.41595</ele>
        <time>2013-05-26T13:02:22Z</time>
      </trkpt>
      <trkpt lat="45.52167" lon="4.45028">
        <ele>639.3052</ele>
        <time>2013-05-26T13:02:25Z</time>
      </trkpt>
      <trkpt lat="45.52146" lon="4.4501">
        <ele>639.0006</ele>
        <time>2013-05-26T13:02:28Z</time>
      </trkpt>
      <trkpt lat="45.52129" lon="4.44985">
        <ele>638.44403</ele>
        <time>2013-05-26T13:02:31Z</time>
      </trkpt>
      <trkpt lat="45.52117" lon="4.44954">
        <ele>636.96857</ele>
        <time>2013-05-26T13:02:34Z</time>
      </trkpt>
      <trkpt lat="45.52109" lon="4.44923">
        <ele>636.0711</ele>
        <time>2013-05-26T13:02:37Z</time>
      </trkpt>
      <trkpt lat="45.52097" lon="4.44893">
        <ele>635.5019</ele>
        <time>2013-05-26T13:02:40Z</time>
      </trkpt>
      <trkpt lat="45.5208" lon="4.44868">
        <ele>634.20233</ele>
        <time>2013-05-26T13:02:43Z</time>
      </trkpt>
      <trkpt lat="45.5206" lon="4.44852">
        <ele>633.05096</ele>
        <time>2013-05-26T13:02:46Z</time>
      </trkpt>
      <trkpt lat="45.52038" lon="4.4484">
        <ele>632.5356</ele>
        <time>2013-05-26T13:02:49Z</time>
      </trkpt>
      <trkpt lat="45.52017" lon="4.44835">
        <ele>632.9697</ele>
        <time>2013-05-26T13:02:52Z</time>
      </trkpt>
      <trkpt lat="45.51995" lon="4.44824">
        <ele>633.1435</ele>
        <time>2013-05-26T13:02:55Z</time>
      </trkpt>
      <trkpt lat="45.51976" lon="4.44806">
        <ele>632.3277</ele>
        <time>2013-05-26T13:02:58Z</time>
      </trkpt>
      <trkpt lat="45.51956" lon="4.44784">
        <ele>632.9664</ele>
        <time>2013-05-26T13:03:01Z</time>
      </trkpt>
      <trkpt lat="45.51939" lon="4.44758">
        <ele>632.11237</ele>
        <time>2013-05-26T13:03:04Z</time>
      </trkpt>
      <trkpt lat="45.51922" lon="4.44733">
        <ele>631.0146</ele>
        <time>2013-05-26T13:03:07Z</time>
      </trkpt>
      <trkpt lat="45.51903" lon="4.44711">
        <ele>629.3968</ele>
        <time>2013-05-26T13:03:10Z</time>
      </trkpt>
      <trkpt lat="45.51883" lon="4.44688">
        <ele>627.1455</ele>
        <time>2013-05-26T13:03:13Z</time>
      </trkpt>
      <trkpt lat="45.51861" lon="4.44668">
        <ele>625.6192</ele>
        <time>2013-05-26T13:03:16Z</time>
      </trkpt>
      <trkpt lat="45.51839" lon="4.44648">
        <ele>624.1237</ele>
        <time>2013-05-26T13:03:19Z</time>
      </trkpt>
      <trkpt lat="45.5182" lon="4.44627">
        <ele>622.5444</ele>
        <time>2013-05-26T13:03:22Z</time>
      </trkpt>
      <trkpt lat="45.51799" lon="4.44606">
        <ele>621.09216</ele>
        <time>2013-05-26T13:03:25Z</time>
      </trkpt>
      <trkpt lat="45.51781" lon="4.44584">
        <ele>619.5514</ele>
        <time>2013-05-26T13:03:28Z</time>
      </trkpt>
      <trkpt lat="45.51765" lon="4.44558">
        <ele>618.7873</ele>
        <time>2013-05-26T13:03:31Z</time>
      </trkpt>
      <trkpt lat="45.51759" lon="4.44529">
        <ele>618.4853</ele>
        <time>2013-05-26T13:03:34Z</time>
      </trkpt>
      <trkpt lat="45.51754" lon="4.44496">
        <ele>617.8719</ele>
        <time>2013-05-26T13:03:37Z</time>
      </trkpt>
      <trkpt lat="45.5174" lon="4.44474">
        <ele>618.56</ele>
        <time>2013-05-26T13:03:40Z</time>
      </trkpt>
      <trkpt lat="45.51722" lon="4.4447">
        <ele>619.6519</ele>
        <time>2013-05-26T13:03:43Z</time>
      </trkpt>
      <trkpt lat="45.51705" lon="4.44479">
        <ele>619.73126</ele>
        <time>2013-05-26T13:03:46Z</time>
      </trkpt>
      <trkpt lat="45.51683" lon="4.44489">
        <ele>620.3525</ele>
        <time>2013-05-26T13:03:50Z</time>
      </trkpt>
      <trkpt lat="45.51665" lon="4.44484">
        <ele>620.719</ele>
        <time>2013-05-26T13:03:53Z</time>
      </trkpt>
      <trkpt lat="45.51641" lon="4.4447">
        <ele>620.82556</ele>
        <time>2013-05-26T13:03:57Z</time>
      </trkpt>
      <trkpt lat="45.51628" lon="4.44451">
        <ele>621.0686</ele>
        <time>2013-05-26T13:04:00Z</time>
      </trkpt>
      <trkpt lat="45.51614" lon="4.44431">
        <ele>621.1367</ele>
        <time>2013-05-26T13:04:03Z</time>
      </trkpt>
      <trkpt lat="45.516" lon="4.44408">
        <ele>620.9405</ele>
        <time>2013-05-26T13:04:06Z</time>
      </trkpt>
      <trkpt lat="45.51586" lon="4.4438">
        <ele>620.578</ele>
        <time>2013-05-26T13:04:09Z</time>
      </trkpt>
      <trkpt lat="45.51572" lon="4.44357">
        <ele>621.01416</ele>
        <time>2013-05-26T13:04:12Z</time>
      </trkpt>
      <trkpt lat="45.51557" lon="4.44339">
        <ele>621.4341</ele>
        <time>2013-05-26T13:04:15Z</time>
      </trkpt>
      <trkpt lat="45.51543" lon="4.44322">
        <ele>622.3144</ele>
        <time>2013-05-26T13:04:18Z</time>
      </trkpt>
      <trkpt lat="45.51527" lon="4.44306">
        <ele>622.3795</ele>
        <time>2013-05-26T13:04:21Z</time>
      </trkpt>
      <trkpt lat="45.51508" lon="4.44294">
        <ele>621.87885</ele>
        <time>2013-05-26T13:04:24Z</time>
      </trkpt>
      <trkpt lat="45.5149" lon="4.44278">
        <ele>620.96136</ele>
        <time>2013-05-26T13:04:27Z</time>
      </trkpt>
      <trkpt lat="45.51472" lon="4.4427">
        <ele>620.4243</ele>
        <time>2013-05-26T13:04:30Z</time>
      </trkpt>
      <trkpt lat="45.51454" lon="4.44265">
        <ele>618.15405</ele>
        <time>2013-05-26T13:04:33Z</time>
      </trkpt>
      <trkpt lat="45.51433" lon="4.4426">
        <ele>617.0181</ele>
        <time>2013-05-26T13:04:36Z</time>
      </trkpt>
      <trkpt lat="45.51413" lon="4.44255">
        <ele>615.8139</ele>
        <time>2013-05-26T13:04:39Z</time>
      </trkpt>
      <trkpt lat="45.51393" lon="4.44251">
        <ele>614.4059</ele>
        <time>2013-05-26T13:04:42Z</time>
      </trkpt>
      <trkpt lat="45.51374" lon="4.44243">
        <ele>613.5259</ele>
        <time>2013-05-26T13:04:45Z</time>
      </trkpt>
      <trkpt lat="45.51356" lon="4.44232">
        <ele>612.725</ele>
        <time>2013-05-26T13:04:48Z</time>
      </trkpt>
      <trkpt lat="45.51333" lon="4.44227">
        <ele>612.1481</ele>
        <time>2013-05-26T13:04:51Z</time>
      </trkpt>
      <trkpt lat="45.51312" lon="4.4422">
        <ele>611.8625</ele>
        <time>2013-05-26T13:04:54Z</time>
      </trkpt>
      <trkpt lat="45.51293" lon="4.44213">
        <ele>610.9779</ele>
        <time>2013-05-26T13:04:57Z</time>
      </trkpt>
      <trkpt lat="45.51274" lon="4.44208">
        <ele>610.1454</ele>
        <time>2013-05-26T13:05:00Z</time>
      </trkpt>
      <trkpt lat="45.51256" lon="4.442">
        <ele>610.4723</ele>
        <time>2013-05-26T13:05:03Z</time>
      </trkpt>
      <trkpt lat="45.51238" lon="4.44191">
        <ele>611.0008</ele>
        <time>2013-05-26T13:05:06Z</time>
      </trkpt>
      <trkpt lat="45.51218" lon="4.44172">
        <ele>610.878</ele>
        <time>2013-05-26T13:05:10Z</time>
      </trkpt>
      <trkpt lat="45.51203" lon="4.44155">
        <ele>610.8392</ele>
        <time>2013-05-26T13:05:13Z</time>
      </trkpt>
      <trkpt lat="45.51185" lon="4.44132">
        <ele>610.8319</ele>
        <time>2013-05-26T13:05:17Z</time>
      </trkpt>
      <trkpt lat="45.5117" lon="4.44108">
        <ele>610.31866</ele>
        <time>2013-05-26T13:05:21Z</time>
      </trkpt>
      <trkpt lat="45.51154" lon="4.44084">
        <ele>609.5251</ele>
        <time>2013-05-26T13:05:25Z</time>
      </trkpt>
      <trkpt lat="45.51141" lon="4.44066">
        <ele>609.56525</ele>
        <time>2013-05-26T13:05:28Z</time>
      </trkpt>
      <trkpt lat="45.51125" lon="4.44044">
        <ele>609.3027</ele>
        <time>2013-05-26T13:05:32Z</time>
      </trkpt>
      <trkpt lat="45.51108" lon="4.44022">
        <ele>610.0067</ele>
        <time>2013-05-26T13:05:36Z</time>
      </trkpt>
      <trkpt lat="45.51091" lon="4.44001">
        <ele>611.2935</ele>
        <time>2013-05-26T13:05:40Z</time>
      </trkpt>
      <trkpt lat="45.51071" lon="4.43983">
        <ele>611.9171</ele>
        <time>2013-05-26T13:05:44Z</time>
      </trkpt>
      <trkpt lat="45.51049" lon="4.43971">
        <ele>612.0605</ele>
        <time>2013-05-26T13:05:48Z</time>
      </trkpt>
      <trkpt lat="45.51032" lon="4.43963">
        <ele>611.80054</ele>
        <time>2013-05-26T13:05:51Z</time>
      </trkpt>
      <trkpt lat="45.51008" lon="4.43958">
        <ele>611.1072</ele>
        <time>2013-05-26T13:05:55Z</time>
      </trkpt>
      <trkpt lat="45.5099" lon="4.43953">
        <ele>610.1577</ele>
        <time>2013-05-26T13:05:58Z</time>
      </trkpt>
      <trkpt lat="45.5097" lon="4.43949">
        <ele>609.8259</ele>
        <time>2013-05-26T13:06:01Z</time>
      </trkpt>
      <trkpt lat="45.5095" lon="4.43945">
        <ele>608.8547</ele>
        <time>2013-05-26T13:06:04Z</time>
      </trkpt>
      <trkpt lat="45.50928" lon="4.43939">
        <ele>605.7293</ele>
        <time>2013-05-26T13:06:07Z</time>
      </trkpt>
      <trkpt lat="45.50901" lon="4.43935">
        <ele>603.3389</ele>
        <time>2013-05-26T13:06:10Z</time>
      </trkpt>
      <trkpt lat="45.50883" lon="4.4393">
        <ele>602.1469</ele>
        <time>2013-05-26T13:06:12Z</time>
      </trkpt>
      <trkpt lat="45.50864" lon="4.43928">
        <ele>601.22015</ele>
        <time>2013-05-26T13:06:14Z</time>
      </trkpt>
      <trkpt lat="45.50844" lon="4.43923">
        <ele>600.13007</ele>
        <time>2013-05-26T13:06:16Z</time>
      </trkpt>
      <trkpt lat="45.50825" lon="4.4392">
        <ele>599.2107</ele>
        <time>2013-05-26T13:06:18Z</time>
      </trkpt>
      <trkpt lat="45.50805" lon="4.43917">
        <ele>598.0248</ele>
        <time>2013-05-26T13:06:20Z</time>
      </trkpt>
      <trkpt lat="45.50784" lon="4.43913">
        <ele>596.9389</ele>
        <time>2013-05-26T13:06:22Z</time>
      </trkpt>
      <trkpt lat="45.50764" lon="4.43909">
        <ele>595.92194</ele>
        <time>2013-05-26T13:06:24Z</time>
      </trkpt>
      <trkpt lat="45.50744" lon="4.43902">
        <ele>595.2998</ele>
        <time>2013-05-26T13:06:26Z</time>
      </trkpt>
      <trkpt lat="45.50724" lon="4.4389">
        <ele>594.48114</ele>
        <time>2013-05-26T13:06:28Z</time>
      </trkpt>
      <trkpt lat="45.50705" lon="4.43872">
        <ele>593.4894</ele>
        <time>2013-05-26T13:06:30Z</time>
      </trkpt>
      <trkpt lat="45.50686" lon="4.43853">
        <ele>592.744</ele>
        <time>2013-05-26T13:06:32Z</time>
      </trkpt>
      <trkpt lat="45.50668" lon="4.43833">
        <ele>592.3998</ele>
        <time>2013-05-26T13:06:34Z</time>
      </trkpt>
      <trkpt lat="45.50657" lon="4.43809">
        <ele>592.1311</ele>
        <time>2013-05-26T13:06:36Z</time>
      </trkpt>
      <trkpt lat="45.5064" lon="4.4379">
        <ele>592.21124</ele>
        <time>2013-05-26T13:06:38Z</time>
      </trkpt>
      <trkpt lat="45.50625" lon="4.43772">
        <ele>592.3501</ele>
        <time>2013-05-26T13:06:40Z</time>
      </trkpt>
      <trkpt lat="45.5061" lon="4.43758">
        <ele>591.8282</ele>
        <time>2013-05-26T13:06:42Z</time>
      </trkpt>
      <trkpt lat="45.50596" lon="4.4374">
        <ele>590.17834</ele>
        <time>2013-05-26T13:06:44Z</time>
      </trkpt>
      <trkpt lat="45.5058" lon="4.43728">
        <ele>588.85034</ele>
        <time>2013-05-26T13:06:46Z</time>
      </trkpt>
      <trkpt lat="45.50559" lon="4.43713">
        <ele>587.8165</ele>
        <time>2013-05-26T13:06:49Z</time>
      </trkpt>
      <trkpt lat="45.50539" lon="4.437">
        <ele>587.6554</ele>
        <time>2013-05-26T13:06:52Z</time>
      </trkpt>
      <trkpt lat="45.50521" lon="4.43691">
        <ele>587.2062</ele>
        <time>2013-05-26T13:06:55Z</time>
      </trkpt>
      <trkpt lat="45.50504" lon="4.43679">
        <ele>587.07446</ele>
        <time>2013-05-26T13:06:58Z</time>
      </trkpt>
      <trkpt lat="45.50485" lon="4.43669">
        <ele>586.572</ele>
        <time>2013-05-26T13:07:01Z</time>
      </trkpt>
      <trkpt lat="45.50465" lon="4.43657">
        <ele>585.51733</ele>
        <time>2013-05-26T13:07:05Z</time>
      </trkpt>
      <trkpt lat="45.50445" lon="4.43644">
        <ele>582.0024</ele>
        <time>2013-05-26T13:07:09Z</time>
      </trkpt>
      <trkpt lat="45.50427" lon="4.43638">
        <ele>580.7651</ele>
        <time>2013-05-26T13:07:12Z</time>
      </trkpt>
      <trkpt lat="45.50408" lon="4.43632">
        <ele>581.5493</ele>
        <time>2013-05-26T13:07:15Z</time>
      </trkpt>
      <trkpt lat="45.50389" lon="4.43624">
        <ele>581.42084</ele>
        <time>2013-05-26T13:07:18Z</time>
      </trkpt>
      <trkpt lat="45.50367" lon="4.43615">
        <ele>581.3275</ele>
        <time>2013-05-26T13:07:21Z</time>
      </trkpt>
      <trkpt lat="45.50346" lon="4.43605">
        <ele>581.496</ele>
        <time>2013-05-26T13:07:24Z</time>
      </trkpt>
      <trkpt lat="45.50326" lon="4.43596">
        <ele>582.29675</ele>
        <time>2013-05-26T13:07:27Z</time>
      </trkpt>
      <trkpt lat="45.50309" lon="4.43586">
        <ele>582.72516</ele>
        <time>2013-05-26T13:07:30Z</time>
      </trkpt>
      <trkpt lat="45.5029" lon="4.43579">
        <ele>583.8575</ele>
        <time>2013-05-26T13:07:33Z</time>
      </trkpt>
      <trkpt lat="45.50271" lon="4.43566">
        <ele>584.4381</ele>
        <time>2013-05-26T13:07:37Z</time>
      </trkpt>
      <trkpt lat="45.50253" lon="4.43553">
        <ele>584.8855</ele>
        <time>2013-05-26T13:07:41Z</time>
      </trkpt>
      <trkpt lat="45.50236" lon="4.43539">
        <ele>584.74304</ele>
        <time>2013-05-26T13:07:45Z</time>
      </trkpt>
      <trkpt lat="45.5022" lon="4.43522">
        <ele>585.6918</ele>
        <time>2013-05-26T13:07:49Z</time>
      </trkpt>
      <trkpt lat="45.50207" lon="4.43502">
        <ele>585.8134</ele>
        <time>2013-05-26T13:07:53Z</time>
      </trkpt>
      <trkpt lat="45.50189" lon="4.43491">
        <ele>585.9324</ele>
        <time>2013-05-26T13:07:57Z</time>
      </trkpt>
      <trkpt lat="45.50171" lon="4.43482">
        <ele>586.12616</ele>
        <time>2013-05-26T13:08:00Z</time>
      </trkpt>
      <trkpt lat="45.50154" lon="4.43471">
        <ele>586.8454</ele>
        <time>2013-05-26T13:08:03Z</time>
      </trkpt>
      <trkpt lat="45.50136" lon="4.43461">
        <ele>586.6692</ele>
        <time>2013-05-26T13:08:06Z</time>
      </trkpt>
      <trkpt lat="45.50118" lon="4.43453">
        <ele>585.8745</ele>
        <time>2013-05-26T13:08:09Z</time>
      </trkpt>
      <trkpt lat="45.501" lon="4.43446">
        <ele>586.0736</ele>
        <time>2013-05-26T13:08:12Z</time>
      </trkpt>
      <trkpt lat="45.50078" lon="4.43435">
        <ele>586.59436</ele>
        <time>2013-05-26T13:08:16Z</time>
      </trkpt>
      <trkpt lat="45.50059" lon="4.43431">
        <ele>587.01483</ele>
        <time>2013-05-26T13:08:19Z</time>
      </trkpt>
      <trkpt lat="45.50038" lon="4.43428">
        <ele>587.4578</ele>
        <time>2013-05-26T13:08:22Z</time>
      </trkpt>
      <trkpt lat="45.50018" lon="4.43427">
        <ele>587.27124</ele>
        <time>2013-05-26T13:08:25Z</time>
      </trkpt>
      <trkpt lat="45.49999" lon="4.4343">
        <ele>586.0785</ele>
        <time>2013-05-26T13:08:28Z</time>
      </trkpt>
      <trkpt lat="45.49979" lon="4.43434">
        <ele>585.6409</ele>
        <time>2013-05-26T13:08:31Z</time>
      </trkpt>
      <trkpt lat="45.49957" lon="4.43438">
        <ele>585.98914</ele>
        <time>2013-05-26T13:08:34Z</time>
      </trkpt>
      <trkpt lat="45.49936" lon="4.43439">
        <ele>586.0517</ele>
        <time>2013-05-26T13:08:37Z</time>
      </trkpt>
      <trkpt lat="45.49913" lon="4.43443">
        <ele>585.5812</ele>
        <time>2013-05-26T13:08:40Z</time>
      </trkpt>
      <trkpt lat="45.4989" lon="4.43444">
        <ele>584.6342</ele>
        <time>2013-05-26T13:08:43Z</time>
      </trkpt>
      <trkpt lat="45.49867" lon="4.43447">
        <ele>583.6066</ele>
        <time>2013-05-26T13:08:46Z</time>
      </trkpt>
      <trkpt lat="45.49848" lon="4.43448">
        <ele>582.7934</ele>
        <time>2013-05-26T13:08:49Z</time>
      </trkpt>
      <trkpt lat="45.49825" lon="4.43455">
        <ele>581.9441</ele>
        <time>2013-05-26T13:08:52Z</time>
      </trkpt>
      <trkpt lat="45.49802" lon="4.43458">
        <ele>581.12177</ele>
        <time>2013-05-26T13:08:55Z</time>
      </trkpt>
      <trkpt lat="45.49778" lon="4.43461">
        <ele>580.94354</ele>
        <time>2013-05-26T13:08:58Z</time>
      </trkpt>
      <trkpt lat="45.49757" lon="4.43462">
        <ele>580.5278</ele>
        <time>2013-05-26T13:09:01Z</time>
      </trkpt>
      <trkpt lat="45.49734" lon="4.43464">
        <ele>579.1898</ele>
        <time>2013-05-26T13:09:04Z</time>
      </trkpt>
      <trkpt lat="45.49714" lon="4.43469">
        <ele>577.99884</ele>
        <time>2013-05-26T13:09:07Z</time>
      </trkpt>
      <trkpt lat="45.49695" lon="4.43472">
        <ele>577.5604</ele>
        <time>2013-05-26T13:09:10Z</time>
      </trkpt>
      <trkpt lat="45.49676" lon="4.43475">
        <ele>577.59424</ele>
        <time>2013-05-26T13:09:13Z</time>
      </trkpt>
      <trkpt lat="45.49656" lon="4.43476">
        <ele>578.1976</ele>
        <time>2013-05-26T13:09:16Z</time>
      </trkpt>
      <trkpt lat="45.49632" lon="4.43479">
        <ele>577.9246</ele>
        <time>2013-05-26T13:09:20Z</time>
      </trkpt>
      <trkpt lat="45.49613" lon="4.43482">
        <ele>577.62445</ele>
        <time>2013-05-26T13:09:23Z</time>
      </trkpt>
      <trkpt lat="45.49595" lon="4.43486">
        <ele>577.41034</ele>
        <time>2013-05-26T13:09:26Z</time>
      </trkpt>
      <trkpt lat="45.49571" lon="4.43488">
        <ele>577.622</ele>
        <time>2013-05-26T13:09:30Z</time>
      </trkpt>
      <trkpt lat="45.49553" lon="4.43492">
        <ele>577.8296</ele>
        <time>2013-05-26T13:09:33Z</time>
      </trkpt>
      <trkpt lat="45.49534" lon="4.43494">
        <ele>577.64844</ele>
        <time>2013-05-26T13:09:36Z</time>
      </trkpt>
      <trkpt lat="45.49513" lon="4.43494">
        <ele>579.647</ele>
        <time>2013-05-26T13:09:39Z</time>
      </trkpt>
      <trkpt lat="45.49495" lon="4.43498">
        <ele>580.15106</ele>
        <time>2013-05-26T13:09:42Z</time>
      </trkpt>
      <trkpt lat="45.49476" lon="4.43502">
        <ele>579.44495</ele>
        <time>2013-05-26T13:09:45Z</time>
      </trkpt>
      <trkpt lat="45.49458" lon="4.43505">
        <ele>578.6971</ele>
        <time>2013-05-26T13:09:48Z</time>
      </trkpt>
      <trkpt lat="45.49434" lon="4.43511">
        <ele>577.9858</ele>
        <time>2013-05-26T13:09:52Z</time>
      </trkpt>
      <trkpt lat="45.49411" lon="4.43513">
        <ele>578.6986</ele>
        <time>2013-05-26T13:09:56Z</time>
      </trkpt>
      <trkpt lat="45.49393" lon="4.43516">
        <ele>580.39</ele>
        <time>2013-05-26T13:09:59Z</time>
      </trkpt>
      <trkpt lat="45.49372" lon="4.43517">
        <ele>582.57184</ele>
        <time>2013-05-26T13:10:03Z</time>
      </trkpt>
      <trkpt lat="45.49351" lon="4.43521">
        <ele>582.13837</ele>
        <time>2013-05-26T13:10:07Z</time>
      </trkpt>
      <trkpt lat="45.49332" lon="4.43527">
        <ele>582.5633</ele>
        <time>2013-05-26T13:10:11Z</time>
      </trkpt>
      <trkpt lat="45.49313" lon="4.43529">
        <ele>582.58484</ele>
        <time>2013-05-26T13:10:15Z</time>
      </trkpt>
      <trkpt lat="45.49292" lon="4.43532">
        <ele>581.0331</ele>
        <time>2013-05-26T13:10:19Z</time>
      </trkpt>
      <trkpt lat="45.49272" lon="4.43533">
        <ele>579.7706</ele>
        <time>2013-05-26T13:10:23Z</time>
      </trkpt>
      <trkpt lat="45.49251" lon="4.4354">
        <ele>579.0098</ele>
        <time>2013-05-26T13:10:27Z</time>
      </trkpt>
      <trkpt lat="45.49233" lon="4.43547">
        <ele>581.087</ele>
        <time>2013-05-26T13:10:30Z</time>
      </trkpt>
      <trkpt lat="45.49214" lon="4.43551">
        <ele>583.19135</ele>
        <time>2013-05-26T13:10:33Z</time>
      </trkpt>
      <trkpt lat="45.49195" lon="4.43549">
        <ele>583.50433</ele>
        <time>2013-05-26T13:10:37Z</time>
      </trkpt>
      <trkpt lat="45.49173" lon="4.43546">
        <ele>580.14514</ele>
        <time>2013-05-26T13:10:41Z</time>
      </trkpt>
      <trkpt lat="45.49153" lon="4.43551">
        <ele>577.9471</ele>
        <time>2013-05-26T13:10:45Z</time>
      </trkpt>
      <trkpt lat="45.49134" lon="4.43546">
        <ele>577.09534</ele>
        <time>2013-05-26T13:10:49Z</time>
      </trkpt>
      <trkpt lat="45.49116" lon="4.43553">
        <ele>575.8087</ele>
        <time>2013-05-26T13:10:53Z</time>
      </trkpt>
      <trkpt lat="45.49093" lon="4.43551">
        <ele>575.4613</ele>
        <time>2013-05-26T13:10:58Z</time>
      </trkpt>
      <trkpt lat="45.49075" lon="4.43557">
        <ele>575.39014</ele>
        <time>2013-05-26T13:11:02Z</time>
      </trkpt>
      <trkpt lat="45.49051" lon="4.43558">
        <ele>575.6133</ele>
        <time>2013-05-26T13:11:06Z</time>
      </trkpt>
      <trkpt lat="45.49033" lon="4.43562">
        <ele>575.2259</ele>
        <time>2013-05-26T13:11:09Z</time>
      </trkpt>
      <trkpt lat="45.4901" lon="4.43566">
        <ele>574.33514</ele>
        <time>2013-05-26T13:11:13Z</time>
      </trkpt>
      <trkpt lat="45.48988" lon="4.4357">
        <ele>574.17633</ele>
        <time>2013-05-26T13:11:17Z</time>
      </trkpt>
      <trkpt lat="45.48968" lon="4.43574">
        <ele>573.891</ele>
        <time>2013-05-26T13:11:21Z</time>
      </trkpt>
      <trkpt lat="45.48944" lon="4.43576">
        <ele>573.42096</ele>
        <time>2013-05-26T13:11:25Z</time>
      </trkpt>
      <trkpt lat="45.48923" lon="4.4358">
        <ele>572.76404</ele>
        <time>2013-05-26T13:11:29Z</time>
      </trkpt>
      <trkpt lat="45.48901" lon="4.43583">
        <ele>571.2863</ele>
        <time>2013-05-26T13:11:33Z</time>
      </trkpt>
      <trkpt lat="45.48879" lon="4.43588">
        <ele>569.79645</ele>
        <time>2013-05-26T13:11:37Z</time>
      </trkpt>
      <trkpt lat="45.48859" lon="4.43591">
        <ele>569.0961</ele>
        <time>2013-05-26T13:11:41Z</time>
      </trkpt>
      <trkpt lat="45.48836" lon="4.43595">
        <ele>569.02106</ele>
        <time>2013-05-26T13:11:45Z</time>
      </trkpt>
      <trkpt lat="45.48813" lon="4.43596">
        <ele>568.9969</ele>
        <time>2013-05-26T13:11:49Z</time>
      </trkpt>
      <trkpt lat="45.4879" lon="4.43595">
        <ele>568.5928</ele>
        <time>2013-05-26T13:11:53Z</time>
      </trkpt>
      <trkpt lat="45.48767" lon="4.43599">
        <ele>568.011</ele>
        <time>2013-05-26T13:11:57Z</time>
      </trkpt>
      <trkpt lat="45.48748" lon="4.43606">
        <ele>568.7707</ele>
        <time>2013-05-26T13:12:01Z</time>
      </trkpt>
      <trkpt lat="45.48727" lon="4.43609">
        <ele>569.45087</ele>
        <time>2013-05-26T13:12:05Z</time>
      </trkpt>
      <trkpt lat="45.48706" lon="4.43612">
        <ele>570.62744</ele>
        <time>2013-05-26T13:12:09Z</time>
      </trkpt>
      <trkpt lat="45.48686" lon="4.43602">
        <ele>573.397</ele>
        <time>2013-05-26T13:12:13Z</time>
      </trkpt>
      <trkpt lat="45.48668" lon="4.4361">
        <ele>576.2313</ele>
        <time>2013-05-26T13:12:18Z</time>
      </trkpt>
      <trkpt lat="45.4865" lon="4.43619">
        <ele>576.18646</ele>
        <time>2013-05-26T13:12:22Z</time>
      </trkpt>
      <trkpt lat="45.48628" lon="4.43625">
        <ele>574.7016</ele>
        <time>2013-05-26T13:12:26Z</time>
      </trkpt>
      <trkpt lat="45.48606" lon="4.43625">
        <ele>573.7661</ele>
        <time>2013-05-26T13:12:30Z</time>
      </trkpt>
      <trkpt lat="45.48586" lon="4.43628">
        <ele>573.9014</ele>
        <time>2013-05-26T13:12:34Z</time>
      </trkpt>
      <trkpt lat="45.48566" lon="4.43631">
        <ele>573.77234</ele>
        <time>2013-05-26T13:12:38Z</time>
      </trkpt>
      <trkpt lat="45.48544" lon="4.43635">
        <ele>573.11975</ele>
        <time>2013-05-26T13:12:42Z</time>
      </trkpt>
      <trkpt lat="45.48523" lon="4.43638">
        <ele>571.85077</ele>
        <time>2013-05-26T13:12:46Z</time>
      </trkpt>
      <trkpt lat="45.48503" lon="4.43637">
        <ele>571.61487</ele>
        <time>2013-05-26T13:12:50Z</time>
      </trkpt>
      <trkpt lat="45.4848" lon="4.43638">
        <ele>571.068</ele>
        <time>2013-05-26T13:12:54Z</time>
      </trkpt>
      <trkpt lat="45.48457" lon="4.43637">
        <ele>570.4063</ele>
        <time>2013-05-26T13:12:58Z</time>
      </trkpt>
      <trkpt lat="45.48439" lon="4.43633">
        <ele>570.76825</ele>
        <time>2013-05-26T13:13:01Z</time>
      </trkpt>
      <trkpt lat="45.48417" lon="4.43629">
        <ele>571.1255</ele>
        <time>2013-05-26T13:13:05Z</time>
      </trkpt>
      <trkpt lat="45.48397" lon="4.43625">
        <ele>571.7889</ele>
        <time>2013-05-26T13:13:08Z</time>
      </trkpt>
      <trkpt lat="45.48378" lon="4.43619">
        <ele>571.5672</ele>
        <time>2013-05-26T13:13:11Z</time>
      </trkpt>
      <trkpt lat="45.48357" lon="4.43606">
        <ele>570.9865</ele>
        <time>2013-05-26T13:13:15Z</time>
      </trkpt>
      <trkpt lat="45.48336" lon="4.436">
        <ele>570.2943</ele>
        <time>2013-05-26T13:13:18Z</time>
      </trkpt>
      <trkpt lat="45.4832" lon="4.43587">
        <ele>569.9257</ele>
        <time>2013-05-26T13:13:21Z</time>
      </trkpt>
      <trkpt lat="45.48304" lon="4.43572">
        <ele>569.5187</ele>
        <time>2013-05-26T13:13:24Z</time>
      </trkpt>
      <trkpt lat="45.48291" lon="4.43553">
        <ele>569.11414</ele>
        <time>2013-05-26T13:13:27Z</time>
      </trkpt>
      <trkpt lat="45.48279" lon="4.4353">
        <ele>568.54346</ele>
        <time>2013-05-26T13:13:30Z</time>
      </trkpt>
      <trkpt lat="45.48264" lon="4.43505">
        <ele>565.6626</ele>
        <time>2013-05-26T13:13:34Z</time>
      </trkpt>
      <trkpt lat="45.48251" lon="4.43487">
        <ele>564.27014</ele>
        <time>2013-05-26T13:13:37Z</time>
      </trkpt>
      <trkpt lat="45.48237" lon="4.43467">
        <ele>564.2593</ele>
        <time>2013-05-26T13:13:40Z</time>
      </trkpt>
      <trkpt lat="45.48218" lon="4.43449">
        <ele>564.21954</ele>
        <time>2013-05-26T13:13:44Z</time>
      </trkpt>
      <trkpt lat="45.48209" lon="4.43423">
        <ele>562.7379</ele>
        <time>2013-05-26T13:13:47Z</time>
      </trkpt>
      <trkpt lat="45.48195" lon="4.43398">
        <ele>561.70416</ele>
        <time>2013-05-26T13:13:51Z</time>
      </trkpt>
      <trkpt lat="45.48177" lon="4.43376">
        <ele>561.34625</ele>
        <time>2013-05-26T13:13:55Z</time>
      </trkpt>
      <trkpt lat="45.48166" lon="4.43353">
        <ele>561.53357</ele>
        <time>2013-05-26T13:13:58Z</time>
      </trkpt>
      <trkpt lat="45.48149" lon="4.43332">
        <ele>561.4372</ele>
        <time>2013-05-26T13:14:02Z</time>
      </trkpt>
      <trkpt lat="45.48135" lon="4.43309">
        <ele>560.5559</ele>
        <time>2013-05-26T13:14:06Z</time>
      </trkpt>
      <trkpt lat="45.48125" lon="4.43287">
        <ele>558.77985</ele>
        <time>2013-05-26T13:14:09Z</time>
      </trkpt>
      <trkpt lat="45.4811" lon="4.43268">
        <ele>559.12744</ele>
        <time>2013-05-26T13:14:12Z</time>
      </trkpt>
      <trkpt lat="45.48093" lon="4.43245">
        <ele>560.0345</ele>
        <time>2013-05-26T13:14:16Z</time>
      </trkpt>
      <trkpt lat="45.48078" lon="4.4322">
        <ele>560.405</ele>
        <time>2013-05-26T13:14:20Z</time>
      </trkpt>
      <trkpt lat="45.48063" lon="4.43195">
        <ele>557.88794</ele>
        <time>2013-05-26T13:14:24Z</time>
      </trkpt>
      <trkpt lat="45.48047" lon="4.4317">
        <ele>557.3993</ele>
        <time>2013-05-26T13:14:28Z</time>
      </trkpt>
      <trkpt lat="45.4803" lon="4.43146">
        <ele>557.1662</ele>
        <time>2013-05-26T13:14:32Z</time>
      </trkpt>
      <trkpt lat="45.48015" lon="4.43126">
        <ele>555.7862</ele>
        <time>2013-05-26T13:14:36Z</time>
      </trkpt>
      <trkpt lat="45.47999" lon="4.43101">
        <ele>555.2081</ele>
        <time>2013-05-26T13:14:40Z</time>
      </trkpt>
      <trkpt lat="45.47981" lon="4.43093">
        <ele>558.63306</ele>
        <time>2013-05-26T13:14:44Z</time>
      </trkpt>
      <trkpt lat="45.47972" lon="4.43069">
        <ele>559.45667</ele>
        <time>2013-05-26T13:14:49Z</time>
      </trkpt>
      <trkpt lat="45.47973" lon="4.43042">
        <ele>558.90894</ele>
        <time>2013-05-26T13:14:55Z</time>
      </trkpt>
      <trkpt lat="45.47961" lon="4.43017">
        <ele>556.5485</ele>
        <time>2013-05-26T13:15:02Z</time>
      </trkpt>
      <trkpt lat="45.47943" lon="4.43016">
        <ele>555.808</ele>
        <time>2013-05-26T13:15:05Z</time>
      </trkpt>
      <trkpt lat="45.47923" lon="4.43008">
        <ele>554.3568</ele>
        <time>2013-05-26T13:15:09Z</time>
      </trkpt>
      <trkpt lat="45.47902" lon="4.43001">
        <ele>554.0396</ele>
        <time>2013-05-26T13:15:12Z</time>
      </trkpt>
      <trkpt lat="45.47886" lon="4.4299">
        <ele>553.8792</ele>
        <time>2013-05-26T13:15:15Z</time>
      </trkpt>
      <trkpt lat="45.47864" lon="4.4298">
        <ele>552.9897</ele>
        <time>2013-05-26T13:15:18Z</time>
      </trkpt>
      <trkpt lat="45.47845" lon="4.42968">
        <ele>552.1191</ele>
        <time>2013-05-26T13:15:21Z</time>
      </trkpt>
      <trkpt lat="45.47823" lon="4.42959">
        <ele>551.8643</ele>
        <time>2013-05-26T13:15:24Z</time>
      </trkpt>
      <trkpt lat="45.47803" lon="4.42945">
        <ele>551.33026</ele>
        <time>2013-05-26T13:15:27Z</time>
      </trkpt>
      <trkpt lat="45.4778" lon="4.42935">
        <ele>550.52057</ele>
        <time>2013-05-26T13:15:30Z</time>
      </trkpt>
      <trkpt lat="45.47759" lon="4.42924">
        <ele>550.42584</ele>
        <time>2013-05-26T13:15:33Z</time>
      </trkpt>
      <trkpt lat="45.47739" lon="4.42909">
        <ele>548.71716</ele>
        <time>2013-05-26T13:15:36Z</time>
      </trkpt>
      <trkpt lat="45.47717" lon="4.42899">
        <ele>547.1097</ele>
        <time>2013-05-26T13:15:38Z</time>
      </trkpt>
      <trkpt lat="45.47702" lon="4.42879">
        <ele>544.78375</ele>
        <time>2013-05-26T13:15:41Z</time>
      </trkpt>
      <trkpt lat="45.47682" lon="4.42855">
        <ele>542.92596</ele>
        <time>2013-05-26T13:15:44Z</time>
      </trkpt>
      <trkpt lat="45.47663" lon="4.42832">
        <ele>541.4969</ele>
        <time>2013-05-26T13:15:47Z</time>
      </trkpt>
      <trkpt lat="45.47643" lon="4.42809">
        <ele>540.44403</ele>
        <time>2013-05-26T13:15:50Z</time>
      </trkpt>
      <trkpt lat="45.47625" lon="4.42787">
        <ele>539.5092</ele>
        <time>2013-05-26T13:15:53Z</time>
      </trkpt>
      <trkpt lat="45.47608" lon="4.4277">
        <ele>538.76636</ele>
        <time>2013-05-26T13:15:56Z</time>
      </trkpt>
      <trkpt lat="45.47589" lon="4.42745">
        <ele>538.37177</ele>
        <time>2013-05-26T13:15:59Z</time>
      </trkpt>
      <trkpt lat="45.47574" lon="4.42723">
        <ele>538.01465</ele>
        <time>2013-05-26T13:16:02Z</time>
      </trkpt>
      <trkpt lat="45.47559" lon="4.42704">
        <ele>538.4202</ele>
        <time>2013-05-26T13:16:05Z</time>
      </trkpt>
      <trkpt lat="45.47544" lon="4.42686">
        <ele>539.4163</ele>
        <time>2013-05-26T13:16:08Z</time>
      </trkpt>
      <trkpt lat="45.47526" lon="4.42667">
        <ele>540.7845</ele>
        <time>2013-05-26T13:16:12Z</time>
      </trkpt>
      <trkpt lat="45.47508" lon="4.42649">
        <ele>541.62634</ele>
        <time>2013-05-26T13:16:16Z</time>
      </trkpt>
      <trkpt lat="45.47492" lon="4.42632">
        <ele>541.2376</ele>
        <time>2013-05-26T13:16:20Z</time>
      </trkpt>
      <trkpt lat="45.47475" lon="4.42616">
        <ele>539.66974</ele>
        <time>2013-05-26T13:16:24Z</time>
      </trkpt>
      <trkpt lat="45.47456" lon="4.42603">
        <ele>540.0037</ele>
        <time>2013-05-26T13:16:28Z</time>
      </trkpt>
      <trkpt lat="45.47437" lon="4.4259">
        <ele>540.6719</ele>
        <time>2013-05-26T13:16:32Z</time>
      </trkpt>
      <trkpt lat="45.47419" lon="4.42577">
        <ele>540.7333</ele>
        <time>2013-05-26T13:16:36Z</time>
      </trkpt>
      <trkpt lat="45.47401" lon="4.42565">
        <ele>540.43555</ele>
        <time>2013-05-26T13:16:40Z</time>
      </trkpt>
      <trkpt lat="45.47382" lon="4.42554">
        <ele>540.51825</ele>
        <time>2013-05-26T13:16:44Z</time>
      </trkpt>
      <trkpt lat="45.47365" lon="4.4254">
        <ele>541.0886</ele>
        <time>2013-05-26T13:16:48Z</time>
      </trkpt>
      <trkpt lat="45.47348" lon="4.42528">
        <ele>541.5405</ele>
        <time>2013-05-26T13:16:52Z</time>
      </trkpt>
      <trkpt lat="45.47331" lon="4.42515">
        <ele>541.9093</ele>
        <time>2013-05-26T13:16:56Z</time>
      </trkpt>
      <trkpt lat="45.47312" lon="4.42501">
        <ele>542.112</ele>
        <time>2013-05-26T13:17:01Z</time>
      </trkpt>
      <trkpt lat="45.47294" lon="4.42488">
        <ele>541.8768</ele>
        <time>2013-05-26T13:17:06Z</time>
      </trkpt>
      <trkpt lat="45.47276" lon="4.42475">
        <ele>541.99365</ele>
        <time>2013-05-26T13:17:12Z</time>
      </trkpt>
      <trkpt lat="45.47259" lon="4.42464">
        <ele>542.7572</ele>
        <time>2013-05-26T13:17:18Z</time>
      </trkpt>
      <trkpt lat="45.47243" lon="4.4245">
        <ele>543.81366</ele>
        <time>2013-05-26T13:17:25Z</time>
      </trkpt>
      <trkpt lat="45.47226" lon="4.42436">
        <ele>544.60596</ele>
        <time>2013-05-26T13:17:33Z</time>
      </trkpt>
      <trkpt lat="45.4721" lon="4.42421">
        <ele>546.6658</ele>
        <time>2013-05-26T13:17:42Z</time>
      </trkpt>
      <trkpt lat="45.47194" lon="4.42407">
        <ele>548.22345</ele>
        <time>2013-05-26T13:17:53Z</time>
      </trkpt>
      <trkpt lat="45.47178" lon="4.42392">
        <ele>549.7151</ele>
        <time>2013-05-26T13:18:04Z</time>
      </trkpt>
      <trkpt lat="45.47162" lon="4.42379">
        <ele>551.2795</ele>
        <time>2013-05-26T13:18:14Z</time>
      </trkpt>
      <trkpt lat="45.47145" lon="4.42365">
        <ele>553.5031</ele>
        <time>2013-05-26T13:18:25Z</time>
      </trkpt>
      <trkpt lat="45.4713" lon="4.42352">
        <ele>555.137</ele>
        <time>2013-05-26T13:18:35Z</time>
      </trkpt>
      <trkpt lat="45.47114" lon="4.42338">
        <ele>556.6395</ele>
        <time>2013-05-26T13:18:46Z</time>
      </trkpt>
      <trkpt lat="45.47098" lon="4.42324">
        <ele>557.2916</ele>
        <time>2013-05-26T13:18:57Z</time>
      </trkpt>
      <trkpt lat="45.47082" lon="4.42309">
        <ele>558.069</ele>
        <time>2013-05-26T13:19:09Z</time>
      </trkpt>
      <trkpt lat="45.47065" lon="4.42296">
        <ele>560.59076</ele>
        <time>2013-05-26T13:19:20Z</time>
      </trkpt>
      <trkpt lat="45.47049" lon="4.42284">
        <ele>563.5823</ele>
        <time>2013-05-26T13:19:30Z</time>
      </trkpt>
      <trkpt lat="45.47032" lon="4.42272">
        <ele>565.8847</ele>
        <time>2013-05-26T13:19:40Z</time>
      </trkpt>
      <trkpt lat="45.47016" lon="4.42261">
        <ele>566.08093</ele>
        <time>2013-05-26T13:19:50Z</time>
      </trkpt>
      <trkpt lat="45.46998" lon="4.42249">
        <ele>567.49023</ele>
        <time>2013-05-26T13:20:00Z</time>
      </trkpt>
      <trkpt lat="45.4698" lon="4.42241">
        <ele>569.1243</ele>
        <time>2013-05-26T13:20:09Z</time>
      </trkpt>
      <trkpt lat="45.46959" lon="4.42234">
        <ele>570.6729</ele>
        <time>2013-05-26T13:20:17Z</time>
      </trkpt>
      <trkpt lat="45.46941" lon="4.42231">
        <ele>571.57635</ele>
        <time>2013-05-26T13:20:23Z</time>
      </trkpt>
      <trkpt lat="45.46922" lon="4.42228">
        <ele>571.7297</ele>
        <time>2013-05-26T13:20:29Z</time>
      </trkpt>
      <trkpt lat="45.46903" lon="4.42226">
        <ele>571.40625</ele>
        <time>2013-05-26T13:20:35Z</time>
      </trkpt>
      <trkpt lat="45.46883" lon="4.42223">
        <ele>570.8517</ele>
        <time>2013-05-26T13:20:40Z</time>
      </trkpt>
      <trkpt lat="45.46862" lon="4.42225">
        <ele>569.7164</ele>
        <time>2013-05-26T13:20:44Z</time>
      </trkpt>
      <trkpt lat="45.4684" lon="4.42229">
        <ele>569.3848</ele>
        <time>2013-05-26T13:20:48Z</time>
      </trkpt>
      <trkpt lat="45.46821" lon="4.4223">
        <ele>568.7561</ele>
        <time>2013-05-26T13:20:51Z</time>
      </trkpt>
      <trkpt lat="45.468" lon="4.42231">
        <ele>568.06744</ele>
        <time>2013-05-26T13:20:54Z</time>
      </trkpt>
      <trkpt lat="45.46778" lon="4.42232">
        <ele>567.4347</ele>
        <time>2013-05-26T13:20:57Z</time>
      </trkpt>
      <trkpt lat="45.46756" lon="4.42236">
        <ele>567.499</ele>
        <time>2013-05-26T13:21:00Z</time>
      </trkpt>
      <trkpt lat="45.46734" lon="4.42239">
        <ele>568.3902</ele>
        <time>2013-05-26T13:21:03Z</time>
      </trkpt>
      <trkpt lat="45.46716" lon="4.42248">
        <ele>569.4287</ele>
        <time>2013-05-26T13:21:06Z</time>
      </trkpt>
      <trkpt lat="45.46697" lon="4.42255">
        <ele>569.7027</ele>
        <time>2013-05-26T13:21:09Z</time>
      </trkpt>
      <trkpt lat="45.46679" lon="4.42263">
        <ele>570.1402</ele>
        <time>2013-05-26T13:21:12Z</time>
      </trkpt>
      <trkpt lat="45.46657" lon="4.4227">
        <ele>570.0178</ele>
        <time>2013-05-26T13:21:16Z</time>
      </trkpt>
      <trkpt lat="45.46635" lon="4.42271">
        <ele>570.2841</ele>
        <time>2013-05-26T13:21:20Z</time>
      </trkpt>
      <trkpt lat="45.46615" lon="4.42263">
        <ele>569.45825</ele>
        <time>2013-05-26T13:21:24Z</time>
      </trkpt>
      <trkpt lat="45.46606" lon="4.42236">
        <ele>567.64667</ele>
        <time>2013-05-26T13:21:29Z</time>
      </trkpt>
      <trkpt lat="45.46604" lon="4.42208">
        <ele>565.27344</ele>
        <time>2013-05-26T13:21:35Z</time>
      </trkpt>
      <trkpt lat="45.46601" lon="4.42178">
        <ele>563.8759</ele>
        <time>2013-05-26T13:21:41Z</time>
      </trkpt>
      <trkpt lat="45.466" lon="4.42152">
        <ele>564.85077</ele>
        <time>2013-05-26T13:21:46Z</time>
      </trkpt>
      <trkpt lat="45.46599" lon="4.42126">
        <ele>565.30853</ele>
        <time>2013-05-26T13:21:51Z</time>
      </trkpt>
      <trkpt lat="45.46598" lon="4.42099">
        <ele>566.0715</ele>
        <time>2013-05-26T13:21:56Z</time>
      </trkpt>
      <trkpt lat="45.46597" lon="4.42069">
        <ele>566.87067</ele>
        <time>2013-05-26T13:22:02Z</time>
      </trkpt>
      <trkpt lat="45.466" lon="4.4204">
        <ele>567.6947</ele>
        <time>2013-05-26T13:22:08Z</time>
      </trkpt>
      <trkpt lat="45.46606" lon="4.42015">
        <ele>568.9436</ele>
        <time>2013-05-26T13:22:14Z</time>
      </trkpt>
      <trkpt lat="45.46593" lon="4.41997">
        <ele>568.688</ele>
        <time>2013-05-26T13:22:19Z</time>
      </trkpt>
      <trkpt lat="45.46572" lon="4.42008">
        <ele>568.01495</ele>
        <time>2013-05-26T13:22:23Z</time>
      </trkpt>
      <trkpt lat="45.46554" lon="4.42009">
        <ele>567.32935</ele>
        <time>2013-05-26T13:22:27Z</time>
      </trkpt>
      <trkpt lat="45.46535" lon="4.42004">
        <ele>566.9015</ele>
        <time>2013-05-26T13:22:31Z</time>
      </trkpt>
      <trkpt lat="45.46517" lon="4.41998">
        <ele>567.1763</ele>
        <time>2013-05-26T13:22:35Z</time>
      </trkpt>
      <trkpt lat="45.46498" lon="4.4199">
        <ele>565.62726</ele>
        <time>2013-05-26T13:22:39Z</time>
      </trkpt>
      <trkpt lat="45.4648" lon="4.41985">
        <ele>565.89764</ele>
        <time>2013-05-26T13:22:43Z</time>
      </trkpt>
      <trkpt lat="45.46461" lon="4.41978">
        <ele>563.72156</ele>
        <time>2013-05-26T13:22:47Z</time>
      </trkpt>
      <trkpt lat="45.46443" lon="4.4197">
        <ele>563.4892</ele>
        <time>2013-05-26T13:22:51Z</time>
      </trkpt>
      <trkpt lat="45.46422" lon="4.41962">
        <ele>563.0392</ele>
        <time>2013-05-26T13:22:55Z</time>
      </trkpt>
      <trkpt lat="45.46405" lon="4.41954">
        <ele>562.19775</ele>
        <time>2013-05-26T13:22:58Z</time>
      </trkpt>
      <trkpt lat="45.46388" lon="4.41942">
        <ele>560.5662</ele>
        <time>2013-05-26T13:23:01Z</time>
      </trkpt>
      <trkpt lat="45.46369" lon="4.41932">
        <ele>559.3686</ele>
        <time>2013-05-26T13:23:04Z</time>
      </trkpt>
      <trkpt lat="45.46351" lon="4.41922">
        <ele>558.5961</ele>
        <time>2013-05-26T13:23:07Z</time>
      </trkpt>
      <trkpt lat="45.4633" lon="4.4191">
        <ele>557.3921</ele>
        <time>2013-05-26T13:23:10Z</time>
      </trkpt>
      <trkpt lat="45.46308" lon="4.419">
        <ele>555.542</ele>
        <time>2013-05-26T13:23:13Z</time>
      </trkpt>
      <trkpt lat="45.46284" lon="4.41888">
        <ele>553.4771</ele>
        <time>2013-05-26T13:23:16Z</time>
      </trkpt>
      <trkpt lat="45.46261" lon="4.41869">
        <ele>551.97003</ele>
        <time>2013-05-26T13:23:19Z</time>
      </trkpt>
      <trkpt lat="45.46247" lon="4.4185">
        <ele>551.10815</ele>
        <time>2013-05-26T13:23:21Z</time>
      </trkpt>
      <trkpt lat="45.46237" lon="4.41827">
        <ele>550.17957</ele>
        <time>2013-05-26T13:23:23Z</time>
      </trkpt>
      <trkpt lat="45.46228" lon="4.41804">
        <ele>549.5198</ele>
        <time>2013-05-26T13:23:25Z</time>
      </trkpt>
      <trkpt lat="45.46217" lon="4.41782">
        <ele>549.34235</ele>
        <time>2013-05-26T13:23:27Z</time>
      </trkpt>
      <trkpt lat="45.46204" lon="4.41754">
        <ele>549.3429</ele>
        <time>2013-05-26T13:23:30Z</time>
      </trkpt>
      <trkpt lat="45.46194" lon="4.41726">
        <ele>550.2431</ele>
        <time>2013-05-26T13:23:33Z</time>
      </trkpt>
      <trkpt lat="45.4619" lon="4.41697">
        <ele>551.08124</ele>
        <time>2013-05-26T13:23:37Z</time>
      </trkpt>
      <trkpt lat="45.46175" lon="4.41683">
        <ele>551.50635</ele>
        <time>2013-05-26T13:23:43Z</time>
      </trkpt>
      <trkpt lat="45.46156" lon="4.41689">
        <ele>551.0424</ele>
        <time>2013-05-26T13:23:49Z</time>
      </trkpt>
      <trkpt lat="45.46134" lon="4.41685">
        <ele>549.6746</ele>
        <time>2013-05-26T13:23:54Z</time>
      </trkpt>
      <trkpt lat="45.46115" lon="4.41682">
        <ele>548.89233</ele>
        <time>2013-05-26T13:23:58Z</time>
      </trkpt>
      <trkpt lat="45.46094" lon="4.41684">
        <ele>548.423</ele>
        <time>2013-05-26T13:24:02Z</time>
      </trkpt>
      <trkpt lat="45.46075" lon="4.41685">
        <ele>548.00104</ele>
        <time>2013-05-26T13:24:06Z</time>
      </trkpt>
      <trkpt lat="45.46053" lon="4.41686">
        <ele>548.1903</ele>
        <time>2013-05-26T13:24:11Z</time>
      </trkpt>
      <trkpt lat="45.46034" lon="4.41687">
        <ele>548.811</ele>
        <time>2013-05-26T13:24:15Z</time>
      </trkpt>
      <trkpt lat="45.46014" lon="4.41688">
        <ele>549.87103</ele>
        <time>2013-05-26T13:24:19Z</time>
      </trkpt>
      <trkpt lat="45.45991" lon="4.41679">
        <ele>548.3604</ele>
        <time>2013-05-26T13:24:24Z</time>
      </trkpt>
      <trkpt lat="45.45972" lon="4.41676">
        <ele>547.7875</ele>
        <time>2013-05-26T13:24:28Z</time>
      </trkpt>
      <trkpt lat="45.45952" lon="4.41675">
        <ele>548.64056</ele>
        <time>2013-05-26T13:24:32Z</time>
      </trkpt>
      <trkpt lat="45.45931" lon="4.41669">
        <ele>549.10944</ele>
        <time>2013-05-26T13:24:37Z</time>
      </trkpt>
      <trkpt lat="45.45913" lon="4.4166">
        <ele>549.5885</ele>
        <time>2013-05-26T13:24:41Z</time>
      </trkpt>
      <trkpt lat="45.45895" lon="4.41652">
        <ele>549.8792</ele>
        <time>2013-05-26T13:24:46Z</time>
      </trkpt>
      <trkpt lat="45.45879" lon="4.4164">
        <ele>549.6282</ele>
        <time>2013-05-26T13:24:50Z</time>
      </trkpt>
      <trkpt lat="45.45863" lon="4.41627">
        <ele>550.06635</ele>
        <time>2013-05-26T13:24:54Z</time>
      </trkpt>
      <trkpt lat="45.45845" lon="4.41613">
        <ele>551.8601</ele>
        <time>2013-05-26T13:24:59Z</time>
      </trkpt>
      <trkpt lat="45.45829" lon="4.41599">
        <ele>551.83777</ele>
        <time>2013-05-26T13:25:03Z</time>
      </trkpt>
      <trkpt lat="45.45812" lon="4.41587">
        <ele>551.5772</ele>
        <time>2013-05-26T13:25:07Z</time>
      </trkpt>
      <trkpt lat="45.45798" lon="4.41569">
        <ele>550.93494</ele>
        <time>2013-05-26T13:25:11Z</time>
      </trkpt>
      <trkpt lat="45.45779" lon="4.41553">
        <ele>551.2459</ele>
        <time>2013-05-26T13:25:16Z</time>
      </trkpt>
      <trkpt lat="45.45763" lon="4.41535">
        <ele>552.46716</ele>
        <time>2013-05-26T13:25:22Z</time>
      </trkpt>
      <trkpt lat="45.45748" lon="4.41519">
        <ele>552.14044</ele>
        <time>2013-05-26T13:25:29Z</time>
      </trkpt>
      <trkpt lat="45.45728" lon="4.41509">
        <ele>554.4823</ele>
        <time>2013-05-26T13:25:36Z</time>
      </trkpt>
      <trkpt lat="45.4571" lon="4.41503">
        <ele>555.7055</ele>
        <time>2013-05-26T13:25:42Z</time>
      </trkpt>
      <trkpt lat="45.45695" lon="4.41488">
        <ele>555.3543</ele>
        <time>2013-05-26T13:25:49Z</time>
      </trkpt>
      <trkpt lat="45.45686" lon="4.41464">
        <ele>556.7197</ele>
        <time>2013-05-26T13:25:56Z</time>
      </trkpt>
      <trkpt lat="45.45671" lon="4.41449">
        <ele>556.206</ele>
        <time>2013-05-26T13:26:03Z</time>
      </trkpt>
      <trkpt lat="45.45653" lon="4.41459">
        <ele>556.65826</ele>
        <time>2013-05-26T13:26:09Z</time>
      </trkpt>
      <trkpt lat="45.45633" lon="4.4145">
        <ele>559.29517</ele>
        <time>2013-05-26T13:26:17Z</time>
      </trkpt>
      <trkpt lat="45.45619" lon="4.41429">
        <ele>560.8694</ele>
        <time>2013-05-26T13:26:22Z</time>
      </trkpt>
      <trkpt lat="45.45606" lon="4.41406">
        <ele>560.4388</ele>
        <time>2013-05-26T13:26:26Z</time>
      </trkpt>
      <trkpt lat="45.45594" lon="4.41386">
        <ele>559.15326</ele>
        <time>2013-05-26T13:26:30Z</time>
      </trkpt>
      <trkpt lat="45.45584" lon="4.41363">
        <ele>557.46094</ele>
        <time>2013-05-26T13:26:36Z</time>
      </trkpt>
      <trkpt lat="45.45568" lon="4.41346">
        <ele>550.4858</ele>
        <time>2013-05-26T13:26:46Z</time>
      </trkpt>
      <trkpt lat="45.45552" lon="4.41321">
        <ele>550.86</ele>
        <time>2013-05-26T13:26:50Z</time>
      </trkpt>
      <trkpt lat="45.45539" lon="4.41299">
        <ele>550.70496</ele>
        <time>2013-05-26T13:26:53Z</time>
      </trkpt>
      <trkpt lat="45.45524" lon="4.41275">
        <ele>550.30524</ele>
        <time>2013-05-26T13:26:56Z</time>
      </trkpt>
      <trkpt lat="45.45505" lon="4.41254">
        <ele>549.67096</ele>
        <time>2013-05-26T13:26:59Z</time>
      </trkpt>
      <trkpt lat="45.45489" lon="4.41235">
        <ele>549.2837</ele>
        <time>2013-05-26T13:27:01Z</time>
      </trkpt>
      <trkpt lat="45.45474" lon="4.41218">
        <ele>549.1158</ele>
        <time>2013-05-26T13:27:03Z</time>
      </trkpt>
      <trkpt lat="45.45458" lon="4.41201">
        <ele>549.1339</ele>
        <time>2013-05-26T13:27:05Z</time>
      </trkpt>
      <trkpt lat="45.45444" lon="4.41184">
        <ele>548.2128</ele>
        <time>2013-05-26T13:27:07Z</time>
      </trkpt>
      <trkpt lat="45.45421" lon="4.41149">
        <ele>547.24133</ele>
        <time>2013-05-26T13:27:11Z</time>
      </trkpt>
      <trkpt lat="45.45406" lon="4.41125">
        <ele>545.6487</ele>
        <time>2013-05-26T13:27:14Z</time>
      </trkpt>
      <trkpt lat="45.45389" lon="4.41103">
        <ele>544.9649</ele>
        <time>2013-05-26T13:27:17Z</time>
      </trkpt>
      <trkpt lat="45.45372" lon="4.4108">
        <ele>544.54614</ele>
        <time>2013-05-26T13:27:20Z</time>
      </trkpt>
      <trkpt lat="45.45359" lon="4.41056">
        <ele>543.5132</ele>
        <time>2013-05-26T13:27:23Z</time>
      </trkpt>
      <trkpt lat="45.45345" lon="4.41032">
        <ele>542.76337</ele>
        <time>2013-05-26T13:27:26Z</time>
      </trkpt>
      <trkpt lat="45.45334" lon="4.41006">
        <ele>543.1127</ele>
        <time>2013-05-26T13:27:29Z</time>
      </trkpt>
      <trkpt lat="45.45322" lon="4.40987">
        <ele>543.1788</ele>
        <time>2013-05-26T13:27:32Z</time>
      </trkpt>
      <trkpt lat="45.4531" lon="4.40965">
        <ele>543.971</ele>
        <time>2013-05-26T13:27:36Z</time>
      </trkpt>
      <trkpt lat="45.45297" lon="4.40942">
        <ele>543.72253</ele>
        <time>2013-05-26T13:27:41Z</time>
      </trkpt>
      <trkpt lat="45.45282" lon="4.40924">
        <ele>543.41846</ele>
        <time>2013-05-26T13:27:47Z</time>
      </trkpt>
      <trkpt lat="45.45272" lon="4.40902">
        <ele>543.2573</ele>
        <time>2013-05-26T13:27:53Z</time>
      </trkpt>
      <trkpt lat="45.45261" lon="4.40881">
        <ele>544.3108</ele>
        <time>2013-05-26T13:27:59Z</time>
      </trkpt>
      <trkpt lat="45.45249" lon="4.4086">
        <ele>547.56604</ele>
        <time>2013-05-26T13:28:05Z</time>
      </trkpt>
      <trkpt lat="45.45233" lon="4.40842">
        <ele>553.2084</ele>
        <time>2013-05-26T13:28:11Z</time>
      </trkpt>
      <trkpt lat="45.4522" lon="4.40822">
        <ele>555.6074</ele>
        <time>2013-05-26T13:28:17Z</time>
      </trkpt>
      <trkpt lat="45.4521" lon="4.40798">
        <ele>554.799</ele>
        <time>2013-05-26T13:28:24Z</time>
      </trkpt>
      <trkpt lat="45.45198" lon="4.40775">
        <ele>554.8474</ele>
        <time>2013-05-26T13:28:30Z</time>
      </trkpt>
      <trkpt lat="45.45185" lon="4.40755">
        <ele>554.9818</ele>
        <time>2013-05-26T13:28:34Z</time>
      </trkpt>
      <trkpt lat="45.45173" lon="4.40732">
        <ele>555.81024</ele>
        <time>2013-05-26T13:28:38Z</time>
      </trkpt>
      <trkpt lat="45.4516" lon="4.40712">
        <ele>555.513</ele>
        <time>2013-05-26T13:28:42Z</time>
      </trkpt>
      <trkpt lat="45.45144" lon="4.40691">
        <ele>555.5868</ele>
        <time>2013-05-26T13:28:47Z</time>
      </trkpt>
      <trkpt lat="45.45128" lon="4.40673">
        <ele>557.60406</ele>
        <time>2013-05-26T13:28:52Z</time>
      </trkpt>
      <trkpt lat="45.45113" lon="4.40652">
        <ele>558.7355</ele>
        <time>2013-05-26T13:28:57Z</time>
      </trkpt>
      <trkpt lat="45.45101" lon="4.40626">
        <ele>555.4255</ele>
        <time>2013-05-26T13:29:02Z</time>
      </trkpt>
      <trkpt lat="45.45091" lon="4.40602">
        <ele>553.3145</ele>
        <time>2013-05-26T13:29:07Z</time>
      </trkpt>
      <trkpt lat="45.45083" lon="4.40575">
        <ele>546.8976</ele>
        <time>2013-05-26T13:29:13Z</time>
      </trkpt>
      <trkpt lat="45.45076" lon="4.4055">
        <ele>544.8528</ele>
        <time>2013-05-26T13:29:19Z</time>
      </trkpt>
      <trkpt lat="45.45067" lon="4.40523">
        <ele>548.0296</ele>
        <time>2013-05-26T13:29:26Z</time>
      </trkpt>
      <trkpt lat="45.4506" lon="4.40497">
        <ele>551.4083</ele>
        <time>2013-05-26T13:29:33Z</time>
      </trkpt>
      <trkpt lat="45.45054" lon="4.40472">
        <ele>552.724</ele>
        <time>2013-05-26T13:29:41Z</time>
      </trkpt>
      <trkpt lat="45.45044" lon="4.40451">
        <ele>555.90826</ele>
        <time>2013-05-26T13:29:50Z</time>
      </trkpt>
      <trkpt lat="45.45034" lon="4.40429">
        <ele>557.4459</ele>
        <time>2013-05-26T13:30:00Z</time>
      </trkpt>
      <trkpt lat="45.45025" lon="4.40405">
        <ele>565.9019</ele>
        <time>2013-05-26T13:30:31Z</time>
      </trkpt>
      <trkpt lat="45.45016" lon="4.40381">
        <ele>569.21747</ele>
        <time>2013-05-26T13:30:40Z</time>
      </trkpt>
      <trkpt lat="45.45" lon="4.40367">
        <ele>566.51526</ele>
        <time>2013-05-26T13:31:48Z</time>
      </trkpt>
      <trkpt lat="45.44996" lon="4.40342">
        <ele>570.7212</ele>
        <time>2013-05-26T13:31:58Z</time>
      </trkpt>
      <trkpt lat="45.44989" lon="4.40315">
        <ele>567.10095</ele>
        <time>2013-05-26T13:32:04Z</time>
      </trkpt>
      <trkpt lat="45.44983" lon="4.4029">
        <ele>565.96594</ele>
        <time>2013-05-26T13:32:08Z</time>
      </trkpt>
      <trkpt lat="45.44971" lon="4.40272">
        <ele>564.3349</ele>
        <time>2013-05-26T13:32:19Z</time>
      </trkpt>
      <trkpt lat="45.44957" lon="4.40248">
        <ele>564.76105</ele>
        <time>2013-05-26T13:32:25Z</time>
      </trkpt>
      <trkpt lat="45.44942" lon="4.40228">
        <ele>564.71606</ele>
        <time>2013-05-26T13:32:30Z</time>
      </trkpt>
      <trkpt lat="45.44927" lon="4.40209">
        <ele>563.2344</ele>
        <time>2013-05-26T13:32:34Z</time>
      </trkpt>
      <trkpt lat="45.44915" lon="4.40182">
        <ele>561.61676</ele>
        <time>2013-05-26T13:32:39Z</time>
      </trkpt>
      <trkpt lat="45.44902" lon="4.40161">
        <ele>561.0006</ele>
        <time>2013-05-26T13:32:43Z</time>
      </trkpt>
      <trkpt lat="45.44892" lon="4.40139">
        <ele>560.1232</ele>
        <time>2013-05-26T13:32:47Z</time>
      </trkpt>
      <trkpt lat="45.44879" lon="4.40114">
        <ele>558.9073</ele>
        <time>2013-05-26T13:32:52Z</time>
      </trkpt>
      <trkpt lat="45.44868" lon="4.40093">
        <ele>558.4156</ele>
        <time>2013-05-26T13:32:56Z</time>
      </trkpt>
      <trkpt lat="45.44858" lon="4.40071">
        <ele>557.8522</ele>
        <time>2013-05-26T13:33:00Z</time>
      </trkpt>
      <trkpt lat="45.44842" lon="4.4005">
        <ele>557.60516</ele>
        <time>2013-05-26T13:33:04Z</time>
      </trkpt>
      <trkpt lat="45.4483" lon="4.40026">
        <ele>557.9548</ele>
        <time>2013-05-26T13:33:08Z</time>
      </trkpt>
      <trkpt lat="45.44817" lon="4.40005">
        <ele>557.99506</ele>
        <time>2013-05-26T13:33:12Z</time>
      </trkpt>
      <trkpt lat="45.44804" lon="4.39984">
        <ele>558.7879</ele>
        <time>2013-05-26T13:33:16Z</time>
      </trkpt>
      <trkpt lat="45.44793" lon="4.39958">
        <ele>559.5583</ele>
        <time>2013-05-26T13:33:20Z</time>
      </trkpt>
      <trkpt lat="45.44779" lon="4.39936">
        <ele>558.62036</ele>
        <time>2013-05-26T13:33:24Z</time>
      </trkpt>
      <trkpt lat="45.44769" lon="4.39914">
        <ele>558.04456</ele>
        <time>2013-05-26T13:33:27Z</time>
      </trkpt>
      <trkpt lat="45.44757" lon="4.39891">
        <ele>556.7735</ele>
        <time>2013-05-26T13:33:30Z</time>
      </trkpt>
      <trkpt lat="45.44745" lon="4.3987">
        <ele>555.62787</ele>
        <time>2013-05-26T13:33:33Z</time>
      </trkpt>
      <trkpt lat="45.44731" lon="4.39846">
        <ele>554.19745</ele>
        <time>2013-05-26T13:33:37Z</time>
      </trkpt>
      <trkpt lat="45.44719" lon="4.39824">
        <ele>552.0736</ele>
        <time>2013-05-26T13:33:45Z</time>
      </trkpt>
      <trkpt lat="45.44707" lon="4.39799">
        <ele>552.46185</ele>
        <time>2013-05-26T13:33:52Z</time>
      </trkpt>
      <trkpt lat="45.44689" lon="4.3979">
        <ele>552.8597</ele>
        <time>2013-05-26T13:33:57Z</time>
      </trkpt>
      <trkpt lat="45.44678" lon="4.3977">
        <ele>552.3025</ele>
        <time>2013-05-26T13:34:01Z</time>
      </trkpt>
      <trkpt lat="45.44677" lon="4.39737">
        <ele>552.8024</ele>
        <time>2013-05-26T13:34:06Z</time>
      </trkpt>
      <trkpt lat="45.44696" lon="4.39715">
        <ele>551.6526</ele>
        <time>2013-05-26T13:34:09Z</time>
      </trkpt>
      <trkpt lat="45.44715" lon="4.39694">
        <ele>551.3647</ele>
        <time>2013-05-26T13:34:13Z</time>
      </trkpt>
      <trkpt lat="45.44733" lon="4.39674">
        <ele>551.11035</ele>
        <time>2013-05-26T13:34:17Z</time>
      </trkpt>
      <trkpt lat="45.44749" lon="4.39653">
        <ele>552.91144</ele>
        <time>2013-05-26T13:34:22Z</time>
      </trkpt>
      <trkpt lat="45.44764" lon="4.39636">
        <ele>554.9297</ele>
        <time>2013-05-26T13:34:28Z</time>
      </trkpt>
      <trkpt lat="45.4478" lon="4.39619">
        <ele>555.9384</ele>
        <time>2013-05-26T13:34:33Z</time>
      </trkpt>
      <trkpt lat="45.44796" lon="4.39599">
        <ele>553.8572</ele>
        <time>2013-05-26T13:34:38Z</time>
      </trkpt>
      <trkpt lat="45.44783" lon="4.3962">
        <ele>550.15765</ele>
        <time>2013-05-26T13:34:53Z</time>
      </trkpt>
      <trkpt lat="45.44767" lon="4.39641">
        <ele>549.98126</ele>
        <time>2013-05-26T13:34:59Z</time>
      </trkpt>
      <trkpt lat="45.44751" lon="4.39659">
        <ele>552.6961</ele>
        <time>2013-05-26T13:35:04Z</time>
      </trkpt>
      <trkpt lat="45.44735" lon="4.39675">
        <ele>553.8508</ele>
        <time>2013-05-26T13:35:09Z</time>
      </trkpt>
      <trkpt lat="45.44721" lon="4.39692">
        <ele>554.73944</ele>
        <time>2013-05-26T13:35:14Z</time>
      </trkpt>
      <trkpt lat="45.44705" lon="4.39708">
        <ele>554.38934</ele>
        <time>2013-05-26T13:35:19Z</time>
      </trkpt>
      <trkpt lat="45.4469" lon="4.39692">
        <ele>553.1254</ele>
        <time>2013-05-26T13:35:27Z</time>
      </trkpt>
      <trkpt lat="45.44672" lon="4.39681">
        <ele>546.29285</ele>
        <time>2013-05-26T13:35:39Z</time>
      </trkpt>
      <trkpt lat="45.44664" lon="4.39655">
        <ele>546.773</ele>
        <time>2013-05-26T13:35:44Z</time>
      </trkpt>
      <trkpt lat="45.44659" lon="4.39628">
        <ele>546.1188</ele>
        <time>2013-05-26T13:35:49Z</time>
      </trkpt>
      <trkpt lat="45.44657" lon="4.39601">
        <ele>546.7607</ele>
        <time>2013-05-26T13:35:54Z</time>
      </trkpt>
      <trkpt lat="45.44664" lon="4.39575">
        <ele>547.9161</ele>
        <time>2013-05-26T13:35:59Z</time>
      </trkpt>
      <trkpt lat="45.44673" lon="4.3955">
        <ele>549.94763</ele>
        <time>2013-05-26T13:36:03Z</time>
      </trkpt>
      <trkpt lat="45.44678" lon="4.39526">
        <ele>551.5776</ele>
        <time>2013-05-26T13:36:07Z</time>
      </trkpt>
      <trkpt lat="45.44683" lon="4.395">
        <ele>551.2382</ele>
        <time>2013-05-26T13:36:11Z</time>
      </trkpt>
      <trkpt lat="45.4469" lon="4.39472">
        <ele>549.65186</ele>
        <time>2013-05-26T13:36:16Z</time>
      </trkpt>
      <trkpt lat="45.44697" lon="4.39443">
        <ele>547.9276</ele>
        <time>2013-05-26T13:36:21Z</time>
      </trkpt>
      <trkpt lat="45.44703" lon="4.39416">
        <ele>547.92554</ele>
        <time>2013-05-26T13:36:25Z</time>
      </trkpt>
      <trkpt lat="45.4471" lon="4.39388">
        <ele>547.5417</ele>
        <time>2013-05-26T13:36:29Z</time>
      </trkpt>
      <trkpt lat="45.44715" lon="4.39363">
        <ele>548.93555</ele>
        <time>2013-05-26T13:36:34Z</time>
      </trkpt>
      <trkpt lat="45.44722" lon="4.39338">
        <ele>552.64325</ele>
        <time>2013-05-26T13:36:41Z</time>
      </trkpt>
      <trkpt lat="45.44719" lon="4.39312">
        <ele>555.5769</ele>
        <time>2013-05-26T13:36:51Z</time>
      </trkpt>
      <trkpt lat="45.44705" lon="4.39292">
        <ele>556.1395</ele>
        <time>2013-05-26T13:36:59Z</time>
      </trkpt>
      <trkpt lat="45.44705" lon="4.39265">
        <ele>555.98846</ele>
        <time>2013-05-26T13:37:05Z</time>
      </trkpt>
      <trkpt lat="45.44712" lon="4.39237">
        <ele>556.6157</ele>
        <time>2013-05-26T13:37:12Z</time>
      </trkpt>
      <trkpt lat="45.44718" lon="4.39213">
        <ele>556.8319</ele>
        <time>2013-05-26T13:37:18Z</time>
      </trkpt>
      <trkpt lat="45.44718" lon="4.39186">
        <ele>557.3347</ele>
        <time>2013-05-26T13:37:26Z</time>
      </trkpt>
      <trkpt lat="45.447" lon="4.39182">
        <ele>557.072</ele>
        <time>2013-05-26T13:37:35Z</time>
      </trkpt>
      <trkpt lat="45.44692" lon="4.39205">
        <ele>559.42786</ele>
        <time>2013-05-26T13:37:41Z</time>
      </trkpt>
      <trkpt lat="45.44689" lon="4.39231">
        <ele>561.28754</ele>
        <time>2013-05-26T13:37:49Z</time>
      </trkpt>
      <trkpt lat="45.44683" lon="4.39257">
        <ele>564.3636</ele>
        <time>2013-05-26T13:38:01Z</time>
      </trkpt>
      <trkpt lat="45.44674" lon="4.39282">
        <ele>568.5186</ele>
        <time>2013-05-26T13:38:12Z</time>
      </trkpt>
      <trkpt lat="45.44662" lon="4.39301">
        <ele>568.55457</ele>
        <time>2013-05-26T13:38:21Z</time>
      </trkpt>
      <trkpt lat="45.44656" lon="4.39276">
        <ele>568.1916</ele>
        <time>2013-05-26T13:38:33Z</time>
      </trkpt>
      <trkpt lat="45.44656" lon="4.39249">
        <ele>568.0498</ele>
        <time>2013-05-26T13:38:39Z</time>
      </trkpt>
      <trkpt lat="45.44654" lon="4.39223">
        <ele>568.5464</ele>
        <time>2013-05-26T13:38:46Z</time>
      </trkpt>
      <trkpt lat="45.44652" lon="4.39193">
        <ele>568.98914</ele>
        <time>2013-05-26T13:38:51Z</time>
      </trkpt>
      <trkpt lat="45.44652" lon="4.39163">
        <ele>569.48114</ele>
        <time>2013-05-26T13:38:56Z</time>
      </trkpt>
      <trkpt lat="45.44653" lon="4.39134">
        <ele>568.478</ele>
        <time>2013-05-26T13:39:02Z</time>
      </trkpt>
      <trkpt lat="45.44652" lon="4.39108">
        <ele>568.07416</ele>
        <time>2013-05-26T13:39:07Z</time>
      </trkpt>
      <trkpt lat="45.44648" lon="4.39079">
        <ele>570.00653</ele>
        <time>2013-05-26T13:39:13Z</time>
      </trkpt>
      <trkpt lat="45.44646" lon="4.3905">
        <ele>569.2015</ele>
        <time>2013-05-26T13:39:18Z</time>
      </trkpt>
      <trkpt lat="45.4465" lon="4.39025">
        <ele>569.73834</ele>
        <time>2013-05-26T13:39:22Z</time>
      </trkpt>
      <trkpt lat="45.4465" lon="4.38997">
        <ele>569.1915</ele>
        <time>2013-05-26T13:39:27Z</time>
      </trkpt>
      <trkpt lat="45.44644" lon="4.38972">
        <ele>568.9512</ele>
        <time>2013-05-26T13:39:33Z</time>
      </trkpt>
      <trkpt lat="45.44635" lon="4.38947">
        <ele>568.326</ele>
        <time>2013-05-26T13:39:40Z</time>
      </trkpt>
      <trkpt lat="45.4463" lon="4.38922">
        <ele>567.9474</ele>
        <time>2013-05-26T13:39:48Z</time>
      </trkpt>
      <trkpt lat="45.44626" lon="4.38897">
        <ele>569.5101</ele>
        <time>2013-05-26T13:39:57Z</time>
      </trkpt>
      <trkpt lat="45.44617" lon="4.38873">
        <ele>572.6612</ele>
        <time>2013-05-26T13:40:06Z</time>
      </trkpt>
      <trkpt lat="45.44615" lon="4.38844">
        <ele>573.1328</ele>
        <time>2013-05-26T13:40:13Z</time>
      </trkpt>
      <trkpt lat="45.44603" lon="4.38822">
        <ele>574.10895</ele>
        <time>2013-05-26T13:40:21Z</time>
      </trkpt>
      <trkpt lat="45.44592" lon="4.38802">
        <ele>577.57495</ele>
        <time>2013-05-26T13:40:32Z</time>
      </trkpt>
      <trkpt lat="45.44576" lon="4.38815">
        <ele>585.0663</ele>
        <time>2013-05-26T13:41:41Z</time>
      </trkpt>
      <trkpt lat="45.4456" lon="4.38828">
        <ele>584.3958</ele>
        <time>2013-05-26T13:41:55Z</time>
      </trkpt>
      <trkpt lat="45.4456" lon="4.38854">
        <ele>592.33453</ele>
        <time>2013-05-26T13:42:17Z</time>
      </trkpt>
      <trkpt lat="45.44546" lon="4.38869">
        <ele>596.4143</ele>
        <time>2013-05-26T13:42:31Z</time>
      </trkpt>
      <trkpt lat="45.44531" lon="4.38885">
        <ele>603.1328</ele>
        <time>2013-05-26T13:42:48Z</time>
      </trkpt>
      <trkpt lat="45.44513" lon="4.38895">
        <ele>608.2271</ele>
        <time>2013-05-26T13:43:04Z</time>
      </trkpt>
      <trkpt lat="45.44498" lon="4.38909">
        <ele>611.7405</ele>
        <time>2013-05-26T13:43:19Z</time>
      </trkpt>
      <trkpt lat="45.44483" lon="4.38925">
        <ele>612.6206</ele>
        <time>2013-05-26T13:44:14Z</time>
      </trkpt>
      <trkpt lat="45.44466" lon="4.38937">
        <ele>618.6558</ele>
        <time>2013-05-26T13:44:26Z</time>
      </trkpt>
      <trkpt lat="45.44452" lon="4.38956">
        <ele>618.69183</ele>
        <time>2013-05-26T13:44:40Z</time>
      </trkpt>
      <trkpt lat="45.44435" lon="4.38971">
        <ele>621.4823</ele>
        <time>2013-05-26T13:44:49Z</time>
      </trkpt>
      <trkpt lat="45.44418" lon="4.38979">
        <ele>616.69824</ele>
        <time>2013-05-26T13:45:00Z</time>
      </trkpt>
      <trkpt lat="45.44404" lon="4.38997">
        <ele>630.54486</ele>
        <time>2013-05-26T13:45:20Z</time>
      </trkpt>
      <trkpt lat="45.44389" lon="4.39013">
        <ele>634.207</ele>
        <time>2013-05-26T13:45:29Z</time>
      </trkpt>
      <trkpt lat="45.44372" lon="4.39024">
        <ele>636.3238</ele>
        <time>2013-05-26T13:45:37Z</time>
      </trkpt>
      <trkpt lat="45.44352" lon="4.39032">
        <ele>630.6069</ele>
        <time>2013-05-26T13:45:43Z</time>
      </trkpt>
      <trkpt lat="45.44336" lon="4.39045">
        <ele>628.70966</ele>
        <time>2013-05-26T13:45:48Z</time>
      </trkpt>
      <trkpt lat="45.44317" lon="4.39058">
        <ele>625.09796</ele>
        <time>2013-05-26T13:45:53Z</time>
      </trkpt>
      <trkpt lat="45.44299" lon="4.39072">
        <ele>622.3179</ele>
        <time>2013-05-26T13:46:01Z</time>
      </trkpt>
      <trkpt lat="45.44281" lon="4.39083">
        <ele>619.27527</ele>
        <time>2013-05-26T13:46:06Z</time>
      </trkpt>
      <trkpt lat="45.44261" lon="4.391">
        <ele>617.273</ele>
        <time>2013-05-26T13:46:10Z</time>
      </trkpt>
      <trkpt lat="45.44245" lon="4.39112">
        <ele>615.55707</ele>
        <time>2013-05-26T13:46:15Z</time>
      </trkpt>
      <trkpt lat="45.44227" lon="4.39122">
        <ele>616.32874</ele>
        <time>2013-05-26T13:46:26Z</time>
      </trkpt>
      <trkpt lat="45.4421" lon="4.39136">
        <ele>615.2484</ele>
        <time>2013-05-26T13:46:32Z</time>
      </trkpt>
      <trkpt lat="45.44194" lon="4.39149">
        <ele>612.31494</ele>
        <time>2013-05-26T13:46:36Z</time>
      </trkpt>
      <trkpt lat="45.44178" lon="4.39161">
        <ele>608.8051</ele>
        <time>2013-05-26T13:46:40Z</time>
      </trkpt>
      <trkpt lat="45.44159" lon="4.39172">
        <ele>607.8147</ele>
        <time>2013-05-26T13:46:43Z</time>
      </trkpt>
      <trkpt lat="45.44144" lon="4.39187">
        <ele>609.42926</ele>
        <time>2013-05-26T13:46:47Z</time>
      </trkpt>
      <trkpt lat="45.44123" lon="4.39202">
        <ele>608.86475</ele>
        <time>2013-05-26T13:46:52Z</time>
      </trkpt>
      <trkpt lat="45.44102" lon="4.39216">
        <ele>607.8632</ele>
        <time>2013-05-26T13:46:55Z</time>
      </trkpt>
      <trkpt lat="45.44082" lon="4.39229">
        <ele>606.91846</ele>
        <time>2013-05-26T13:46:59Z</time>
      </trkpt>
      <trkpt lat="45.44072" lon="4.39257">
        <ele>606.2816</ele>
        <time>2013-05-26T13:47:03Z</time>
      </trkpt>
      <trkpt lat="45.44063" lon="4.39279">
        <ele>606.7985</ele>
        <time>2013-05-26T13:47:06Z</time>
      </trkpt>
      <trkpt lat="45.44055" lon="4.39303">
        <ele>606.32336</ele>
        <time>2013-05-26T13:47:10Z</time>
      </trkpt>
      <trkpt lat="45.44057" lon="4.39329">
        <ele>601.73553</ele>
        <time>2013-05-26T13:47:15Z</time>
      </trkpt>
      <trkpt lat="45.44049" lon="4.39355">
        <ele>604.75757</ele>
        <time>2013-05-26T13:47:22Z</time>
      </trkpt>
      <trkpt lat="45.44035" lon="4.39375">
        <ele>606.4098</ele>
        <time>2013-05-26T13:47:29Z</time>
      </trkpt>
      <trkpt lat="45.44017" lon="4.39381">
        <ele>605.7073</ele>
        <time>2013-05-26T13:47:35Z</time>
      </trkpt>
      <trkpt lat="45.44" lon="4.39371">
        <ele>599.6571</ele>
        <time>2013-05-26T13:47:40Z</time>
      </trkpt>
      <trkpt lat="45.43979" lon="4.39368">
        <ele>593.7489</ele>
        <time>2013-05-26T13:47:45Z</time>
      </trkpt>
      <trkpt lat="45.43969" lon="4.39345">
        <ele>594.4021</ele>
        <time>2013-05-26T13:48:22Z</time>
      </trkpt>
      <trkpt lat="45.43972" lon="4.39316">
        <ele>595.6071</ele>
        <time>2013-05-26T13:48:28Z</time>
      </trkpt>
      <trkpt lat="45.43976" lon="4.39285">
        <ele>593.16205</ele>
        <time>2013-05-26T13:48:33Z</time>
      </trkpt>
      <trkpt lat="45.43977" lon="4.39257">
        <ele>591.3246</ele>
        <time>2013-05-26T13:48:36Z</time>
      </trkpt>
      <trkpt lat="45.43977" lon="4.3923">
        <ele>591.77966</ele>
        <time>2013-05-26T13:48:40Z</time>
      </trkpt>
      <trkpt lat="45.43981" lon="4.39204">
        <ele>590.55255</ele>
        <time>2013-05-26T13:48:44Z</time>
      </trkpt>
      <trkpt lat="45.43986" lon="4.39179">
        <ele>588.95685</ele>
        <time>2013-05-26T13:48:48Z</time>
      </trkpt>
      <trkpt lat="45.43992" lon="4.39153">
        <ele>587.31</ele>
        <time>2013-05-26T13:48:54Z</time>
      </trkpt>
      <trkpt lat="45.43998" lon="4.39128">
        <ele>583.2698</ele>
        <time>2013-05-26T13:49:01Z</time>
      </trkpt>
      <trkpt lat="45.44008" lon="4.39105">
        <ele>584.9412</ele>
        <time>2013-05-26T13:49:12Z</time>
      </trkpt>
      <trkpt lat="45.4399" lon="4.39108">
        <ele>591.75055</ele>
        <time>2013-05-26T13:50:03Z</time>
      </trkpt>
      <trkpt lat="45.43969" lon="4.39113">
        <ele>590.2305</ele>
        <time>2013-05-26T13:50:10Z</time>
      </trkpt>
      <trkpt lat="45.43951" lon="4.39121">
        <ele>585.6223</ele>
        <time>2013-05-26T13:50:25Z</time>
      </trkpt>
      <trkpt lat="45.43932" lon="4.39131">
        <ele>585.90704</ele>
        <time>2013-05-26T13:50:30Z</time>
      </trkpt>
      <trkpt lat="45.43914" lon="4.39141">
        <ele>585.0944</ele>
        <time>2013-05-26T13:50:34Z</time>
      </trkpt>
      <trkpt lat="45.43897" lon="4.39148">
        <ele>581.079</ele>
        <time>2013-05-26T13:50:44Z</time>
      </trkpt>
      <trkpt lat="45.43878" lon="4.39159">
        <ele>581.29047</ele>
        <time>2013-05-26T13:50:53Z</time>
      </trkpt>
      <trkpt lat="45.43859" lon="4.39167">
        <ele>580.6517</ele>
        <time>2013-05-26T13:50:58Z</time>
      </trkpt>
      <trkpt lat="45.43841" lon="4.3918">
        <ele>581.29565</ele>
        <time>2013-05-26T13:51:03Z</time>
      </trkpt>
      <trkpt lat="45.43823" lon="4.3919">
        <ele>577.9849</ele>
        <time>2013-05-26T13:51:09Z</time>
      </trkpt>
      <trkpt lat="45.43805" lon="4.392">
        <ele>578.18445</ele>
        <time>2013-05-26T13:51:15Z</time>
      </trkpt>
      <trkpt lat="45.43786" lon="4.39201">
        <ele>582.80023</ele>
        <time>2013-05-26T13:51:21Z</time>
      </trkpt>
      <trkpt lat="45.43767" lon="4.3921">
        <ele>590.54175</ele>
        <time>2013-05-26T13:51:28Z</time>
      </trkpt>
      <trkpt lat="45.43749" lon="4.39221">
        <ele>591.684</ele>
        <time>2013-05-26T13:51:34Z</time>
      </trkpt>
      <trkpt lat="45.43731" lon="4.39228">
        <ele>587.4428</ele>
        <time>2013-05-26T13:51:54Z</time>
      </trkpt>
      <trkpt lat="45.43713" lon="4.39237">
        <ele>590.4805</ele>
        <time>2013-05-26T13:52:08Z</time>
      </trkpt>
      <trkpt lat="45.43696" lon="4.3925">
        <ele>594.8562</ele>
        <time>2013-05-26T13:52:14Z</time>
      </trkpt>
      <trkpt lat="45.43676" lon="4.39252">
        <ele>591.15015</ele>
        <time>2013-05-26T13:52:21Z</time>
      </trkpt>
      <trkpt lat="45.43656" lon="4.39257">
        <ele>586.1001</ele>
        <time>2013-05-26T13:52:26Z</time>
      </trkpt>
      <trkpt lat="45.43637" lon="4.3926">
        <ele>584.93097</ele>
        <time>2013-05-26T13:52:34Z</time>
      </trkpt>
      <trkpt lat="45.43615" lon="4.39271">
        <ele>582.54144</ele>
        <time>2013-05-26T13:52:39Z</time>
      </trkpt>
      <trkpt lat="45.43596" lon="4.39279">
        <ele>583.0946</ele>
        <time>2013-05-26T13:52:44Z</time>
      </trkpt>
      <trkpt lat="45.43578" lon="4.39289">
        <ele>584.7067</ele>
        <time>2013-05-26T13:52:50Z</time>
      </trkpt>
      <trkpt lat="45.43558" lon="4.39301">
        <ele>586.0548</ele>
        <time>2013-05-26T13:52:55Z</time>
      </trkpt>
      <trkpt lat="45.43537" lon="4.39317">
        <ele>586.2162</ele>
        <time>2013-05-26T13:52:59Z</time>
      </trkpt>
      <trkpt lat="45.43518" lon="4.39317">
        <ele>586.144</ele>
        <time>2013-05-26T13:53:06Z</time>
      </trkpt>
      <trkpt lat="45.43506" lon="4.39296">
        <ele>587.5073</ele>
        <time>2013-05-26T13:53:15Z</time>
      </trkpt>
      <trkpt lat="45.43488" lon="4.39283">
        <ele>591.14813</ele>
        <time>2013-05-26T13:53:23Z</time>
      </trkpt>
      <trkpt lat="45.4347" lon="4.39276">
        <ele>590.6714</ele>
        <time>2013-05-26T13:53:28Z</time>
      </trkpt>
      <trkpt lat="45.43454" lon="4.39265">
        <ele>590.2538</ele>
        <time>2013-05-26T13:53:33Z</time>
      </trkpt>
      <trkpt lat="45.43435" lon="4.39257">
        <ele>588.7976</ele>
        <time>2013-05-26T13:53:38Z</time>
      </trkpt>
      <trkpt lat="45.43415" lon="4.3925">
        <ele>586.3811</ele>
        <time>2013-05-26T13:53:45Z</time>
      </trkpt>
      <trkpt lat="45.43396" lon="4.39242">
        <ele>587.1007</ele>
        <time>2013-05-26T13:53:53Z</time>
      </trkpt>
      <trkpt lat="45.43376" lon="4.39235">
        <ele>586.03564</ele>
        <time>2013-05-26T13:54:00Z</time>
      </trkpt>
      <trkpt lat="45.43357" lon="4.39227">
        <ele>587.12427</ele>
        <time>2013-05-26T13:54:06Z</time>
      </trkpt>
      <trkpt lat="45.43339" lon="4.39224">
        <ele>587.1412</ele>
        <time>2013-05-26T13:54:12Z</time>
      </trkpt>
      <trkpt lat="45.43318" lon="4.39231">
        <ele>588.1866</ele>
        <time>2013-05-26T13:54:18Z</time>
      </trkpt>
      <trkpt lat="45.433" lon="4.39244">
        <ele>587.3365</ele>
        <time>2013-05-26T13:54:23Z</time>
      </trkpt>
      <trkpt lat="45.43281" lon="4.39253">
        <ele>587.7107</ele>
        <time>2013-05-26T13:54:29Z</time>
      </trkpt>
      <trkpt lat="45.43263" lon="4.39261">
        <ele>587.3226</ele>
        <time>2013-05-26T13:54:34Z</time>
      </trkpt>
      <trkpt lat="45.43242" lon="4.39265">
        <ele>586.5911</ele>
        <time>2013-05-26T13:54:40Z</time>
      </trkpt>
      <trkpt lat="45.43223" lon="4.3927">
        <ele>588.0337</ele>
        <time>2013-05-26T13:54:45Z</time>
      </trkpt>
      <trkpt lat="45.43203" lon="4.3928">
        <ele>589.945</ele>
        <time>2013-05-26T13:54:50Z</time>
      </trkpt>
      <trkpt lat="45.43184" lon="4.39291">
        <ele>592.698</ele>
        <time>2013-05-26T13:54:55Z</time>
      </trkpt>
      <trkpt lat="45.43164" lon="4.39301">
        <ele>594.19885</ele>
        <time>2013-05-26T13:55:00Z</time>
      </trkpt>
      <trkpt lat="45.43145" lon="4.39309">
        <ele>596.6517</ele>
        <time>2013-05-26T13:55:05Z</time>
      </trkpt>
      <trkpt lat="45.43125" lon="4.39316">
        <ele>596.329</ele>
        <time>2013-05-26T13:55:11Z</time>
      </trkpt>
      <trkpt lat="45.43107" lon="4.39321">
        <ele>596.3017</ele>
        <time>2013-05-26T13:55:17Z</time>
      </trkpt>
      <trkpt lat="45.43086" lon="4.39331">
        <ele>595.1119</ele>
        <time>2013-05-26T13:55:23Z</time>
      </trkpt>
      <trkpt lat="45.43068" lon="4.39339">
        <ele>596.51587</ele>
        <time>2013-05-26T13:55:33Z</time>
      </trkpt>
      <trkpt lat="45.43049" lon="4.39351">
        <ele>598.0566</ele>
        <time>2013-05-26T13:55:42Z</time>
      </trkpt>
      <trkpt lat="45.4303" lon="4.39356">
        <ele>600.42413</ele>
        <time>2013-05-26T13:55:47Z</time>
      </trkpt>
      <trkpt lat="45.43011" lon="4.39361">
        <ele>603.12573</ele>
        <time>2013-05-26T13:55:52Z</time>
      </trkpt>
      <trkpt lat="45.42991" lon="4.39368">
        <ele>602.3726</ele>
        <time>2013-05-26T13:55:57Z</time>
      </trkpt>
      <trkpt lat="45.42972" lon="4.39374">
        <ele>602.6826</ele>
        <time>2013-05-26T13:56:04Z</time>
      </trkpt>
      <trkpt lat="45.42956" lon="4.39393">
        <ele>590.691</ele>
        <time>2013-05-26T13:56:11Z</time>
      </trkpt>
      <trkpt lat="45.42939" lon="4.39398">
        <ele>588.93756</ele>
        <time>2013-05-26T13:56:17Z</time>
      </trkpt>
      <trkpt lat="45.42917" lon="4.39405">
        <ele>587.7167</ele>
        <time>2013-05-26T13:56:23Z</time>
      </trkpt>
      <trkpt lat="45.42898" lon="4.39412">
        <ele>589.57916</ele>
        <time>2013-05-26T13:56:28Z</time>
      </trkpt>
      <trkpt lat="45.42878" lon="4.3942">
        <ele>592.4443</ele>
        <time>2013-05-26T13:56:34Z</time>
      </trkpt>
      <trkpt lat="45.42859" lon="4.39427">
        <ele>593.87164</ele>
        <time>2013-05-26T13:56:40Z</time>
      </trkpt>
      <trkpt lat="45.42841" lon="4.39434">
        <ele>598.45264</ele>
        <time>2013-05-26T13:56:48Z</time>
      </trkpt>
      <trkpt lat="45.42822" lon="4.39442">
        <ele>599.3353</ele>
        <time>2013-05-26T13:56:53Z</time>
      </trkpt>
      <trkpt lat="45.42803" lon="4.39449">
        <ele>597.97034</ele>
        <time>2013-05-26T13:56:59Z</time>
      </trkpt>
      <trkpt lat="45.42785" lon="4.39455">
        <ele>599.87537</ele>
        <time>2013-05-26T13:57:05Z</time>
      </trkpt>
      <trkpt lat="45.42767" lon="4.39463">
        <ele>601.6364</ele>
        <time>2013-05-26T13:57:10Z</time>
      </trkpt>
      <trkpt lat="45.42748" lon="4.3947">
        <ele>602.8609</ele>
        <time>2013-05-26T13:57:15Z</time>
      </trkpt>
      <trkpt lat="45.42731" lon="4.39477">
        <ele>603.2985</ele>
        <time>2013-05-26T13:57:20Z</time>
      </trkpt>
      <trkpt lat="45.42713" lon="4.39486">
        <ele>606.1419</ele>
        <time>2013-05-26T13:57:26Z</time>
      </trkpt>
      <trkpt lat="45.42693" lon="4.39496">
        <ele>610.60944</ele>
        <time>2013-05-26T13:57:33Z</time>
      </trkpt>
      <trkpt lat="45.42675" lon="4.39503">
        <ele>610.8421</ele>
        <time>2013-05-26T13:57:39Z</time>
      </trkpt>
      <trkpt lat="45.42655" lon="4.39507">
        <ele>612.1824</ele>
        <time>2013-05-26T13:57:46Z</time>
      </trkpt>
      <trkpt lat="45.42633" lon="4.39516">
        <ele>612.97736</ele>
        <time>2013-05-26T13:57:51Z</time>
      </trkpt>
      <trkpt lat="45.42616" lon="4.39523">
        <ele>613.2264</ele>
        <time>2013-05-26T13:57:56Z</time>
      </trkpt>
      <trkpt lat="45.42598" lon="4.39532">
        <ele>612.62537</ele>
        <time>2013-05-26T13:58:01Z</time>
      </trkpt>
      <trkpt lat="45.42579" lon="4.39539">
        <ele>613.2092</ele>
        <time>2013-05-26T13:58:05Z</time>
      </trkpt>
      <trkpt lat="45.42558" lon="4.39549">
        <ele>612.8253</ele>
        <time>2013-05-26T13:58:10Z</time>
      </trkpt>
      <trkpt lat="45.42541" lon="4.39557">
        <ele>611.6393</ele>
        <time>2013-05-26T13:58:14Z</time>
      </trkpt>
      <trkpt lat="45.42522" lon="4.39565">
        <ele>610.7558</ele>
        <time>2013-05-26T13:58:19Z</time>
      </trkpt>
      <trkpt lat="45.42503" lon="4.39574">
        <ele>606.0005</ele>
        <time>2013-05-26T13:58:25Z</time>
      </trkpt>
      <trkpt lat="45.42484" lon="4.39584">
        <ele>602.8312</ele>
        <time>2013-05-26T13:58:31Z</time>
      </trkpt>
      <trkpt lat="45.42466" lon="4.39592">
        <ele>602.12555</ele>
        <time>2013-05-26T13:58:36Z</time>
      </trkpt>
      <trkpt lat="45.42448" lon="4.39601">
        <ele>602.4538</ele>
        <time>2013-05-26T13:58:40Z</time>
      </trkpt>
      <trkpt lat="45.4243" lon="4.39606">
        <ele>604.4643</ele>
        <time>2013-05-26T13:58:44Z</time>
      </trkpt>
      <trkpt lat="45.42411" lon="4.39612">
        <ele>605.4827</ele>
        <time>2013-05-26T13:58:49Z</time>
      </trkpt>
      <trkpt lat="45.4239" lon="4.3962">
        <ele>606.5494</ele>
        <time>2013-05-26T13:58:54Z</time>
      </trkpt>
      <trkpt lat="45.42372" lon="4.39625">
        <ele>607.2922</ele>
        <time>2013-05-26T13:58:58Z</time>
      </trkpt>
      <trkpt lat="45.42352" lon="4.39629">
        <ele>606.69806</ele>
        <time>2013-05-26T13:59:03Z</time>
      </trkpt>
      <trkpt lat="45.42331" lon="4.39633">
        <ele>606.3645</ele>
        <time>2013-05-26T13:59:08Z</time>
      </trkpt>
      <trkpt lat="45.42308" lon="4.39639">
        <ele>606.229</ele>
        <time>2013-05-26T13:59:13Z</time>
      </trkpt>
      <trkpt lat="45.42288" lon="4.39645">
        <ele>606.23914</ele>
        <time>2013-05-26T13:59:18Z</time>
      </trkpt>
      <trkpt lat="45.4227" lon="4.39648">
        <ele>605.2569</ele>
        <time>2013-05-26T13:59:39Z</time>
      </trkpt>
      <trkpt lat="45.42251" lon="4.39653">
        <ele>604.6255</ele>
        <time>2013-05-26T13:59:44Z</time>
      </trkpt>
      <trkpt lat="45.42231" lon="4.39664">
        <ele>601.79706</ele>
        <time>2013-05-26T13:59:49Z</time>
      </trkpt>
      <trkpt lat="45.42211" lon="4.39674">
        <ele>598.2762</ele>
        <time>2013-05-26T13:59:54Z</time>
      </trkpt>
      <trkpt lat="45.42193" lon="4.3968">
        <ele>601.42444</ele>
        <time>2013-05-26T13:59:59Z</time>
      </trkpt>
      <trkpt lat="45.42177" lon="4.39699">
        <ele>611.0257</ele>
        <time>2013-05-26T14:00:05Z</time>
      </trkpt>
      <trkpt lat="45.42155" lon="4.39713">
        <ele>613.62646</ele>
        <time>2013-05-26T14:00:09Z</time>
      </trkpt>
      <trkpt lat="45.42137" lon="4.39717">
        <ele>612.7119</ele>
        <time>2013-05-26T14:00:14Z</time>
      </trkpt>
      <trkpt lat="45.42127" lon="4.39695">
        <ele>615.11566</ele>
        <time>2013-05-26T14:00:26Z</time>
      </trkpt>
      <trkpt lat="45.4213" lon="4.39721">
        <ele>613.00073</ele>
        <time>2013-05-26T14:00:53Z</time>
      </trkpt>
      <trkpt lat="45.42127" lon="4.39747">
        <ele>613.041</ele>
        <time>2013-05-26T14:01:01Z</time>
      </trkpt>
      <trkpt lat="45.42109" lon="4.39762">
        <ele>615.0658</ele>
        <time>2013-05-26T14:01:07Z</time>
      </trkpt>
      <trkpt lat="45.42094" lon="4.39779">
        <ele>616.8062</ele>
        <time>2013-05-26T14:01:13Z</time>
      </trkpt>
      <trkpt lat="45.42079" lon="4.39797">
        <ele>617.41736</ele>
        <time>2013-05-26T14:01:18Z</time>
      </trkpt>
      <trkpt lat="45.42063" lon="4.39817">
        <ele>618.00854</ele>
        <time>2013-05-26T14:01:24Z</time>
      </trkpt>
      <trkpt lat="45.42045" lon="4.39828">
        <ele>615.32526</ele>
        <time>2013-05-26T14:01:31Z</time>
      </trkpt>
      <trkpt lat="45.42028" lon="4.39846">
        <ele>616.1114</ele>
        <time>2013-05-26T14:01:37Z</time>
      </trkpt>
      <trkpt lat="45.42013" lon="4.39868">
        <ele>614.51373</ele>
        <time>2013-05-26T14:01:43Z</time>
      </trkpt>
      <trkpt lat="45.41997" lon="4.39886">
        <ele>610.6393</ele>
        <time>2013-05-26T14:01:49Z</time>
      </trkpt>
      <trkpt lat="45.4198" lon="4.39903">
        <ele>607.69025</ele>
        <time>2013-05-26T14:01:56Z</time>
      </trkpt>
      <trkpt lat="45.41965" lon="4.3992">
        <ele>610.8542</ele>
        <time>2013-05-26T14:02:07Z</time>
      </trkpt>
      <trkpt lat="45.41949" lon="4.39937">
        <ele>618.3197</ele>
        <time>2013-05-26T14:02:15Z</time>
      </trkpt>
      <trkpt lat="45.41929" lon="4.39947">
        <ele>619.8205</ele>
        <time>2013-05-26T14:02:21Z</time>
      </trkpt>
      <trkpt lat="45.41911" lon="4.39955">
        <ele>619.18616</ele>
        <time>2013-05-26T14:02:28Z</time>
      </trkpt>
      <trkpt lat="45.41904" lon="4.39931">
        <ele>618.3044</ele>
        <time>2013-05-26T14:02:35Z</time>
      </trkpt>
      <trkpt lat="45.41899" lon="4.39905">
        <ele>617.00214</ele>
        <time>2013-05-26T14:02:40Z</time>
      </trkpt>
      <trkpt lat="45.41895" lon="4.39878">
        <ele>617.0173</ele>
        <time>2013-05-26T14:02:46Z</time>
      </trkpt>
      <trkpt lat="45.41875" lon="4.39877">
        <ele>614.68225</ele>
        <time>2013-05-26T14:02:56Z</time>
      </trkpt>
      <trkpt lat="45.41857" lon="4.39887">
        <ele>613.32764</ele>
        <time>2013-05-26T14:03:02Z</time>
      </trkpt>
      <trkpt lat="45.41839" lon="4.39896">
        <ele>613.9297</ele>
        <time>2013-05-26T14:03:08Z</time>
      </trkpt>
      <trkpt lat="45.4182" lon="4.39903">
        <ele>613.98267</ele>
        <time>2013-05-26T14:03:18Z</time>
      </trkpt>
      <trkpt lat="45.41801" lon="4.39914">
        <ele>615.09326</ele>
        <time>2013-05-26T14:03:25Z</time>
      </trkpt>
      <trkpt lat="45.41784" lon="4.39924">
        <ele>616.8759</ele>
        <time>2013-05-26T14:03:32Z</time>
      </trkpt>
      <trkpt lat="45.41765" lon="4.39931">
        <ele>616.7299</ele>
        <time>2013-05-26T14:03:38Z</time>
      </trkpt>
      <trkpt lat="45.41747" lon="4.3994">
        <ele>616.9851</ele>
        <time>2013-05-26T14:03:44Z</time>
      </trkpt>
      <trkpt lat="45.41729" lon="4.39948">
        <ele>618.0471</ele>
        <time>2013-05-26T14:03:50Z</time>
      </trkpt>
      <trkpt lat="45.41712" lon="4.39956">
        <ele>618.5264</ele>
        <time>2013-05-26T14:03:56Z</time>
      </trkpt>
      <trkpt lat="45.41694" lon="4.39964">
        <ele>620.35754</ele>
        <time>2013-05-26T14:04:03Z</time>
      </trkpt>
      <trkpt lat="45.41675" lon="4.39975">
        <ele>618.91296</ele>
        <time>2013-05-26T14:04:11Z</time>
      </trkpt>
      <trkpt lat="45.41655" lon="4.39984">
        <ele>618.83545</ele>
        <time>2013-05-26T14:04:18Z</time>
      </trkpt>
      <trkpt lat="45.41636" lon="4.39992">
        <ele>620.0277</ele>
        <time>2013-05-26T14:04:25Z</time>
      </trkpt>
      <trkpt lat="45.41617" lon="4.4">
        <ele>621.70593</ele>
        <time>2013-05-26T14:04:34Z</time>
      </trkpt>
      <trkpt lat="45.416" lon="4.4001">
        <ele>622.3585</ele>
        <time>2013-05-26T14:04:41Z</time>
      </trkpt>
      <trkpt lat="45.4158" lon="4.40019">
        <ele>622.70496</ele>
        <time>2013-05-26T14:04:48Z</time>
      </trkpt>
      <trkpt lat="45.41562" lon="4.40029">
        <ele>623.00146</ele>
        <time>2013-05-26T14:04:54Z</time>
      </trkpt>
      <trkpt lat="45.41545" lon="4.40035">
        <ele>623.4271</ele>
        <time>2013-05-26T14:05:00Z</time>
      </trkpt>
      <trkpt lat="45.41532" lon="4.40014">
        <ele>623.8531</ele>
        <time>2013-05-26T14:05:09Z</time>
      </trkpt>
      <trkpt lat="45.41529" lon="4.39985">
        <ele>623.7482</ele>
        <time>2013-05-26T14:05:15Z</time>
      </trkpt>
      <trkpt lat="45.41524" lon="4.39958">
        <ele>624.94226</ele>
        <time>2013-05-26T14:05:21Z</time>
      </trkpt>
      <trkpt lat="45.4152" lon="4.39933">
        <ele>624.7728</ele>
        <time>2013-05-26T14:05:27Z</time>
      </trkpt>
      <trkpt lat="45.41508" lon="4.39915">
        <ele>626.1743</ele>
        <time>2013-05-26T14:05:37Z</time>
      </trkpt>
      <trkpt lat="45.41489" lon="4.39925">
        <ele>629.1012</ele>
        <time>2013-05-26T14:05:44Z</time>
      </trkpt>
      <trkpt lat="45.41471" lon="4.39932">
        <ele>634.40894</ele>
        <time>2013-05-26T14:05:51Z</time>
      </trkpt>
      <trkpt lat="45.41452" lon="4.39939">
        <ele>635.14124</ele>
        <time>2013-05-26T14:05:57Z</time>
      </trkpt>
      <trkpt lat="45.41432" lon="4.39946">
        <ele>633.25214</ele>
        <time>2013-05-26T14:06:04Z</time>
      </trkpt>
      <trkpt lat="45.41413" lon="4.39944">
        <ele>630.4742</ele>
        <time>2013-05-26T14:06:13Z</time>
      </trkpt>
      <trkpt lat="45.41404" lon="4.39919">
        <ele>629.32654</ele>
        <time>2013-05-26T14:06:19Z</time>
      </trkpt>
      <trkpt lat="45.414" lon="4.39891">
        <ele>628.2443</ele>
        <time>2013-05-26T14:06:25Z</time>
      </trkpt>
      <trkpt lat="45.41397" lon="4.39863">
        <ele>628.0331</ele>
        <time>2013-05-26T14:06:31Z</time>
      </trkpt>
      <trkpt lat="45.41397" lon="4.39836">
        <ele>628.2744</ele>
        <time>2013-05-26T14:06:38Z</time>
      </trkpt>
      <trkpt lat="45.41378" lon="4.39841">
        <ele>628.36566</ele>
        <time>2013-05-26T14:06:47Z</time>
      </trkpt>
      <trkpt lat="45.41358" lon="4.39843">
        <ele>630.60455</ele>
        <time>2013-05-26T14:06:55Z</time>
      </trkpt>
      <trkpt lat="45.41252" lon="4.3992">
        <ele>635.9358</ele>
        <time>2013-05-26T14:07:32Z</time>
      </trkpt>
      <trkpt lat="45.4124" lon="4.39898">
        <ele>642.8268</ele>
        <time>2013-05-26T14:07:42Z</time>
      </trkpt>
      <trkpt lat="45.41231" lon="4.39875">
        <ele>641.05975</ele>
        <time>2013-05-26T14:07:49Z</time>
      </trkpt>
      <trkpt lat="45.41219" lon="4.39852">
        <ele>639.93475</ele>
        <time>2013-05-26T14:07:57Z</time>
      </trkpt>
      <trkpt lat="45.41206" lon="4.39831">
        <ele>637.3699</ele>
        <time>2013-05-26T14:08:04Z</time>
      </trkpt>
      <trkpt lat="45.41196" lon="4.39808">
        <ele>636.4963</ele>
        <time>2013-05-26T14:08:11Z</time>
      </trkpt>
      <trkpt lat="45.41185" lon="4.39786">
        <ele>636.3036</ele>
        <time>2013-05-26T14:08:19Z</time>
      </trkpt>
      <trkpt lat="45.41169" lon="4.39773">
        <ele>640.19525</ele>
        <time>2013-05-26T14:08:37Z</time>
      </trkpt>
      <trkpt lat="45.41151" lon="4.39786">
        <ele>644.4566</ele>
        <time>2013-05-26T14:08:44Z</time>
      </trkpt>
      <trkpt lat="45.41133" lon="4.39796">
        <ele>644.2941</ele>
        <time>2013-05-26T14:08:51Z</time>
      </trkpt>
      <trkpt lat="45.41115" lon="4.39808">
        <ele>644.45667</ele>
        <time>2013-05-26T14:08:59Z</time>
      </trkpt>
      <trkpt lat="45.41099" lon="4.39819">
        <ele>644.16895</ele>
        <time>2013-05-26T14:09:08Z</time>
      </trkpt>
      <trkpt lat="45.41084" lon="4.39833">
        <ele>643.38293</ele>
        <time>2013-05-26T14:09:16Z</time>
      </trkpt>
      <trkpt lat="45.41066" lon="4.39836">
        <ele>642.7984</ele>
        <time>2013-05-26T14:09:25Z</time>
      </trkpt>
      <trkpt lat="45.41046" lon="4.39827">
        <ele>642.39734</ele>
        <time>2013-05-26T14:09:31Z</time>
      </trkpt>
      <trkpt lat="45.41031" lon="4.39845">
        <ele>642.16034</ele>
        <time>2013-05-26T14:09:37Z</time>
      </trkpt>
      <trkpt lat="45.41014" lon="4.39858">
        <ele>642.9336</ele>
        <time>2013-05-26T14:10:56Z</time>
      </trkpt>
      <trkpt lat="45.40998" lon="4.3987">
        <ele>644.3622</ele>
        <time>2013-05-26T14:11:05Z</time>
      </trkpt>
      <trkpt lat="45.40985" lon="4.39888">
        <ele>644.8855</ele>
        <time>2013-05-26T14:11:15Z</time>
      </trkpt>
      <trkpt lat="45.40973" lon="4.39908">
        <ele>645.37354</ele>
        <time>2013-05-26T14:11:24Z</time>
      </trkpt>
      <trkpt lat="45.4096" lon="4.39928">
        <ele>646.9348</ele>
        <time>2013-05-26T14:11:35Z</time>
      </trkpt>
      <trkpt lat="45.40943" lon="4.39944">
        <ele>648.4125</ele>
        <time>2013-05-26T14:11:47Z</time>
      </trkpt>
      <trkpt lat="45.40928" lon="4.3996">
        <ele>649.78937</ele>
        <time>2013-05-26T14:11:58Z</time>
      </trkpt>
      <trkpt lat="45.40891" lon="4.39993">
        <ele>652.50793</ele>
        <time>2013-05-26T14:12:30Z</time>
      </trkpt>
      <trkpt lat="45.40875" lon="4.40006">
        <ele>653.00214</ele>
        <time>2013-05-26T14:13:11Z</time>
      </trkpt>
      <trkpt lat="45.40857" lon="4.40014">
        <ele>658.0743</ele>
        <time>2013-05-26T14:13:23Z</time>
      </trkpt>
      <trkpt lat="45.40838" lon="4.4002">
        <ele>661.48816</ele>
        <time>2013-05-26T14:13:34Z</time>
      </trkpt>
      <trkpt lat="45.40819" lon="4.40025">
        <ele>663.9659</ele>
        <time>2013-05-26T14:13:46Z</time>
      </trkpt>
      <trkpt lat="45.408" lon="4.40029">
        <ele>665.1843</ele>
        <time>2013-05-26T14:13:58Z</time>
      </trkpt>
      <trkpt lat="45.40781" lon="4.40032">
        <ele>667.0379</ele>
        <time>2013-05-26T14:14:08Z</time>
      </trkpt>
      <trkpt lat="45.40763" lon="4.40035">
        <ele>668.56854</ele>
        <time>2013-05-26T14:14:19Z</time>
      </trkpt>
      <trkpt lat="45.40744" lon="4.40041">
        <ele>671.0501</ele>
        <time>2013-05-26T14:14:32Z</time>
      </trkpt>
      <trkpt lat="45.40726" lon="4.40049">
        <ele>670.46954</ele>
        <time>2013-05-26T14:14:44Z</time>
      </trkpt>
      <trkpt lat="45.40708" lon="4.40055">
        <ele>670.4787</ele>
        <time>2013-05-26T14:14:55Z</time>
      </trkpt>
      <trkpt lat="45.40688" lon="4.40058">
        <ele>669.86804</ele>
        <time>2013-05-26T14:15:05Z</time>
      </trkpt>
      <trkpt lat="45.4067" lon="4.40062">
        <ele>670.89386</ele>
        <time>2013-05-26T14:15:16Z</time>
      </trkpt>
      <trkpt lat="45.40651" lon="4.40066">
        <ele>670.27203</ele>
        <time>2013-05-26T14:15:27Z</time>
      </trkpt>
      <trkpt lat="45.40632" lon="4.40069">
        <ele>671.2217</ele>
        <time>2013-05-26T14:15:38Z</time>
      </trkpt>
      <trkpt lat="45.40614" lon="4.40072">
        <ele>673.2353</ele>
        <time>2013-05-26T14:16:17Z</time>
      </trkpt>
      <trkpt lat="45.40595" lon="4.40074">
        <ele>673.2241</ele>
        <time>2013-05-26T14:16:28Z</time>
      </trkpt>
      <trkpt lat="45.40575" lon="4.40073">
        <ele>676.2593</ele>
        <time>2013-05-26T14:16:38Z</time>
      </trkpt>
      <trkpt lat="45.40556" lon="4.40073">
        <ele>678.0607</ele>
        <time>2013-05-26T14:16:49Z</time>
      </trkpt>
      <trkpt lat="45.40537" lon="4.40074">
        <ele>678.9456</ele>
        <time>2013-05-26T14:17:00Z</time>
      </trkpt>
      <trkpt lat="45.40479" lon="4.40078">
        <ele>682.613</ele>
        <time>2013-05-26T14:17:31Z</time>
      </trkpt>
      <trkpt lat="45.40461" lon="4.40076">
        <ele>688.13873</ele>
        <time>2013-05-26T14:17:45Z</time>
      </trkpt>
      <trkpt lat="45.40444" lon="4.40088">
        <ele>688.41296</ele>
        <time>2013-05-26T14:17:56Z</time>
      </trkpt>
      <trkpt lat="45.40427" lon="4.40102">
        <ele>689.817</ele>
        <time>2013-05-26T14:18:07Z</time>
      </trkpt>
      <trkpt lat="45.4041" lon="4.40113">
        <ele>693.4334</ele>
        <time>2013-05-26T14:18:18Z</time>
      </trkpt>
      <trkpt lat="45.40394" lon="4.40126">
        <ele>695.66455</ele>
        <time>2013-05-26T14:18:29Z</time>
      </trkpt>
      <trkpt lat="45.40378" lon="4.40141">
        <ele>697.0187</ele>
        <time>2013-05-26T14:18:41Z</time>
      </trkpt>
      <trkpt lat="45.40363" lon="4.40157">
        <ele>699.05756</ele>
        <time>2013-05-26T14:18:54Z</time>
      </trkpt>
      <trkpt lat="45.40348" lon="4.40173">
        <ele>699.81226</ele>
        <time>2013-05-26T14:19:05Z</time>
      </trkpt>
      <trkpt lat="45.40334" lon="4.40189">
        <ele>703.9623</ele>
        <time>2013-05-26T14:19:16Z</time>
      </trkpt>
      <trkpt lat="45.4032" lon="4.40207">
        <ele>705.38257</ele>
        <time>2013-05-26T14:19:27Z</time>
      </trkpt>
      <trkpt lat="45.40307" lon="4.40227">
        <ele>706.8678</ele>
        <time>2013-05-26T14:19:38Z</time>
      </trkpt>
      <trkpt lat="45.40295" lon="4.40248">
        <ele>708.7521</ele>
        <time>2013-05-26T14:19:49Z</time>
      </trkpt>
      <trkpt lat="45.40285" lon="4.40272">
        <ele>709.90137</ele>
        <time>2013-05-26T14:20:01Z</time>
      </trkpt>
      <trkpt lat="45.40277" lon="4.40297">
        <ele>711.3509</ele>
        <time>2013-05-26T14:20:12Z</time>
      </trkpt>
      <trkpt lat="45.4027" lon="4.40322">
        <ele>711.8395</ele>
        <time>2013-05-26T14:20:23Z</time>
      </trkpt>
      <trkpt lat="45.40263" lon="4.40348">
        <ele>713.7435</ele>
        <time>2013-05-26T14:20:34Z</time>
      </trkpt>
      <trkpt lat="45.40257" lon="4.40374">
        <ele>715.72266</ele>
        <time>2013-05-26T14:20:45Z</time>
      </trkpt>
      <trkpt lat="45.4025" lon="4.40399">
        <ele>717.7336</ele>
        <time>2013-05-26T14:20:57Z</time>
      </trkpt>
      <trkpt lat="45.40243" lon="4.40423">
        <ele>720.18823</ele>
        <time>2013-05-26T14:21:08Z</time>
      </trkpt>
      <trkpt lat="45.40236" lon="4.40447">
        <ele>724.6127</ele>
        <time>2013-05-26T14:21:19Z</time>
      </trkpt>
      <trkpt lat="45.40228" lon="4.4047">
        <ele>726.5849</ele>
        <time>2013-05-26T14:21:30Z</time>
      </trkpt>
      <trkpt lat="45.4022" lon="4.40493">
        <ele>727.53186</ele>
        <time>2013-05-26T14:21:41Z</time>
      </trkpt>
      <trkpt lat="45.40211" lon="4.40517">
        <ele>728.6762</ele>
        <time>2013-05-26T14:21:52Z</time>
      </trkpt>
      <trkpt lat="45.4016" lon="4.40587">
        <ele>731.8692</ele>
        <time>2013-05-26T14:22:34Z</time>
      </trkpt>
      <trkpt lat="45.40157" lon="4.40613">
        <ele>733.06146</ele>
        <time>2013-05-26T14:22:45Z</time>
      </trkpt>
      <trkpt lat="45.40147" lon="4.40635">
        <ele>732.10565</ele>
        <time>2013-05-26T14:22:57Z</time>
      </trkpt>
      <trkpt lat="45.40136" lon="4.40657">
        <ele>731.7357</ele>
        <time>2013-05-26T14:23:09Z</time>
      </trkpt>
      <trkpt lat="45.40128" lon="4.40681">
        <ele>732.9471</ele>
        <time>2013-05-26T14:23:21Z</time>
      </trkpt>
      <trkpt lat="45.40121" lon="4.40706">
        <ele>733.3959</ele>
        <time>2013-05-26T14:23:33Z</time>
      </trkpt>
      <trkpt lat="45.40117" lon="4.40733">
        <ele>735.0668</ele>
        <time>2013-05-26T14:23:45Z</time>
      </trkpt>
      <trkpt lat="45.40117" lon="4.40759">
        <ele>736.16626</ele>
        <time>2013-05-26T14:23:57Z</time>
      </trkpt>
      <trkpt lat="45.40119" lon="4.40786">
        <ele>737.93524</ele>
        <time>2013-05-26T14:24:10Z</time>
      </trkpt>
      <trkpt lat="45.40124" lon="4.40813">
        <ele>738.8724</ele>
        <time>2013-05-26T14:24:22Z</time>
      </trkpt>
      <trkpt lat="45.40128" lon="4.40839">
        <ele>739.8149</ele>
        <time>2013-05-26T14:24:34Z</time>
      </trkpt>
      <trkpt lat="45.40133" lon="4.40866">
        <ele>741.4277</ele>
        <time>2013-05-26T14:24:46Z</time>
      </trkpt>
      <trkpt lat="45.40139" lon="4.40892">
        <ele>743.95776</ele>
        <time>2013-05-26T14:24:58Z</time>
      </trkpt>
      <trkpt lat="45.40144" lon="4.40918">
        <ele>745.8342</ele>
        <time>2013-05-26T14:25:10Z</time>
      </trkpt>
      <trkpt lat="45.40148" lon="4.40944">
        <ele>746.5326</ele>
        <time>2013-05-26T14:25:22Z</time>
      </trkpt>
      <trkpt lat="45.40155" lon="4.4097">
        <ele>749.88165</ele>
        <time>2013-05-26T14:25:34Z</time>
      </trkpt>
      <trkpt lat="45.4016" lon="4.40997">
        <ele>750.6359</ele>
        <time>2013-05-26T14:25:46Z</time>
      </trkpt>
      <trkpt lat="45.40163" lon="4.41024">
        <ele>752.2327</ele>
        <time>2013-05-26T14:25:58Z</time>
      </trkpt>
      <trkpt lat="45.40163" lon="4.4105">
        <ele>753.1075</ele>
        <time>2013-05-26T14:26:10Z</time>
      </trkpt>
      <trkpt lat="45.40162" lon="4.41078">
        <ele>755.3467</ele>
        <time>2013-05-26T14:26:22Z</time>
      </trkpt>
      <trkpt lat="45.40158" lon="4.41104">
        <ele>757.0794</ele>
        <time>2013-05-26T14:26:34Z</time>
      </trkpt>
      <trkpt lat="45.40152" lon="4.41132">
        <ele>758.1992</ele>
        <time>2013-05-26T14:28:23Z</time>
      </trkpt>
      <trkpt lat="45.40144" lon="4.41158">
        <ele>759.74896</ele>
        <time>2013-05-26T14:28:30Z</time>
      </trkpt>
      <trkpt lat="45.40134" lon="4.4118">
        <ele>761.8752</ele>
        <time>2013-05-26T14:28:38Z</time>
      </trkpt>
      <trkpt lat="45.40122" lon="4.41201">
        <ele>762.54486</ele>
        <time>2013-05-26T14:28:48Z</time>
      </trkpt>
      <trkpt lat="45.40109" lon="4.41221">
        <ele>762.5278</ele>
        <time>2013-05-26T14:28:59Z</time>
      </trkpt>
      <trkpt lat="45.40097" lon="4.41241">
        <ele>765.3342</ele>
        <time>2013-05-26T14:29:10Z</time>
      </trkpt>
      <trkpt lat="45.4009" lon="4.41265">
        <ele>766.2367</ele>
        <time>2013-05-26T14:29:21Z</time>
      </trkpt>
      <trkpt lat="45.40085" lon="4.4129">
        <ele>767.1408</ele>
        <time>2013-05-26T14:29:32Z</time>
      </trkpt>
      <trkpt lat="45.40075" lon="4.41313">
        <ele>772.4801</ele>
        <time>2013-05-26T14:29:44Z</time>
      </trkpt>
      <trkpt lat="45.40072" lon="4.4134">
        <ele>777.4937</ele>
        <time>2013-05-26T14:29:56Z</time>
      </trkpt>
      <trkpt lat="45.40068" lon="4.41366">
        <ele>779.848</ele>
        <time>2013-05-26T14:30:07Z</time>
      </trkpt>
      <trkpt lat="45.40065" lon="4.41392">
        <ele>780.20276</ele>
        <time>2013-05-26T14:30:19Z</time>
      </trkpt>
      <trkpt lat="45.40062" lon="4.41418">
        <ele>780.65686</ele>
        <time>2013-05-26T14:30:30Z</time>
      </trkpt>
      <trkpt lat="45.40062" lon="4.41443">
        <ele>780.8077</ele>
        <time>2013-05-26T14:30:41Z</time>
      </trkpt>
      <trkpt lat="45.40063" lon="4.41469">
        <ele>782.7914</ele>
        <time>2013-05-26T14:30:52Z</time>
      </trkpt>
      <trkpt lat="45.40063" lon="4.41496">
        <ele>785.5085</ele>
        <time>2013-05-26T14:31:04Z</time>
      </trkpt>
      <trkpt lat="45.40065" lon="4.41521">
        <ele>785.8876</ele>
        <time>2013-05-26T14:31:16Z</time>
      </trkpt>
      <trkpt lat="45.40064" lon="4.41549">
        <ele>784.3158</ele>
        <time>2013-05-26T14:31:27Z</time>
      </trkpt>
      <trkpt lat="45.40065" lon="4.41575">
        <ele>785.01373</ele>
        <time>2013-05-26T14:31:37Z</time>
      </trkpt>
      <trkpt lat="45.40057" lon="4.416">
        <ele>791.32623</ele>
        <time>2013-05-26T14:31:49Z</time>
      </trkpt>
      <trkpt lat="45.4005" lon="4.41624">
        <ele>795.7291</ele>
        <time>2013-05-26T14:32:01Z</time>
      </trkpt>
      <trkpt lat="45.4004" lon="4.41647">
        <ele>799.867</ele>
        <time>2013-05-26T14:32:12Z</time>
      </trkpt>
      <trkpt lat="45.40027" lon="4.41666">
        <ele>804.9213</ele>
        <time>2013-05-26T14:32:23Z</time>
      </trkpt>
      <trkpt lat="45.40013" lon="4.41683">
        <ele>803.23</ele>
        <time>2013-05-26T14:32:33Z</time>
      </trkpt>
      <trkpt lat="45.39997" lon="4.41696">
        <ele>802.4692</ele>
        <time>2013-05-26T14:32:43Z</time>
      </trkpt>
      <trkpt lat="45.39982" lon="4.4171">
        <ele>799.3914</ele>
        <time>2013-05-26T14:32:54Z</time>
      </trkpt>
      <trkpt lat="45.39964" lon="4.41718">
        <ele>795.4584</ele>
        <time>2013-05-26T14:33:03Z</time>
      </trkpt>
      <trkpt lat="45.39947" lon="4.41728">
        <ele>797.01917</ele>
        <time>2013-05-26T14:33:14Z</time>
      </trkpt>
      <trkpt lat="45.3993" lon="4.4174">
        <ele>800.6336</ele>
        <time>2013-05-26T14:33:25Z</time>
      </trkpt>
      <trkpt lat="45.39914" lon="4.41753">
        <ele>801.1008</ele>
        <time>2013-05-26T14:33:38Z</time>
      </trkpt>
      <trkpt lat="45.39897" lon="4.41766">
        <ele>803.88367</ele>
        <time>2013-05-26T14:33:49Z</time>
      </trkpt>
      <trkpt lat="45.39881" lon="4.41781">
        <ele>804.45</ele>
        <time>2013-05-26T14:34:01Z</time>
      </trkpt>
      <trkpt lat="45.39867" lon="4.41798">
        <ele>803.0881</ele>
        <time>2013-05-26T14:34:12Z</time>
      </trkpt>
      <trkpt lat="45.39857" lon="4.41819">
        <ele>803.43976</ele>
        <time>2013-05-26T14:34:23Z</time>
      </trkpt>
      <trkpt lat="45.39847" lon="4.41844">
        <ele>804.86255</ele>
        <time>2013-05-26T14:34:35Z</time>
      </trkpt>
      <trkpt lat="45.39843" lon="4.41869">
        <ele>806.9152</ele>
        <time>2013-05-26T14:34:46Z</time>
      </trkpt>
      <trkpt lat="45.39838" lon="4.41895">
        <ele>809.60406</ele>
        <time>2013-05-26T14:34:58Z</time>
      </trkpt>
      <trkpt lat="45.39835" lon="4.41921">
        <ele>812.1693</ele>
        <time>2013-05-26T14:35:10Z</time>
      </trkpt>
      <trkpt lat="45.39833" lon="4.41948">
        <ele>814.95984</ele>
        <time>2013-05-26T14:35:21Z</time>
      </trkpt>
      <trkpt lat="45.39834" lon="4.41976">
        <ele>816.71173</ele>
        <time>2013-05-26T14:35:31Z</time>
      </trkpt>
      <trkpt lat="45.39831" lon="4.42003">
        <ele>818.20233</ele>
        <time>2013-05-26T14:35:43Z</time>
      </trkpt>
      <trkpt lat="45.39828" lon="4.4203">
        <ele>816.54254</ele>
        <time>2013-05-26T14:35:53Z</time>
      </trkpt>
      <trkpt lat="45.39825" lon="4.42057">
        <ele>819.79767</ele>
        <time>2013-05-26T14:36:04Z</time>
      </trkpt>
      <trkpt lat="45.39817" lon="4.42082">
        <ele>820.017</ele>
        <time>2013-05-26T14:36:14Z</time>
      </trkpt>
      <trkpt lat="45.39807" lon="4.42103">
        <ele>821.09937</ele>
        <time>2013-05-26T14:36:24Z</time>
      </trkpt>
      <trkpt lat="45.39795" lon="4.42125">
        <ele>822.7268</ele>
        <time>2013-05-26T14:36:35Z</time>
      </trkpt>
      <trkpt lat="45.3978" lon="4.42144">
        <ele>822.42975</ele>
        <time>2013-05-26T14:36:45Z</time>
      </trkpt>
      <trkpt lat="45.39762" lon="4.42149">
        <ele>822.6218</ele>
        <time>2013-05-26T14:36:54Z</time>
      </trkpt>
      <trkpt lat="45.39745" lon="4.42142">
        <ele>821.45215</ele>
        <time>2013-05-26T14:39:24Z</time>
      </trkpt>
      <trkpt lat="45.39727" lon="4.42132">
        <ele>825.5631</ele>
        <time>2013-05-26T14:42:34Z</time>
      </trkpt>
      <trkpt lat="45.39711" lon="4.42116">
        <ele>825.2695</ele>
        <time>2013-05-26T14:42:45Z</time>
      </trkpt>
      <trkpt lat="45.39695" lon="4.42101">
        <ele>824.91986</ele>
        <time>2013-05-26T14:42:56Z</time>
      </trkpt>
      <trkpt lat="45.39679" lon="4.42087">
        <ele>825.30084</ele>
        <time>2013-05-26T14:43:07Z</time>
      </trkpt>
      <trkpt lat="45.39662" lon="4.42074">
        <ele>826.4202</ele>
        <time>2013-05-26T14:43:18Z</time>
      </trkpt>
      <trkpt lat="45.39643" lon="4.42066">
        <ele>827.09576</ele>
        <time>2013-05-26T14:43:28Z</time>
      </trkpt>
      <trkpt lat="45.39624" lon="4.42059">
        <ele>827.3474</ele>
        <time>2013-05-26T14:43:38Z</time>
      </trkpt>
      <trkpt lat="45.39606" lon="4.42053">
        <ele>827.7091</ele>
        <time>2013-05-26T14:43:48Z</time>
      </trkpt>
      <trkpt lat="45.39588" lon="4.42048">
        <ele>829.1923</ele>
        <time>2013-05-26T14:43:58Z</time>
      </trkpt>
      <trkpt lat="45.39569" lon="4.42048">
        <ele>830.2641</ele>
        <time>2013-05-26T14:44:09Z</time>
      </trkpt>
      <trkpt lat="45.39551" lon="4.42062">
        <ele>831.26086</ele>
        <time>2013-05-26T14:44:20Z</time>
      </trkpt>
      <trkpt lat="45.39541" lon="4.42085">
        <ele>832.14453</ele>
        <time>2013-05-26T14:44:30Z</time>
      </trkpt>
      <trkpt lat="45.39529" lon="4.42104">
        <ele>834.2582</ele>
        <time>2013-05-26T14:44:40Z</time>
      </trkpt>
      <trkpt lat="45.39515" lon="4.4212">
        <ele>836.7595</ele>
        <time>2013-05-26T14:44:51Z</time>
      </trkpt>
      <trkpt lat="45.39496" lon="4.42127">
        <ele>839.9005</ele>
        <time>2013-05-26T14:45:02Z</time>
      </trkpt>
      <trkpt lat="45.39477" lon="4.4213">
        <ele>841.2673</ele>
        <time>2013-05-26T14:45:12Z</time>
      </trkpt>
      <trkpt lat="45.39457" lon="4.42133">
        <ele>844.0931</ele>
        <time>2013-05-26T14:45:23Z</time>
      </trkpt>
      <trkpt lat="45.39439" lon="4.42139">
        <ele>846.9191</ele>
        <time>2013-05-26T14:45:33Z</time>
      </trkpt>
      <trkpt lat="45.39423" lon="4.42152">
        <ele>848.08545</ele>
        <time>2013-05-26T14:45:43Z</time>
      </trkpt>
      <trkpt lat="45.39404" lon="4.42155">
        <ele>849.01385</ele>
        <time>2013-05-26T14:45:53Z</time>
      </trkpt>
      <trkpt lat="45.39386" lon="4.42152">
        <ele>849.5122</ele>
        <time>2013-05-26T14:46:02Z</time>
      </trkpt>
      <trkpt lat="45.39368" lon="4.4215">
        <ele>850.0616</ele>
        <time>2013-05-26T14:46:12Z</time>
      </trkpt>
      <trkpt lat="45.39348" lon="4.42151">
        <ele>852.10004</ele>
        <time>2013-05-26T14:46:22Z</time>
      </trkpt>
      <trkpt lat="45.39331" lon="4.42163">
        <ele>852.35095</ele>
        <time>2013-05-26T14:46:32Z</time>
      </trkpt>
      <trkpt lat="45.39321" lon="4.42188">
        <ele>852.99176</ele>
        <time>2013-05-26T14:46:42Z</time>
      </trkpt>
      <trkpt lat="45.39318" lon="4.42213">
        <ele>853.1538</ele>
        <time>2013-05-26T14:46:51Z</time>
      </trkpt>
      <trkpt lat="45.39316" lon="4.42241">
        <ele>853.6084</ele>
        <time>2013-05-26T14:47:01Z</time>
      </trkpt>
      <trkpt lat="45.39313" lon="4.42267">
        <ele>853.8664</ele>
        <time>2013-05-26T14:47:11Z</time>
      </trkpt>
      <trkpt lat="45.39312" lon="4.42293">
        <ele>856.11414</ele>
        <time>2013-05-26T14:47:21Z</time>
      </trkpt>
      <trkpt lat="45.39309" lon="4.42321">
        <ele>859.3422</ele>
        <time>2013-05-26T14:47:32Z</time>
      </trkpt>
      <trkpt lat="45.39307" lon="4.42347">
        <ele>862.08545</ele>
        <time>2013-05-26T14:47:43Z</time>
      </trkpt>
      <trkpt lat="45.39305" lon="4.42375">
        <ele>865.11053</ele>
        <time>2013-05-26T14:47:54Z</time>
      </trkpt>
      <trkpt lat="45.39301" lon="4.424">
        <ele>866.1772</ele>
        <time>2013-05-26T14:48:04Z</time>
      </trkpt>
      <trkpt lat="45.39293" lon="4.42423">
        <ele>869.02203</ele>
        <time>2013-05-26T14:48:14Z</time>
      </trkpt>
      <trkpt lat="45.39282" lon="4.42445">
        <ele>873.3414</ele>
        <time>2013-05-26T14:48:25Z</time>
      </trkpt>
      <trkpt lat="45.3927" lon="4.42466">
        <ele>873.8781</ele>
        <time>2013-05-26T14:48:36Z</time>
      </trkpt>
      <trkpt lat="45.39259" lon="4.42487">
        <ele>873.7929</ele>
        <time>2013-05-26T14:48:46Z</time>
      </trkpt>
      <trkpt lat="45.3925" lon="4.42512">
        <ele>875.06116</ele>
        <time>2013-05-26T14:48:57Z</time>
      </trkpt>
      <trkpt lat="45.39242" lon="4.42537">
        <ele>876.3615</ele>
        <time>2013-05-26T14:49:08Z</time>
      </trkpt>
      <trkpt lat="45.39242" lon="4.42566">
        <ele>868.5851</ele>
        <time>2013-05-26T14:53:23Z</time>
      </trkpt>
      <trkpt lat="45.39239" lon="4.42594">
        <ele>872.6865</ele>
        <time>2013-05-26T14:53:33Z</time>
      </trkpt>
      <trkpt lat="45.39241" lon="4.4262">
        <ele>873.5682</ele>
        <time>2013-05-26T14:53:43Z</time>
      </trkpt>
      <trkpt lat="45.39239" lon="4.42648">
        <ele>877.18066</ele>
        <time>2013-05-26T14:53:54Z</time>
      </trkpt>
      <trkpt lat="45.39239" lon="4.42674">
        <ele>878.08167</ele>
        <time>2013-05-26T14:54:03Z</time>
      </trkpt>
      <trkpt lat="45.39238" lon="4.42701">
        <ele>879.0517</ele>
        <time>2013-05-26T14:54:13Z</time>
      </trkpt>
      <trkpt lat="45.39237" lon="4.42728">
        <ele>881.6318</ele>
        <time>2013-05-26T14:54:24Z</time>
      </trkpt>
      <trkpt lat="45.39236" lon="4.42754">
        <ele>882.42365</ele>
        <time>2013-05-26T14:54:34Z</time>
      </trkpt>
      <trkpt lat="45.39234" lon="4.4278">
        <ele>883.7702</ele>
        <time>2013-05-26T14:54:44Z</time>
      </trkpt>
      <trkpt lat="45.39233" lon="4.42808">
        <ele>884.64636</ele>
        <time>2013-05-26T14:54:54Z</time>
      </trkpt>
      <trkpt lat="45.39227" lon="4.42834">
        <ele>884.82745</ele>
        <time>2013-05-26T14:55:04Z</time>
      </trkpt>
      <trkpt lat="45.39217" lon="4.42858">
        <ele>886.8103</ele>
        <time>2013-05-26T14:55:14Z</time>
      </trkpt>
      <trkpt lat="45.39207" lon="4.4288">
        <ele>888.06726</ele>
        <time>2013-05-26T14:55:24Z</time>
      </trkpt>
      <trkpt lat="45.39199" lon="4.42904">
        <ele>889.1775</ele>
        <time>2013-05-26T14:55:34Z</time>
      </trkpt>
      <trkpt lat="45.39194" lon="4.42929">
        <ele>890.2137</ele>
        <time>2013-05-26T14:55:44Z</time>
      </trkpt>
      <trkpt lat="45.39191" lon="4.42955">
        <ele>890.52094</ele>
        <time>2013-05-26T14:55:54Z</time>
      </trkpt>
      <trkpt lat="45.39188" lon="4.42982">
        <ele>891.4734</ele>
        <time>2013-05-26T14:56:04Z</time>
      </trkpt>
      <trkpt lat="45.39186" lon="4.43008">
        <ele>892.62946</ele>
        <time>2013-05-26T14:56:14Z</time>
      </trkpt>
      <trkpt lat="45.39184" lon="4.43036">
        <ele>893.9528</ele>
        <time>2013-05-26T14:56:24Z</time>
      </trkpt>
      <trkpt lat="45.39181" lon="4.43063">
        <ele>895.2297</ele>
        <time>2013-05-26T14:56:34Z</time>
      </trkpt>
      <trkpt lat="45.39176" lon="4.43089">
        <ele>896.1378</ele>
        <time>2013-05-26T14:56:44Z</time>
      </trkpt>
      <trkpt lat="45.39169" lon="4.43113">
        <ele>897.1973</ele>
        <time>2013-05-26T14:56:54Z</time>
      </trkpt>
      <trkpt lat="45.39161" lon="4.43137">
        <ele>899.32654</ele>
        <time>2013-05-26T14:57:04Z</time>
      </trkpt>
      <trkpt lat="45.39152" lon="4.43162">
        <ele>902.2326</ele>
        <time>2013-05-26T14:57:15Z</time>
      </trkpt>
      <trkpt lat="45.39144" lon="4.43186">
        <ele>903.6583</ele>
        <time>2013-05-26T14:57:26Z</time>
      </trkpt>
      <trkpt lat="45.39134" lon="4.43211">
        <ele>904.9318</ele>
        <time>2013-05-26T14:57:37Z</time>
      </trkpt>
      <trkpt lat="45.39131" lon="4.43237">
        <ele>903.22626</ele>
        <time>2013-05-26T14:57:47Z</time>
      </trkpt>
      <trkpt lat="45.39131" lon="4.43264">
        <ele>899.84906</ele>
        <time>2013-05-26T14:57:57Z</time>
      </trkpt>
      <trkpt lat="45.39131" lon="4.43291">
        <ele>900.8513</ele>
        <time>2013-05-26T14:58:08Z</time>
      </trkpt>
      <trkpt lat="45.39136" lon="4.43317">
        <ele>901.8899</ele>
        <time>2013-05-26T14:58:19Z</time>
      </trkpt>
      <trkpt lat="45.39145" lon="4.43342">
        <ele>904.8669</ele>
        <time>2013-05-26T14:58:30Z</time>
      </trkpt>
      <trkpt lat="45.39155" lon="4.43364">
        <ele>903.40546</ele>
        <time>2013-05-26T14:58:39Z</time>
      </trkpt>
      <trkpt lat="45.39163" lon="4.43388">
        <ele>905.02673</ele>
        <time>2013-05-26T14:58:49Z</time>
      </trkpt>
      <trkpt lat="45.39168" lon="4.43412">
        <ele>902.43494</ele>
        <time>2013-05-26T14:58:59Z</time>
      </trkpt>
      <trkpt lat="45.39172" lon="4.43438">
        <ele>901.3998</ele>
        <time>2013-05-26T14:59:10Z</time>
      </trkpt>
      <trkpt lat="45.39175" lon="4.43464">
        <ele>903.9511</ele>
        <time>2013-05-26T14:59:21Z</time>
      </trkpt>
      <trkpt lat="45.39176" lon="4.43491">
        <ele>911.16345</ele>
        <time>2013-05-26T14:59:32Z</time>
      </trkpt>
      <trkpt lat="45.39178" lon="4.43518">
        <ele>913.34607</ele>
        <time>2013-05-26T14:59:41Z</time>
      </trkpt>
      <trkpt lat="45.39174" lon="4.43544">
        <ele>916.14795</ele>
        <time>2013-05-26T14:59:51Z</time>
      </trkpt>
      <trkpt lat="45.39163" lon="4.43567">
        <ele>916.63885</ele>
        <time>2013-05-26T15:00:03Z</time>
      </trkpt>
      <trkpt lat="45.39148" lon="4.43584">
        <ele>917.4884</ele>
        <time>2013-05-26T15:00:14Z</time>
      </trkpt>
      <trkpt lat="45.3913" lon="4.43592">
        <ele>919.85236</ele>
        <time>2013-05-26T15:00:26Z</time>
      </trkpt>
      <trkpt lat="45.39111" lon="4.436">
        <ele>922.11914</ele>
        <time>2013-05-26T15:00:37Z</time>
      </trkpt>
      <trkpt lat="45.39094" lon="4.43606">
        <ele>924.41547</ele>
        <time>2013-05-26T15:00:47Z</time>
      </trkpt>
      <trkpt lat="45.39076" lon="4.43615">
        <ele>922.70404</ele>
        <time>2013-05-26T15:00:59Z</time>
      </trkpt>
      <trkpt lat="45.39056" lon="4.43617">
        <ele>922.01056</ele>
        <time>2013-05-26T15:01:11Z</time>
      </trkpt>
      <trkpt lat="45.39038" lon="4.43617">
        <ele>921.87836</ele>
        <time>2013-05-26T15:01:24Z</time>
      </trkpt>
      <trkpt lat="45.39019" lon="4.43616">
        <ele>924.5053</ele>
        <time>2013-05-26T15:01:37Z</time>
      </trkpt>
      <trkpt lat="45.38969" lon="4.436">
        <ele>928.3811</ele>
        <time>2013-05-26T15:02:12Z</time>
      </trkpt>
      <trkpt lat="45.38964" lon="4.43624">
        <ele>932.3248</ele>
        <time>2013-05-26T15:03:15Z</time>
      </trkpt>
      <trkpt lat="45.38946" lon="4.43634">
        <ele>932.15875</ele>
        <time>2013-05-26T15:03:46Z</time>
      </trkpt>
      <trkpt lat="45.38927" lon="4.43639">
        <ele>934.31067</ele>
        <time>2013-05-26T15:03:57Z</time>
      </trkpt>
      <trkpt lat="45.38908" lon="4.4364">
        <ele>933.7919</ele>
        <time>2013-05-26T15:04:07Z</time>
      </trkpt>
      <trkpt lat="45.38889" lon="4.43637">
        <ele>935.3948</ele>
        <time>2013-05-26T15:04:18Z</time>
      </trkpt>
      <trkpt lat="45.3887" lon="4.43635">
        <ele>937.7833</ele>
        <time>2013-05-26T15:04:29Z</time>
      </trkpt>
      <trkpt lat="45.38852" lon="4.43626">
        <ele>939.0097</ele>
        <time>2013-05-26T15:04:40Z</time>
      </trkpt>
      <trkpt lat="45.38834" lon="4.43619">
        <ele>939.56866</ele>
        <time>2013-05-26T15:04:53Z</time>
      </trkpt>
      <trkpt lat="45.38815" lon="4.43613">
        <ele>939.65686</ele>
        <time>2013-05-26T15:05:03Z</time>
      </trkpt>
      <trkpt lat="45.38797" lon="4.4361">
        <ele>938.08325</ele>
        <time>2013-05-26T15:05:13Z</time>
      </trkpt>
      <trkpt lat="45.38778" lon="4.43613">
        <ele>938.8828</ele>
        <time>2013-05-26T15:05:23Z</time>
      </trkpt>
      <trkpt lat="45.38759" lon="4.43621">
        <ele>940.24884</ele>
        <time>2013-05-26T15:05:34Z</time>
      </trkpt>
      <trkpt lat="45.38743" lon="4.43636">
        <ele>941.459</ele>
        <time>2013-05-26T15:05:45Z</time>
      </trkpt>
      <trkpt lat="45.38729" lon="4.43653">
        <ele>945.2107</ele>
        <time>2013-05-26T15:05:55Z</time>
      </trkpt>
      <trkpt lat="45.38715" lon="4.43672">
        <ele>944.6958</ele>
        <time>2013-05-26T15:06:06Z</time>
      </trkpt>
      <trkpt lat="45.38702" lon="4.4369">
        <ele>946.41223</ele>
        <time>2013-05-26T15:06:16Z</time>
      </trkpt>
      <trkpt lat="45.38686" lon="4.43707">
        <ele>946.75775</ele>
        <time>2013-05-26T15:06:27Z</time>
      </trkpt>
      <trkpt lat="45.38671" lon="4.43721">
        <ele>948.6418</ele>
        <time>2013-05-26T15:06:38Z</time>
      </trkpt>
      <trkpt lat="45.3861" lon="4.4374">
        <ele>950.3647</ele>
        <time>2013-05-26T15:07:12Z</time>
      </trkpt>
      <trkpt lat="45.3859" lon="4.43741">
        <ele>957.391</ele>
        <time>2013-05-26T15:07:23Z</time>
      </trkpt>
      <trkpt lat="45.38571" lon="4.43741">
        <ele>961.71234</ele>
        <time>2013-05-26T15:07:33Z</time>
      </trkpt>
      <trkpt lat="45.38551" lon="4.43745">
        <ele>959.4702</ele>
        <time>2013-05-26T15:07:45Z</time>
      </trkpt>
      <trkpt lat="45.38533" lon="4.43747">
        <ele>959.48474</ele>
        <time>2013-05-26T15:07:57Z</time>
      </trkpt>
      <trkpt lat="45.38514" lon="4.4375">
        <ele>960.86536</ele>
        <time>2013-05-26T15:08:09Z</time>
      </trkpt>
      <trkpt lat="45.38496" lon="4.43752">
        <ele>960.63074</ele>
        <time>2013-05-26T15:08:19Z</time>
      </trkpt>
      <trkpt lat="45.38476" lon="4.43754">
        <ele>961.28906</ele>
        <time>2013-05-26T15:08:30Z</time>
      </trkpt>
      <trkpt lat="45.38458" lon="4.43758">
        <ele>961.7869</ele>
        <time>2013-05-26T15:08:41Z</time>
      </trkpt>
      <trkpt lat="45.3844" lon="4.4376">
        <ele>963.7451</ele>
        <time>2013-05-26T15:08:51Z</time>
      </trkpt>
      <trkpt lat="45.38421" lon="4.43766">
        <ele>965.15155</ele>
        <time>2013-05-26T15:09:02Z</time>
      </trkpt>
      <trkpt lat="45.38403" lon="4.43773">
        <ele>966.6759</ele>
        <time>2013-05-26T15:09:13Z</time>
      </trkpt>
      <trkpt lat="45.38386" lon="4.43781">
        <ele>968.4443</ele>
        <time>2013-05-26T15:09:24Z</time>
      </trkpt>
      <trkpt lat="45.38367" lon="4.43792">
        <ele>970.7055</ele>
        <time>2013-05-26T15:09:34Z</time>
      </trkpt>
      <trkpt lat="45.3835" lon="4.43805">
        <ele>969.5339</ele>
        <time>2013-05-26T15:09:46Z</time>
      </trkpt>
      <trkpt lat="45.38334" lon="4.43819">
        <ele>970.3856</ele>
        <time>2013-05-26T15:09:56Z</time>
      </trkpt>
      <trkpt lat="45.38317" lon="4.43831">
        <ele>973.8552</ele>
        <time>2013-05-26T15:10:06Z</time>
      </trkpt>
      <trkpt lat="45.38301" lon="4.43844">
        <ele>976.04584</ele>
        <time>2013-05-26T15:10:17Z</time>
      </trkpt>
      <trkpt lat="45.38284" lon="4.43858">
        <ele>976.58954</ele>
        <time>2013-05-26T15:10:27Z</time>
      </trkpt>
      <trkpt lat="45.38268" lon="4.43871">
        <ele>977.20776</ele>
        <time>2013-05-26T15:10:37Z</time>
      </trkpt>
      <trkpt lat="45.38252" lon="4.43884">
        <ele>978.0662</ele>
        <time>2013-05-26T15:10:47Z</time>
      </trkpt>
      <trkpt lat="45.38234" lon="4.43885">
        <ele>978.8614</ele>
        <time>2013-05-26T15:11:00Z</time>
      </trkpt>
      <trkpt lat="45.382" lon="4.43882">
        <ele>979.77484</ele>
        <time>2013-05-26T15:12:12Z</time>
      </trkpt>
      <trkpt lat="45.38182" lon="4.4388">
        <ele>982.5919</ele>
        <time>2013-05-26T15:12:22Z</time>
      </trkpt>
      <trkpt lat="45.38164" lon="4.43878">
        <ele>984.83813</ele>
        <time>2013-05-26T15:12:32Z</time>
      </trkpt>
      <trkpt lat="45.38145" lon="4.43877">
        <ele>988.40924</ele>
        <time>2013-05-26T15:12:41Z</time>
      </trkpt>
      <trkpt lat="45.38127" lon="4.43876">
        <ele>987.7034</ele>
        <time>2013-05-26T15:12:51Z</time>
      </trkpt>
      <trkpt lat="45.38107" lon="4.43877">
        <ele>983.8136</ele>
        <time>2013-05-26T15:13:02Z</time>
      </trkpt>
      <trkpt lat="45.38089" lon="4.43878">
        <ele>983.8376</ele>
        <time>2013-05-26T15:13:13Z</time>
      </trkpt>
      <trkpt lat="45.38071" lon="4.43882">
        <ele>985.9452</ele>
        <time>2013-05-26T15:13:23Z</time>
      </trkpt>
      <trkpt lat="45.38053" lon="4.43888">
        <ele>986.5715</ele>
        <time>2013-05-26T15:13:33Z</time>
      </trkpt>
      <trkpt lat="45.38035" lon="4.43896">
        <ele>985.91583</ele>
        <time>2013-05-26T15:13:43Z</time>
      </trkpt>
      <trkpt lat="45.38018" lon="4.43906">
        <ele>982.7467</ele>
        <time>2013-05-26T15:13:55Z</time>
      </trkpt>
      <trkpt lat="45.38001" lon="4.43917">
        <ele>982.3938</ele>
        <time>2013-05-26T15:14:06Z</time>
      </trkpt>
      <trkpt lat="45.37984" lon="4.43928">
        <ele>986.5707</ele>
        <time>2013-05-26T15:14:16Z</time>
      </trkpt>
      <trkpt lat="45.37969" lon="4.43945">
        <ele>989.5618</ele>
        <time>2013-05-26T15:14:26Z</time>
      </trkpt>
      <trkpt lat="45.37957" lon="4.43965">
        <ele>989.98346</ele>
        <time>2013-05-26T15:14:36Z</time>
      </trkpt>
      <trkpt lat="45.37944" lon="4.43985">
        <ele>992.8599</ele>
        <time>2013-05-26T15:14:47Z</time>
      </trkpt>
      <trkpt lat="45.3793" lon="4.44004">
        <ele>994.2144</ele>
        <time>2013-05-26T15:14:57Z</time>
      </trkpt>
      <trkpt lat="45.37917" lon="4.44024">
        <ele>994.02637</ele>
        <time>2013-05-26T15:15:07Z</time>
      </trkpt>
      <trkpt lat="45.37903" lon="4.44039">
        <ele>995.4892</ele>
        <time>2013-05-26T15:15:17Z</time>
      </trkpt>
      <trkpt lat="45.37889" lon="4.44057">
        <ele>998.02374</ele>
        <time>2013-05-26T15:15:28Z</time>
      </trkpt>
      <trkpt lat="45.37876" lon="4.44075">
        <ele>995.72815</ele>
        <time>2013-05-26T15:15:38Z</time>
      </trkpt>
      <trkpt lat="45.37861" lon="4.4409">
        <ele>994.33765</ele>
        <time>2013-05-26T15:15:48Z</time>
      </trkpt>
      <trkpt lat="45.37846" lon="4.44104">
        <ele>996.3659</ele>
        <time>2013-05-26T15:16:00Z</time>
      </trkpt>
      <trkpt lat="45.3783" lon="4.44118">
        <ele>996.6162</ele>
        <time>2013-05-26T15:16:09Z</time>
      </trkpt>
      <trkpt lat="45.37813" lon="4.4413">
        <ele>999.23846</ele>
        <time>2013-05-26T15:16:19Z</time>
      </trkpt>
      <trkpt lat="45.37796" lon="4.4414">
        <ele>1000.6476</ele>
        <time>2013-05-26T15:16:30Z</time>
      </trkpt>
      <trkpt lat="45.37779" lon="4.4415">
        <ele>1001.1746</ele>
        <time>2013-05-26T15:16:40Z</time>
      </trkpt>
      <trkpt lat="45.37763" lon="4.44162">
        <ele>998.84</ele>
        <time>2013-05-26T15:16:51Z</time>
      </trkpt>
      <trkpt lat="45.37745" lon="4.44174">
        <ele>998.4492</ele>
        <time>2013-05-26T15:17:02Z</time>
      </trkpt>
      <trkpt lat="45.37728" lon="4.44183">
        <ele>1004.2525</ele>
        <time>2013-05-26T15:17:12Z</time>
      </trkpt>
      <trkpt lat="45.3771" lon="4.44194">
        <ele>1002.96906</ele>
        <time>2013-05-26T15:17:22Z</time>
      </trkpt>
      <trkpt lat="45.37692" lon="4.44202">
        <ele>1006.31775</ele>
        <time>2013-05-26T15:17:31Z</time>
      </trkpt>
      <trkpt lat="45.37675" lon="4.44212">
        <ele>1008.1981</ele>
        <time>2013-05-26T15:17:41Z</time>
      </trkpt>
      <trkpt lat="45.37657" lon="4.44221">
        <ele>1009.35895</ele>
        <time>2013-05-26T15:17:51Z</time>
      </trkpt>
      <trkpt lat="45.37644" lon="4.44205">
        <ele>1007.9169</ele>
        <time>2013-05-26T15:18:00Z</time>
      </trkpt>
      <trkpt lat="45.37626" lon="4.44188">
        <ele>1010.9843</ele>
        <time>2013-05-26T15:18:07Z</time>
      </trkpt>
      <trkpt lat="45.37609" lon="4.44179">
        <ele>1011.77075</ele>
        <time>2013-05-26T15:18:14Z</time>
      </trkpt>
      <trkpt lat="45.3759" lon="4.44178">
        <ele>1011.4394</ele>
        <time>2013-05-26T15:18:23Z</time>
      </trkpt>
      <trkpt lat="45.3757" lon="4.44185">
        <ele>1017.47217</ele>
        <time>2013-05-26T15:19:24Z</time>
      </trkpt>
      <trkpt lat="45.37553" lon="4.44195">
        <ele>1016.60596</ele>
        <time>2013-05-26T15:19:34Z</time>
      </trkpt>
      <trkpt lat="45.37536" lon="4.44211">
        <ele>1016.2293</ele>
        <time>2013-05-26T15:19:43Z</time>
      </trkpt>
      <trkpt lat="45.37523" lon="4.4423">
        <ele>1020.363</ele>
        <time>2013-05-26T15:19:53Z</time>
      </trkpt>
      <trkpt lat="45.3751" lon="4.4425">
        <ele>1024.8843</ele>
        <time>2013-05-26T15:20:03Z</time>
      </trkpt>
      <trkpt lat="45.37498" lon="4.44269">
        <ele>1025.2062</ele>
        <time>2013-05-26T15:20:14Z</time>
      </trkpt>
      <trkpt lat="45.37483" lon="4.44287">
        <ele>1026.8696</ele>
        <time>2013-05-26T15:20:23Z</time>
      </trkpt>
      <trkpt lat="45.37468" lon="4.44305">
        <ele>1027.2872</ele>
        <time>2013-05-26T15:20:32Z</time>
      </trkpt>
      <trkpt lat="45.37451" lon="4.44318">
        <ele>1029.1595</ele>
        <time>2013-05-26T15:20:41Z</time>
      </trkpt>
      <trkpt lat="45.37432" lon="4.44326">
        <ele>1031.3218</ele>
        <time>2013-05-26T15:20:51Z</time>
      </trkpt>
      <trkpt lat="45.37414" lon="4.44329">
        <ele>1030.6477</ele>
        <time>2013-05-26T15:21:01Z</time>
      </trkpt>
      <trkpt lat="45.37395" lon="4.44325">
        <ele>1029.5905</ele>
        <time>2013-05-26T15:21:12Z</time>
      </trkpt>
      <trkpt lat="45.37375" lon="4.44319">
        <ele>1032.1023</ele>
        <time>2013-05-26T15:21:22Z</time>
      </trkpt>
      <trkpt lat="45.37357" lon="4.4431">
        <ele>1034.8798</ele>
        <time>2013-05-26T15:21:33Z</time>
      </trkpt>
      <trkpt lat="45.37341" lon="4.44299">
        <ele>1037.7365</ele>
        <time>2013-05-26T15:21:45Z</time>
      </trkpt>
      <trkpt lat="45.37323" lon="4.44289">
        <ele>1035.791</ele>
        <time>2013-05-26T15:21:58Z</time>
      </trkpt>
      <trkpt lat="45.37306" lon="4.44281">
        <ele>1037.6486</ele>
        <time>2013-05-26T15:22:10Z</time>
      </trkpt>
      <trkpt lat="45.37287" lon="4.44279">
        <ele>1038.6876</ele>
        <time>2013-05-26T15:22:20Z</time>
      </trkpt>
      <trkpt lat="45.37268" lon="4.44278">
        <ele>1040.0789</ele>
        <time>2013-05-26T15:22:31Z</time>
      </trkpt>
      <trkpt lat="45.37249" lon="4.44283">
        <ele>1041.2986</ele>
        <time>2013-05-26T15:22:42Z</time>
      </trkpt>
      <trkpt lat="45.3723" lon="4.44288">
        <ele>1039.7753</ele>
        <time>2013-05-26T15:22:53Z</time>
      </trkpt>
      <trkpt lat="45.37211" lon="4.44293">
        <ele>1039.2106</ele>
        <time>2013-05-26T15:23:05Z</time>
      </trkpt>
      <trkpt lat="45.37191" lon="4.44297">
        <ele>1035.642</ele>
        <time>2013-05-26T15:23:18Z</time>
      </trkpt>
      <trkpt lat="45.37171" lon="4.443">
        <ele>1037.98</ele>
        <time>2013-05-26T15:23:29Z</time>
      </trkpt>
      <trkpt lat="45.37152" lon="4.44308">
        <ele>1042.0251</ele>
        <time>2013-05-26T15:23:39Z</time>
      </trkpt>
      <trkpt lat="45.37134" lon="4.44315">
        <ele>1043.1252</ele>
        <time>2013-05-26T15:23:49Z</time>
      </trkpt>
      <trkpt lat="45.37115" lon="4.44322">
        <ele>1047.6726</ele>
        <time>2013-05-26T15:24:01Z</time>
      </trkpt>
      <trkpt lat="45.37096" lon="4.44329">
        <ele>1049.7965</ele>
        <time>2013-05-26T15:24:10Z</time>
      </trkpt>
      <trkpt lat="45.37076" lon="4.44333">
        <ele>1051.6892</ele>
        <time>2013-05-26T15:24:20Z</time>
      </trkpt>
      <trkpt lat="45.37058" lon="4.44337">
        <ele>1052.2098</ele>
        <time>2013-05-26T15:24:30Z</time>
      </trkpt>
      <trkpt lat="45.37039" lon="4.44337">
        <ele>1051.4806</ele>
        <time>2013-05-26T15:25:37Z</time>
      </trkpt>
      <trkpt lat="45.37019" lon="4.44336">
        <ele>1052.363</ele>
        <time>2013-05-26T15:25:47Z</time>
      </trkpt>
      <trkpt lat="45.37" lon="4.44334">
        <ele>1055.1434</ele>
        <time>2013-05-26T15:25:57Z</time>
      </trkpt>
      <trkpt lat="45.36981" lon="4.44326">
        <ele>1058.6516</ele>
        <time>2013-05-26T15:26:07Z</time>
      </trkpt>
      <trkpt lat="45.36963" lon="4.4432">
        <ele>1060.5529</ele>
        <time>2013-05-26T15:26:17Z</time>
      </trkpt>
      <trkpt lat="45.36946" lon="4.44311">
        <ele>1064.282</ele>
        <time>2013-05-26T15:26:28Z</time>
      </trkpt>
      <trkpt lat="45.36929" lon="4.44299">
        <ele>1067.1246</ele>
        <time>2013-05-26T15:26:39Z</time>
      </trkpt>
      <trkpt lat="45.36913" lon="4.44284">
        <ele>1067.5566</ele>
        <time>2013-05-26T15:26:50Z</time>
      </trkpt>
      <trkpt lat="45.369" lon="4.44263">
        <ele>1067.8336</ele>
        <time>2013-05-26T15:27:01Z</time>
      </trkpt>
      <trkpt lat="45.36885" lon="4.44246">
        <ele>1071.593</ele>
        <time>2013-05-26T15:27:11Z</time>
      </trkpt>
      <trkpt lat="45.36872" lon="4.44226">
        <ele>1071.7253</ele>
        <time>2013-05-26T15:27:23Z</time>
      </trkpt>
      <trkpt lat="45.36859" lon="4.44205">
        <ele>1074.1608</ele>
        <time>2013-05-26T15:27:33Z</time>
      </trkpt>
      <trkpt lat="45.36849" lon="4.44183">
        <ele>1076.1858</ele>
        <time>2013-05-26T15:27:44Z</time>
      </trkpt>
      <trkpt lat="45.36838" lon="4.44161">
        <ele>1075.2347</ele>
        <time>2013-05-26T15:27:55Z</time>
      </trkpt>
      <trkpt lat="45.36832" lon="4.44136">
        <ele>1076.7542</ele>
        <time>2013-05-26T15:28:05Z</time>
      </trkpt>
      <trkpt lat="45.36827" lon="4.4411">
        <ele>1077.2021</ele>
        <time>2013-05-26T15:32:03Z</time>
      </trkpt>
      <trkpt lat="45.36821" lon="4.44086">
        <ele>1078.169</ele>
        <time>2013-05-26T15:32:12Z</time>
      </trkpt>
      <trkpt lat="45.36819" lon="4.44059">
        <ele>1076.3479</ele>
        <time>2013-05-26T15:32:23Z</time>
      </trkpt>
      <trkpt lat="45.36817" lon="4.44033">
        <ele>1078.8861</ele>
        <time>2013-05-26T15:32:34Z</time>
      </trkpt>
      <trkpt lat="45.36817" lon="4.44006">
        <ele>1080.6378</ele>
        <time>2013-05-26T15:32:45Z</time>
      </trkpt>
      <trkpt lat="45.36819" lon="4.43978">
        <ele>1078.779</ele>
        <time>2013-05-26T15:32:55Z</time>
      </trkpt>
      <trkpt lat="45.36817" lon="4.43951">
        <ele>1082.4529</ele>
        <time>2013-05-26T15:33:06Z</time>
      </trkpt>
      <trkpt lat="45.36818" lon="4.43924">
        <ele>1084.2991</ele>
        <time>2013-05-26T15:33:17Z</time>
      </trkpt>
      <trkpt lat="45.36814" lon="4.43899">
        <ele>1084.8773</ele>
        <time>2013-05-26T15:33:26Z</time>
      </trkpt>
      <trkpt lat="45.36813" lon="4.43871">
        <ele>1085.5175</ele>
        <time>2013-05-26T15:33:36Z</time>
      </trkpt>
      <trkpt lat="45.36812" lon="4.43844">
        <ele>1086.8643</ele>
        <time>2013-05-26T15:33:45Z</time>
      </trkpt>
      <trkpt lat="45.36813" lon="4.43817">
        <ele>1080.8938</ele>
        <time>2013-05-26T15:33:55Z</time>
      </trkpt>
      <trkpt lat="45.36808" lon="4.43791">
        <ele>1083.4425</ele>
        <time>2013-05-26T15:34:06Z</time>
      </trkpt>
      <trkpt lat="45.36803" lon="4.43765">
        <ele>1084.6086</ele>
        <time>2013-05-26T15:34:15Z</time>
      </trkpt>
      <trkpt lat="45.36797" lon="4.43738">
        <ele>1086.1376</ele>
        <time>2013-05-26T15:34:25Z</time>
      </trkpt>
      <trkpt lat="45.36788" lon="4.43711">
        <ele>1087.2087</ele>
        <time>2013-05-26T15:34:34Z</time>
      </trkpt>
      <trkpt lat="45.36775" lon="4.43692">
        <ele>1090.8109</ele>
        <time>2013-05-26T15:34:41Z</time>
      </trkpt>
      <trkpt lat="45.3676" lon="4.43674">
        <ele>1092.4795</ele>
        <time>2013-05-26T15:34:48Z</time>
      </trkpt>
      <trkpt lat="45.36742" lon="4.43657">
        <ele>1091.8252</ele>
        <time>2013-05-26T15:34:55Z</time>
      </trkpt>
      <trkpt lat="45.36726" lon="4.43645">
        <ele>1091.4138</ele>
        <time>2013-05-26T15:35:01Z</time>
      </trkpt>
      <trkpt lat="45.36707" lon="4.43641">
        <ele>1094.0979</ele>
        <time>2013-05-26T15:35:07Z</time>
      </trkpt>
      <trkpt lat="45.36688" lon="4.43638">
        <ele>1095.4539</ele>
        <time>2013-05-26T15:35:13Z</time>
      </trkpt>
      <trkpt lat="45.3667" lon="4.43631">
        <ele>1096.317</ele>
        <time>2013-05-26T15:35:19Z</time>
      </trkpt>
      <trkpt lat="45.36649" lon="4.43629">
        <ele>1094.0795</ele>
        <time>2013-05-26T15:35:24Z</time>
      </trkpt>
      <trkpt lat="45.3663" lon="4.43623">
        <ele>1094.5454</ele>
        <time>2013-05-26T15:35:29Z</time>
      </trkpt>
      <trkpt lat="45.36613" lon="4.43611">
        <ele>1096.7554</ele>
        <time>2013-05-26T15:35:35Z</time>
      </trkpt>
      <trkpt lat="45.36594" lon="4.43601">
        <ele>1100.9432</ele>
        <time>2013-05-26T15:35:42Z</time>
      </trkpt>
      <trkpt lat="45.36578" lon="4.43586">
        <ele>1104.0267</ele>
        <time>2013-05-26T15:35:49Z</time>
      </trkpt>
      <trkpt lat="45.3656" lon="4.43575">
        <ele>1105.9695</ele>
        <time>2013-05-26T15:35:56Z</time>
      </trkpt>
      <trkpt lat="45.36548" lon="4.43554">
        <ele>1105.0043</ele>
        <time>2013-05-26T15:36:04Z</time>
      </trkpt>
      <trkpt lat="45.36533" lon="4.43535">
        <ele>1107.3402</ele>
        <time>2013-05-26T15:36:12Z</time>
      </trkpt>
      <trkpt lat="45.3652" lon="4.43516">
        <ele>1108.3691</ele>
        <time>2013-05-26T15:36:20Z</time>
      </trkpt>
      <trkpt lat="45.36506" lon="4.43496">
        <ele>1109.1212</ele>
        <time>2013-05-26T15:36:28Z</time>
      </trkpt>
      <trkpt lat="45.36491" lon="4.43479">
        <ele>1107.9288</ele>
        <time>2013-05-26T15:36:36Z</time>
      </trkpt>
      <trkpt lat="45.36475" lon="4.43466">
        <ele>1106.4982</ele>
        <time>2013-05-26T15:36:43Z</time>
      </trkpt>
      <trkpt lat="45.36458" lon="4.43454">
        <ele>1106.2546</ele>
        <time>2013-05-26T15:36:51Z</time>
      </trkpt>
      <trkpt lat="45.36444" lon="4.43436">
        <ele>1106.339</ele>
        <time>2013-05-26T15:37:00Z</time>
      </trkpt>
      <trkpt lat="45.36425" lon="4.43427">
        <ele>1107.4207</ele>
        <time>2013-05-26T15:37:08Z</time>
      </trkpt>
      <trkpt lat="45.36405" lon="4.43424">
        <ele>1110.1305</ele>
        <time>2013-05-26T15:37:15Z</time>
      </trkpt>
      <trkpt lat="45.36386" lon="4.43423">
        <ele>1112.3188</ele>
        <time>2013-05-26T15:37:22Z</time>
      </trkpt>
      <trkpt lat="45.36367" lon="4.43425">
        <ele>1112.9536</ele>
        <time>2013-05-26T15:37:29Z</time>
      </trkpt>
      <trkpt lat="45.36349" lon="4.43428">
        <ele>1110.5975</ele>
        <time>2013-05-26T15:37:37Z</time>
      </trkpt>
      <trkpt lat="45.36329" lon="4.43432">
        <ele>1111.2838</ele>
        <time>2013-05-26T15:37:44Z</time>
      </trkpt>
      <trkpt lat="45.36311" lon="4.43432">
        <ele>1112.5114</ele>
        <time>2013-05-26T15:38:47Z</time>
      </trkpt>
      <trkpt lat="45.36292" lon="4.43438">
        <ele>1111.1406</ele>
        <time>2013-05-26T15:39:41Z</time>
      </trkpt>
      <trkpt lat="45.36273" lon="4.43441">
        <ele>1109.4994</ele>
        <time>2013-05-26T15:39:47Z</time>
      </trkpt>
      <trkpt lat="45.36253" lon="4.43443">
        <ele>1107.0525</ele>
        <time>2013-05-26T15:39:53Z</time>
      </trkpt>
      <trkpt lat="45.36233" lon="4.43447">
        <ele>1108.7197</ele>
        <time>2013-05-26T15:39:58Z</time>
      </trkpt>
      <trkpt lat="45.36213" lon="4.43449">
        <ele>1109.419</ele>
        <time>2013-05-26T15:40:03Z</time>
      </trkpt>
      <trkpt lat="45.3619" lon="4.43452">
        <ele>1109.114</ele>
        <time>2013-05-26T15:40:08Z</time>
      </trkpt>
      <trkpt lat="45.36172" lon="4.43457">
        <ele>1109.2715</ele>
        <time>2013-05-26T15:40:13Z</time>
      </trkpt>
      <trkpt lat="45.36153" lon="4.43457">
        <ele>1108.1895</ele>
        <time>2013-05-26T15:40:17Z</time>
      </trkpt>
      <trkpt lat="45.36134" lon="4.43458">
        <ele>1106.0173</ele>
        <time>2013-05-26T15:40:21Z</time>
      </trkpt>
      <trkpt lat="45.36114" lon="4.43461">
        <ele>1103.9801</ele>
        <time>2013-05-26T15:40:25Z</time>
      </trkpt>
      <trkpt lat="45.36094" lon="4.43464">
        <ele>1103.3324</ele>
        <time>2013-05-26T15:40:29Z</time>
      </trkpt>
      <trkpt lat="45.36074" lon="4.43466">
        <ele>1102.4055</ele>
        <time>2013-05-26T15:40:33Z</time>
      </trkpt>
      <trkpt lat="45.36055" lon="4.43466">
        <ele>1101.7673</ele>
        <time>2013-05-26T15:40:37Z</time>
      </trkpt>
      <trkpt lat="45.36037" lon="4.43468">
        <ele>1101.7955</ele>
        <time>2013-05-26T15:40:41Z</time>
      </trkpt>
      <trkpt lat="45.36018" lon="4.43471">
        <ele>1101.8135</ele>
        <time>2013-05-26T15:40:45Z</time>
      </trkpt>
      <trkpt lat="45.35998" lon="4.43469">
        <ele>1101.5543</ele>
        <time>2013-05-26T15:40:49Z</time>
      </trkpt>
      <trkpt lat="45.35978" lon="4.43473">
        <ele>1100.4058</ele>
        <time>2013-05-26T15:40:53Z</time>
      </trkpt>
      <trkpt lat="45.35957" lon="4.43475">
        <ele>1100.946</ele>
        <time>2013-05-26T15:40:57Z</time>
      </trkpt>
      <trkpt lat="45.35937" lon="4.43478">
        <ele>1100.8966</ele>
        <time>2013-05-26T15:41:01Z</time>
      </trkpt>
      <trkpt lat="45.35915" lon="4.43481">
        <ele>1098.772</ele>
        <time>2013-05-26T15:41:05Z</time>
      </trkpt>
      <trkpt lat="45.35892" lon="4.43481">
        <ele>1098.0232</ele>
        <time>2013-05-26T15:41:09Z</time>
      </trkpt>
      <trkpt lat="45.35871" lon="4.43482">
        <ele>1098.4128</ele>
        <time>2013-05-26T15:41:13Z</time>
      </trkpt>
      <trkpt lat="45.35848" lon="4.43481">
        <ele>1097.106</ele>
        <time>2013-05-26T15:41:17Z</time>
      </trkpt>
      <trkpt lat="45.35829" lon="4.43483">
        <ele>1096.6947</ele>
        <time>2013-05-26T15:41:20Z</time>
      </trkpt>
      <trkpt lat="45.35809" lon="4.43485">
        <ele>1096.4291</ele>
        <time>2013-05-26T15:41:23Z</time>
      </trkpt>
      <trkpt lat="45.35788" lon="4.43485">
        <ele>1096.1779</ele>
        <time>2013-05-26T15:41:26Z</time>
      </trkpt>
      <trkpt lat="45.35769" lon="4.43486">
        <ele>1095.4297</ele>
        <time>2013-05-26T15:41:29Z</time>
      </trkpt>
      <trkpt lat="45.35748" lon="4.43485">
        <ele>1095.336</ele>
        <time>2013-05-26T15:41:32Z</time>
      </trkpt>
      <trkpt lat="45.35726" lon="4.43484">
        <ele>1094.9261</ele>
        <time>2013-05-26T15:41:35Z</time>
      </trkpt>
      <trkpt lat="45.35704" lon="4.4348">
        <ele>1094.2173</ele>
        <time>2013-05-26T15:41:38Z</time>
      </trkpt>
      <trkpt lat="45.35682" lon="4.43476">
        <ele>1094.062</ele>
        <time>2013-05-26T15:41:41Z</time>
      </trkpt>
      <trkpt lat="45.3566" lon="4.43469">
        <ele>1095.2871</ele>
        <time>2013-05-26T15:41:44Z</time>
      </trkpt>
      <trkpt lat="45.35642" lon="4.43456">
        <ele>1096.4508</ele>
        <time>2013-05-26T15:41:47Z</time>
      </trkpt>
      <trkpt lat="45.35626" lon="4.43442">
        <ele>1094.0167</ele>
        <time>2013-05-26T15:41:50Z</time>
      </trkpt>
      <trkpt lat="45.35604" lon="4.43427">
        <ele>1093.2555</ele>
        <time>2013-05-26T15:41:53Z</time>
      </trkpt>
      <trkpt lat="45.35586" lon="4.43409">
        <ele>1091.1749</ele>
        <time>2013-05-26T15:41:56Z</time>
      </trkpt>
      <trkpt lat="45.35566" lon="4.43393">
        <ele>1089.6364</ele>
        <time>2013-05-26T15:41:59Z</time>
      </trkpt>
      <trkpt lat="45.35547" lon="4.43375">
        <ele>1088.8575</ele>
        <time>2013-05-26T15:42:02Z</time>
      </trkpt>
      <trkpt lat="45.3553" lon="4.43357">
        <ele>1089.9352</ele>
        <time>2013-05-26T15:42:05Z</time>
      </trkpt>
      <trkpt lat="45.35514" lon="4.43337">
        <ele>1090.0758</ele>
        <time>2013-05-26T15:42:08Z</time>
      </trkpt>
      <trkpt lat="45.35501" lon="4.43315">
        <ele>1091.0789</ele>
        <time>2013-05-26T15:42:11Z</time>
      </trkpt>
      <trkpt lat="45.35487" lon="4.43295">
        <ele>1091.2848</ele>
        <time>2013-05-26T15:42:14Z</time>
      </trkpt>
      <trkpt lat="45.35475" lon="4.43274">
        <ele>1091.2311</ele>
        <time>2013-05-26T15:42:17Z</time>
      </trkpt>
      <trkpt lat="45.35465" lon="4.4325">
        <ele>1090.5052</ele>
        <time>2013-05-26T15:42:20Z</time>
      </trkpt>
      <trkpt lat="45.35455" lon="4.43226">
        <ele>1089.5819</ele>
        <time>2013-05-26T15:42:23Z</time>
      </trkpt>
      <trkpt lat="45.35441" lon="4.43204">
        <ele>1088.7736</ele>
        <time>2013-05-26T15:42:26Z</time>
      </trkpt>
      <trkpt lat="45.35427" lon="4.43184">
        <ele>1088.6342</ele>
        <time>2013-05-26T15:42:29Z</time>
      </trkpt>
      <trkpt lat="45.35412" lon="4.43161">
        <ele>1087.7051</ele>
        <time>2013-05-26T15:42:32Z</time>
      </trkpt>
      <trkpt lat="45.35398" lon="4.43136">
        <ele>1087.4459</ele>
        <time>2013-05-26T15:42:35Z</time>
      </trkpt>
      <trkpt lat="45.3539" lon="4.43108">
        <ele>1086.1459</ele>
        <time>2013-05-26T15:42:38Z</time>
      </trkpt>
      <trkpt lat="45.35386" lon="4.43078">
        <ele>1084.9193</ele>
        <time>2013-05-26T15:42:41Z</time>
      </trkpt>
      <trkpt lat="45.35388" lon="4.43046">
        <ele>1083.2598</ele>
        <time>2013-05-26T15:42:44Z</time>
      </trkpt>
      <trkpt lat="45.35389" lon="4.43016">
        <ele>1081.2533</ele>
        <time>2013-05-26T15:42:47Z</time>
      </trkpt>
      <trkpt lat="45.35394" lon="4.42987">
        <ele>1079.8788</ele>
        <time>2013-05-26T15:42:50Z</time>
      </trkpt>
      <trkpt lat="45.35399" lon="4.42959">
        <ele>1078.8801</ele>
        <time>2013-05-26T15:42:53Z</time>
      </trkpt>
      <trkpt lat="45.35402" lon="4.42932">
        <ele>1078.3838</ele>
        <time>2013-05-26T15:42:56Z</time>
      </trkpt>
      <trkpt lat="45.35403" lon="4.42902">
        <ele>1077.4401</ele>
        <time>2013-05-26T15:42:59Z</time>
      </trkpt>
      <trkpt lat="45.35401" lon="4.42872">
        <ele>1077.034</ele>
        <time>2013-05-26T15:43:02Z</time>
      </trkpt>
      <trkpt lat="45.35397" lon="4.42843">
        <ele>1077.2675</ele>
        <time>2013-05-26T15:43:05Z</time>
      </trkpt>
      <trkpt lat="45.35391" lon="4.42818">
        <ele>1076.8754</ele>
        <time>2013-05-26T15:43:08Z</time>
      </trkpt>
      <trkpt lat="45.35384" lon="4.42791">
        <ele>1076.1583</ele>
        <time>2013-05-26T15:43:11Z</time>
      </trkpt>
      <trkpt lat="45.35379" lon="4.42764">
        <ele>1075.6965</ele>
        <time>2013-05-26T15:43:14Z</time>
      </trkpt>
      <trkpt lat="45.35374" lon="4.42734">
        <ele>1075.1532</ele>
        <time>2013-05-26T15:43:17Z</time>
      </trkpt>
      <trkpt lat="45.35369" lon="4.42705">
        <ele>1074.8616</ele>
        <time>2013-05-26T15:43:20Z</time>
      </trkpt>
      <trkpt lat="45.35365" lon="4.42675">
        <ele>1074.5431</ele>
        <time>2013-05-26T15:43:23Z</time>
      </trkpt>
      <trkpt lat="45.35359" lon="4.42646">
        <ele>1073.7025</ele>
        <time>2013-05-26T15:43:26Z</time>
      </trkpt>
      <trkpt lat="45.35352" lon="4.42619">
        <ele>1073.2417</ele>
        <time>2013-05-26T15:43:29Z</time>
      </trkpt>
      <trkpt lat="45.35341" lon="4.42595">
        <ele>1073.4785</ele>
        <time>2013-05-26T15:43:32Z</time>
      </trkpt>
      <trkpt lat="45.3533" lon="4.4257">
        <ele>1073.4862</ele>
        <time>2013-05-26T15:43:35Z</time>
      </trkpt>
      <trkpt lat="45.35321" lon="4.42543">
        <ele>1071.6395</ele>
        <time>2013-05-26T15:43:38Z</time>
      </trkpt>
      <trkpt lat="45.35311" lon="4.42517">
        <ele>1068.401</ele>
        <time>2013-05-26T15:43:41Z</time>
      </trkpt>
      <trkpt lat="45.35303" lon="4.42492">
        <ele>1066.4895</ele>
        <time>2013-05-26T15:43:44Z</time>
      </trkpt>
      <trkpt lat="45.35295" lon="4.42462">
        <ele>1065.1143</ele>
        <time>2013-05-26T15:43:47Z</time>
      </trkpt>
      <trkpt lat="45.35288" lon="4.42435">
        <ele>1064.7357</ele>
        <time>2013-05-26T15:43:50Z</time>
      </trkpt>
      <trkpt lat="45.35276" lon="4.42409">
        <ele>1064.8557</ele>
        <time>2013-05-26T15:43:53Z</time>
      </trkpt>
      <trkpt lat="45.35262" lon="4.42388">
        <ele>1064.9407</ele>
        <time>2013-05-26T15:43:56Z</time>
      </trkpt>
      <trkpt lat="45.35247" lon="4.42372">
        <ele>1064.8281</ele>
        <time>2013-05-26T15:43:59Z</time>
      </trkpt>
      <trkpt lat="45.35227" lon="4.42362">
        <ele>1065.379</ele>
        <time>2013-05-26T15:44:02Z</time>
      </trkpt>
      <trkpt lat="45.35206" lon="4.42351">
        <ele>1064.5521</ele>
        <time>2013-05-26T15:44:05Z</time>
      </trkpt>
      <trkpt lat="45.35184" lon="4.4234">
        <ele>1064.8829</ele>
        <time>2013-05-26T15:44:08Z</time>
      </trkpt>
      <trkpt lat="45.35161" lon="4.4233">
        <ele>1064.2318</ele>
        <time>2013-05-26T15:44:11Z</time>
      </trkpt>
      <trkpt lat="45.35138" lon="4.42321">
        <ele>1064.0557</ele>
        <time>2013-05-26T15:44:14Z</time>
      </trkpt>
      <trkpt lat="45.35114" lon="4.4231">
        <ele>1062.125</ele>
        <time>2013-05-26T15:44:17Z</time>
      </trkpt>
      <trkpt lat="45.3509" lon="4.42303">
        <ele>1060.32</ele>
        <time>2013-05-26T15:44:20Z</time>
      </trkpt>
      <trkpt lat="45.35065" lon="4.42297">
        <ele>1060.9475</ele>
        <time>2013-05-26T15:44:23Z</time>
      </trkpt>
      <trkpt lat="45.35042" lon="4.42284">
        <ele>1060.9607</ele>
        <time>2013-05-26T15:44:26Z</time>
      </trkpt>
      <trkpt lat="45.35021" lon="4.42264">
        <ele>1061.0443</ele>
        <time>2013-05-26T15:44:29Z</time>
      </trkpt>
      <trkpt lat="45.35006" lon="4.42237">
        <ele>1061.5499</ele>
        <time>2013-05-26T15:44:32Z</time>
      </trkpt>
      <trkpt lat="45.34995" lon="4.42203">
        <ele>1060.6492</ele>
        <time>2013-05-26T15:44:35Z</time>
      </trkpt>
      <trkpt lat="45.34977" lon="4.42179">
        <ele>1059.263</ele>
        <time>2013-05-26T15:44:38Z</time>
      </trkpt>
      <trkpt lat="45.34952" lon="4.42171">
        <ele>1058.5953</ele>
        <time>2013-05-26T15:44:41Z</time>
      </trkpt>
      <trkpt lat="45.3493" lon="4.42179">
        <ele>1057.1573</ele>
        <time>2013-05-26T15:44:44Z</time>
      </trkpt>
      <trkpt lat="45.34909" lon="4.42197">
        <ele>1055.7742</ele>
        <time>2013-05-26T15:44:47Z</time>
      </trkpt>
      <trkpt lat="45.34889" lon="4.42212">
        <ele>1054.5704</ele>
        <time>2013-05-26T15:44:50Z</time>
      </trkpt>
      <trkpt lat="45.34869" lon="4.42226">
        <ele>1053.6859</ele>
        <time>2013-05-26T15:44:53Z</time>
      </trkpt>
      <trkpt lat="45.34845" lon="4.42236">
        <ele>1053.13</ele>
        <time>2013-05-26T15:44:56Z</time>
      </trkpt>
      <trkpt lat="45.34821" lon="4.4223">
        <ele>1052.3829</ele>
        <time>2013-05-26T15:44:59Z</time>
      </trkpt>
      <trkpt lat="45.34803" lon="4.4221">
        <ele>1050.2694</ele>
        <time>2013-05-26T15:45:02Z</time>
      </trkpt>
      <trkpt lat="45.34789" lon="4.42184">
        <ele>1048.584</ele>
        <time>2013-05-26T15:45:05Z</time>
      </trkpt>
      <trkpt lat="45.34777" lon="4.42158">
        <ele>1047.901</ele>
        <time>2013-05-26T15:45:08Z</time>
      </trkpt>
      <trkpt lat="45.34767" lon="4.42135">
        <ele>1047.2177</ele>
        <time>2013-05-26T15:45:11Z</time>
      </trkpt>
      <trkpt lat="45.34752" lon="4.42114">
        <ele>1046.604</ele>
        <time>2013-05-26T15:45:15Z</time>
      </trkpt>
      <trkpt lat="45.34736" lon="4.42098">
        <ele>1046.3723</ele>
        <time>2013-05-26T15:45:19Z</time>
      </trkpt>
      <trkpt lat="45.34717" lon="4.42087">
        <ele>1046.2229</ele>
        <time>2013-05-26T15:45:23Z</time>
      </trkpt>
      <trkpt lat="45.34694" lon="4.42086">
        <ele>1045.7927</ele>
        <time>2013-05-26T15:45:27Z</time>
      </trkpt>
      <trkpt lat="45.34671" lon="4.42082">
        <ele>1045.67</ele>
        <time>2013-05-26T15:45:31Z</time>
      </trkpt>
      <trkpt lat="45.34648" lon="4.42079">
        <ele>1044.8502</ele>
        <time>2013-05-26T15:45:35Z</time>
      </trkpt>
      <trkpt lat="45.34625" lon="4.42077">
        <ele>1044.1956</ele>
        <time>2013-05-26T15:45:39Z</time>
      </trkpt>
      <trkpt lat="45.34603" lon="4.42076">
        <ele>1044.2311</ele>
        <time>2013-05-26T15:45:43Z</time>
      </trkpt>
      <trkpt lat="45.34584" lon="4.42074">
        <ele>1044.0725</ele>
        <time>2013-05-26T15:45:46Z</time>
      </trkpt>
      <trkpt lat="45.34563" lon="4.42072">
        <ele>1043.2874</ele>
        <time>2013-05-26T15:45:50Z</time>
      </trkpt>
      <trkpt lat="45.34543" lon="4.42069">
        <ele>1041.9553</ele>
        <time>2013-05-26T15:45:54Z</time>
      </trkpt>
      <trkpt lat="45.34522" lon="4.42068">
        <ele>1040.9652</ele>
        <time>2013-05-26T15:45:58Z</time>
      </trkpt>
      <trkpt lat="45.345" lon="4.4207">
        <ele>1040.7784</ele>
        <time>2013-05-26T15:46:02Z</time>
      </trkpt>
      <trkpt lat="45.34479" lon="4.42069">
        <ele>1041.8167</ele>
        <time>2013-05-26T15:46:06Z</time>
      </trkpt>
      <trkpt lat="45.3446" lon="4.42068">
        <ele>1042.7659</ele>
        <time>2013-05-26T15:46:10Z</time>
      </trkpt>
      <trkpt lat="45.34439" lon="4.42068">
        <ele>1041.406</ele>
        <time>2013-05-26T15:46:15Z</time>
      </trkpt>
      <trkpt lat="45.34416" lon="4.42067">
        <ele>1040.5409</ele>
        <time>2013-05-26T15:46:20Z</time>
      </trkpt>
      <trkpt lat="45.34395" lon="4.42065">
        <ele>1040.0055</ele>
        <time>2013-05-26T15:46:24Z</time>
      </trkpt>
      <trkpt lat="45.34374" lon="4.42062">
        <ele>1039.4408</ele>
        <time>2013-05-26T15:46:28Z</time>
      </trkpt>
      <trkpt lat="45.34353" lon="4.42057">
        <ele>1035.9696</ele>
        <time>2013-05-26T15:46:32Z</time>
      </trkpt>
      <trkpt lat="45.34334" lon="4.42056">
        <ele>1035.0653</ele>
        <time>2013-05-26T15:46:35Z</time>
      </trkpt>
      <trkpt lat="45.34315" lon="4.42056">
        <ele>1034.99</ele>
        <time>2013-05-26T15:46:38Z</time>
      </trkpt>
      <trkpt lat="45.34297" lon="4.42058">
        <ele>1034.1005</ele>
        <time>2013-05-26T15:46:41Z</time>
      </trkpt>
      <trkpt lat="45.34275" lon="4.42066">
        <ele>1033.544</ele>
        <time>2013-05-26T15:46:44Z</time>
      </trkpt>
      <trkpt lat="45.34256" lon="4.42076">
        <ele>1034.042</ele>
        <time>2013-05-26T15:46:47Z</time>
      </trkpt>
      <trkpt lat="45.34239" lon="4.42087">
        <ele>1033.7833</ele>
        <time>2013-05-26T15:46:50Z</time>
      </trkpt>
      <trkpt lat="45.34219" lon="4.42098">
        <ele>1032.5709</ele>
        <time>2013-05-26T15:46:54Z</time>
      </trkpt>
      <trkpt lat="45.34199" lon="4.42093">
        <ele>1031.5564</ele>
        <time>2013-05-26T15:46:58Z</time>
      </trkpt>
      <trkpt lat="45.34179" lon="4.42082">
        <ele>1030.8395</ele>
        <time>2013-05-26T15:47:01Z</time>
      </trkpt>
      <trkpt lat="45.3416" lon="4.42068">
        <ele>1030.151</ele>
        <time>2013-05-26T15:47:04Z</time>
      </trkpt>
      <trkpt lat="45.34138" lon="4.42052">
        <ele>1029.9403</ele>
        <time>2013-05-26T15:47:07Z</time>
      </trkpt>
      <trkpt lat="45.34117" lon="4.42035">
        <ele>1030.3472</ele>
        <time>2013-05-26T15:47:11Z</time>
      </trkpt>
      <trkpt lat="45.34099" lon="4.42025">
        <ele>1029.5454</ele>
        <time>2013-05-26T15:47:15Z</time>
      </trkpt>
      <trkpt lat="45.34076" lon="4.42019">
        <ele>1030.2511</ele>
        <time>2013-05-26T15:47:19Z</time>
      </trkpt>
      <trkpt lat="45.34058" lon="4.42016">
        <ele>1027.7739</ele>
        <time>2013-05-26T15:47:23Z</time>
      </trkpt>
      <trkpt lat="45.34039" lon="4.42012">
        <ele>1027.2859</ele>
        <time>2013-05-26T15:47:28Z</time>
      </trkpt>
      <trkpt lat="45.34021" lon="4.42004">
        <ele>1030.7961</ele>
        <time>2013-05-26T15:47:48Z</time>
      </trkpt>
      <trkpt lat="45.34005" lon="4.42019">
        <ele>1026.4208</ele>
        <time>2013-05-26T15:47:54Z</time>
      </trkpt>
      <trkpt lat="45.33987" lon="4.42031">
        <ele>1024.8108</ele>
        <time>2013-05-26T15:47:58Z</time>
      </trkpt>
      <trkpt lat="45.33973" lon="4.42046">
        <ele>1024.1608</ele>
        <time>2013-05-26T15:48:01Z</time>
      </trkpt>
      <trkpt lat="45.33954" lon="4.42059">
        <ele>1023.85223</ele>
        <time>2013-05-26T15:48:04Z</time>
      </trkpt>
      <trkpt lat="45.33934" lon="4.42083">
        <ele>1023.65173</ele>
        <time>2013-05-26T15:48:07Z</time>
      </trkpt>
      <trkpt lat="45.33918" lon="4.42103">
        <ele>1021.8765</ele>
        <time>2013-05-26T15:48:10Z</time>
      </trkpt>
      <trkpt lat="45.33901" lon="4.4212">
        <ele>1018.7167</ele>
        <time>2013-05-26T15:48:13Z</time>
      </trkpt>
      <trkpt lat="45.33883" lon="4.42141">
        <ele>1016.22266</ele>
        <time>2013-05-26T15:48:16Z</time>
      </trkpt>
      <trkpt lat="45.33867" lon="4.42168">
        <ele>1013.79236</ele>
        <time>2013-05-26T15:48:19Z</time>
      </trkpt>
      <trkpt lat="45.33853" lon="4.42193">
        <ele>1011.8483</ele>
        <time>2013-05-26T15:48:22Z</time>
      </trkpt>
      <trkpt lat="45.33838" lon="4.4222">
        <ele>1008.7032</ele>
        <time>2013-05-26T15:48:25Z</time>
      </trkpt>
      <trkpt lat="45.33822" lon="4.42249">
        <ele>1006.39667</ele>
        <time>2013-05-26T15:48:28Z</time>
      </trkpt>
      <trkpt lat="45.33806" lon="4.42278">
        <ele>1004.1892</ele>
        <time>2013-05-26T15:48:31Z</time>
      </trkpt>
      <trkpt lat="45.33791" lon="4.42306">
        <ele>1000.3142</ele>
        <time>2013-05-26T15:48:34Z</time>
      </trkpt>
      <trkpt lat="45.33776" lon="4.42333">
        <ele>996.62787</ele>
        <time>2013-05-26T15:48:37Z</time>
      </trkpt>
      <trkpt lat="45.33754" lon="4.42356">
        <ele>993.81647</ele>
        <time>2013-05-26T15:48:40Z</time>
      </trkpt>
      <trkpt lat="45.33735" lon="4.42368">
        <ele>992.4835</ele>
        <time>2013-05-26T15:48:43Z</time>
      </trkpt>
      <trkpt lat="45.33717" lon="4.42375">
        <ele>992.179</ele>
        <time>2013-05-26T15:49:10Z</time>
      </trkpt>
      <trkpt lat="45.33696" lon="4.42381">
        <ele>991.7969</ele>
        <time>2013-05-26T15:49:14Z</time>
      </trkpt>
      <trkpt lat="45.33672" lon="4.42385">
        <ele>990.3287</ele>
        <time>2013-05-26T15:49:18Z</time>
      </trkpt>
      <trkpt lat="45.33653" lon="4.42387">
        <ele>989.7684</ele>
        <time>2013-05-26T15:49:21Z</time>
      </trkpt>
      <trkpt lat="45.33632" lon="4.42385">
        <ele>988.62103</ele>
        <time>2013-05-26T15:49:24Z</time>
      </trkpt>
      <trkpt lat="45.33609" lon="4.42381">
        <ele>986.89166</ele>
        <time>2013-05-26T15:49:27Z</time>
      </trkpt>
      <trkpt lat="45.33586" lon="4.42376">
        <ele>984.3496</ele>
        <time>2013-05-26T15:49:30Z</time>
      </trkpt>
      <trkpt lat="45.33563" lon="4.42369">
        <ele>982.08655</ele>
        <time>2013-05-26T15:49:33Z</time>
      </trkpt>
      <trkpt lat="45.33541" lon="4.42363">
        <ele>980.02716</ele>
        <time>2013-05-26T15:49:36Z</time>
      </trkpt>
      <trkpt lat="45.33522" lon="4.42362">
        <ele>978.5552</ele>
        <time>2013-05-26T15:49:39Z</time>
      </trkpt>
      <trkpt lat="45.33512" lon="4.42338">
        <ele>977.0529</ele>
        <time>2013-05-26T15:49:44Z</time>
      </trkpt>
      <trkpt lat="45.33514" lon="4.42311">
        <ele>975.2921</ele>
        <time>2013-05-26T15:49:48Z</time>
      </trkpt>
      <trkpt lat="45.33526" lon="4.42287">
        <ele>974.0601</ele>
        <time>2013-05-26T15:49:54Z</time>
      </trkpt>
      <trkpt lat="45.33544" lon="4.42275">
        <ele>973.7782</ele>
        <time>2013-05-26T15:50:01Z</time>
      </trkpt>
      <trkpt lat="45.33558" lon="4.42257">
        <ele>976.32605</ele>
        <time>2013-05-26T15:50:09Z</time>
      </trkpt>
      <trkpt lat="45.33569" lon="4.42237">
        <ele>978.18427</ele>
        <time>2013-05-26T15:50:19Z</time>
      </trkpt>
    </trkseg>
  </trk>
</gpx>